<?xml version="1.0" encoding="UTF-8" standalone="no" ?>
<gpx xmlns="http://www.topografix.com/GPX/1/1" xmlns:xsi="http://www.w3.org/2001/XMLSchema-instance" xsi:schemaLocation="http://www.topografix.com/GPX/1/1 http://www.topografix.com/GPX/1/1/gpx.xsd" version="1.1" creator="VisuGPX - https://www.visugpx.com">
  <metadata>
    <name>Tour de la Tête de Chien</name>
    <desc><![CDATA[Beau point de vue sur Monaco
Difficulté moyen]]></desc>
  </metadata>
  <trk>
    <name><![CDATA[Tour de la Tête de Chien_1]]></name>
    <trkseg>
      <trkpt lat="43.72673" lon="7.39207">
        <ele>276.4</ele>
        <time>2013-03-12T08:47:32Z</time>
      </trkpt>
      <trkpt lat="43.72673" lon="7.39207">
        <ele>276.4</ele>
        <time>2013-03-12T08:47:37Z</time>
      </trkpt>
      <trkpt lat="43.72673" lon="7.39207">
        <ele>276.4</ele>
        <time>2013-03-12T08:47:42Z</time>
      </trkpt>
      <trkpt lat="43.72673" lon="7.39207">
        <ele>276.4</ele>
        <time>2013-03-12T08:47:47Z</time>
      </trkpt>
      <trkpt lat="43.72673" lon="7.39207">
        <ele>276.4</ele>
        <time>2013-03-12T08:47:52Z</time>
      </trkpt>
      <trkpt lat="43.72673" lon="7.39207">
        <ele>276.4</ele>
        <time>2013-03-12T08:47:57Z</time>
      </trkpt>
      <trkpt lat="43.72673" lon="7.39207">
        <ele>276.4</ele>
        <time>2013-03-12T08:48:02Z</time>
      </trkpt>
      <trkpt lat="43.72673" lon="7.39207">
        <ele>276.4</ele>
        <time>2013-03-12T08:48:07Z</time>
      </trkpt>
      <trkpt lat="43.72673" lon="7.39207">
        <ele>276.4</ele>
        <time>2013-03-12T08:48:12Z</time>
      </trkpt>
      <trkpt lat="43.72673" lon="7.39207">
        <ele>276.4</ele>
        <time>2013-03-12T08:48:17Z</time>
      </trkpt>
      <trkpt lat="43.72673" lon="7.39207">
        <ele>276.4</ele>
        <time>2013-03-12T08:48:22Z</time>
      </trkpt>
      <trkpt lat="43.72673" lon="7.39207">
        <ele>276.4</ele>
        <time>2013-03-12T08:48:27Z</time>
      </trkpt>
      <trkpt lat="43.72673" lon="7.39207">
        <ele>276.4</ele>
        <time>2013-03-12T08:48:33Z</time>
      </trkpt>
      <trkpt lat="43.72673" lon="7.39207">
        <ele>276.4</ele>
        <time>2013-03-12T08:48:37Z</time>
      </trkpt>
      <trkpt lat="43.72673" lon="7.39207">
        <ele>276.4</ele>
        <time>2013-03-12T08:48:43Z</time>
      </trkpt>
      <trkpt lat="43.72673" lon="7.39207">
        <ele>276.4</ele>
        <time>2013-03-12T08:48:48Z</time>
      </trkpt>
      <trkpt lat="43.72673" lon="7.39207">
        <ele>276.4</ele>
        <time>2013-03-12T08:48:52Z</time>
      </trkpt>
      <trkpt lat="43.72673" lon="7.39207">
        <ele>276.4</ele>
        <time>2013-03-12T08:48:58Z</time>
      </trkpt>
      <trkpt lat="43.72673" lon="7.39207">
        <ele>276.4</ele>
        <time>2013-03-12T08:49:02Z</time>
      </trkpt>
      <trkpt lat="43.72673" lon="7.39207">
        <ele>276.4</ele>
        <time>2013-03-12T08:49:07Z</time>
      </trkpt>
      <trkpt lat="43.72673" lon="7.39207">
        <ele>276.4</ele>
        <time>2013-03-12T08:49:12Z</time>
      </trkpt>
      <trkpt lat="43.72673" lon="7.39207">
        <ele>276.4</ele>
        <time>2013-03-12T08:49:23Z</time>
      </trkpt>
      <trkpt lat="43.72673" lon="7.39207">
        <ele>276.4</ele>
        <time>2013-03-12T08:49:27Z</time>
      </trkpt>
      <trkpt lat="43.72673" lon="7.39207">
        <ele>276.4</ele>
        <time>2013-03-12T08:49:33Z</time>
      </trkpt>
      <trkpt lat="43.72673" lon="7.39207">
        <ele>276.4</ele>
        <time>2013-03-12T08:49:37Z</time>
      </trkpt>
      <trkpt lat="43.72673" lon="7.39207">
        <ele>276.4</ele>
        <time>2013-03-12T08:49:42Z</time>
      </trkpt>
      <trkpt lat="43.72673" lon="7.39207">
        <ele>276.4</ele>
        <time>2013-03-12T08:49:47Z</time>
      </trkpt>
      <trkpt lat="43.72673" lon="7.39207">
        <ele>276.4</ele>
        <time>2013-03-12T08:49:52Z</time>
      </trkpt>
      <trkpt lat="43.72673" lon="7.39207">
        <ele>276.4</ele>
        <time>2013-03-12T08:49:58Z</time>
      </trkpt>
      <trkpt lat="43.72673" lon="7.39207">
        <ele>276.4</ele>
        <time>2013-03-12T08:50:02Z</time>
      </trkpt>
      <trkpt lat="43.72673" lon="7.39207">
        <ele>276.4</ele>
        <time>2013-03-12T08:50:07Z</time>
      </trkpt>
      <trkpt lat="43.72673" lon="7.39207">
        <ele>276.4</ele>
        <time>2013-03-12T08:50:12Z</time>
      </trkpt>
      <trkpt lat="43.72673" lon="7.39207">
        <ele>276.4</ele>
        <time>2013-03-12T08:50:18Z</time>
      </trkpt>
      <trkpt lat="43.72673" lon="7.39207">
        <ele>276.4</ele>
        <time>2013-03-12T08:50:23Z</time>
      </trkpt>
      <trkpt lat="43.72673" lon="7.39207">
        <ele>276.4</ele>
        <time>2013-03-12T08:50:27Z</time>
      </trkpt>
      <trkpt lat="43.72673" lon="7.39207">
        <ele>276.4</ele>
        <time>2013-03-12T08:50:32Z</time>
      </trkpt>
      <trkpt lat="43.72673" lon="7.39207">
        <ele>276.4</ele>
        <time>2013-03-12T08:50:38Z</time>
      </trkpt>
      <trkpt lat="43.72673" lon="7.39207">
        <ele>276.4</ele>
        <time>2013-03-12T08:50:43Z</time>
      </trkpt>
      <trkpt lat="43.72673" lon="7.39207">
        <ele>276.4</ele>
        <time>2013-03-12T08:50:47Z</time>
      </trkpt>
      <trkpt lat="43.72673" lon="7.39207">
        <ele>276.4</ele>
        <time>2013-03-12T08:50:52Z</time>
      </trkpt>
      <trkpt lat="43.72673" lon="7.39207">
        <ele>276.4</ele>
        <time>2013-03-12T08:50:57Z</time>
      </trkpt>
      <trkpt lat="43.72676" lon="7.39201">
        <ele>276.4</ele>
        <time>2013-03-12T08:51:22Z</time>
      </trkpt>
      <trkpt lat="43.72676" lon="7.39201">
        <ele>276.4</ele>
        <time>2013-03-12T08:51:27Z</time>
      </trkpt>
      <trkpt lat="43.72676" lon="7.39201">
        <ele>276.4</ele>
        <time>2013-03-12T08:51:32Z</time>
      </trkpt>
      <trkpt lat="43.72676" lon="7.39201">
        <ele>276.4</ele>
        <time>2013-03-12T08:51:37Z</time>
      </trkpt>
      <trkpt lat="43.72677" lon="7.39201">
        <ele>276.4</ele>
        <time>2013-03-12T08:51:42Z</time>
      </trkpt>
      <trkpt lat="43.72679" lon="7.392">
        <ele>276.4</ele>
        <time>2013-03-12T08:51:47Z</time>
      </trkpt>
      <trkpt lat="43.72679" lon="7.392">
        <ele>273.82052703848</ele>
        <time>2013-03-12T08:51:52Z</time>
      </trkpt>
      <trkpt lat="43.7268" lon="7.392">
        <ele>273.82052703848</ele>
        <time>2013-03-12T08:51:57Z</time>
      </trkpt>
      <trkpt lat="43.7268" lon="7.392">
        <ele>273.82052703848</ele>
        <time>2013-03-12T08:52:02Z</time>
      </trkpt>
      <trkpt lat="43.7268" lon="7.392">
        <ele>273.82052703848</ele>
        <time>2013-03-12T08:52:07Z</time>
      </trkpt>
      <trkpt lat="43.7268" lon="7.392">
        <ele>273.82052703848</ele>
        <time>2013-03-12T08:52:13Z</time>
      </trkpt>
      <trkpt lat="43.72679" lon="7.392">
        <ele>273.82052703848</ele>
        <time>2013-03-12T08:52:17Z</time>
      </trkpt>
      <trkpt lat="43.72679" lon="7.39195">
        <ele>273.82052703848</ele>
        <time>2013-03-12T08:52:22Z</time>
      </trkpt>
      <trkpt lat="43.72679" lon="7.39194">
        <ele>273.82052703848</ele>
        <time>2013-03-12T08:52:27Z</time>
      </trkpt>
      <trkpt lat="43.72678" lon="7.39194">
        <ele>273.82052703848</ele>
        <time>2013-03-12T08:52:33Z</time>
      </trkpt>
      <trkpt lat="43.72678" lon="7.39193">
        <ele>273.82052703848</ele>
        <time>2013-03-12T08:52:38Z</time>
      </trkpt>
      <trkpt lat="43.72678" lon="7.39193">
        <ele>273.82052703848</ele>
        <time>2013-03-12T08:52:42Z</time>
      </trkpt>
      <trkpt lat="43.72678" lon="7.39193">
        <ele>273.82052703848</ele>
        <time>2013-03-12T08:52:47Z</time>
      </trkpt>
      <trkpt lat="43.72678" lon="7.39193">
        <ele>273.82052703848</ele>
        <time>2013-03-12T08:52:53Z</time>
      </trkpt>
      <trkpt lat="43.72678" lon="7.39193">
        <ele>273.82052703848</ele>
        <time>2013-03-12T08:52:57Z</time>
      </trkpt>
      <trkpt lat="43.72677" lon="7.39188">
        <ele>275.57203172462</ele>
        <time>2013-03-12T08:53:03Z</time>
      </trkpt>
      <trkpt lat="43.72678" lon="7.39182">
        <ele>275.57203172462</ele>
        <time>2013-03-12T08:53:07Z</time>
      </trkpt>
      <trkpt lat="43.72677" lon="7.39181">
        <ele>275.57203172462</ele>
        <time>2013-03-12T08:53:13Z</time>
      </trkpt>
      <trkpt lat="43.72677" lon="7.39181">
        <ele>275.57203172462</ele>
        <time>2013-03-12T08:53:17Z</time>
      </trkpt>
      <trkpt lat="43.72677" lon="7.39181">
        <ele>275.57203172462</ele>
        <time>2013-03-12T08:53:23Z</time>
      </trkpt>
      <trkpt lat="43.72677" lon="7.39178">
        <ele>275.57203172462</ele>
        <time>2013-03-12T08:53:27Z</time>
      </trkpt>
      <trkpt lat="43.72677" lon="7.39179">
        <ele>275.57203172462</ele>
        <time>2013-03-12T08:53:32Z</time>
      </trkpt>
      <trkpt lat="43.72677" lon="7.39179">
        <ele>277.12533055424</ele>
        <time>2013-03-12T08:53:37Z</time>
      </trkpt>
      <trkpt lat="43.72677" lon="7.39179">
        <ele>277.12533055424</ele>
        <time>2013-03-12T08:53:43Z</time>
      </trkpt>
      <trkpt lat="43.72677" lon="7.39179">
        <ele>277.12533055424</ele>
        <time>2013-03-12T08:53:47Z</time>
      </trkpt>
      <trkpt lat="43.72677" lon="7.3918">
        <ele>277.12533055424</ele>
        <time>2013-03-12T08:53:53Z</time>
      </trkpt>
      <trkpt lat="43.7268" lon="7.39179">
        <ele>277.12533055424</ele>
        <time>2013-03-12T08:53:57Z</time>
      </trkpt>
      <trkpt lat="43.7268" lon="7.39178">
        <ele>277.12533055424</ele>
        <time>2013-03-12T08:54:03Z</time>
      </trkpt>
      <trkpt lat="43.7268" lon="7.39178">
        <ele>277.12533055424</ele>
        <time>2013-03-12T08:54:08Z</time>
      </trkpt>
      <trkpt lat="43.72679" lon="7.39177">
        <ele>277.12533055424</ele>
        <time>2013-03-12T08:54:12Z</time>
      </trkpt>
      <trkpt lat="43.72679" lon="7.39177">
        <ele>277.12533055424</ele>
        <time>2013-03-12T08:54:17Z</time>
      </trkpt>
      <trkpt lat="43.72677" lon="7.39177">
        <ele>277.12533055424</ele>
        <time>2013-03-12T08:54:23Z</time>
      </trkpt>
      <trkpt lat="43.72678" lon="7.39177">
        <ele>277.12533055424</ele>
        <time>2013-03-12T08:54:27Z</time>
      </trkpt>
      <trkpt lat="43.72676" lon="7.39178">
        <ele>277.38730259773</ele>
        <time>2013-03-12T08:54:33Z</time>
      </trkpt>
      <trkpt lat="43.72677" lon="7.39178">
        <ele>277.38730259773</ele>
        <time>2013-03-12T08:54:37Z</time>
      </trkpt>
      <trkpt lat="43.72677" lon="7.39181">
        <ele>277.38730259773</ele>
        <time>2013-03-12T08:54:43Z</time>
      </trkpt>
      <trkpt lat="43.72677" lon="7.39178">
        <ele>277.38730259773</ele>
        <time>2013-03-12T08:54:47Z</time>
      </trkpt>
      <trkpt lat="43.72676" lon="7.39178">
        <ele>277.38730259773</ele>
        <time>2013-03-12T08:54:52Z</time>
      </trkpt>
      <trkpt lat="43.72674" lon="7.39179">
        <ele>277.38730259773</ele>
        <time>2013-03-12T08:54:57Z</time>
      </trkpt>
      <trkpt lat="43.72671" lon="7.39179">
        <ele>278.54577556194</ele>
        <time>2013-03-12T08:55:03Z</time>
      </trkpt>
      <trkpt lat="43.7267" lon="7.39179">
        <ele>278.54577556194</ele>
        <time>2013-03-12T08:55:07Z</time>
      </trkpt>
      <trkpt lat="43.7267" lon="7.39178">
        <ele>278.54577556194</ele>
        <time>2013-03-12T08:55:12Z</time>
      </trkpt>
      <trkpt lat="43.7267" lon="7.39178">
        <ele>278.54577556194</ele>
        <time>2013-03-12T08:55:18Z</time>
      </trkpt>
      <trkpt lat="43.72667" lon="7.39178">
        <ele>278.54577556194</ele>
        <time>2013-03-12T08:55:22Z</time>
      </trkpt>
      <trkpt lat="43.72665" lon="7.39176">
        <ele>278.54577556194</ele>
        <time>2013-03-12T08:55:27Z</time>
      </trkpt>
      <trkpt lat="43.72665" lon="7.39176">
        <ele>278.54577556194</ele>
        <time>2013-03-12T08:55:32Z</time>
      </trkpt>
      <trkpt lat="43.72664" lon="7.39174">
        <ele>278.54577556194</ele>
        <time>2013-03-12T08:55:37Z</time>
      </trkpt>
      <trkpt lat="43.72664" lon="7.39173">
        <ele>279.4237977828</ele>
        <time>2013-03-12T08:55:42Z</time>
      </trkpt>
      <trkpt lat="43.72665" lon="7.39173">
        <ele>279.4237977828</ele>
        <time>2013-03-12T08:55:47Z</time>
      </trkpt>
      <trkpt lat="43.72666" lon="7.39176">
        <ele>279.4237977828</ele>
        <time>2013-03-12T08:55:52Z</time>
      </trkpt>
      <trkpt lat="43.72668" lon="7.39177">
        <ele>279.4237977828</ele>
        <time>2013-03-12T08:55:58Z</time>
      </trkpt>
      <trkpt lat="43.72668" lon="7.39178">
        <ele>279.4237977828</ele>
        <time>2013-03-12T08:56:03Z</time>
      </trkpt>
      <trkpt lat="43.72668" lon="7.39179">
        <ele>279.4237977828</ele>
        <time>2013-03-12T08:56:07Z</time>
      </trkpt>
      <trkpt lat="43.72668" lon="7.39177">
        <ele>279.4237977828</ele>
        <time>2013-03-12T08:56:13Z</time>
      </trkpt>
      <trkpt lat="43.72672" lon="7.39179">
        <ele>280.05826805078</ele>
        <time>2013-03-12T08:56:17Z</time>
      </trkpt>
      <trkpt lat="43.72672" lon="7.39181">
        <ele>280.05826805078</ele>
        <time>2013-03-12T08:56:23Z</time>
      </trkpt>
      <trkpt lat="43.72672" lon="7.3918">
        <ele>280.05826805078</ele>
        <time>2013-03-12T08:56:27Z</time>
      </trkpt>
      <trkpt lat="43.72672" lon="7.3918">
        <ele>280.05826805078</ele>
        <time>2013-03-12T08:56:33Z</time>
      </trkpt>
      <trkpt lat="43.72672" lon="7.39182">
        <ele>280.05826805078</ele>
        <time>2013-03-12T08:56:37Z</time>
      </trkpt>
      <trkpt lat="43.72674" lon="7.39184">
        <ele>280.05826805078</ele>
        <time>2013-03-12T08:56:42Z</time>
      </trkpt>
      <trkpt lat="43.72677" lon="7.39185">
        <ele>280.05826805078</ele>
        <time>2013-03-12T08:56:48Z</time>
      </trkpt>
      <trkpt lat="43.72676" lon="7.39188">
        <ele>280.59400566125</ele>
        <time>2013-03-12T08:56:52Z</time>
      </trkpt>
      <trkpt lat="43.72676" lon="7.39188">
        <ele>280.59400566125</ele>
        <time>2013-03-12T08:56:57Z</time>
      </trkpt>
      <trkpt lat="43.72676" lon="7.39189">
        <ele>280.59400566125</ele>
        <time>2013-03-12T08:57:02Z</time>
      </trkpt>
      <trkpt lat="43.72676" lon="7.39192">
        <ele>280.59400566125</ele>
        <time>2013-03-12T08:57:07Z</time>
      </trkpt>
      <trkpt lat="43.72678" lon="7.39199">
        <ele>280.59400566125</ele>
        <time>2013-03-12T08:57:13Z</time>
      </trkpt>
      <trkpt lat="43.72679" lon="7.39202">
        <ele>281.13904074974</ele>
        <time>2013-03-12T08:57:17Z</time>
      </trkpt>
      <trkpt lat="43.72682" lon="7.39208">
        <ele>281.13904074974</ele>
        <time>2013-03-12T08:57:23Z</time>
      </trkpt>
      <trkpt lat="43.72683" lon="7.39212">
        <ele>281.13904074974</ele>
        <time>2013-03-12T08:57:27Z</time>
      </trkpt>
      <trkpt lat="43.72686" lon="7.39214">
        <ele>281.078052953</ele>
        <time>2013-03-12T08:57:33Z</time>
      </trkpt>
      <trkpt lat="43.72688" lon="7.39209">
        <ele>281.078052953</ele>
        <time>2013-03-12T08:57:37Z</time>
      </trkpt>
      <trkpt lat="43.72688" lon="7.39203">
        <ele>281.078052953</ele>
        <time>2013-03-12T08:57:43Z</time>
      </trkpt>
      <trkpt lat="43.72689" lon="7.39198">
        <ele>280.77326609645</ele>
        <time>2013-03-12T08:57:47Z</time>
      </trkpt>
      <trkpt lat="43.7269" lon="7.39193">
        <ele>280.77326609645</ele>
        <time>2013-03-12T08:57:52Z</time>
      </trkpt>
      <trkpt lat="43.72693" lon="7.39185">
        <ele>281.01793269502</ele>
        <time>2013-03-12T08:57:57Z</time>
      </trkpt>
      <trkpt lat="43.72695" lon="7.39178">
        <ele>281.01793269502</ele>
        <time>2013-03-12T08:58:02Z</time>
      </trkpt>
      <trkpt lat="43.72699" lon="7.39174">
        <ele>281.52920457578</ele>
        <time>2013-03-12T08:58:07Z</time>
      </trkpt>
      <trkpt lat="43.727" lon="7.39169">
        <ele>281.52920457578</ele>
        <time>2013-03-12T08:58:12Z</time>
      </trkpt>
      <trkpt lat="43.72702" lon="7.39169">
        <ele>281.52920457578</ele>
        <time>2013-03-12T08:58:18Z</time>
      </trkpt>
      <trkpt lat="43.72703" lon="7.3917">
        <ele>281.52920457578</ele>
        <time>2013-03-12T08:58:22Z</time>
      </trkpt>
      <trkpt lat="43.72705" lon="7.39173">
        <ele>282.0462510118</ele>
        <time>2013-03-12T08:58:28Z</time>
      </trkpt>
      <trkpt lat="43.72704" lon="7.39176">
        <ele>282.0462510118</ele>
        <time>2013-03-12T08:58:32Z</time>
      </trkpt>
      <trkpt lat="43.72705" lon="7.39177">
        <ele>282.0462510118</ele>
        <time>2013-03-12T08:58:37Z</time>
      </trkpt>
      <trkpt lat="43.72706" lon="7.39176">
        <ele>282.0462510118</ele>
        <time>2013-03-12T08:58:43Z</time>
      </trkpt>
      <trkpt lat="43.72707" lon="7.39178">
        <ele>282.0462510118</ele>
        <time>2013-03-12T08:58:47Z</time>
      </trkpt>
      <trkpt lat="43.7271" lon="7.39179">
        <ele>283.45963976966</ele>
        <time>2013-03-12T08:58:52Z</time>
      </trkpt>
      <trkpt lat="43.72711" lon="7.39181">
        <ele>283.45963976966</ele>
        <time>2013-03-12T08:58:58Z</time>
      </trkpt>
      <trkpt lat="43.72713" lon="7.39184">
        <ele>283.45963976966</ele>
        <time>2013-03-12T08:59:02Z</time>
      </trkpt>
      <trkpt lat="43.72714" lon="7.39184">
        <ele>283.45963976966</ele>
        <time>2013-03-12T08:59:07Z</time>
      </trkpt>
      <trkpt lat="43.72713" lon="7.39185">
        <ele>283.45963976966</ele>
        <time>2013-03-12T08:59:13Z</time>
      </trkpt>
      <trkpt lat="43.72714" lon="7.39184">
        <ele>283.45963976966</ele>
        <time>2013-03-12T08:59:17Z</time>
      </trkpt>
      <trkpt lat="43.72716" lon="7.39194">
        <ele>284.46475471071</ele>
        <time>2013-03-12T08:59:23Z</time>
      </trkpt>
      <trkpt lat="43.72715" lon="7.39196">
        <ele>284.46475471071</ele>
        <time>2013-03-12T08:59:28Z</time>
      </trkpt>
      <trkpt lat="43.72716" lon="7.39199">
        <ele>284.46475471071</ele>
        <time>2013-03-12T08:59:33Z</time>
      </trkpt>
      <trkpt lat="43.72716" lon="7.39203">
        <ele>284.46475471071</ele>
        <time>2013-03-12T08:59:37Z</time>
      </trkpt>
      <trkpt lat="43.72717" lon="7.39207">
        <ele>285.95653157699</ele>
        <time>2013-03-12T08:59:42Z</time>
      </trkpt>
      <trkpt lat="43.72717" lon="7.39213">
        <ele>285.95653157699</ele>
        <time>2013-03-12T08:59:48Z</time>
      </trkpt>
      <trkpt lat="43.72718" lon="7.39215">
        <ele>285.95653157699</ele>
        <time>2013-03-12T08:59:52Z</time>
      </trkpt>
      <trkpt lat="43.72718" lon="7.39219">
        <ele>287.93111955386</ele>
        <time>2013-03-12T08:59:57Z</time>
      </trkpt>
      <trkpt lat="43.72719" lon="7.39224">
        <ele>287.93111955386</ele>
        <time>2013-03-12T09:00:03Z</time>
      </trkpt>
      <trkpt lat="43.72717" lon="7.39226">
        <ele>287.93111955386</ele>
        <time>2013-03-12T09:00:07Z</time>
      </trkpt>
      <trkpt lat="43.72719" lon="7.3923">
        <ele>287.93111955386</ele>
        <time>2013-03-12T09:00:13Z</time>
      </trkpt>
      <trkpt lat="43.72719" lon="7.39234">
        <ele>290.20404709921</ele>
        <time>2013-03-12T09:00:17Z</time>
      </trkpt>
      <trkpt lat="43.7272" lon="7.39239">
        <ele>290.20404709921</ele>
        <time>2013-03-12T09:00:23Z</time>
      </trkpt>
      <trkpt lat="43.72721" lon="7.39242">
        <ele>290.20404709921</ele>
        <time>2013-03-12T09:00:27Z</time>
      </trkpt>
      <trkpt lat="43.72722" lon="7.39247">
        <ele>292.15644674228</ele>
        <time>2013-03-12T09:00:33Z</time>
      </trkpt>
      <trkpt lat="43.72722" lon="7.39251">
        <ele>292.15644674228</ele>
        <time>2013-03-12T09:00:37Z</time>
      </trkpt>
      <trkpt lat="43.72722" lon="7.39256">
        <ele>292.15644674228</ele>
        <time>2013-03-12T09:00:43Z</time>
      </trkpt>
      <trkpt lat="43.72722" lon="7.39258">
        <ele>292.15644674228</ele>
        <time>2013-03-12T09:00:47Z</time>
      </trkpt>
      <trkpt lat="43.72722" lon="7.39263">
        <ele>294.33287096684</ele>
        <time>2013-03-12T09:00:52Z</time>
      </trkpt>
      <trkpt lat="43.72725" lon="7.39268">
        <ele>294.33287096684</ele>
        <time>2013-03-12T09:00:57Z</time>
      </trkpt>
      <trkpt lat="43.72726" lon="7.39271">
        <ele>294.33287096684</ele>
        <time>2013-03-12T09:01:03Z</time>
      </trkpt>
      <trkpt lat="43.72726" lon="7.39273">
        <ele>294.33287096684</ele>
        <time>2013-03-12T09:01:07Z</time>
      </trkpt>
      <trkpt lat="43.72729" lon="7.39275">
        <ele>296.38574394295</ele>
        <time>2013-03-12T09:01:12Z</time>
      </trkpt>
      <trkpt lat="43.72732" lon="7.39277">
        <ele>296.38574394295</ele>
        <time>2013-03-12T09:01:18Z</time>
      </trkpt>
      <trkpt lat="43.72733" lon="7.39281">
        <ele>296.38574394295</ele>
        <time>2013-03-12T09:01:22Z</time>
      </trkpt>
      <trkpt lat="43.72735" lon="7.39284">
        <ele>296.38574394295</ele>
        <time>2013-03-12T09:01:27Z</time>
      </trkpt>
      <trkpt lat="43.72735" lon="7.39289">
        <ele>298.28259473809</ele>
        <time>2013-03-12T09:01:32Z</time>
      </trkpt>
      <trkpt lat="43.72737" lon="7.39295">
        <ele>298.28259473809</ele>
        <time>2013-03-12T09:01:38Z</time>
      </trkpt>
      <trkpt lat="43.72738" lon="7.39299">
        <ele>298.28259473809</ele>
        <time>2013-03-12T09:01:42Z</time>
      </trkpt>
      <trkpt lat="43.72739" lon="7.39303">
        <ele>300.35002657409</ele>
        <time>2013-03-12T09:01:48Z</time>
      </trkpt>
      <trkpt lat="43.72741" lon="7.39306">
        <ele>300.35002657409</ele>
        <time>2013-03-12T09:01:52Z</time>
      </trkpt>
      <trkpt lat="43.72745" lon="7.3931">
        <ele>300.35002657409</ele>
        <time>2013-03-12T09:01:58Z</time>
      </trkpt>
      <trkpt lat="43.72747" lon="7.3931">
        <ele>302.29145827371</ele>
        <time>2013-03-12T09:02:02Z</time>
      </trkpt>
      <trkpt lat="43.7275" lon="7.39308">
        <ele>302.29145827371</ele>
        <time>2013-03-12T09:02:07Z</time>
      </trkpt>
      <trkpt lat="43.72754" lon="7.39308">
        <ele>302.29145827371</ele>
        <time>2013-03-12T09:02:12Z</time>
      </trkpt>
      <trkpt lat="43.72757" lon="7.39305">
        <ele>304.5798259208</ele>
        <time>2013-03-12T09:02:17Z</time>
      </trkpt>
      <trkpt lat="43.7276" lon="7.39303">
        <ele>304.5798259208</ele>
        <time>2013-03-12T09:02:22Z</time>
      </trkpt>
      <trkpt lat="43.72763" lon="7.39302">
        <ele>304.5798259208</ele>
        <time>2013-03-12T09:02:28Z</time>
      </trkpt>
      <trkpt lat="43.72764" lon="7.39297">
        <ele>306.58062084946</ele>
        <time>2013-03-12T09:02:33Z</time>
      </trkpt>
      <trkpt lat="43.72766" lon="7.39294">
        <ele>306.58062084946</ele>
        <time>2013-03-12T09:02:37Z</time>
      </trkpt>
      <trkpt lat="43.72768" lon="7.39287">
        <ele>306.58062084946</ele>
        <time>2013-03-12T09:02:43Z</time>
      </trkpt>
      <trkpt lat="43.7277" lon="7.39283">
        <ele>308.33462502658</ele>
        <time>2013-03-12T09:02:48Z</time>
      </trkpt>
      <trkpt lat="43.72768" lon="7.39278">
        <ele>308.33462502658</ele>
        <time>2013-03-12T09:02:52Z</time>
      </trkpt>
      <trkpt lat="43.72778" lon="7.39275">
        <ele>309.91932520762</ele>
        <time>2013-03-12T09:02:58Z</time>
      </trkpt>
      <trkpt lat="43.7278" lon="7.39272">
        <ele>309.91932520762</ele>
        <time>2013-03-12T09:03:02Z</time>
      </trkpt>
      <trkpt lat="43.72785" lon="7.39267">
        <ele>311.40381384656</ele>
        <time>2013-03-12T09:03:08Z</time>
      </trkpt>
      <trkpt lat="43.72788" lon="7.39265">
        <ele>311.40381384656</ele>
        <time>2013-03-12T09:03:12Z</time>
      </trkpt>
      <trkpt lat="43.72792" lon="7.39265">
        <ele>311.40381384656</ele>
        <time>2013-03-12T09:03:17Z</time>
      </trkpt>
      <trkpt lat="43.72795" lon="7.39263">
        <ele>312.68365669762</ele>
        <time>2013-03-12T09:03:23Z</time>
      </trkpt>
      <trkpt lat="43.72796" lon="7.39263">
        <ele>312.68365669762</ele>
        <time>2013-03-12T09:03:27Z</time>
      </trkpt>
      <trkpt lat="43.72797" lon="7.39263">
        <ele>312.68365669762</ele>
        <time>2013-03-12T09:03:32Z</time>
      </trkpt>
      <trkpt lat="43.72796" lon="7.39265">
        <ele>312.68365669762</ele>
        <time>2013-03-12T09:03:37Z</time>
      </trkpt>
      <trkpt lat="43.72795" lon="7.39267">
        <ele>312.68365669762</ele>
        <time>2013-03-12T09:03:43Z</time>
      </trkpt>
      <trkpt lat="43.72794" lon="7.39269">
        <ele>312.68365669762</ele>
        <time>2013-03-12T09:03:47Z</time>
      </trkpt>
      <trkpt lat="43.72793" lon="7.39269">
        <ele>312.68365669762</ele>
        <time>2013-03-12T09:03:52Z</time>
      </trkpt>
      <trkpt lat="43.72792" lon="7.3927">
        <ele>312.68365669762</ele>
        <time>2013-03-12T09:03:57Z</time>
      </trkpt>
      <trkpt lat="43.72792" lon="7.3927">
        <ele>314.39766763936</ele>
        <time>2013-03-12T09:04:02Z</time>
      </trkpt>
      <trkpt lat="43.72792" lon="7.3927">
        <ele>314.39766763936</ele>
        <time>2013-03-12T09:04:07Z</time>
      </trkpt>
      <trkpt lat="43.72792" lon="7.39271">
        <ele>314.39766763936</ele>
        <time>2013-03-12T09:04:12Z</time>
      </trkpt>
      <trkpt lat="43.72793" lon="7.39271">
        <ele>314.39766763936</ele>
        <time>2013-03-12T09:04:17Z</time>
      </trkpt>
      <trkpt lat="43.72794" lon="7.39274">
        <ele>314.39766763936</ele>
        <time>2013-03-12T09:04:22Z</time>
      </trkpt>
      <trkpt lat="43.72794" lon="7.39275">
        <ele>314.39766763936</ele>
        <time>2013-03-12T09:04:28Z</time>
      </trkpt>
      <trkpt lat="43.72794" lon="7.39275">
        <ele>314.39766763936</ele>
        <time>2013-03-12T09:04:33Z</time>
      </trkpt>
      <trkpt lat="43.72793" lon="7.39276">
        <ele>314.39766763936</ele>
        <time>2013-03-12T09:04:37Z</time>
      </trkpt>
      <trkpt lat="43.72796" lon="7.39285">
        <ele>315.63834684551</ele>
        <time>2013-03-12T09:04:42Z</time>
      </trkpt>
      <trkpt lat="43.72796" lon="7.39289">
        <ele>315.63834684551</ele>
        <time>2013-03-12T09:04:47Z</time>
      </trkpt>
      <trkpt lat="43.72794" lon="7.39288">
        <ele>315.63834684551</ele>
        <time>2013-03-12T09:04:52Z</time>
      </trkpt>
      <trkpt lat="43.72794" lon="7.39289">
        <ele>315.63834684551</ele>
        <time>2013-03-12T09:04:58Z</time>
      </trkpt>
      <trkpt lat="43.72794" lon="7.39289">
        <ele>315.63834684551</ele>
        <time>2013-03-12T09:05:02Z</time>
      </trkpt>
      <trkpt lat="43.72796" lon="7.39292">
        <ele>315.63834684551</ele>
        <time>2013-03-12T09:05:08Z</time>
      </trkpt>
      <trkpt lat="43.72796" lon="7.39294">
        <ele>316.78485782282</ele>
        <time>2013-03-12T09:05:12Z</time>
      </trkpt>
      <trkpt lat="43.72795" lon="7.39297">
        <ele>316.78485782282</ele>
        <time>2013-03-12T09:05:17Z</time>
      </trkpt>
      <trkpt lat="43.72794" lon="7.39301">
        <ele>316.78485782282</ele>
        <time>2013-03-12T09:05:22Z</time>
      </trkpt>
      <trkpt lat="43.72794" lon="7.39306">
        <ele>316.78485782282</ele>
        <time>2013-03-12T09:05:28Z</time>
      </trkpt>
      <trkpt lat="43.72795" lon="7.39309">
        <ele>318.13567807001</ele>
        <time>2013-03-12T09:05:32Z</time>
      </trkpt>
      <trkpt lat="43.72796" lon="7.39311">
        <ele>318.13567807001</ele>
        <time>2013-03-12T09:05:38Z</time>
      </trkpt>
      <trkpt lat="43.72796" lon="7.39311">
        <ele>318.13567807001</ele>
        <time>2013-03-12T09:05:43Z</time>
      </trkpt>
      <trkpt lat="43.72796" lon="7.39311">
        <ele>318.13567807001</ele>
        <time>2013-03-12T09:05:47Z</time>
      </trkpt>
      <trkpt lat="43.72796" lon="7.39311">
        <ele>318.13567807001</ele>
        <time>2013-03-12T09:05:52Z</time>
      </trkpt>
      <trkpt lat="43.72795" lon="7.39311">
        <ele>318.13567807001</ele>
        <time>2013-03-12T09:05:57Z</time>
      </trkpt>
      <trkpt lat="43.72795" lon="7.39311">
        <ele>318.13567807001</ele>
        <time>2013-03-12T09:06:03Z</time>
      </trkpt>
      <trkpt lat="43.72795" lon="7.39311">
        <ele>318.13567807001</ele>
        <time>2013-03-12T09:06:07Z</time>
      </trkpt>
      <trkpt lat="43.72795" lon="7.39311">
        <ele>318.13567807001</ele>
        <time>2013-03-12T09:06:12Z</time>
      </trkpt>
      <trkpt lat="43.72795" lon="7.39311">
        <ele>318.13567807001</ele>
        <time>2013-03-12T09:06:17Z</time>
      </trkpt>
      <trkpt lat="43.72795" lon="7.39311">
        <ele>318.13567807001</ele>
        <time>2013-03-12T09:06:22Z</time>
      </trkpt>
      <trkpt lat="43.72795" lon="7.39311">
        <ele>318.13567807001</ele>
        <time>2013-03-12T09:06:27Z</time>
      </trkpt>
      <trkpt lat="43.72795" lon="7.39311">
        <ele>318.13567807001</ele>
        <time>2013-03-12T09:06:32Z</time>
      </trkpt>
      <trkpt lat="43.72795" lon="7.39311">
        <ele>318.13567807001</ele>
        <time>2013-03-12T09:06:37Z</time>
      </trkpt>
      <trkpt lat="43.72795" lon="7.39311">
        <ele>318.13567807001</ele>
        <time>2013-03-12T09:06:42Z</time>
      </trkpt>
      <trkpt lat="43.72795" lon="7.39311">
        <ele>318.13567807001</ele>
        <time>2013-03-12T09:06:48Z</time>
      </trkpt>
      <trkpt lat="43.72795" lon="7.39311">
        <ele>318.13567807001</ele>
        <time>2013-03-12T09:06:52Z</time>
      </trkpt>
      <trkpt lat="43.72795" lon="7.39311">
        <ele>318.13567807001</ele>
        <time>2013-03-12T09:06:57Z</time>
      </trkpt>
      <trkpt lat="43.72795" lon="7.39312">
        <ele>318.13567807001</ele>
        <time>2013-03-12T09:07:03Z</time>
      </trkpt>
      <trkpt lat="43.72795" lon="7.39314">
        <ele>318.13567807001</ele>
        <time>2013-03-12T09:07:08Z</time>
      </trkpt>
      <trkpt lat="43.72796" lon="7.39314">
        <ele>318.13567807001</ele>
        <time>2013-03-12T09:07:12Z</time>
      </trkpt>
      <trkpt lat="43.72797" lon="7.39314">
        <ele>318.13567807001</ele>
        <time>2013-03-12T09:07:18Z</time>
      </trkpt>
      <trkpt lat="43.72797" lon="7.39314">
        <ele>318.13567807001</ele>
        <time>2013-03-12T09:07:22Z</time>
      </trkpt>
      <trkpt lat="43.72797" lon="7.39314">
        <ele>318.13567807001</ele>
        <time>2013-03-12T09:07:27Z</time>
      </trkpt>
      <trkpt lat="43.72797" lon="7.39314">
        <ele>318.13567807001</ele>
        <time>2013-03-12T09:07:32Z</time>
      </trkpt>
      <trkpt lat="43.72797" lon="7.39314">
        <ele>318.13567807001</ele>
        <time>2013-03-12T09:07:38Z</time>
      </trkpt>
      <trkpt lat="43.72797" lon="7.39314">
        <ele>318.13567807001</ele>
        <time>2013-03-12T09:07:43Z</time>
      </trkpt>
      <trkpt lat="43.72797" lon="7.39314">
        <ele>318.13567807001</ele>
        <time>2013-03-12T09:07:47Z</time>
      </trkpt>
      <trkpt lat="43.72797" lon="7.39314">
        <ele>318.13567807001</ele>
        <time>2013-03-12T09:07:52Z</time>
      </trkpt>
      <trkpt lat="43.72797" lon="7.39314">
        <ele>318.13567807001</ele>
        <time>2013-03-12T09:07:58Z</time>
      </trkpt>
      <trkpt lat="43.72797" lon="7.39314">
        <ele>318.13567807001</ele>
        <time>2013-03-12T09:08:02Z</time>
      </trkpt>
      <trkpt lat="43.72797" lon="7.39314">
        <ele>318.13567807001</ele>
        <time>2013-03-12T09:08:07Z</time>
      </trkpt>
      <trkpt lat="43.72797" lon="7.39314">
        <ele>318.13567807001</ele>
        <time>2013-03-12T09:08:12Z</time>
      </trkpt>
      <trkpt lat="43.72797" lon="7.39314">
        <ele>318.13567807001</ele>
        <time>2013-03-12T09:08:18Z</time>
      </trkpt>
      <trkpt lat="43.72797" lon="7.39314">
        <ele>318.13567807001</ele>
        <time>2013-03-12T09:08:22Z</time>
      </trkpt>
      <trkpt lat="43.72797" lon="7.39314">
        <ele>318.13567807001</ele>
        <time>2013-03-12T09:08:27Z</time>
      </trkpt>
      <trkpt lat="43.72797" lon="7.39314">
        <ele>318.13567807001</ele>
        <time>2013-03-12T09:08:32Z</time>
      </trkpt>
      <trkpt lat="43.72797" lon="7.39314">
        <ele>318.13567807001</ele>
        <time>2013-03-12T09:08:37Z</time>
      </trkpt>
      <trkpt lat="43.72797" lon="7.39314">
        <ele>318.13567807001</ele>
        <time>2013-03-12T09:08:42Z</time>
      </trkpt>
      <trkpt lat="43.72797" lon="7.39314">
        <ele>318.13567807001</ele>
        <time>2013-03-12T09:08:48Z</time>
      </trkpt>
      <trkpt lat="43.72797" lon="7.39314">
        <ele>318.13567807001</ele>
        <time>2013-03-12T09:08:52Z</time>
      </trkpt>
      <trkpt lat="43.72797" lon="7.39314">
        <ele>318.13567807001</ele>
        <time>2013-03-12T09:08:57Z</time>
      </trkpt>
      <trkpt lat="43.72797" lon="7.39314">
        <ele>318.13567807001</ele>
        <time>2013-03-12T09:09:02Z</time>
      </trkpt>
      <trkpt lat="43.72796" lon="7.39316">
        <ele>318.13567807001</ele>
        <time>2013-03-12T09:09:08Z</time>
      </trkpt>
      <trkpt lat="43.72796" lon="7.39319">
        <ele>319.57949156767</ele>
        <time>2013-03-12T09:09:12Z</time>
      </trkpt>
      <trkpt lat="43.72797" lon="7.39317">
        <ele>319.57949156767</ele>
        <time>2013-03-12T09:09:17Z</time>
      </trkpt>
      <trkpt lat="43.72796" lon="7.39317">
        <ele>319.57949156767</ele>
        <time>2013-03-12T09:09:23Z</time>
      </trkpt>
      <trkpt lat="43.72796" lon="7.39317">
        <ele>319.57949156767</ele>
        <time>2013-03-12T09:09:27Z</time>
      </trkpt>
      <trkpt lat="43.72796" lon="7.39316">
        <ele>319.57949156767</ele>
        <time>2013-03-12T09:09:32Z</time>
      </trkpt>
      <trkpt lat="43.72796" lon="7.39316">
        <ele>319.57949156767</ele>
        <time>2013-03-12T09:09:38Z</time>
      </trkpt>
      <trkpt lat="43.72796" lon="7.39316">
        <ele>319.57949156767</ele>
        <time>2013-03-12T09:09:42Z</time>
      </trkpt>
      <trkpt lat="43.72796" lon="7.39316">
        <ele>319.57949156767</ele>
        <time>2013-03-12T09:09:48Z</time>
      </trkpt>
      <trkpt lat="43.72796" lon="7.39316">
        <ele>319.57949156767</ele>
        <time>2013-03-12T09:09:53Z</time>
      </trkpt>
      <trkpt lat="43.72796" lon="7.39317">
        <ele>319.57949156767</ele>
        <time>2013-03-12T09:09:57Z</time>
      </trkpt>
      <trkpt lat="43.72797" lon="7.39321">
        <ele>319.57949156767</ele>
        <time>2013-03-12T09:10:02Z</time>
      </trkpt>
      <trkpt lat="43.72798" lon="7.39323">
        <ele>319.57949156767</ele>
        <time>2013-03-12T09:10:07Z</time>
      </trkpt>
      <trkpt lat="43.72798" lon="7.39326">
        <ele>321.23719053998</ele>
        <time>2013-03-12T09:10:13Z</time>
      </trkpt>
      <trkpt lat="43.72798" lon="7.3933">
        <ele>321.23719053998</ele>
        <time>2013-03-12T09:10:17Z</time>
      </trkpt>
      <trkpt lat="43.72798" lon="7.39333">
        <ele>321.23719053998</ele>
        <time>2013-03-12T09:10:22Z</time>
      </trkpt>
      <trkpt lat="43.72799" lon="7.39337">
        <ele>321.23719053998</ele>
        <time>2013-03-12T09:10:27Z</time>
      </trkpt>
      <trkpt lat="43.728" lon="7.39344">
        <ele>322.93977400967</ele>
        <time>2013-03-12T09:10:33Z</time>
      </trkpt>
      <trkpt lat="43.728" lon="7.39348">
        <ele>322.93977400967</ele>
        <time>2013-03-12T09:10:37Z</time>
      </trkpt>
      <trkpt lat="43.72801" lon="7.39353">
        <ele>322.93977400967</ele>
        <time>2013-03-12T09:10:43Z</time>
      </trkpt>
      <trkpt lat="43.72802" lon="7.39357">
        <ele>324.64120507457</ele>
        <time>2013-03-12T09:10:48Z</time>
      </trkpt>
      <trkpt lat="43.72803" lon="7.39361">
        <ele>324.64120507457</ele>
        <time>2013-03-12T09:10:52Z</time>
      </trkpt>
      <trkpt lat="43.72803" lon="7.39364">
        <ele>324.64120507457</ele>
        <time>2013-03-12T09:10:57Z</time>
      </trkpt>
      <trkpt lat="43.72804" lon="7.39367">
        <ele>324.64120507457</ele>
        <time>2013-03-12T09:11:02Z</time>
      </trkpt>
      <trkpt lat="43.72805" lon="7.39372">
        <ele>326.51345298947</ele>
        <time>2013-03-12T09:11:08Z</time>
      </trkpt>
      <trkpt lat="43.72806" lon="7.39376">
        <ele>326.51345298947</ele>
        <time>2013-03-12T09:11:12Z</time>
      </trkpt>
      <trkpt lat="43.72807" lon="7.39381">
        <ele>326.51345298947</ele>
        <time>2013-03-12T09:11:17Z</time>
      </trkpt>
      <trkpt lat="43.72807" lon="7.39386">
        <ele>328.54579977444</ele>
        <time>2013-03-12T09:11:23Z</time>
      </trkpt>
      <trkpt lat="43.72808" lon="7.3939">
        <ele>328.54579977444</ele>
        <time>2013-03-12T09:11:27Z</time>
      </trkpt>
      <trkpt lat="43.72809" lon="7.39396">
        <ele>328.54579977444</ele>
        <time>2013-03-12T09:11:33Z</time>
      </trkpt>
      <trkpt lat="43.7281" lon="7.39399">
        <ele>330.47972945857</ele>
        <time>2013-03-12T09:11:37Z</time>
      </trkpt>
      <trkpt lat="43.72812" lon="7.39403">
        <ele>330.47972945857</ele>
        <time>2013-03-12T09:11:43Z</time>
      </trkpt>
      <trkpt lat="43.72812" lon="7.39406">
        <ele>330.47972945857</ele>
        <time>2013-03-12T09:11:47Z</time>
      </trkpt>
      <trkpt lat="43.72814" lon="7.39411">
        <ele>332.36365770089</ele>
        <time>2013-03-12T09:11:53Z</time>
      </trkpt>
      <trkpt lat="43.72815" lon="7.39414">
        <ele>332.36365770089</ele>
        <time>2013-03-12T09:11:57Z</time>
      </trkpt>
      <trkpt lat="43.72817" lon="7.3942">
        <ele>332.36365770089</ele>
        <time>2013-03-12T09:12:03Z</time>
      </trkpt>
      <trkpt lat="43.72819" lon="7.3942">
        <ele>333.9045547908</ele>
        <time>2013-03-12T09:12:07Z</time>
      </trkpt>
      <trkpt lat="43.72821" lon="7.39424">
        <ele>333.9045547908</ele>
        <time>2013-03-12T09:12:13Z</time>
      </trkpt>
      <trkpt lat="43.72824" lon="7.39427">
        <ele>333.9045547908</ele>
        <time>2013-03-12T09:12:17Z</time>
      </trkpt>
      <trkpt lat="43.72826" lon="7.3943">
        <ele>335.07954585819</ele>
        <time>2013-03-12T09:12:22Z</time>
      </trkpt>
      <trkpt lat="43.72828" lon="7.39433">
        <ele>335.07954585819</ele>
        <time>2013-03-12T09:12:27Z</time>
      </trkpt>
      <trkpt lat="43.72829" lon="7.39437">
        <ele>335.07954585819</ele>
        <time>2013-03-12T09:12:32Z</time>
      </trkpt>
      <trkpt lat="43.72831" lon="7.39437">
        <ele>335.07954585819</ele>
        <time>2013-03-12T09:12:37Z</time>
      </trkpt>
      <trkpt lat="43.72833" lon="7.39442">
        <ele>335.8098259819</ele>
        <time>2013-03-12T09:12:42Z</time>
      </trkpt>
      <trkpt lat="43.72836" lon="7.39442">
        <ele>335.8098259819</ele>
        <time>2013-03-12T09:12:48Z</time>
      </trkpt>
      <trkpt lat="43.72839" lon="7.39445">
        <ele>335.8098259819</ele>
        <time>2013-03-12T09:12:52Z</time>
      </trkpt>
      <trkpt lat="43.72842" lon="7.39447">
        <ele>336.03907941783</ele>
        <time>2013-03-12T09:12:57Z</time>
      </trkpt>
      <trkpt lat="43.72844" lon="7.3945">
        <ele>336.03907941783</ele>
        <time>2013-03-12T09:13:02Z</time>
      </trkpt>
      <trkpt lat="43.72845" lon="7.39455">
        <ele>336.03907941783</ele>
        <time>2013-03-12T09:13:08Z</time>
      </trkpt>
      <trkpt lat="43.72846" lon="7.39458">
        <ele>336.66299304363</ele>
        <time>2013-03-12T09:13:12Z</time>
      </trkpt>
      <trkpt lat="43.72848" lon="7.39464">
        <ele>336.66299304363</ele>
        <time>2013-03-12T09:13:18Z</time>
      </trkpt>
      <trkpt lat="43.72851" lon="7.39464">
        <ele>336.66299304363</ele>
        <time>2013-03-12T09:13:22Z</time>
      </trkpt>
      <trkpt lat="43.72853" lon="7.39469">
        <ele>337.37318979539</ele>
        <time>2013-03-12T09:13:28Z</time>
      </trkpt>
      <trkpt lat="43.72855" lon="7.39471">
        <ele>337.37318979539</ele>
        <time>2013-03-12T09:13:32Z</time>
      </trkpt>
      <trkpt lat="43.72858" lon="7.39476">
        <ele>337.37318979539</ele>
        <time>2013-03-12T09:13:38Z</time>
      </trkpt>
      <trkpt lat="43.72861" lon="7.39477">
        <ele>337.91141469884</ele>
        <time>2013-03-12T09:13:42Z</time>
      </trkpt>
      <trkpt lat="43.72864" lon="7.39478">
        <ele>337.91141469884</ele>
        <time>2013-03-12T09:13:48Z</time>
      </trkpt>
      <trkpt lat="43.72866" lon="7.39481">
        <ele>337.91141469884</ele>
        <time>2013-03-12T09:13:52Z</time>
      </trkpt>
      <trkpt lat="43.72868" lon="7.39486">
        <ele>338.74746623911</ele>
        <time>2013-03-12T09:13:57Z</time>
      </trkpt>
      <trkpt lat="43.7287" lon="7.39491">
        <ele>338.74746623911</ele>
        <time>2013-03-12T09:14:02Z</time>
      </trkpt>
      <trkpt lat="43.72871" lon="7.39494">
        <ele>338.74746623911</ele>
        <time>2013-03-12T09:14:08Z</time>
      </trkpt>
      <trkpt lat="43.72872" lon="7.39499">
        <ele>340.01320798559</ele>
        <time>2013-03-12T09:14:13Z</time>
      </trkpt>
      <trkpt lat="43.72874" lon="7.39502">
        <ele>340.01320798559</ele>
        <time>2013-03-12T09:14:17Z</time>
      </trkpt>
      <trkpt lat="43.72875" lon="7.39508">
        <ele>340.01320798559</ele>
        <time>2013-03-12T09:14:23Z</time>
      </trkpt>
      <trkpt lat="43.72874" lon="7.39512">
        <ele>341.51104471131</ele>
        <time>2013-03-12T09:14:27Z</time>
      </trkpt>
      <trkpt lat="43.72876" lon="7.39518">
        <ele>341.51104471131</ele>
        <time>2013-03-12T09:14:33Z</time>
      </trkpt>
      <trkpt lat="43.72877" lon="7.39522">
        <ele>341.51104471131</ele>
        <time>2013-03-12T09:14:37Z</time>
      </trkpt>
      <trkpt lat="43.72878" lon="7.39526">
        <ele>343.14771883887</ele>
        <time>2013-03-12T09:14:43Z</time>
      </trkpt>
      <trkpt lat="43.72879" lon="7.39529">
        <ele>343.14771883887</ele>
        <time>2013-03-12T09:14:47Z</time>
      </trkpt>
      <trkpt lat="43.72881" lon="7.39535">
        <ele>343.14771883887</ele>
        <time>2013-03-12T09:14:52Z</time>
      </trkpt>
      <trkpt lat="43.72882" lon="7.39538">
        <ele>344.82148802877</ele>
        <time>2013-03-12T09:14:57Z</time>
      </trkpt>
      <trkpt lat="43.72884" lon="7.39542">
        <ele>344.82148802877</ele>
        <time>2013-03-12T09:15:03Z</time>
      </trkpt>
      <trkpt lat="43.72884" lon="7.39546">
        <ele>344.82148802877</ele>
        <time>2013-03-12T09:15:07Z</time>
      </trkpt>
      <trkpt lat="43.72886" lon="7.39551">
        <ele>346.52888861941</ele>
        <time>2013-03-12T09:15:13Z</time>
      </trkpt>
      <trkpt lat="43.72887" lon="7.39555">
        <ele>346.52888861941</ele>
        <time>2013-03-12T09:15:17Z</time>
      </trkpt>
      <trkpt lat="43.72888" lon="7.39558">
        <ele>346.52888861941</ele>
        <time>2013-03-12T09:15:23Z</time>
      </trkpt>
      <trkpt lat="43.7289" lon="7.39561">
        <ele>346.52888861941</ele>
        <time>2013-03-12T09:15:27Z</time>
      </trkpt>
      <trkpt lat="43.72892" lon="7.39565">
        <ele>348.31169667911</ele>
        <time>2013-03-12T09:15:33Z</time>
      </trkpt>
      <trkpt lat="43.72895" lon="7.39568">
        <ele>348.31169667911</ele>
        <time>2013-03-12T09:15:37Z</time>
      </trkpt>
      <trkpt lat="43.72896" lon="7.3957">
        <ele>348.31169667911</ele>
        <time>2013-03-12T09:15:43Z</time>
      </trkpt>
      <trkpt lat="43.72899" lon="7.39571">
        <ele>348.31169667911</ele>
        <time>2013-03-12T09:15:47Z</time>
      </trkpt>
      <trkpt lat="43.72901" lon="7.39572">
        <ele>349.9830161814</ele>
        <time>2013-03-12T09:15:53Z</time>
      </trkpt>
      <trkpt lat="43.72903" lon="7.39575">
        <ele>349.9830161814</ele>
        <time>2013-03-12T09:15:58Z</time>
      </trkpt>
      <trkpt lat="43.72904" lon="7.3958">
        <ele>349.9830161814</ele>
        <time>2013-03-12T09:16:02Z</time>
      </trkpt>
      <trkpt lat="43.72905" lon="7.39583">
        <ele>349.9830161814</ele>
        <time>2013-03-12T09:16:08Z</time>
      </trkpt>
      <trkpt lat="43.72906" lon="7.39585">
        <ele>351.77597015502</ele>
        <time>2013-03-12T09:16:12Z</time>
      </trkpt>
      <trkpt lat="43.72908" lon="7.39589">
        <ele>351.77597015502</ele>
        <time>2013-03-12T09:16:17Z</time>
      </trkpt>
      <trkpt lat="43.7291" lon="7.39587">
        <ele>351.77597015502</ele>
        <time>2013-03-12T09:16:22Z</time>
      </trkpt>
      <trkpt lat="43.72908" lon="7.39584">
        <ele>351.77597015502</ele>
        <time>2013-03-12T09:16:27Z</time>
      </trkpt>
      <trkpt lat="43.72908" lon="7.39581">
        <ele>353.75449366063</ele>
        <time>2013-03-12T09:16:33Z</time>
      </trkpt>
      <trkpt lat="43.72907" lon="7.39574">
        <ele>353.75449366063</ele>
        <time>2013-03-12T09:16:37Z</time>
      </trkpt>
      <trkpt lat="43.72909" lon="7.39572">
        <ele>353.75449366063</ele>
        <time>2013-03-12T09:16:42Z</time>
      </trkpt>
      <trkpt lat="43.72909" lon="7.39575">
        <ele>355.52975534697</ele>
        <time>2013-03-12T09:16:47Z</time>
      </trkpt>
      <trkpt lat="43.7291" lon="7.39578">
        <ele>355.52975534697</ele>
        <time>2013-03-12T09:16:53Z</time>
      </trkpt>
      <trkpt lat="43.72911" lon="7.39579">
        <ele>355.52975534697</ele>
        <time>2013-03-12T09:16:57Z</time>
      </trkpt>
      <trkpt lat="43.72913" lon="7.39584">
        <ele>355.52975534697</ele>
        <time>2013-03-12T09:17:02Z</time>
      </trkpt>
      <trkpt lat="43.72914" lon="7.39588">
        <ele>357.56344450874</ele>
        <time>2013-03-12T09:17:08Z</time>
      </trkpt>
      <trkpt lat="43.72916" lon="7.39591">
        <ele>357.56344450874</ele>
        <time>2013-03-12T09:17:13Z</time>
      </trkpt>
      <trkpt lat="43.72916" lon="7.39593">
        <ele>357.56344450874</ele>
        <time>2013-03-12T09:17:17Z</time>
      </trkpt>
      <trkpt lat="43.72919" lon="7.39596">
        <ele>357.56344450874</ele>
        <time>2013-03-12T09:17:23Z</time>
      </trkpt>
      <trkpt lat="43.7292" lon="7.396">
        <ele>359.59594885563</ele>
        <time>2013-03-12T09:17:27Z</time>
      </trkpt>
      <trkpt lat="43.72922" lon="7.39603">
        <ele>359.59594885563</ele>
        <time>2013-03-12T09:17:33Z</time>
      </trkpt>
      <trkpt lat="43.72923" lon="7.39607">
        <ele>359.59594885563</ele>
        <time>2013-03-12T09:17:37Z</time>
      </trkpt>
      <trkpt lat="43.72925" lon="7.39609">
        <ele>359.59594885563</ele>
        <time>2013-03-12T09:17:43Z</time>
      </trkpt>
      <trkpt lat="43.72925" lon="7.39613">
        <ele>361.75910007574</ele>
        <time>2013-03-12T09:17:47Z</time>
      </trkpt>
      <trkpt lat="43.72927" lon="7.39619">
        <ele>361.75910007574</ele>
        <time>2013-03-12T09:17:53Z</time>
      </trkpt>
      <trkpt lat="43.72927" lon="7.39622">
        <ele>361.75910007574</ele>
        <time>2013-03-12T09:17:57Z</time>
      </trkpt>
      <trkpt lat="43.7293" lon="7.39625">
        <ele>363.59824738636</ele>
        <time>2013-03-12T09:18:03Z</time>
      </trkpt>
      <trkpt lat="43.72932" lon="7.39625">
        <ele>363.59824738636</ele>
        <time>2013-03-12T09:18:07Z</time>
      </trkpt>
      <trkpt lat="43.72933" lon="7.39629">
        <ele>363.59824738636</ele>
        <time>2013-03-12T09:18:13Z</time>
      </trkpt>
      <trkpt lat="43.72934" lon="7.39632">
        <ele>363.59824738636</ele>
        <time>2013-03-12T09:18:18Z</time>
      </trkpt>
      <trkpt lat="43.72935" lon="7.39635">
        <ele>365.3007504486</ele>
        <time>2013-03-12T09:18:22Z</time>
      </trkpt>
      <trkpt lat="43.72936" lon="7.39637">
        <ele>365.3007504486</ele>
        <time>2013-03-12T09:18:27Z</time>
      </trkpt>
      <trkpt lat="43.72936" lon="7.39641">
        <ele>365.3007504486</ele>
        <time>2013-03-12T09:18:32Z</time>
      </trkpt>
      <trkpt lat="43.72934" lon="7.39646">
        <ele>365.3007504486</ele>
        <time>2013-03-12T09:18:37Z</time>
      </trkpt>
      <trkpt lat="43.72934" lon="7.39651">
        <ele>367.36165658116</ele>
        <time>2013-03-12T09:18:42Z</time>
      </trkpt>
      <trkpt lat="43.72934" lon="7.39657">
        <ele>367.36165658116</ele>
        <time>2013-03-12T09:18:47Z</time>
      </trkpt>
      <trkpt lat="43.72935" lon="7.39661">
        <ele>367.36165658116</ele>
        <time>2013-03-12T09:18:53Z</time>
      </trkpt>
      <trkpt lat="43.72936" lon="7.39665">
        <ele>369.4872870238</ele>
        <time>2013-03-12T09:18:57Z</time>
      </trkpt>
      <trkpt lat="43.72936" lon="7.39668">
        <ele>369.4872870238</ele>
        <time>2013-03-12T09:19:02Z</time>
      </trkpt>
      <trkpt lat="43.72936" lon="7.39667">
        <ele>369.4872870238</ele>
        <time>2013-03-12T09:19:08Z</time>
      </trkpt>
      <trkpt lat="43.72936" lon="7.39667">
        <ele>369.4872870238</ele>
        <time>2013-03-12T09:19:12Z</time>
      </trkpt>
      <trkpt lat="43.72936" lon="7.39667">
        <ele>369.4872870238</ele>
        <time>2013-03-12T09:19:17Z</time>
      </trkpt>
      <trkpt lat="43.72936" lon="7.39667">
        <ele>369.4872870238</ele>
        <time>2013-03-12T09:19:22Z</time>
      </trkpt>
      <trkpt lat="43.72935" lon="7.39667">
        <ele>369.4872870238</ele>
        <time>2013-03-12T09:19:27Z</time>
      </trkpt>
      <trkpt lat="43.72938" lon="7.39673">
        <ele>371.4225702742</ele>
        <time>2013-03-12T09:19:32Z</time>
      </trkpt>
      <trkpt lat="43.7294" lon="7.39673">
        <ele>371.4225702742</ele>
        <time>2013-03-12T09:19:37Z</time>
      </trkpt>
      <trkpt lat="43.72939" lon="7.39668">
        <ele>371.4225702742</ele>
        <time>2013-03-12T09:19:42Z</time>
      </trkpt>
      <trkpt lat="43.72941" lon="7.39668">
        <ele>371.4225702742</ele>
        <time>2013-03-12T09:19:47Z</time>
      </trkpt>
      <trkpt lat="43.72941" lon="7.39667">
        <ele>371.4225702742</ele>
        <time>2013-03-12T09:19:52Z</time>
      </trkpt>
      <trkpt lat="43.72941" lon="7.39665">
        <ele>371.4225702742</ele>
        <time>2013-03-12T09:19:57Z</time>
      </trkpt>
      <trkpt lat="43.72944" lon="7.39661">
        <ele>373.37136418255</ele>
        <time>2013-03-12T09:20:02Z</time>
      </trkpt>
      <trkpt lat="43.72944" lon="7.3966">
        <ele>373.37136418255</ele>
        <time>2013-03-12T09:20:07Z</time>
      </trkpt>
      <trkpt lat="43.72945" lon="7.39659">
        <ele>373.37136418255</ele>
        <time>2013-03-12T09:20:12Z</time>
      </trkpt>
      <trkpt lat="43.72945" lon="7.39657">
        <ele>373.37136418255</ele>
        <time>2013-03-12T09:20:17Z</time>
      </trkpt>
      <trkpt lat="43.72947" lon="7.39651">
        <ele>373.37136418255</ele>
        <time>2013-03-12T09:20:23Z</time>
      </trkpt>
      <trkpt lat="43.72946" lon="7.39651">
        <ele>375.05492828486</ele>
        <time>2013-03-12T09:20:28Z</time>
      </trkpt>
      <trkpt lat="43.72946" lon="7.39651">
        <ele>375.05492828486</ele>
        <time>2013-03-12T09:20:32Z</time>
      </trkpt>
      <trkpt lat="43.72947" lon="7.3965">
        <ele>375.05492828486</ele>
        <time>2013-03-12T09:20:38Z</time>
      </trkpt>
      <trkpt lat="43.72947" lon="7.3965">
        <ele>375.05492828486</ele>
        <time>2013-03-12T09:20:42Z</time>
      </trkpt>
      <trkpt lat="43.72947" lon="7.39648">
        <ele>375.05492828486</ele>
        <time>2013-03-12T09:20:48Z</time>
      </trkpt>
      <trkpt lat="43.72947" lon="7.39646">
        <ele>375.05492828486</ele>
        <time>2013-03-12T09:20:52Z</time>
      </trkpt>
      <trkpt lat="43.72948" lon="7.39639">
        <ele>375.05492828486</ele>
        <time>2013-03-12T09:20:58Z</time>
      </trkpt>
      <trkpt lat="43.72949" lon="7.39638">
        <ele>376.39197756451</ele>
        <time>2013-03-12T09:21:02Z</time>
      </trkpt>
      <trkpt lat="43.72948" lon="7.39637">
        <ele>376.39197756451</ele>
        <time>2013-03-12T09:21:08Z</time>
      </trkpt>
      <trkpt lat="43.72948" lon="7.39635">
        <ele>376.39197756451</ele>
        <time>2013-03-12T09:21:12Z</time>
      </trkpt>
      <trkpt lat="43.72949" lon="7.39635">
        <ele>376.39197756451</ele>
        <time>2013-03-12T09:21:18Z</time>
      </trkpt>
      <trkpt lat="43.72949" lon="7.39635">
        <ele>376.39197756451</ele>
        <time>2013-03-12T09:21:22Z</time>
      </trkpt>
      <trkpt lat="43.72949" lon="7.39635">
        <ele>376.39197756451</ele>
        <time>2013-03-12T09:21:28Z</time>
      </trkpt>
      <trkpt lat="43.72949" lon="7.39635">
        <ele>376.39197756451</ele>
        <time>2013-03-12T09:21:32Z</time>
      </trkpt>
      <trkpt lat="43.72948" lon="7.39635">
        <ele>376.39197756451</ele>
        <time>2013-03-12T09:21:37Z</time>
      </trkpt>
      <trkpt lat="43.72949" lon="7.39634">
        <ele>376.39197756451</ele>
        <time>2013-03-12T09:21:42Z</time>
      </trkpt>
      <trkpt lat="43.72949" lon="7.39634">
        <ele>376.39197756451</ele>
        <time>2013-03-12T09:21:48Z</time>
      </trkpt>
      <trkpt lat="43.72949" lon="7.39634">
        <ele>376.39197756451</ele>
        <time>2013-03-12T09:21:52Z</time>
      </trkpt>
      <trkpt lat="43.72949" lon="7.39634">
        <ele>376.39197756451</ele>
        <time>2013-03-12T09:21:57Z</time>
      </trkpt>
      <trkpt lat="43.72949" lon="7.39634">
        <ele>376.39197756451</ele>
        <time>2013-03-12T09:22:02Z</time>
      </trkpt>
      <trkpt lat="43.72948" lon="7.3963">
        <ele>376.39197756451</ele>
        <time>2013-03-12T09:22:08Z</time>
      </trkpt>
      <trkpt lat="43.72949" lon="7.39627">
        <ele>377.94740560773</ele>
        <time>2013-03-12T09:22:12Z</time>
      </trkpt>
      <trkpt lat="43.72948" lon="7.39624">
        <ele>377.94740560773</ele>
        <time>2013-03-12T09:22:17Z</time>
      </trkpt>
      <trkpt lat="43.72949" lon="7.39617">
        <ele>377.94740560773</ele>
        <time>2013-03-12T09:22:23Z</time>
      </trkpt>
      <trkpt lat="43.72948" lon="7.39614">
        <ele>380.13951055354</ele>
        <time>2013-03-12T09:22:27Z</time>
      </trkpt>
      <trkpt lat="43.72949" lon="7.39609">
        <ele>380.13951055354</ele>
        <time>2013-03-12T09:22:32Z</time>
      </trkpt>
      <trkpt lat="43.7295" lon="7.39608">
        <ele>380.13951055354</ele>
        <time>2013-03-12T09:22:37Z</time>
      </trkpt>
      <trkpt lat="43.72951" lon="7.39604">
        <ele>380.13951055354</ele>
        <time>2013-03-12T09:22:42Z</time>
      </trkpt>
      <trkpt lat="43.72952" lon="7.39609">
        <ele>381.97615402289</ele>
        <time>2013-03-12T09:22:48Z</time>
      </trkpt>
      <trkpt lat="43.72952" lon="7.39612">
        <ele>381.97615402289</ele>
        <time>2013-03-12T09:22:52Z</time>
      </trkpt>
      <trkpt lat="43.72952" lon="7.39614">
        <ele>381.97615402289</ele>
        <time>2013-03-12T09:22:58Z</time>
      </trkpt>
      <trkpt lat="43.72953" lon="7.39617">
        <ele>381.97615402289</ele>
        <time>2013-03-12T09:23:02Z</time>
      </trkpt>
      <trkpt lat="43.72954" lon="7.39619">
        <ele>381.97615402289</ele>
        <time>2013-03-12T09:23:08Z</time>
      </trkpt>
      <trkpt lat="43.72954" lon="7.3962">
        <ele>381.97615402289</ele>
        <time>2013-03-12T09:23:12Z</time>
      </trkpt>
      <trkpt lat="43.72957" lon="7.39624">
        <ele>384.13523673476</ele>
        <time>2013-03-12T09:23:18Z</time>
      </trkpt>
      <trkpt lat="43.72959" lon="7.39628">
        <ele>384.13523673476</ele>
        <time>2013-03-12T09:23:22Z</time>
      </trkpt>
      <trkpt lat="43.72959" lon="7.39633">
        <ele>384.13523673476</ele>
        <time>2013-03-12T09:23:27Z</time>
      </trkpt>
      <trkpt lat="43.72961" lon="7.39636">
        <ele>386.12807956401</ele>
        <time>2013-03-12T09:23:33Z</time>
      </trkpt>
      <trkpt lat="43.72961" lon="7.3964">
        <ele>386.12807956401</ele>
        <time>2013-03-12T09:23:37Z</time>
      </trkpt>
      <trkpt lat="43.7296" lon="7.39645">
        <ele>386.12807956401</ele>
        <time>2013-03-12T09:23:43Z</time>
      </trkpt>
      <trkpt lat="43.72961" lon="7.3965">
        <ele>388.1541669502</ele>
        <time>2013-03-12T09:23:48Z</time>
      </trkpt>
      <trkpt lat="43.72962" lon="7.39655">
        <ele>388.1541669502</ele>
        <time>2013-03-12T09:23:52Z</time>
      </trkpt>
      <trkpt lat="43.72964" lon="7.39659">
        <ele>388.1541669502</ele>
        <time>2013-03-12T09:23:57Z</time>
      </trkpt>
      <trkpt lat="43.72962" lon="7.39664">
        <ele>390.23884777922</ele>
        <time>2013-03-12T09:24:02Z</time>
      </trkpt>
      <trkpt lat="43.72962" lon="7.39668">
        <ele>390.23884777922</ele>
        <time>2013-03-12T09:24:07Z</time>
      </trkpt>
      <trkpt lat="43.72962" lon="7.39674">
        <ele>390.23884777922</ele>
        <time>2013-03-12T09:24:12Z</time>
      </trkpt>
      <trkpt lat="43.72963" lon="7.39678">
        <ele>392.10227945251</ele>
        <time>2013-03-12T09:24:18Z</time>
      </trkpt>
      <trkpt lat="43.72965" lon="7.39683">
        <ele>392.10227945251</ele>
        <time>2013-03-12T09:24:22Z</time>
      </trkpt>
      <trkpt lat="43.72966" lon="7.39687">
        <ele>392.10227945251</ele>
        <time>2013-03-12T09:24:28Z</time>
      </trkpt>
      <trkpt lat="43.72967" lon="7.39689">
        <ele>392.10227945251</ele>
        <time>2013-03-12T09:24:32Z</time>
      </trkpt>
      <trkpt lat="43.72968" lon="7.39694">
        <ele>393.97686636497</ele>
        <time>2013-03-12T09:24:37Z</time>
      </trkpt>
      <trkpt lat="43.7297" lon="7.39698">
        <ele>393.97686636497</ele>
        <time>2013-03-12T09:24:42Z</time>
      </trkpt>
      <trkpt lat="43.7297" lon="7.39701">
        <ele>393.97686636497</ele>
        <time>2013-03-12T09:24:47Z</time>
      </trkpt>
      <trkpt lat="43.72971" lon="7.39705">
        <ele>393.97686636497</ele>
        <time>2013-03-12T09:24:52Z</time>
      </trkpt>
      <trkpt lat="43.72972" lon="7.39709">
        <ele>395.73136423162</ele>
        <time>2013-03-12T09:24:57Z</time>
      </trkpt>
      <trkpt lat="43.72973" lon="7.39714">
        <ele>395.73136423162</ele>
        <time>2013-03-12T09:25:02Z</time>
      </trkpt>
      <trkpt lat="43.72975" lon="7.39717">
        <ele>395.73136423162</ele>
        <time>2013-03-12T09:25:07Z</time>
      </trkpt>
      <trkpt lat="43.72976" lon="7.39719">
        <ele>395.73136423162</ele>
        <time>2013-03-12T09:25:12Z</time>
      </trkpt>
      <trkpt lat="43.72978" lon="7.39722">
        <ele>397.56194180704</ele>
        <time>2013-03-12T09:25:17Z</time>
      </trkpt>
      <trkpt lat="43.72979" lon="7.39726">
        <ele>397.56194180704</ele>
        <time>2013-03-12T09:25:22Z</time>
      </trkpt>
      <trkpt lat="43.72978" lon="7.3973">
        <ele>397.56194180704</ele>
        <time>2013-03-12T09:25:27Z</time>
      </trkpt>
      <trkpt lat="43.72979" lon="7.39734">
        <ele>397.56194180704</ele>
        <time>2013-03-12T09:25:32Z</time>
      </trkpt>
      <trkpt lat="43.7298" lon="7.3974">
        <ele>399.83747931745</ele>
        <time>2013-03-12T09:25:38Z</time>
      </trkpt>
      <trkpt lat="43.7298" lon="7.39744">
        <ele>399.83747931745</ele>
        <time>2013-03-12T09:25:43Z</time>
      </trkpt>
      <trkpt lat="43.7298" lon="7.39749">
        <ele>399.83747931745</ele>
        <time>2013-03-12T09:25:47Z</time>
      </trkpt>
      <trkpt lat="43.7298" lon="7.39752">
        <ele>399.83747931745</ele>
        <time>2013-03-12T09:25:53Z</time>
      </trkpt>
      <trkpt lat="43.72981" lon="7.39757">
        <ele>402.36491101253</ele>
        <time>2013-03-12T09:25:58Z</time>
      </trkpt>
      <trkpt lat="43.72982" lon="7.3976">
        <ele>402.36491101253</ele>
        <time>2013-03-12T09:26:02Z</time>
      </trkpt>
      <trkpt lat="43.72982" lon="7.39766">
        <ele>402.36491101253</ele>
        <time>2013-03-12T09:26:08Z</time>
      </trkpt>
      <trkpt lat="43.72981" lon="7.3977">
        <ele>405.06573135629</ele>
        <time>2013-03-12T09:26:12Z</time>
      </trkpt>
      <trkpt lat="43.72982" lon="7.39774">
        <ele>405.06573135629</ele>
        <time>2013-03-12T09:26:18Z</time>
      </trkpt>
      <trkpt lat="43.72984" lon="7.39779">
        <ele>405.06573135629</ele>
        <time>2013-03-12T09:26:22Z</time>
      </trkpt>
      <trkpt lat="43.72986" lon="7.39781">
        <ele>407.93887368252</ele>
        <time>2013-03-12T09:26:27Z</time>
      </trkpt>
      <trkpt lat="43.72987" lon="7.39785">
        <ele>407.93887368252</ele>
        <time>2013-03-12T09:26:33Z</time>
      </trkpt>
      <trkpt lat="43.72989" lon="7.39787">
        <ele>407.93887368252</ele>
        <time>2013-03-12T09:26:37Z</time>
      </trkpt>
      <trkpt lat="43.7299" lon="7.39791">
        <ele>407.93887368252</ele>
        <time>2013-03-12T09:26:43Z</time>
      </trkpt>
      <trkpt lat="43.7299" lon="7.39795">
        <ele>410.79548328235</ele>
        <time>2013-03-12T09:26:48Z</time>
      </trkpt>
      <trkpt lat="43.7299" lon="7.39798">
        <ele>410.79548328235</ele>
        <time>2013-03-12T09:26:52Z</time>
      </trkpt>
      <trkpt lat="43.72992" lon="7.39802">
        <ele>410.79548328235</ele>
        <time>2013-03-12T09:26:58Z</time>
      </trkpt>
      <trkpt lat="43.72993" lon="7.39805">
        <ele>410.79548328235</ele>
        <time>2013-03-12T09:27:02Z</time>
      </trkpt>
      <trkpt lat="43.72994" lon="7.3981">
        <ele>413.57600624548</ele>
        <time>2013-03-12T09:27:07Z</time>
      </trkpt>
      <trkpt lat="43.72993" lon="7.39811">
        <ele>413.57600624548</ele>
        <time>2013-03-12T09:27:12Z</time>
      </trkpt>
      <trkpt lat="43.72994" lon="7.39814">
        <ele>413.57600624548</ele>
        <time>2013-03-12T09:27:17Z</time>
      </trkpt>
      <trkpt lat="43.72994" lon="7.39818">
        <ele>413.57600624548</ele>
        <time>2013-03-12T09:27:22Z</time>
      </trkpt>
      <trkpt lat="43.72995" lon="7.39822">
        <ele>413.57600624548</ele>
        <time>2013-03-12T09:27:27Z</time>
      </trkpt>
      <trkpt lat="43.72996" lon="7.39825">
        <ele>416.18225292825</ele>
        <time>2013-03-12T09:27:32Z</time>
      </trkpt>
      <trkpt lat="43.72998" lon="7.39829">
        <ele>416.18225292825</ele>
        <time>2013-03-12T09:27:37Z</time>
      </trkpt>
      <trkpt lat="43.72999" lon="7.39834">
        <ele>416.18225292825</ele>
        <time>2013-03-12T09:27:43Z</time>
      </trkpt>
      <trkpt lat="43.72998" lon="7.39837">
        <ele>418.62470282528</ele>
        <time>2013-03-12T09:27:47Z</time>
      </trkpt>
      <trkpt lat="43.72998" lon="7.3984">
        <ele>418.62470282528</ele>
        <time>2013-03-12T09:27:52Z</time>
      </trkpt>
      <trkpt lat="43.72998" lon="7.39844">
        <ele>418.62470282528</ele>
        <time>2013-03-12T09:27:57Z</time>
      </trkpt>
      <trkpt lat="43.73" lon="7.39847">
        <ele>418.62470282528</ele>
        <time>2013-03-12T09:28:02Z</time>
      </trkpt>
      <trkpt lat="43.73002" lon="7.39851">
        <ele>420.78379494819</ele>
        <time>2013-03-12T09:28:07Z</time>
      </trkpt>
      <trkpt lat="43.73003" lon="7.39856">
        <ele>420.78379494819</ele>
        <time>2013-03-12T09:28:12Z</time>
      </trkpt>
      <trkpt lat="43.73004" lon="7.3986">
        <ele>420.78379494819</ele>
        <time>2013-03-12T09:28:17Z</time>
      </trkpt>
      <trkpt lat="43.73004" lon="7.39862">
        <ele>420.78379494819</ele>
        <time>2013-03-12T09:28:22Z</time>
      </trkpt>
      <trkpt lat="43.73006" lon="7.39867">
        <ele>422.95337654754</ele>
        <time>2013-03-12T09:28:28Z</time>
      </trkpt>
      <trkpt lat="43.73006" lon="7.39871">
        <ele>422.95337654754</ele>
        <time>2013-03-12T09:28:32Z</time>
      </trkpt>
      <trkpt lat="43.73007" lon="7.39874">
        <ele>422.95337654754</ele>
        <time>2013-03-12T09:28:37Z</time>
      </trkpt>
      <trkpt lat="43.73007" lon="7.39874">
        <ele>422.95337654754</ele>
        <time>2013-03-12T09:28:43Z</time>
      </trkpt>
      <trkpt lat="43.73007" lon="7.39877">
        <ele>422.95337654754</ele>
        <time>2013-03-12T09:28:47Z</time>
      </trkpt>
      <trkpt lat="43.73007" lon="7.3988">
        <ele>424.95870229903</ele>
        <time>2013-03-12T09:28:52Z</time>
      </trkpt>
      <trkpt lat="43.73008" lon="7.39885">
        <ele>424.95870229903</ele>
        <time>2013-03-12T09:28:58Z</time>
      </trkpt>
      <trkpt lat="43.73008" lon="7.39889">
        <ele>424.95870229903</ele>
        <time>2013-03-12T09:29:02Z</time>
      </trkpt>
      <trkpt lat="43.73008" lon="7.39892">
        <ele>424.95870229903</ele>
        <time>2013-03-12T09:29:08Z</time>
      </trkpt>
      <trkpt lat="43.7301" lon="7.39895">
        <ele>427.05661732591</ele>
        <time>2013-03-12T09:29:12Z</time>
      </trkpt>
      <trkpt lat="43.7301" lon="7.39898">
        <ele>427.05661732591</ele>
        <time>2013-03-12T09:29:18Z</time>
      </trkpt>
      <trkpt lat="43.73011" lon="7.39902">
        <ele>427.05661732591</ele>
        <time>2013-03-12T09:29:22Z</time>
      </trkpt>
      <trkpt lat="43.73012" lon="7.39906">
        <ele>427.05661732591</ele>
        <time>2013-03-12T09:29:27Z</time>
      </trkpt>
      <trkpt lat="43.73011" lon="7.39911">
        <ele>428.99453071113</ele>
        <time>2013-03-12T09:29:32Z</time>
      </trkpt>
      <trkpt lat="43.73011" lon="7.39915">
        <ele>428.99453071113</ele>
        <time>2013-03-12T09:29:37Z</time>
      </trkpt>
      <trkpt lat="43.73011" lon="7.39919">
        <ele>428.99453071113</ele>
        <time>2013-03-12T09:29:43Z</time>
      </trkpt>
      <trkpt lat="43.73011" lon="7.39923">
        <ele>430.8706358685</ele>
        <time>2013-03-12T09:29:47Z</time>
      </trkpt>
      <trkpt lat="43.73012" lon="7.39927">
        <ele>430.8706358685</ele>
        <time>2013-03-12T09:29:52Z</time>
      </trkpt>
      <trkpt lat="43.73013" lon="7.39931">
        <ele>430.8706358685</ele>
        <time>2013-03-12T09:29:58Z</time>
      </trkpt>
      <trkpt lat="43.73014" lon="7.39934">
        <ele>430.8706358685</ele>
        <time>2013-03-12T09:30:02Z</time>
      </trkpt>
      <trkpt lat="43.73013" lon="7.39937">
        <ele>432.60305331669</ele>
        <time>2013-03-12T09:30:07Z</time>
      </trkpt>
      <trkpt lat="43.73014" lon="7.39941">
        <ele>432.60305331669</ele>
        <time>2013-03-12T09:30:12Z</time>
      </trkpt>
      <trkpt lat="43.73015" lon="7.39944">
        <ele>432.60305331669</ele>
        <time>2013-03-12T09:30:17Z</time>
      </trkpt>
      <trkpt lat="43.73017" lon="7.39946">
        <ele>432.60305331669</ele>
        <time>2013-03-12T09:30:22Z</time>
      </trkpt>
      <trkpt lat="43.73018" lon="7.3995">
        <ele>433.66921395568</ele>
        <time>2013-03-12T09:30:27Z</time>
      </trkpt>
      <trkpt lat="43.73017" lon="7.39953">
        <ele>433.66921395568</ele>
        <time>2013-03-12T09:30:32Z</time>
      </trkpt>
      <trkpt lat="43.73017" lon="7.39957">
        <ele>433.66921395568</ele>
        <time>2013-03-12T09:30:38Z</time>
      </trkpt>
      <trkpt lat="43.73018" lon="7.39962">
        <ele>433.66921395568</ele>
        <time>2013-03-12T09:30:42Z</time>
      </trkpt>
      <trkpt lat="43.73017" lon="7.39966">
        <ele>435.00046586857</ele>
        <time>2013-03-12T09:30:48Z</time>
      </trkpt>
      <trkpt lat="43.73018" lon="7.39969">
        <ele>435.00046586857</ele>
        <time>2013-03-12T09:30:52Z</time>
      </trkpt>
      <trkpt lat="43.73018" lon="7.39974">
        <ele>435.00046586857</ele>
        <time>2013-03-12T09:30:58Z</time>
      </trkpt>
      <trkpt lat="43.73019" lon="7.39979">
        <ele>436.27617805429</ele>
        <time>2013-03-12T09:31:03Z</time>
      </trkpt>
      <trkpt lat="43.73018" lon="7.39982">
        <ele>436.27617805429</ele>
        <time>2013-03-12T09:31:08Z</time>
      </trkpt>
      <trkpt lat="43.73018" lon="7.39986">
        <ele>436.27617805429</ele>
        <time>2013-03-12T09:31:12Z</time>
      </trkpt>
      <trkpt lat="43.73017" lon="7.3999">
        <ele>436.27617805429</ele>
        <time>2013-03-12T09:31:17Z</time>
      </trkpt>
      <trkpt lat="43.73016" lon="7.39995">
        <ele>437.64662140558</ele>
        <time>2013-03-12T09:31:23Z</time>
      </trkpt>
      <trkpt lat="43.73016" lon="7.39999">
        <ele>437.64662140558</ele>
        <time>2013-03-12T09:31:27Z</time>
      </trkpt>
      <trkpt lat="43.73017" lon="7.40004">
        <ele>437.64662140558</ele>
        <time>2013-03-12T09:31:33Z</time>
      </trkpt>
      <trkpt lat="43.73016" lon="7.4001">
        <ele>438.84688598338</ele>
        <time>2013-03-12T09:31:37Z</time>
      </trkpt>
      <trkpt lat="43.73016" lon="7.40013">
        <ele>438.84688598338</ele>
        <time>2013-03-12T09:31:43Z</time>
      </trkpt>
      <trkpt lat="43.73016" lon="7.40017">
        <ele>438.84688598338</ele>
        <time>2013-03-12T09:31:47Z</time>
      </trkpt>
      <trkpt lat="43.73016" lon="7.40022">
        <ele>438.84688598338</ele>
        <time>2013-03-12T09:31:52Z</time>
      </trkpt>
      <trkpt lat="43.73016" lon="7.40027">
        <ele>440.28109898185</ele>
        <time>2013-03-12T09:31:58Z</time>
      </trkpt>
      <trkpt lat="43.73016" lon="7.4003">
        <ele>440.28109898185</ele>
        <time>2013-03-12T09:32:02Z</time>
      </trkpt>
      <trkpt lat="43.73017" lon="7.40035">
        <ele>440.28109898185</ele>
        <time>2013-03-12T09:32:08Z</time>
      </trkpt>
      <trkpt lat="43.73016" lon="7.40038">
        <ele>440.28109898185</ele>
        <time>2013-03-12T09:32:12Z</time>
      </trkpt>
      <trkpt lat="43.73015" lon="7.4004">
        <ele>441.8037477125</ele>
        <time>2013-03-12T09:32:17Z</time>
      </trkpt>
      <trkpt lat="43.73014" lon="7.40044">
        <ele>441.8037477125</ele>
        <time>2013-03-12T09:32:22Z</time>
      </trkpt>
      <trkpt lat="43.73013" lon="7.40048">
        <ele>441.8037477125</ele>
        <time>2013-03-12T09:32:28Z</time>
      </trkpt>
      <trkpt lat="43.73011" lon="7.40051">
        <ele>441.8037477125</ele>
        <time>2013-03-12T09:32:32Z</time>
      </trkpt>
      <trkpt lat="43.73011" lon="7.40055">
        <ele>443.71244922136</ele>
        <time>2013-03-12T09:32:37Z</time>
      </trkpt>
      <trkpt lat="43.73011" lon="7.40058">
        <ele>443.71244922136</ele>
        <time>2013-03-12T09:32:42Z</time>
      </trkpt>
      <trkpt lat="43.73013" lon="7.40058">
        <ele>443.71244922136</ele>
        <time>2013-03-12T09:32:48Z</time>
      </trkpt>
      <trkpt lat="43.73013" lon="7.40057">
        <ele>443.71244922136</ele>
        <time>2013-03-12T09:32:52Z</time>
      </trkpt>
      <trkpt lat="43.73014" lon="7.40058">
        <ele>443.71244922136</ele>
        <time>2013-03-12T09:32:57Z</time>
      </trkpt>
      <trkpt lat="43.73015" lon="7.40058">
        <ele>443.71244922136</ele>
        <time>2013-03-12T09:33:03Z</time>
      </trkpt>
      <trkpt lat="43.73015" lon="7.40058">
        <ele>443.71244922136</ele>
        <time>2013-03-12T09:33:07Z</time>
      </trkpt>
      <trkpt lat="43.73016" lon="7.40058">
        <ele>443.71244922136</ele>
        <time>2013-03-12T09:33:13Z</time>
      </trkpt>
      <trkpt lat="43.73015" lon="7.40057">
        <ele>443.71244922136</ele>
        <time>2013-03-12T09:33:17Z</time>
      </trkpt>
      <trkpt lat="43.73015" lon="7.40057">
        <ele>443.71244922136</ele>
        <time>2013-03-12T09:33:22Z</time>
      </trkpt>
      <trkpt lat="43.73015" lon="7.40057">
        <ele>443.71244922136</ele>
        <time>2013-03-12T09:33:27Z</time>
      </trkpt>
      <trkpt lat="43.73015" lon="7.40057">
        <ele>443.71244922136</ele>
        <time>2013-03-12T09:33:32Z</time>
      </trkpt>
      <trkpt lat="43.73015" lon="7.40057">
        <ele>443.71244922136</ele>
        <time>2013-03-12T09:33:37Z</time>
      </trkpt>
      <trkpt lat="43.73015" lon="7.40057">
        <ele>443.71244922136</ele>
        <time>2013-03-12T09:33:42Z</time>
      </trkpt>
      <trkpt lat="43.73015" lon="7.40057">
        <ele>443.71244922136</ele>
        <time>2013-03-12T09:33:47Z</time>
      </trkpt>
      <trkpt lat="43.73015" lon="7.40057">
        <ele>443.71244922136</ele>
        <time>2013-03-12T09:33:52Z</time>
      </trkpt>
      <trkpt lat="43.73015" lon="7.40057">
        <ele>443.71244922136</ele>
        <time>2013-03-12T09:33:58Z</time>
      </trkpt>
      <trkpt lat="43.73015" lon="7.40057">
        <ele>443.71244922136</ele>
        <time>2013-03-12T09:34:02Z</time>
      </trkpt>
      <trkpt lat="43.73015" lon="7.40057">
        <ele>443.71244922136</ele>
        <time>2013-03-12T09:34:08Z</time>
      </trkpt>
      <trkpt lat="43.73015" lon="7.40057">
        <ele>443.71244922136</ele>
        <time>2013-03-12T09:34:12Z</time>
      </trkpt>
      <trkpt lat="43.73015" lon="7.40057">
        <ele>443.71244922136</ele>
        <time>2013-03-12T09:34:18Z</time>
      </trkpt>
      <trkpt lat="43.73015" lon="7.40057">
        <ele>443.71244922136</ele>
        <time>2013-03-12T09:34:22Z</time>
      </trkpt>
      <trkpt lat="43.73015" lon="7.40057">
        <ele>443.71244922136</ele>
        <time>2013-03-12T09:34:28Z</time>
      </trkpt>
      <trkpt lat="43.73015" lon="7.40057">
        <ele>443.71244922136</ele>
        <time>2013-03-12T09:34:32Z</time>
      </trkpt>
      <trkpt lat="43.73015" lon="7.40057">
        <ele>443.71244922136</ele>
        <time>2013-03-12T09:34:37Z</time>
      </trkpt>
      <trkpt lat="43.73015" lon="7.40057">
        <ele>443.71244922136</ele>
        <time>2013-03-12T09:34:42Z</time>
      </trkpt>
      <trkpt lat="43.73015" lon="7.40057">
        <ele>443.71244922136</ele>
        <time>2013-03-12T09:34:48Z</time>
      </trkpt>
      <trkpt lat="43.73015" lon="7.40057">
        <ele>443.71244922136</ele>
        <time>2013-03-12T09:34:53Z</time>
      </trkpt>
      <trkpt lat="43.73015" lon="7.40057">
        <ele>443.71244922136</ele>
        <time>2013-03-12T09:34:57Z</time>
      </trkpt>
      <trkpt lat="43.73015" lon="7.40059">
        <ele>443.71244922136</ele>
        <time>2013-03-12T09:35:03Z</time>
      </trkpt>
      <trkpt lat="43.73015" lon="7.40059">
        <ele>443.71244922136</ele>
        <time>2013-03-12T09:35:07Z</time>
      </trkpt>
      <trkpt lat="43.73015" lon="7.40059">
        <ele>443.71244922136</ele>
        <time>2013-03-12T09:35:13Z</time>
      </trkpt>
      <trkpt lat="43.73015" lon="7.40059">
        <ele>444.60888304018</ele>
        <time>2013-03-12T09:35:17Z</time>
      </trkpt>
      <trkpt lat="43.73015" lon="7.40059">
        <ele>444.60888304018</ele>
        <time>2013-03-12T09:35:22Z</time>
      </trkpt>
      <trkpt lat="43.73015" lon="7.40059">
        <ele>444.60888304018</ele>
        <time>2013-03-12T09:35:28Z</time>
      </trkpt>
      <trkpt lat="43.73015" lon="7.40059">
        <ele>444.60888304018</ele>
        <time>2013-03-12T09:35:32Z</time>
      </trkpt>
      <trkpt lat="43.73015" lon="7.40059">
        <ele>444.60888304018</ele>
        <time>2013-03-12T09:35:37Z</time>
      </trkpt>
      <trkpt lat="43.73015" lon="7.40059">
        <ele>444.60888304018</ele>
        <time>2013-03-12T09:35:42Z</time>
      </trkpt>
      <trkpt lat="43.73015" lon="7.40059">
        <ele>444.60888304018</ele>
        <time>2013-03-12T09:35:47Z</time>
      </trkpt>
      <trkpt lat="43.73015" lon="7.40059">
        <ele>444.60888304018</ele>
        <time>2013-03-12T09:35:52Z</time>
      </trkpt>
      <trkpt lat="43.73015" lon="7.40061">
        <ele>444.60888304018</ele>
        <time>2013-03-12T09:35:58Z</time>
      </trkpt>
      <trkpt lat="43.73016" lon="7.40061">
        <ele>444.60888304018</ele>
        <time>2013-03-12T09:36:02Z</time>
      </trkpt>
      <trkpt lat="43.73016" lon="7.40062">
        <ele>444.60888304018</ele>
        <time>2013-03-12T09:36:07Z</time>
      </trkpt>
      <trkpt lat="43.73018" lon="7.40061">
        <ele>444.60888304018</ele>
        <time>2013-03-12T09:36:12Z</time>
      </trkpt>
      <trkpt lat="43.73019" lon="7.40059">
        <ele>444.60888304018</ele>
        <time>2013-03-12T09:36:17Z</time>
      </trkpt>
      <trkpt lat="43.73019" lon="7.40057">
        <ele>444.60888304018</ele>
        <time>2013-03-12T09:36:22Z</time>
      </trkpt>
      <trkpt lat="43.73021" lon="7.40054">
        <ele>445.40699095877</ele>
        <time>2013-03-12T09:36:27Z</time>
      </trkpt>
      <trkpt lat="43.73021" lon="7.40052">
        <ele>445.40699095877</ele>
        <time>2013-03-12T09:36:32Z</time>
      </trkpt>
      <trkpt lat="43.73022" lon="7.40052">
        <ele>445.40699095877</ele>
        <time>2013-03-12T09:36:37Z</time>
      </trkpt>
      <trkpt lat="43.73022" lon="7.40052">
        <ele>445.40699095877</ele>
        <time>2013-03-12T09:36:42Z</time>
      </trkpt>
      <trkpt lat="43.73023" lon="7.40054">
        <ele>445.40699095877</ele>
        <time>2013-03-12T09:36:47Z</time>
      </trkpt>
      <trkpt lat="43.73024" lon="7.40051">
        <ele>445.40699095877</ele>
        <time>2013-03-12T09:36:52Z</time>
      </trkpt>
      <trkpt lat="43.73025" lon="7.4005">
        <ele>445.40699095877</ele>
        <time>2013-03-12T09:36:57Z</time>
      </trkpt>
      <trkpt lat="43.73027" lon="7.40048">
        <ele>446.3335677983</ele>
        <time>2013-03-12T09:37:02Z</time>
      </trkpt>
      <trkpt lat="43.73028" lon="7.40044">
        <ele>446.3335677983</ele>
        <time>2013-03-12T09:37:07Z</time>
      </trkpt>
      <trkpt lat="43.73031" lon="7.40041">
        <ele>446.3335677983</ele>
        <time>2013-03-12T09:37:12Z</time>
      </trkpt>
      <trkpt lat="43.73034" lon="7.40037">
        <ele>446.7475568208</ele>
        <time>2013-03-12T09:37:17Z</time>
      </trkpt>
      <trkpt lat="43.73034" lon="7.40032">
        <ele>446.7475568208</ele>
        <time>2013-03-12T09:37:22Z</time>
      </trkpt>
      <trkpt lat="43.73033" lon="7.40025">
        <ele>446.7475568208</ele>
        <time>2013-03-12T09:37:27Z</time>
      </trkpt>
      <trkpt lat="43.73034" lon="7.4002">
        <ele>447.48399885332</ele>
        <time>2013-03-12T09:37:32Z</time>
      </trkpt>
      <trkpt lat="43.73036" lon="7.40016">
        <ele>447.48399885332</ele>
        <time>2013-03-12T09:37:38Z</time>
      </trkpt>
      <trkpt lat="43.73038" lon="7.40012">
        <ele>447.48399885332</ele>
        <time>2013-03-12T09:37:42Z</time>
      </trkpt>
      <trkpt lat="43.7304" lon="7.40007">
        <ele>448.40712762167</ele>
        <time>2013-03-12T09:37:48Z</time>
      </trkpt>
      <trkpt lat="43.73042" lon="7.40004">
        <ele>448.40712762167</ele>
        <time>2013-03-12T09:37:52Z</time>
      </trkpt>
      <trkpt lat="43.73043" lon="7.40002">
        <ele>448.40712762167</ele>
        <time>2013-03-12T09:37:58Z</time>
      </trkpt>
      <trkpt lat="43.73044" lon="7.39997">
        <ele>448.40712762167</ele>
        <time>2013-03-12T09:38:03Z</time>
      </trkpt>
      <trkpt lat="43.73044" lon="7.39995">
        <ele>449.03017352532</ele>
        <time>2013-03-12T09:38:07Z</time>
      </trkpt>
      <trkpt lat="43.73044" lon="7.3999">
        <ele>449.03017352532</ele>
        <time>2013-03-12T09:38:12Z</time>
      </trkpt>
      <trkpt lat="43.73044" lon="7.39987">
        <ele>449.03017352532</ele>
        <time>2013-03-12T09:38:17Z</time>
      </trkpt>
      <trkpt lat="43.73046" lon="7.39984">
        <ele>449.03017352532</ele>
        <time>2013-03-12T09:38:22Z</time>
      </trkpt>
      <trkpt lat="43.73048" lon="7.3998">
        <ele>450.40234183389</ele>
        <time>2013-03-12T09:38:27Z</time>
      </trkpt>
      <trkpt lat="43.73048" lon="7.39978">
        <ele>450.40234183389</ele>
        <time>2013-03-12T09:38:32Z</time>
      </trkpt>
      <trkpt lat="43.73049" lon="7.39974">
        <ele>450.40234183389</ele>
        <time>2013-03-12T09:38:38Z</time>
      </trkpt>
      <trkpt lat="43.73051" lon="7.39969">
        <ele>450.40234183389</ele>
        <time>2013-03-12T09:38:42Z</time>
      </trkpt>
      <trkpt lat="43.73051" lon="7.39969">
        <ele>452.09505747769</ele>
        <time>2013-03-12T09:38:47Z</time>
      </trkpt>
      <trkpt lat="43.73053" lon="7.39966">
        <ele>452.09505747769</ele>
        <time>2013-03-12T09:38:52Z</time>
      </trkpt>
      <trkpt lat="43.73054" lon="7.39959">
        <ele>452.09505747769</ele>
        <time>2013-03-12T09:38:57Z</time>
      </trkpt>
      <trkpt lat="43.73054" lon="7.39955">
        <ele>453.40763196449</ele>
        <time>2013-03-12T09:39:02Z</time>
      </trkpt>
      <trkpt lat="43.73058" lon="7.39951">
        <ele>453.40763196449</ele>
        <time>2013-03-12T09:39:07Z</time>
      </trkpt>
      <trkpt lat="43.73058" lon="7.39948">
        <ele>453.40763196449</ele>
        <time>2013-03-12T09:39:12Z</time>
      </trkpt>
      <trkpt lat="43.73059" lon="7.39945">
        <ele>454.4559565656</ele>
        <time>2013-03-12T09:39:17Z</time>
      </trkpt>
      <trkpt lat="43.73058" lon="7.39942">
        <ele>454.4559565656</ele>
        <time>2013-03-12T09:39:22Z</time>
      </trkpt>
      <trkpt lat="43.73059" lon="7.39941">
        <ele>454.4559565656</ele>
        <time>2013-03-12T09:39:28Z</time>
      </trkpt>
      <trkpt lat="43.73056" lon="7.39941">
        <ele>454.4559565656</ele>
        <time>2013-03-12T09:39:32Z</time>
      </trkpt>
      <trkpt lat="43.73056" lon="7.39941">
        <ele>454.4559565656</ele>
        <time>2013-03-12T09:39:37Z</time>
      </trkpt>
      <trkpt lat="43.73057" lon="7.39942">
        <ele>454.4559565656</ele>
        <time>2013-03-12T09:39:42Z</time>
      </trkpt>
      <trkpt lat="43.73056" lon="7.39943">
        <ele>454.4559565656</ele>
        <time>2013-03-12T09:39:47Z</time>
      </trkpt>
      <trkpt lat="43.73056" lon="7.39946">
        <ele>456.60211147235</ele>
        <time>2013-03-12T09:39:52Z</time>
      </trkpt>
      <trkpt lat="43.73057" lon="7.39948">
        <ele>456.60211147235</ele>
        <time>2013-03-12T09:39:57Z</time>
      </trkpt>
      <trkpt lat="43.73058" lon="7.3995">
        <ele>456.60211147235</ele>
        <time>2013-03-12T09:40:02Z</time>
      </trkpt>
      <trkpt lat="43.73057" lon="7.39956">
        <ele>456.60211147235</ele>
        <time>2013-03-12T09:40:08Z</time>
      </trkpt>
      <trkpt lat="43.73058" lon="7.3996">
        <ele>458.68329182092</ele>
        <time>2013-03-12T09:40:12Z</time>
      </trkpt>
      <trkpt lat="43.73058" lon="7.39963">
        <ele>458.68329182092</ele>
        <time>2013-03-12T09:40:17Z</time>
      </trkpt>
      <trkpt lat="43.73059" lon="7.39966">
        <ele>458.68329182092</ele>
        <time>2013-03-12T09:40:23Z</time>
      </trkpt>
      <trkpt lat="43.73059" lon="7.3997">
        <ele>458.68329182092</ele>
        <time>2013-03-12T09:40:28Z</time>
      </trkpt>
      <trkpt lat="43.7306" lon="7.39973">
        <ele>460.4151290465</ele>
        <time>2013-03-12T09:40:32Z</time>
      </trkpt>
      <trkpt lat="43.73059" lon="7.39976">
        <ele>460.4151290465</ele>
        <time>2013-03-12T09:40:38Z</time>
      </trkpt>
      <trkpt lat="43.73058" lon="7.3998">
        <ele>460.4151290465</ele>
        <time>2013-03-12T09:40:42Z</time>
      </trkpt>
      <trkpt lat="43.73059" lon="7.39983">
        <ele>460.4151290465</ele>
        <time>2013-03-12T09:40:47Z</time>
      </trkpt>
      <trkpt lat="43.73062" lon="7.39985">
        <ele>461.92425452791</ele>
        <time>2013-03-12T09:40:52Z</time>
      </trkpt>
      <trkpt lat="43.73062" lon="7.39982">
        <ele>461.92425452791</ele>
        <time>2013-03-12T09:40:58Z</time>
      </trkpt>
      <trkpt lat="43.73064" lon="7.39979">
        <ele>461.92425452791</ele>
        <time>2013-03-12T09:41:02Z</time>
      </trkpt>
      <trkpt lat="43.73064" lon="7.39979">
        <ele>461.92425452791</ele>
        <time>2013-03-12T09:41:08Z</time>
      </trkpt>
      <trkpt lat="43.73066" lon="7.39975">
        <ele>461.92425452791</ele>
        <time>2013-03-12T09:41:12Z</time>
      </trkpt>
      <trkpt lat="43.73068" lon="7.39973">
        <ele>463.50151370932</ele>
        <time>2013-03-12T09:41:17Z</time>
      </trkpt>
      <trkpt lat="43.73069" lon="7.39972">
        <ele>463.50151370932</ele>
        <time>2013-03-12T09:41:22Z</time>
      </trkpt>
      <trkpt lat="43.7307" lon="7.39971">
        <ele>463.50151370932</ele>
        <time>2013-03-12T09:41:28Z</time>
      </trkpt>
      <trkpt lat="43.7307" lon="7.39971">
        <ele>463.50151370932</ele>
        <time>2013-03-12T09:41:32Z</time>
      </trkpt>
      <trkpt lat="43.73069" lon="7.39973">
        <ele>463.50151370932</ele>
        <time>2013-03-12T09:41:37Z</time>
      </trkpt>
      <trkpt lat="43.73069" lon="7.39976">
        <ele>463.50151370932</ele>
        <time>2013-03-12T09:41:42Z</time>
      </trkpt>
      <trkpt lat="43.73069" lon="7.39979">
        <ele>463.50151370932</ele>
        <time>2013-03-12T09:41:47Z</time>
      </trkpt>
      <trkpt lat="43.73069" lon="7.39979">
        <ele>463.50151370932</ele>
        <time>2013-03-12T09:41:52Z</time>
      </trkpt>
      <trkpt lat="43.7307" lon="7.39978">
        <ele>465.35848120549</ele>
        <time>2013-03-12T09:41:58Z</time>
      </trkpt>
      <trkpt lat="43.73071" lon="7.39978">
        <ele>465.35848120549</ele>
        <time>2013-03-12T09:42:02Z</time>
      </trkpt>
      <trkpt lat="43.7307" lon="7.39979">
        <ele>465.35848120549</ele>
        <time>2013-03-12T09:42:08Z</time>
      </trkpt>
      <trkpt lat="43.7307" lon="7.39979">
        <ele>465.35848120549</ele>
        <time>2013-03-12T09:42:13Z</time>
      </trkpt>
      <trkpt lat="43.7307" lon="7.39979">
        <ele>465.35848120549</ele>
        <time>2013-03-12T09:42:17Z</time>
      </trkpt>
      <trkpt lat="43.7307" lon="7.39979">
        <ele>465.35848120549</ele>
        <time>2013-03-12T09:42:22Z</time>
      </trkpt>
      <trkpt lat="43.7307" lon="7.39979">
        <ele>465.35848120549</ele>
        <time>2013-03-12T09:42:28Z</time>
      </trkpt>
      <trkpt lat="43.7307" lon="7.39979">
        <ele>465.35848120549</ele>
        <time>2013-03-12T09:42:32Z</time>
      </trkpt>
      <trkpt lat="43.7307" lon="7.3998">
        <ele>465.35848120549</ele>
        <time>2013-03-12T09:42:38Z</time>
      </trkpt>
      <trkpt lat="43.73069" lon="7.39983">
        <ele>465.35848120549</ele>
        <time>2013-03-12T09:42:42Z</time>
      </trkpt>
      <trkpt lat="43.73069" lon="7.39985">
        <ele>465.35848120549</ele>
        <time>2013-03-12T09:42:47Z</time>
      </trkpt>
      <trkpt lat="43.73068" lon="7.39984">
        <ele>465.35848120549</ele>
        <time>2013-03-12T09:42:53Z</time>
      </trkpt>
      <trkpt lat="43.73068" lon="7.39984">
        <ele>465.35848120549</ele>
        <time>2013-03-12T09:42:58Z</time>
      </trkpt>
      <trkpt lat="43.73068" lon="7.39984">
        <ele>465.35848120549</ele>
        <time>2013-03-12T09:43:02Z</time>
      </trkpt>
      <trkpt lat="43.73068" lon="7.39984">
        <ele>465.35848120549</ele>
        <time>2013-03-12T09:43:07Z</time>
      </trkpt>
      <trkpt lat="43.73071" lon="7.39985">
        <ele>465.35848120549</ele>
        <time>2013-03-12T09:43:12Z</time>
      </trkpt>
      <trkpt lat="43.73069" lon="7.39984">
        <ele>466.96975206597</ele>
        <time>2013-03-12T09:43:18Z</time>
      </trkpt>
      <trkpt lat="43.73067" lon="7.39986">
        <ele>466.96975206597</ele>
        <time>2013-03-12T09:43:22Z</time>
      </trkpt>
      <trkpt lat="43.7307" lon="7.39989">
        <ele>466.96975206597</ele>
        <time>2013-03-12T09:43:28Z</time>
      </trkpt>
      <trkpt lat="43.73072" lon="7.39987">
        <ele>466.96975206597</ele>
        <time>2013-03-12T09:43:33Z</time>
      </trkpt>
      <trkpt lat="43.73073" lon="7.39983">
        <ele>468.91568065408</ele>
        <time>2013-03-12T09:43:37Z</time>
      </trkpt>
      <trkpt lat="43.73074" lon="7.3998">
        <ele>468.91568065408</ele>
        <time>2013-03-12T09:43:42Z</time>
      </trkpt>
      <trkpt lat="43.73074" lon="7.39977">
        <ele>468.91568065408</ele>
        <time>2013-03-12T09:43:48Z</time>
      </trkpt>
      <trkpt lat="43.73078" lon="7.39975">
        <ele>468.91568065408</ele>
        <time>2013-03-12T09:43:52Z</time>
      </trkpt>
      <trkpt lat="43.73077" lon="7.39981">
        <ele>470.46476229854</ele>
        <time>2013-03-12T09:43:58Z</time>
      </trkpt>
      <trkpt lat="43.73075" lon="7.39983">
        <ele>470.46476229854</ele>
        <time>2013-03-12T09:44:02Z</time>
      </trkpt>
      <trkpt lat="43.73074" lon="7.39988">
        <ele>470.46476229854</ele>
        <time>2013-03-12T09:44:08Z</time>
      </trkpt>
      <trkpt lat="43.73074" lon="7.3999">
        <ele>470.46476229854</ele>
        <time>2013-03-12T09:44:12Z</time>
      </trkpt>
      <trkpt lat="43.73072" lon="7.39994">
        <ele>472.12208798859</ele>
        <time>2013-03-12T09:44:17Z</time>
      </trkpt>
      <trkpt lat="43.73072" lon="7.39998">
        <ele>472.12208798859</ele>
        <time>2013-03-12T09:44:22Z</time>
      </trkpt>
      <trkpt lat="43.73072" lon="7.40001">
        <ele>472.12208798859</ele>
        <time>2013-03-12T09:44:28Z</time>
      </trkpt>
      <trkpt lat="43.73071" lon="7.40003">
        <ele>472.12208798859</ele>
        <time>2013-03-12T09:44:32Z</time>
      </trkpt>
      <trkpt lat="43.73072" lon="7.40005">
        <ele>473.66354820216</ele>
        <time>2013-03-12T09:44:37Z</time>
      </trkpt>
      <trkpt lat="43.73073" lon="7.40003">
        <ele>473.66354820216</ele>
        <time>2013-03-12T09:44:42Z</time>
      </trkpt>
      <trkpt lat="43.73075" lon="7.40003">
        <ele>473.66354820216</ele>
        <time>2013-03-12T09:44:47Z</time>
      </trkpt>
      <trkpt lat="43.73076" lon="7.40002">
        <ele>473.66354820216</ele>
        <time>2013-03-12T09:44:53Z</time>
      </trkpt>
      <trkpt lat="43.73077" lon="7.40001">
        <ele>473.66354820216</ele>
        <time>2013-03-12T09:44:57Z</time>
      </trkpt>
      <trkpt lat="43.73079" lon="7.39996">
        <ele>475.05473793705</ele>
        <time>2013-03-12T09:45:03Z</time>
      </trkpt>
      <trkpt lat="43.7308" lon="7.39996">
        <ele>475.05473793705</ele>
        <time>2013-03-12T09:45:07Z</time>
      </trkpt>
      <trkpt lat="43.73082" lon="7.39993">
        <ele>475.05473793705</ele>
        <time>2013-03-12T09:45:12Z</time>
      </trkpt>
      <trkpt lat="43.73084" lon="7.3999">
        <ele>475.05473793705</ele>
        <time>2013-03-12T09:45:18Z</time>
      </trkpt>
      <trkpt lat="43.73087" lon="7.39984">
        <ele>476.19211937805</ele>
        <time>2013-03-12T09:45:23Z</time>
      </trkpt>
      <trkpt lat="43.73087" lon="7.39983">
        <ele>476.19211937805</ele>
        <time>2013-03-12T09:45:27Z</time>
      </trkpt>
      <trkpt lat="43.73089" lon="7.39979">
        <ele>476.19211937805</ele>
        <time>2013-03-12T09:45:33Z</time>
      </trkpt>
      <trkpt lat="43.73088" lon="7.39976">
        <ele>476.19211937805</ele>
        <time>2013-03-12T09:45:37Z</time>
      </trkpt>
      <trkpt lat="43.73087" lon="7.39974">
        <ele>476.19211937805</ele>
        <time>2013-03-12T09:45:42Z</time>
      </trkpt>
      <trkpt lat="43.73087" lon="7.3997">
        <ele>477.42719699285</ele>
        <time>2013-03-12T09:45:47Z</time>
      </trkpt>
      <trkpt lat="43.73086" lon="7.39967">
        <ele>477.42719699285</ele>
        <time>2013-03-12T09:45:52Z</time>
      </trkpt>
      <trkpt lat="43.73086" lon="7.39959">
        <ele>477.42719699285</ele>
        <time>2013-03-12T09:45:57Z</time>
      </trkpt>
      <trkpt lat="43.73085" lon="7.39952">
        <ele>478.10538472928</ele>
        <time>2013-03-12T09:46:02Z</time>
      </trkpt>
      <trkpt lat="43.73085" lon="7.39945">
        <ele>478.10538472928</ele>
        <time>2013-03-12T09:46:08Z</time>
      </trkpt>
      <trkpt lat="43.73086" lon="7.39941">
        <ele>478.10538472928</ele>
        <time>2013-03-12T09:46:13Z</time>
      </trkpt>
      <trkpt lat="43.73087" lon="7.39936">
        <ele>478.63050333581</ele>
        <time>2013-03-12T09:46:17Z</time>
      </trkpt>
      <trkpt lat="43.73088" lon="7.39929">
        <ele>478.63050333581</ele>
        <time>2013-03-12T09:46:22Z</time>
      </trkpt>
      <trkpt lat="43.73086" lon="7.39927">
        <ele>478.63050333581</ele>
        <time>2013-03-12T09:46:28Z</time>
      </trkpt>
      <trkpt lat="43.73085" lon="7.39925">
        <ele>479.42033704114</ele>
        <time>2013-03-12T09:46:32Z</time>
      </trkpt>
      <trkpt lat="43.73085" lon="7.39917">
        <ele>479.42033704114</ele>
        <time>2013-03-12T09:46:38Z</time>
      </trkpt>
      <trkpt lat="43.73084" lon="7.39915">
        <ele>479.42033704114</ele>
        <time>2013-03-12T09:46:42Z</time>
      </trkpt>
      <trkpt lat="43.73084" lon="7.39913">
        <ele>480.38562803599</ele>
        <time>2013-03-12T09:46:48Z</time>
      </trkpt>
      <trkpt lat="43.73084" lon="7.39916">
        <ele>480.38562803599</ele>
        <time>2013-03-12T09:46:52Z</time>
      </trkpt>
      <trkpt lat="43.73085" lon="7.39918">
        <ele>480.38562803599</ele>
        <time>2013-03-12T09:46:57Z</time>
      </trkpt>
      <trkpt lat="43.73086" lon="7.3992">
        <ele>480.38562803599</ele>
        <time>2013-03-12T09:47:02Z</time>
      </trkpt>
      <trkpt lat="43.73088" lon="7.39925">
        <ele>481.42872992901</ele>
        <time>2013-03-12T09:47:07Z</time>
      </trkpt>
      <trkpt lat="43.73088" lon="7.39929">
        <ele>481.42872992901</ele>
        <time>2013-03-12T09:47:12Z</time>
      </trkpt>
      <trkpt lat="43.73089" lon="7.39932">
        <ele>481.42872992901</ele>
        <time>2013-03-12T09:47:17Z</time>
      </trkpt>
      <trkpt lat="43.7309" lon="7.39937">
        <ele>483.00653713525</ele>
        <time>2013-03-12T09:47:23Z</time>
      </trkpt>
      <trkpt lat="43.7309" lon="7.3994">
        <ele>483.00653713525</ele>
        <time>2013-03-12T09:47:27Z</time>
      </trkpt>
      <trkpt lat="43.73091" lon="7.39943">
        <ele>483.00653713525</ele>
        <time>2013-03-12T09:47:33Z</time>
      </trkpt>
      <trkpt lat="43.73091" lon="7.39945">
        <ele>483.00653713525</ele>
        <time>2013-03-12T09:47:37Z</time>
      </trkpt>
      <trkpt lat="43.73092" lon="7.39948">
        <ele>483.00653713525</ele>
        <time>2013-03-12T09:47:42Z</time>
      </trkpt>
      <trkpt lat="43.73093" lon="7.39952">
        <ele>484.73380424243</ele>
        <time>2013-03-12T09:47:47Z</time>
      </trkpt>
      <trkpt lat="43.73095" lon="7.39956">
        <ele>484.73380424243</ele>
        <time>2013-03-12T09:47:53Z</time>
      </trkpt>
      <trkpt lat="43.73097" lon="7.39959">
        <ele>484.73380424243</ele>
        <time>2013-03-12T09:47:57Z</time>
      </trkpt>
      <trkpt lat="43.73098" lon="7.3996">
        <ele>484.73380424243</ele>
        <time>2013-03-12T09:48:02Z</time>
      </trkpt>
      <trkpt lat="43.73102" lon="7.39965">
        <ele>486.26753415132</ele>
        <time>2013-03-12T09:48:08Z</time>
      </trkpt>
      <trkpt lat="43.73104" lon="7.39967">
        <ele>486.26753415132</ele>
        <time>2013-03-12T09:48:12Z</time>
      </trkpt>
      <trkpt lat="43.73105" lon="7.39971">
        <ele>486.26753415132</ele>
        <time>2013-03-12T09:48:17Z</time>
      </trkpt>
      <trkpt lat="43.73107" lon="7.39974">
        <ele>486.26753415132</ele>
        <time>2013-03-12T09:48:22Z</time>
      </trkpt>
      <trkpt lat="43.73106" lon="7.39977">
        <ele>487.83806191179</ele>
        <time>2013-03-12T09:48:27Z</time>
      </trkpt>
      <trkpt lat="43.73106" lon="7.3998">
        <ele>487.83806191179</ele>
        <time>2013-03-12T09:48:32Z</time>
      </trkpt>
      <trkpt lat="43.73105" lon="7.39985">
        <ele>487.83806191179</ele>
        <time>2013-03-12T09:48:37Z</time>
      </trkpt>
      <trkpt lat="43.73106" lon="7.3999">
        <ele>489.601019772</ele>
        <time>2013-03-12T09:48:42Z</time>
      </trkpt>
      <trkpt lat="43.73104" lon="7.39993">
        <ele>489.601019772</ele>
        <time>2013-03-12T09:48:47Z</time>
      </trkpt>
      <trkpt lat="43.73105" lon="7.39997">
        <ele>489.601019772</ele>
        <time>2013-03-12T09:48:52Z</time>
      </trkpt>
      <trkpt lat="43.73105" lon="7.40002">
        <ele>491.51268877178</ele>
        <time>2013-03-12T09:48:58Z</time>
      </trkpt>
      <trkpt lat="43.73105" lon="7.40003">
        <ele>491.51268877178</ele>
        <time>2013-03-12T09:49:02Z</time>
      </trkpt>
      <trkpt lat="43.73103" lon="7.40005">
        <ele>491.51268877178</ele>
        <time>2013-03-12T09:49:07Z</time>
      </trkpt>
      <trkpt lat="43.73101" lon="7.40007">
        <ele>491.51268877178</ele>
        <time>2013-03-12T09:49:12Z</time>
      </trkpt>
      <trkpt lat="43.73099" lon="7.40011">
        <ele>493.04212777219</ele>
        <time>2013-03-12T09:49:17Z</time>
      </trkpt>
      <trkpt lat="43.73097" lon="7.40015">
        <ele>493.04212777219</ele>
        <time>2013-03-12T09:49:23Z</time>
      </trkpt>
      <trkpt lat="43.73096" lon="7.40019">
        <ele>493.04212777219</ele>
        <time>2013-03-12T09:49:28Z</time>
      </trkpt>
      <trkpt lat="43.73095" lon="7.40022">
        <ele>493.04212777219</ele>
        <time>2013-03-12T09:49:32Z</time>
      </trkpt>
      <trkpt lat="43.73098" lon="7.40027">
        <ele>494.92342239432</ele>
        <time>2013-03-12T09:49:38Z</time>
      </trkpt>
      <trkpt lat="43.73098" lon="7.40024">
        <ele>494.92342239432</ele>
        <time>2013-03-12T09:49:42Z</time>
      </trkpt>
      <trkpt lat="43.73099" lon="7.40023">
        <ele>494.92342239432</ele>
        <time>2013-03-12T09:49:47Z</time>
      </trkpt>
      <trkpt lat="43.73102" lon="7.40023">
        <ele>494.92342239432</ele>
        <time>2013-03-12T09:49:53Z</time>
      </trkpt>
      <trkpt lat="43.73106" lon="7.40023">
        <ele>496.92780534654</ele>
        <time>2013-03-12T09:49:57Z</time>
      </trkpt>
      <trkpt lat="43.73109" lon="7.40021">
        <ele>496.92780534654</ele>
        <time>2013-03-12T09:50:02Z</time>
      </trkpt>
      <trkpt lat="43.73111" lon="7.4002">
        <ele>496.92780534654</ele>
        <time>2013-03-12T09:50:07Z</time>
      </trkpt>
      <trkpt lat="43.73112" lon="7.4002">
        <ele>496.92780534654</ele>
        <time>2013-03-12T09:50:12Z</time>
      </trkpt>
      <trkpt lat="43.73111" lon="7.40023">
        <ele>496.92780534654</ele>
        <time>2013-03-12T09:50:17Z</time>
      </trkpt>
      <trkpt lat="43.73108" lon="7.40024">
        <ele>498.79972102509</ele>
        <time>2013-03-12T09:50:23Z</time>
      </trkpt>
      <trkpt lat="43.73107" lon="7.40027">
        <ele>498.79972102509</ele>
        <time>2013-03-12T09:50:27Z</time>
      </trkpt>
      <trkpt lat="43.73106" lon="7.4003">
        <ele>498.79972102509</ele>
        <time>2013-03-12T09:50:32Z</time>
      </trkpt>
      <trkpt lat="43.73106" lon="7.40033">
        <ele>498.79972102509</ele>
        <time>2013-03-12T09:50:37Z</time>
      </trkpt>
      <trkpt lat="43.73103" lon="7.40036">
        <ele>500.5477446671</ele>
        <time>2013-03-12T09:50:43Z</time>
      </trkpt>
      <trkpt lat="43.73101" lon="7.40039">
        <ele>500.5477446671</ele>
        <time>2013-03-12T09:50:47Z</time>
      </trkpt>
      <trkpt lat="43.73099" lon="7.40043">
        <ele>500.5477446671</ele>
        <time>2013-03-12T09:50:54Z</time>
      </trkpt>
      <trkpt lat="43.73098" lon="7.40047">
        <ele>502.10810637263</ele>
        <time>2013-03-12T09:50:57Z</time>
      </trkpt>
      <trkpt lat="43.73097" lon="7.40049">
        <ele>502.10810637263</ele>
        <time>2013-03-12T09:51:03Z</time>
      </trkpt>
      <trkpt lat="43.73096" lon="7.40053">
        <ele>502.10810637263</ele>
        <time>2013-03-12T09:51:08Z</time>
      </trkpt>
      <trkpt lat="43.73095" lon="7.40056">
        <ele>502.10810637263</ele>
        <time>2013-03-12T09:51:12Z</time>
      </trkpt>
      <trkpt lat="43.73093" lon="7.40059">
        <ele>503.69606300578</ele>
        <time>2013-03-12T09:51:17Z</time>
      </trkpt>
      <trkpt lat="43.73092" lon="7.40062">
        <ele>503.69606300578</ele>
        <time>2013-03-12T09:51:23Z</time>
      </trkpt>
      <trkpt lat="43.73092" lon="7.40066">
        <ele>503.69606300578</ele>
        <time>2013-03-12T09:51:27Z</time>
      </trkpt>
      <trkpt lat="43.73091" lon="7.40069">
        <ele>503.69606300578</ele>
        <time>2013-03-12T09:51:32Z</time>
      </trkpt>
      <trkpt lat="43.7309" lon="7.40072">
        <ele>505.22275064477</ele>
        <time>2013-03-12T09:51:37Z</time>
      </trkpt>
      <trkpt lat="43.7309" lon="7.40076">
        <ele>505.22275064477</ele>
        <time>2013-03-12T09:51:42Z</time>
      </trkpt>
      <trkpt lat="43.7309" lon="7.40078">
        <ele>505.22275064477</ele>
        <time>2013-03-12T09:51:48Z</time>
      </trkpt>
      <trkpt lat="43.7309" lon="7.40079">
        <ele>505.22275064477</ele>
        <time>2013-03-12T09:51:52Z</time>
      </trkpt>
      <trkpt lat="43.7309" lon="7.40079">
        <ele>505.22275064477</ele>
        <time>2013-03-12T09:51:57Z</time>
      </trkpt>
      <trkpt lat="43.7309" lon="7.40079">
        <ele>505.22275064477</ele>
        <time>2013-03-12T09:52:03Z</time>
      </trkpt>
      <trkpt lat="43.7309" lon="7.40078">
        <ele>505.22275064477</ele>
        <time>2013-03-12T09:52:07Z</time>
      </trkpt>
      <trkpt lat="43.7309" lon="7.40078">
        <ele>505.22275064477</ele>
        <time>2013-03-12T09:52:12Z</time>
      </trkpt>
      <trkpt lat="43.7309" lon="7.40078">
        <ele>505.22275064477</ele>
        <time>2013-03-12T09:52:17Z</time>
      </trkpt>
      <trkpt lat="43.7309" lon="7.40081">
        <ele>505.22275064477</ele>
        <time>2013-03-12T09:52:23Z</time>
      </trkpt>
      <trkpt lat="43.7309" lon="7.40086">
        <ele>506.75012047166</ele>
        <time>2013-03-12T09:52:27Z</time>
      </trkpt>
      <trkpt lat="43.7309" lon="7.40089">
        <ele>506.75012047166</ele>
        <time>2013-03-12T09:52:32Z</time>
      </trkpt>
      <trkpt lat="43.7309" lon="7.40094">
        <ele>506.75012047166</ele>
        <time>2013-03-12T09:52:38Z</time>
      </trkpt>
      <trkpt lat="43.73089" lon="7.40096">
        <ele>506.75012047166</ele>
        <time>2013-03-12T09:52:42Z</time>
      </trkpt>
      <trkpt lat="43.73086" lon="7.40098">
        <ele>508.32116035427</ele>
        <time>2013-03-12T09:52:47Z</time>
      </trkpt>
      <trkpt lat="43.73085" lon="7.401">
        <ele>508.32116035427</ele>
        <time>2013-03-12T09:52:52Z</time>
      </trkpt>
      <trkpt lat="43.73085" lon="7.40101">
        <ele>508.32116035427</ele>
        <time>2013-03-12T09:52:57Z</time>
      </trkpt>
      <trkpt lat="43.73082" lon="7.40105">
        <ele>508.32116035427</ele>
        <time>2013-03-12T09:53:03Z</time>
      </trkpt>
      <trkpt lat="43.73081" lon="7.40107">
        <ele>508.32116035427</ele>
        <time>2013-03-12T09:53:07Z</time>
      </trkpt>
      <trkpt lat="43.73082" lon="7.40109">
        <ele>510.03322539925</ele>
        <time>2013-03-12T09:53:12Z</time>
      </trkpt>
      <trkpt lat="43.73082" lon="7.40113">
        <ele>510.03322539925</ele>
        <time>2013-03-12T09:53:17Z</time>
      </trkpt>
      <trkpt lat="43.73082" lon="7.40114">
        <ele>510.03322539925</ele>
        <time>2013-03-12T09:53:23Z</time>
      </trkpt>
      <trkpt lat="43.73082" lon="7.40116">
        <ele>510.03322539925</ele>
        <time>2013-03-12T09:53:27Z</time>
      </trkpt>
      <trkpt lat="43.73083" lon="7.40118">
        <ele>510.03322539925</ele>
        <time>2013-03-12T09:53:32Z</time>
      </trkpt>
      <trkpt lat="43.73083" lon="7.40122">
        <ele>511.58701799535</ele>
        <time>2013-03-12T09:53:37Z</time>
      </trkpt>
      <trkpt lat="43.73083" lon="7.40124">
        <ele>511.58701799535</ele>
        <time>2013-03-12T09:53:42Z</time>
      </trkpt>
      <trkpt lat="43.73083" lon="7.40126">
        <ele>511.58701799535</ele>
        <time>2013-03-12T09:53:49Z</time>
      </trkpt>
      <trkpt lat="43.73082" lon="7.40127">
        <ele>511.58701799535</ele>
        <time>2013-03-12T09:53:52Z</time>
      </trkpt>
      <trkpt lat="43.73081" lon="7.40127">
        <ele>511.58701799535</ele>
        <time>2013-03-12T09:53:57Z</time>
      </trkpt>
      <trkpt lat="43.73081" lon="7.40129">
        <ele>511.58701799535</ele>
        <time>2013-03-12T09:54:02Z</time>
      </trkpt>
      <trkpt lat="43.73081" lon="7.4013">
        <ele>511.58701799535</ele>
        <time>2013-03-12T09:54:08Z</time>
      </trkpt>
      <trkpt lat="43.73081" lon="7.4013">
        <ele>511.58701799535</ele>
        <time>2013-03-12T09:54:12Z</time>
      </trkpt>
      <trkpt lat="43.73081" lon="7.4013">
        <ele>511.58701799535</ele>
        <time>2013-03-12T09:54:17Z</time>
      </trkpt>
      <trkpt lat="43.73081" lon="7.4013">
        <ele>511.58701799535</ele>
        <time>2013-03-12T09:54:23Z</time>
      </trkpt>
      <trkpt lat="43.73081" lon="7.4013">
        <ele>511.58701799535</ele>
        <time>2013-03-12T09:54:28Z</time>
      </trkpt>
      <trkpt lat="43.73081" lon="7.4013">
        <ele>511.58701799535</ele>
        <time>2013-03-12T09:54:32Z</time>
      </trkpt>
      <trkpt lat="43.73081" lon="7.4013">
        <ele>511.58701799535</ele>
        <time>2013-03-12T09:54:38Z</time>
      </trkpt>
      <trkpt lat="43.73082" lon="7.4013">
        <ele>511.58701799535</ele>
        <time>2013-03-12T09:54:42Z</time>
      </trkpt>
      <trkpt lat="43.73081" lon="7.40134">
        <ele>512.9939038073</ele>
        <time>2013-03-12T09:54:48Z</time>
      </trkpt>
      <trkpt lat="43.7308" lon="7.40137">
        <ele>512.9939038073</ele>
        <time>2013-03-12T09:54:52Z</time>
      </trkpt>
      <trkpt lat="43.7308" lon="7.4014">
        <ele>512.9939038073</ele>
        <time>2013-03-12T09:54:57Z</time>
      </trkpt>
      <trkpt lat="43.73079" lon="7.40143">
        <ele>512.9939038073</ele>
        <time>2013-03-12T09:55:04Z</time>
      </trkpt>
      <trkpt lat="43.73077" lon="7.40144">
        <ele>512.9939038073</ele>
        <time>2013-03-12T09:55:07Z</time>
      </trkpt>
      <trkpt lat="43.73075" lon="7.40148">
        <ele>514.99981017698</ele>
        <time>2013-03-12T09:55:13Z</time>
      </trkpt>
      <trkpt lat="43.73075" lon="7.4015">
        <ele>514.99981017698</ele>
        <time>2013-03-12T09:55:17Z</time>
      </trkpt>
      <trkpt lat="43.73074" lon="7.40152">
        <ele>514.99981017698</ele>
        <time>2013-03-12T09:55:23Z</time>
      </trkpt>
      <trkpt lat="43.73074" lon="7.40153">
        <ele>514.99981017698</ele>
        <time>2013-03-12T09:55:27Z</time>
      </trkpt>
      <trkpt lat="43.73074" lon="7.40156">
        <ele>514.99981017698</ele>
        <time>2013-03-12T09:55:33Z</time>
      </trkpt>
      <trkpt lat="43.73072" lon="7.40159">
        <ele>514.99981017698</ele>
        <time>2013-03-12T09:55:37Z</time>
      </trkpt>
      <trkpt lat="43.73075" lon="7.40161">
        <ele>517.01158149128</ele>
        <time>2013-03-12T09:55:42Z</time>
      </trkpt>
      <trkpt lat="43.73075" lon="7.40161">
        <ele>517.01158149128</ele>
        <time>2013-03-12T09:55:48Z</time>
      </trkpt>
      <trkpt lat="43.73075" lon="7.4016">
        <ele>517.01158149128</ele>
        <time>2013-03-12T09:55:52Z</time>
      </trkpt>
      <trkpt lat="43.73076" lon="7.4016">
        <ele>517.01158149128</ele>
        <time>2013-03-12T09:55:58Z</time>
      </trkpt>
      <trkpt lat="43.73076" lon="7.4016">
        <ele>517.01158149128</ele>
        <time>2013-03-12T09:56:02Z</time>
      </trkpt>
      <trkpt lat="43.73075" lon="7.40167">
        <ele>517.01158149128</ele>
        <time>2013-03-12T09:56:07Z</time>
      </trkpt>
      <trkpt lat="43.73075" lon="7.4017">
        <ele>517.01158149128</ele>
        <time>2013-03-12T09:56:12Z</time>
      </trkpt>
      <trkpt lat="43.73072" lon="7.40176">
        <ele>518.89755926918</ele>
        <time>2013-03-12T09:56:17Z</time>
      </trkpt>
      <trkpt lat="43.73072" lon="7.40179">
        <ele>518.89755926918</ele>
        <time>2013-03-12T09:56:22Z</time>
      </trkpt>
      <trkpt lat="43.7307" lon="7.40183">
        <ele>518.89755926918</ele>
        <time>2013-03-12T09:56:28Z</time>
      </trkpt>
      <trkpt lat="43.73068" lon="7.40188">
        <ele>520.63700066861</ele>
        <time>2013-03-12T09:56:32Z</time>
      </trkpt>
      <trkpt lat="43.73067" lon="7.40191">
        <ele>520.63700066861</ele>
        <time>2013-03-12T09:56:38Z</time>
      </trkpt>
      <trkpt lat="43.73066" lon="7.40194">
        <ele>520.63700066861</ele>
        <time>2013-03-12T09:56:42Z</time>
      </trkpt>
      <trkpt lat="43.73064" lon="7.40199">
        <ele>520.63700066861</ele>
        <time>2013-03-12T09:56:47Z</time>
      </trkpt>
      <trkpt lat="43.73064" lon="7.40202">
        <ele>522.70109581669</ele>
        <time>2013-03-12T09:56:53Z</time>
      </trkpt>
      <trkpt lat="43.73064" lon="7.40204">
        <ele>522.70109581669</ele>
        <time>2013-03-12T09:56:57Z</time>
      </trkpt>
      <trkpt lat="43.73064" lon="7.40205">
        <ele>522.70109581669</ele>
        <time>2013-03-12T09:57:03Z</time>
      </trkpt>
      <trkpt lat="43.73062" lon="7.40207">
        <ele>522.70109581669</ele>
        <time>2013-03-12T09:57:07Z</time>
      </trkpt>
      <trkpt lat="43.73061" lon="7.40211">
        <ele>522.70109581669</ele>
        <time>2013-03-12T09:57:12Z</time>
      </trkpt>
      <trkpt lat="43.73059" lon="7.40214">
        <ele>524.79055116914</ele>
        <time>2013-03-12T09:57:18Z</time>
      </trkpt>
      <trkpt lat="43.73059" lon="7.40215">
        <ele>524.79055116914</ele>
        <time>2013-03-12T09:57:22Z</time>
      </trkpt>
      <trkpt lat="43.73059" lon="7.40215">
        <ele>524.79055116914</ele>
        <time>2013-03-12T09:57:27Z</time>
      </trkpt>
      <trkpt lat="43.73058" lon="7.40218">
        <ele>524.79055116914</ele>
        <time>2013-03-12T09:57:33Z</time>
      </trkpt>
      <trkpt lat="43.73058" lon="7.40218">
        <ele>524.79055116914</ele>
        <time>2013-03-12T09:57:38Z</time>
      </trkpt>
      <trkpt lat="43.73059" lon="7.40218">
        <ele>524.79055116914</ele>
        <time>2013-03-12T09:57:42Z</time>
      </trkpt>
      <trkpt lat="43.73055" lon="7.40221">
        <ele>524.79055116914</ele>
        <time>2013-03-12T09:57:47Z</time>
      </trkpt>
      <trkpt lat="43.73054" lon="7.4022">
        <ele>526.91623461768</ele>
        <time>2013-03-12T09:57:53Z</time>
      </trkpt>
      <trkpt lat="43.73055" lon="7.40219">
        <ele>526.91623461768</ele>
        <time>2013-03-12T09:57:58Z</time>
      </trkpt>
      <trkpt lat="43.73057" lon="7.4022">
        <ele>526.91623461768</ele>
        <time>2013-03-12T09:58:03Z</time>
      </trkpt>
      <trkpt lat="43.73057" lon="7.40221">
        <ele>526.91623461768</ele>
        <time>2013-03-12T09:58:08Z</time>
      </trkpt>
      <trkpt lat="43.73058" lon="7.40221">
        <ele>526.91623461768</ele>
        <time>2013-03-12T09:58:12Z</time>
      </trkpt>
      <trkpt lat="43.73058" lon="7.40221">
        <ele>526.91623461768</ele>
        <time>2013-03-12T09:58:18Z</time>
      </trkpt>
      <trkpt lat="43.73058" lon="7.40221">
        <ele>526.91623461768</ele>
        <time>2013-03-12T09:58:22Z</time>
      </trkpt>
      <trkpt lat="43.73058" lon="7.40221">
        <ele>526.91623461768</ele>
        <time>2013-03-12T09:58:27Z</time>
      </trkpt>
      <trkpt lat="43.73059" lon="7.4022">
        <ele>526.91623461768</ele>
        <time>2013-03-12T09:58:33Z</time>
      </trkpt>
      <trkpt lat="43.7306" lon="7.40219">
        <ele>526.91623461768</ele>
        <time>2013-03-12T09:58:37Z</time>
      </trkpt>
      <trkpt lat="43.73061" lon="7.40218">
        <ele>526.91623461768</ele>
        <time>2013-03-12T09:58:43Z</time>
      </trkpt>
      <trkpt lat="43.73062" lon="7.40217">
        <ele>528.62697734509</ele>
        <time>2013-03-12T09:58:47Z</time>
      </trkpt>
      <trkpt lat="43.73063" lon="7.40216">
        <ele>528.62697734509</ele>
        <time>2013-03-12T09:58:53Z</time>
      </trkpt>
      <trkpt lat="43.73065" lon="7.40213">
        <ele>528.62697734509</ele>
        <time>2013-03-12T09:58:57Z</time>
      </trkpt>
      <trkpt lat="43.73064" lon="7.40208">
        <ele>528.62697734509</ele>
        <time>2013-03-12T09:59:03Z</time>
      </trkpt>
      <trkpt lat="43.73065" lon="7.40209">
        <ele>530.47149526879</ele>
        <time>2013-03-12T09:59:07Z</time>
      </trkpt>
      <trkpt lat="43.73066" lon="7.40207">
        <ele>530.47149526879</ele>
        <time>2013-03-12T09:59:13Z</time>
      </trkpt>
      <trkpt lat="43.73067" lon="7.40206">
        <ele>530.47149526879</ele>
        <time>2013-03-12T09:59:17Z</time>
      </trkpt>
      <trkpt lat="43.73067" lon="7.40206">
        <ele>530.47149526879</ele>
        <time>2013-03-12T09:59:22Z</time>
      </trkpt>
      <trkpt lat="43.73069" lon="7.40204">
        <ele>530.47149526879</ele>
        <time>2013-03-12T09:59:27Z</time>
      </trkpt>
      <trkpt lat="43.73068" lon="7.40201">
        <ele>530.47149526879</ele>
        <time>2013-03-12T09:59:33Z</time>
      </trkpt>
      <trkpt lat="43.73071" lon="7.40199">
        <ele>532.9002011852</ele>
        <time>2013-03-12T09:59:37Z</time>
      </trkpt>
      <trkpt lat="43.73073" lon="7.40197">
        <ele>532.9002011852</ele>
        <time>2013-03-12T09:59:43Z</time>
      </trkpt>
      <trkpt lat="43.73073" lon="7.40197">
        <ele>532.9002011852</ele>
        <time>2013-03-12T09:59:47Z</time>
      </trkpt>
      <trkpt lat="43.73074" lon="7.40197">
        <ele>532.9002011852</ele>
        <time>2013-03-12T09:59:52Z</time>
      </trkpt>
      <trkpt lat="43.73076" lon="7.40196">
        <ele>532.9002011852</ele>
        <time>2013-03-12T09:59:58Z</time>
      </trkpt>
      <trkpt lat="43.7308" lon="7.40196">
        <ele>534.80122415555</ele>
        <time>2013-03-12T10:00:03Z</time>
      </trkpt>
      <trkpt lat="43.73081" lon="7.40194">
        <ele>534.80122415555</ele>
        <time>2013-03-12T10:00:07Z</time>
      </trkpt>
      <trkpt lat="43.73079" lon="7.40195">
        <ele>534.80122415555</ele>
        <time>2013-03-12T10:00:12Z</time>
      </trkpt>
      <trkpt lat="43.73081" lon="7.40196">
        <ele>534.80122415555</ele>
        <time>2013-03-12T10:00:17Z</time>
      </trkpt>
      <trkpt lat="43.73079" lon="7.402">
        <ele>534.80122415555</ele>
        <time>2013-03-12T10:00:22Z</time>
      </trkpt>
      <trkpt lat="43.73082" lon="7.402">
        <ele>536.68788102194</ele>
        <time>2013-03-12T10:00:28Z</time>
      </trkpt>
      <trkpt lat="43.73085" lon="7.40198">
        <ele>536.68788102194</ele>
        <time>2013-03-12T10:00:32Z</time>
      </trkpt>
      <trkpt lat="43.73086" lon="7.40199">
        <ele>536.68788102194</ele>
        <time>2013-03-12T10:00:37Z</time>
      </trkpt>
      <trkpt lat="43.73085" lon="7.40199">
        <ele>536.68788102194</ele>
        <time>2013-03-12T10:00:43Z</time>
      </trkpt>
      <trkpt lat="43.73084" lon="7.40201">
        <ele>536.68788102194</ele>
        <time>2013-03-12T10:00:47Z</time>
      </trkpt>
      <trkpt lat="43.73081" lon="7.40201">
        <ele>538.37293802886</ele>
        <time>2013-03-12T10:00:52Z</time>
      </trkpt>
      <trkpt lat="43.73079" lon="7.40203">
        <ele>538.37293802886</ele>
        <time>2013-03-12T10:00:57Z</time>
      </trkpt>
      <trkpt lat="43.73079" lon="7.40206">
        <ele>538.37293802886</ele>
        <time>2013-03-12T10:01:03Z</time>
      </trkpt>
      <trkpt lat="43.73078" lon="7.40208">
        <ele>538.37293802886</ele>
        <time>2013-03-12T10:01:07Z</time>
      </trkpt>
      <trkpt lat="43.73077" lon="7.40209">
        <ele>538.37293802886</ele>
        <time>2013-03-12T10:01:12Z</time>
      </trkpt>
      <trkpt lat="43.73076" lon="7.4021">
        <ele>538.37293802886</ele>
        <time>2013-03-12T10:01:18Z</time>
      </trkpt>
      <trkpt lat="43.73075" lon="7.4021">
        <ele>539.97173714296</ele>
        <time>2013-03-12T10:01:22Z</time>
      </trkpt>
      <trkpt lat="43.73074" lon="7.40212">
        <ele>539.97173714296</ele>
        <time>2013-03-12T10:01:27Z</time>
      </trkpt>
      <trkpt lat="43.73073" lon="7.40214">
        <ele>539.97173714296</ele>
        <time>2013-03-12T10:01:33Z</time>
      </trkpt>
      <trkpt lat="43.73072" lon="7.40214">
        <ele>539.97173714296</ele>
        <time>2013-03-12T10:01:37Z</time>
      </trkpt>
      <trkpt lat="43.73071" lon="7.40214">
        <ele>539.97173714296</ele>
        <time>2013-03-12T10:01:43Z</time>
      </trkpt>
      <trkpt lat="43.73071" lon="7.40214">
        <ele>539.97173714296</ele>
        <time>2013-03-12T10:01:47Z</time>
      </trkpt>
      <trkpt lat="43.73071" lon="7.40214">
        <ele>539.97173714296</ele>
        <time>2013-03-12T10:01:53Z</time>
      </trkpt>
      <trkpt lat="43.73071" lon="7.40214">
        <ele>539.97173714296</ele>
        <time>2013-03-12T10:01:57Z</time>
      </trkpt>
      <trkpt lat="43.73071" lon="7.40214">
        <ele>539.97173714296</ele>
        <time>2013-03-12T10:02:03Z</time>
      </trkpt>
      <trkpt lat="43.73071" lon="7.40214">
        <ele>539.97173714296</ele>
        <time>2013-03-12T10:02:07Z</time>
      </trkpt>
      <trkpt lat="43.73071" lon="7.40215">
        <ele>539.97173714296</ele>
        <time>2013-03-12T10:02:12Z</time>
      </trkpt>
      <trkpt lat="43.73074" lon="7.40219">
        <ele>541.7643547168</ele>
        <time>2013-03-12T10:02:17Z</time>
      </trkpt>
      <trkpt lat="43.73078" lon="7.40216">
        <ele>541.7643547168</ele>
        <time>2013-03-12T10:02:22Z</time>
      </trkpt>
      <trkpt lat="43.73079" lon="7.40215">
        <ele>541.7643547168</ele>
        <time>2013-03-12T10:02:28Z</time>
      </trkpt>
      <trkpt lat="43.73081" lon="7.40215">
        <ele>541.7643547168</ele>
        <time>2013-03-12T10:02:32Z</time>
      </trkpt>
      <trkpt lat="43.73081" lon="7.40217">
        <ele>543.37568899451</ele>
        <time>2013-03-12T10:02:38Z</time>
      </trkpt>
      <trkpt lat="43.7308" lon="7.4022">
        <ele>543.37568899451</ele>
        <time>2013-03-12T10:02:42Z</time>
      </trkpt>
      <trkpt lat="43.73079" lon="7.40222">
        <ele>543.37568899451</ele>
        <time>2013-03-12T10:02:47Z</time>
      </trkpt>
      <trkpt lat="43.73077" lon="7.40224">
        <ele>543.37568899451</ele>
        <time>2013-03-12T10:02:53Z</time>
      </trkpt>
      <trkpt lat="43.73075" lon="7.40227">
        <ele>545.04958765318</ele>
        <time>2013-03-12T10:02:57Z</time>
      </trkpt>
      <trkpt lat="43.73073" lon="7.40231">
        <ele>545.04958765318</ele>
        <time>2013-03-12T10:03:02Z</time>
      </trkpt>
      <trkpt lat="43.7307" lon="7.40232">
        <ele>545.04958765318</ele>
        <time>2013-03-12T10:03:08Z</time>
      </trkpt>
      <trkpt lat="43.73068" lon="7.40234">
        <ele>546.65155869268</ele>
        <time>2013-03-12T10:03:12Z</time>
      </trkpt>
      <trkpt lat="43.73065" lon="7.40236">
        <ele>546.65155869268</ele>
        <time>2013-03-12T10:03:17Z</time>
      </trkpt>
      <trkpt lat="43.73064" lon="7.40238">
        <ele>546.65155869268</ele>
        <time>2013-03-12T10:03:23Z</time>
      </trkpt>
      <trkpt lat="43.73063" lon="7.40239">
        <ele>546.65155869268</ele>
        <time>2013-03-12T10:03:27Z</time>
      </trkpt>
      <trkpt lat="43.73061" lon="7.40243">
        <ele>548.24456203896</ele>
        <time>2013-03-12T10:03:34Z</time>
      </trkpt>
      <trkpt lat="43.73061" lon="7.40248">
        <ele>548.24456203896</ele>
        <time>2013-03-12T10:03:37Z</time>
      </trkpt>
      <trkpt lat="43.73058" lon="7.40251">
        <ele>548.24456203896</ele>
        <time>2013-03-12T10:03:42Z</time>
      </trkpt>
      <trkpt lat="43.73056" lon="7.40253">
        <ele>549.4402358832</ele>
        <time>2013-03-12T10:03:48Z</time>
      </trkpt>
      <trkpt lat="43.73052" lon="7.40256">
        <ele>549.4402358832</ele>
        <time>2013-03-12T10:03:52Z</time>
      </trkpt>
      <trkpt lat="43.73048" lon="7.40257">
        <ele>549.4402358832</ele>
        <time>2013-03-12T10:03:59Z</time>
      </trkpt>
      <trkpt lat="43.73047" lon="7.40257">
        <ele>550.49956005798</ele>
        <time>2013-03-12T10:04:02Z</time>
      </trkpt>
      <trkpt lat="43.73047" lon="7.40256">
        <ele>550.49956005798</ele>
        <time>2013-03-12T10:04:07Z</time>
      </trkpt>
      <trkpt lat="43.73047" lon="7.40257">
        <ele>550.49956005798</ele>
        <time>2013-03-12T10:04:12Z</time>
      </trkpt>
      <trkpt lat="43.73046" lon="7.40257">
        <ele>550.49956005798</ele>
        <time>2013-03-12T10:04:17Z</time>
      </trkpt>
      <trkpt lat="43.73045" lon="7.40258">
        <ele>550.49956005798</ele>
        <time>2013-03-12T10:04:22Z</time>
      </trkpt>
      <trkpt lat="43.73044" lon="7.40258">
        <ele>550.49956005798</ele>
        <time>2013-03-12T10:04:27Z</time>
      </trkpt>
      <trkpt lat="43.73043" lon="7.40261">
        <ele>550.49956005798</ele>
        <time>2013-03-12T10:04:33Z</time>
      </trkpt>
      <trkpt lat="43.73041" lon="7.40264">
        <ele>551.13152852422</ele>
        <time>2013-03-12T10:04:37Z</time>
      </trkpt>
      <trkpt lat="43.73039" lon="7.40265">
        <ele>551.13152852422</ele>
        <time>2013-03-12T10:04:43Z</time>
      </trkpt>
      <trkpt lat="43.73039" lon="7.40264">
        <ele>551.13152852422</ele>
        <time>2013-03-12T10:04:47Z</time>
      </trkpt>
      <trkpt lat="43.73038" lon="7.40265">
        <ele>551.13152852422</ele>
        <time>2013-03-12T10:04:52Z</time>
      </trkpt>
      <trkpt lat="43.73037" lon="7.40266">
        <ele>551.13152852422</ele>
        <time>2013-03-12T10:04:57Z</time>
      </trkpt>
      <trkpt lat="43.73035" lon="7.40267">
        <ele>551.13152852422</ele>
        <time>2013-03-12T10:05:02Z</time>
      </trkpt>
      <trkpt lat="43.73035" lon="7.40271">
        <ele>551.60093086643</ele>
        <time>2013-03-12T10:05:07Z</time>
      </trkpt>
      <trkpt lat="43.73035" lon="7.40273">
        <ele>551.60093086643</ele>
        <time>2013-03-12T10:05:12Z</time>
      </trkpt>
      <trkpt lat="43.73034" lon="7.40275">
        <ele>551.60093086643</ele>
        <time>2013-03-12T10:05:17Z</time>
      </trkpt>
      <trkpt lat="43.73034" lon="7.40276">
        <ele>551.60093086643</ele>
        <time>2013-03-12T10:05:22Z</time>
      </trkpt>
      <trkpt lat="43.73034" lon="7.40276">
        <ele>551.60093086643</ele>
        <time>2013-03-12T10:05:27Z</time>
      </trkpt>
      <trkpt lat="43.73034" lon="7.40276">
        <ele>551.60093086643</ele>
        <time>2013-03-12T10:05:32Z</time>
      </trkpt>
      <trkpt lat="43.73034" lon="7.40276">
        <ele>551.60093086643</ele>
        <time>2013-03-12T10:05:37Z</time>
      </trkpt>
      <trkpt lat="43.73034" lon="7.40276">
        <ele>551.60093086643</ele>
        <time>2013-03-12T10:05:42Z</time>
      </trkpt>
      <trkpt lat="43.73033" lon="7.40276">
        <ele>551.60093086643</ele>
        <time>2013-03-12T10:05:48Z</time>
      </trkpt>
      <trkpt lat="43.73033" lon="7.40276">
        <ele>551.60093086643</ele>
        <time>2013-03-12T10:05:53Z</time>
      </trkpt>
      <trkpt lat="43.73033" lon="7.40276">
        <ele>551.60093086643</ele>
        <time>2013-03-12T10:05:57Z</time>
      </trkpt>
      <trkpt lat="43.73034" lon="7.40276">
        <ele>551.60093086643</ele>
        <time>2013-03-12T10:06:03Z</time>
      </trkpt>
      <trkpt lat="43.73034" lon="7.40276">
        <ele>551.60093086643</ele>
        <time>2013-03-12T10:06:07Z</time>
      </trkpt>
      <trkpt lat="43.73034" lon="7.40276">
        <ele>551.60093086643</ele>
        <time>2013-03-12T10:06:13Z</time>
      </trkpt>
      <trkpt lat="43.73034" lon="7.40276">
        <ele>551.60093086643</ele>
        <time>2013-03-12T10:06:17Z</time>
      </trkpt>
      <trkpt lat="43.73034" lon="7.40276">
        <ele>551.60093086643</ele>
        <time>2013-03-12T10:06:22Z</time>
      </trkpt>
      <trkpt lat="43.73034" lon="7.40276">
        <ele>551.60093086643</ele>
        <time>2013-03-12T10:06:27Z</time>
      </trkpt>
      <trkpt lat="43.73034" lon="7.40276">
        <ele>551.60093086643</ele>
        <time>2013-03-12T10:06:32Z</time>
      </trkpt>
      <trkpt lat="43.73034" lon="7.40276">
        <ele>551.60093086643</ele>
        <time>2013-03-12T10:06:37Z</time>
      </trkpt>
      <trkpt lat="43.73034" lon="7.40276">
        <ele>551.60093086643</ele>
        <time>2013-03-12T10:06:42Z</time>
      </trkpt>
      <trkpt lat="43.73032" lon="7.40277">
        <ele>551.60093086643</ele>
        <time>2013-03-12T10:06:47Z</time>
      </trkpt>
      <trkpt lat="43.73031" lon="7.40277">
        <ele>551.73563836073</ele>
        <time>2013-03-12T10:06:52Z</time>
      </trkpt>
      <trkpt lat="43.7303" lon="7.40276">
        <ele>551.73563836073</ele>
        <time>2013-03-12T10:06:57Z</time>
      </trkpt>
      <trkpt lat="43.73029" lon="7.40276">
        <ele>551.73563836073</ele>
        <time>2013-03-12T10:07:02Z</time>
      </trkpt>
      <trkpt lat="43.73029" lon="7.40276">
        <ele>551.73563836073</ele>
        <time>2013-03-12T10:07:07Z</time>
      </trkpt>
      <trkpt lat="43.73029" lon="7.40276">
        <ele>551.73563836073</ele>
        <time>2013-03-12T10:07:12Z</time>
      </trkpt>
      <trkpt lat="43.73028" lon="7.40278">
        <ele>551.73563836073</ele>
        <time>2013-03-12T10:07:17Z</time>
      </trkpt>
      <trkpt lat="43.73028" lon="7.40279">
        <ele>551.73563836073</ele>
        <time>2013-03-12T10:07:23Z</time>
      </trkpt>
      <trkpt lat="43.73028" lon="7.40278">
        <ele>551.73563836073</ele>
        <time>2013-03-12T10:07:27Z</time>
      </trkpt>
      <trkpt lat="43.73028" lon="7.40278">
        <ele>551.73563836073</ele>
        <time>2013-03-12T10:07:32Z</time>
      </trkpt>
      <trkpt lat="43.73028" lon="7.40278">
        <ele>551.73563836073</ele>
        <time>2013-03-12T10:07:37Z</time>
      </trkpt>
      <trkpt lat="43.73028" lon="7.40278">
        <ele>551.73563836073</ele>
        <time>2013-03-12T10:07:42Z</time>
      </trkpt>
      <trkpt lat="43.73028" lon="7.40278">
        <ele>551.73563836073</ele>
        <time>2013-03-12T10:07:47Z</time>
      </trkpt>
      <trkpt lat="43.73028" lon="7.40278">
        <ele>551.73563836073</ele>
        <time>2013-03-12T10:07:52Z</time>
      </trkpt>
      <trkpt lat="43.73028" lon="7.40278">
        <ele>551.73563836073</ele>
        <time>2013-03-12T10:07:57Z</time>
      </trkpt>
      <trkpt lat="43.73028" lon="7.40278">
        <ele>551.73563836073</ele>
        <time>2013-03-12T10:08:02Z</time>
      </trkpt>
      <trkpt lat="43.73028" lon="7.40278">
        <ele>551.73563836073</ele>
        <time>2013-03-12T10:08:07Z</time>
      </trkpt>
      <trkpt lat="43.73028" lon="7.40278">
        <ele>551.73563836073</ele>
        <time>2013-03-12T10:08:13Z</time>
      </trkpt>
      <trkpt lat="43.73028" lon="7.40278">
        <ele>551.73563836073</ele>
        <time>2013-03-12T10:08:17Z</time>
      </trkpt>
      <trkpt lat="43.73028" lon="7.40278">
        <ele>551.73563836073</ele>
        <time>2013-03-12T10:08:22Z</time>
      </trkpt>
      <trkpt lat="43.73028" lon="7.40278">
        <ele>551.73563836073</ele>
        <time>2013-03-12T10:08:27Z</time>
      </trkpt>
      <trkpt lat="43.73028" lon="7.40278">
        <ele>551.73563836073</ele>
        <time>2013-03-12T10:08:33Z</time>
      </trkpt>
      <trkpt lat="43.73028" lon="7.40278">
        <ele>551.73563836073</ele>
        <time>2013-03-12T10:08:37Z</time>
      </trkpt>
      <trkpt lat="43.73028" lon="7.40278">
        <ele>551.73563836073</ele>
        <time>2013-03-12T10:08:42Z</time>
      </trkpt>
      <trkpt lat="43.73028" lon="7.40278">
        <ele>551.73563836073</ele>
        <time>2013-03-12T10:08:48Z</time>
      </trkpt>
      <trkpt lat="43.73028" lon="7.40278">
        <ele>551.73563836073</ele>
        <time>2013-03-12T10:08:52Z</time>
      </trkpt>
      <trkpt lat="43.73028" lon="7.40277">
        <ele>551.73563836073</ele>
        <time>2013-03-12T10:08:58Z</time>
      </trkpt>
      <trkpt lat="43.73027" lon="7.40278">
        <ele>551.73563836073</ele>
        <time>2013-03-12T10:09:02Z</time>
      </trkpt>
      <trkpt lat="43.73028" lon="7.40278">
        <ele>551.73563836073</ele>
        <time>2013-03-12T10:09:07Z</time>
      </trkpt>
      <trkpt lat="43.73028" lon="7.40278">
        <ele>551.73563836073</ele>
        <time>2013-03-12T10:09:12Z</time>
      </trkpt>
      <trkpt lat="43.73028" lon="7.40278">
        <ele>551.73563836073</ele>
        <time>2013-03-12T10:09:18Z</time>
      </trkpt>
      <trkpt lat="43.73028" lon="7.40278">
        <ele>551.73563836073</ele>
        <time>2013-03-12T10:09:22Z</time>
      </trkpt>
      <trkpt lat="43.73028" lon="7.40278">
        <ele>551.73563836073</ele>
        <time>2013-03-12T10:09:27Z</time>
      </trkpt>
      <trkpt lat="43.73028" lon="7.40278">
        <ele>551.73563836073</ele>
        <time>2013-03-12T10:09:33Z</time>
      </trkpt>
      <trkpt lat="43.73028" lon="7.40278">
        <ele>551.73563836073</ele>
        <time>2013-03-12T10:09:37Z</time>
      </trkpt>
      <trkpt lat="43.73026" lon="7.40279">
        <ele>551.73563836073</ele>
        <time>2013-03-12T10:09:43Z</time>
      </trkpt>
      <trkpt lat="43.73027" lon="7.40279">
        <ele>551.73563836073</ele>
        <time>2013-03-12T10:09:47Z</time>
      </trkpt>
      <trkpt lat="43.73026" lon="7.40279">
        <ele>551.73563836073</ele>
        <time>2013-03-12T10:09:52Z</time>
      </trkpt>
      <trkpt lat="43.73027" lon="7.40279">
        <ele>551.73563836073</ele>
        <time>2013-03-12T10:09:58Z</time>
      </trkpt>
      <trkpt lat="43.73027" lon="7.40279">
        <ele>551.73563836073</ele>
        <time>2013-03-12T10:10:02Z</time>
      </trkpt>
      <trkpt lat="43.73027" lon="7.40279">
        <ele>551.73563836073</ele>
        <time>2013-03-12T10:10:07Z</time>
      </trkpt>
      <trkpt lat="43.73027" lon="7.40279">
        <ele>551.73563836073</ele>
        <time>2013-03-12T10:10:12Z</time>
      </trkpt>
      <trkpt lat="43.73027" lon="7.40279">
        <ele>551.73563836073</ele>
        <time>2013-03-12T10:10:17Z</time>
      </trkpt>
      <trkpt lat="43.73027" lon="7.40279">
        <ele>551.73563836073</ele>
        <time>2013-03-12T10:10:23Z</time>
      </trkpt>
      <trkpt lat="43.73026" lon="7.40279">
        <ele>551.73563836073</ele>
        <time>2013-03-12T10:10:27Z</time>
      </trkpt>
      <trkpt lat="43.73026" lon="7.40279">
        <ele>551.73563836073</ele>
        <time>2013-03-12T10:10:32Z</time>
      </trkpt>
      <trkpt lat="43.73028" lon="7.40279">
        <ele>551.73737318258</ele>
        <time>2013-03-12T10:10:38Z</time>
      </trkpt>
      <trkpt lat="43.73028" lon="7.4028">
        <ele>551.73737318258</ele>
        <time>2013-03-12T10:10:43Z</time>
      </trkpt>
      <trkpt lat="43.73028" lon="7.40281">
        <ele>551.73737318258</ele>
        <time>2013-03-12T10:10:48Z</time>
      </trkpt>
      <trkpt lat="43.73028" lon="7.40281">
        <ele>551.73737318258</ele>
        <time>2013-03-12T10:10:52Z</time>
      </trkpt>
      <trkpt lat="43.73028" lon="7.40281">
        <ele>551.73737318258</ele>
        <time>2013-03-12T10:10:57Z</time>
      </trkpt>
      <trkpt lat="43.73029" lon="7.4028">
        <ele>551.73737318258</ele>
        <time>2013-03-12T10:11:04Z</time>
      </trkpt>
      <trkpt lat="43.73029" lon="7.4028">
        <ele>551.73737318258</ele>
        <time>2013-03-12T10:11:07Z</time>
      </trkpt>
      <trkpt lat="43.73029" lon="7.4028">
        <ele>551.73737318258</ele>
        <time>2013-03-12T10:11:13Z</time>
      </trkpt>
      <trkpt lat="43.73029" lon="7.40279">
        <ele>551.73737318258</ele>
        <time>2013-03-12T10:11:17Z</time>
      </trkpt>
      <trkpt lat="43.73029" lon="7.40279">
        <ele>551.73737318258</ele>
        <time>2013-03-12T10:11:23Z</time>
      </trkpt>
      <trkpt lat="43.73029" lon="7.40279">
        <ele>551.73737318258</ele>
        <time>2013-03-12T10:11:27Z</time>
      </trkpt>
      <trkpt lat="43.73029" lon="7.40279">
        <ele>551.73737318258</ele>
        <time>2013-03-12T10:11:33Z</time>
      </trkpt>
      <trkpt lat="43.7303" lon="7.40279">
        <ele>551.73737318258</ele>
        <time>2013-03-12T10:11:38Z</time>
      </trkpt>
      <trkpt lat="43.7303" lon="7.4028">
        <ele>551.73737318258</ele>
        <time>2013-03-12T10:11:42Z</time>
      </trkpt>
      <trkpt lat="43.7303" lon="7.4028">
        <ele>551.73737318258</ele>
        <time>2013-03-12T10:11:48Z</time>
      </trkpt>
      <trkpt lat="43.7303" lon="7.4028">
        <ele>551.73737318258</ele>
        <time>2013-03-12T10:11:52Z</time>
      </trkpt>
      <trkpt lat="43.7303" lon="7.4028">
        <ele>551.73737318258</ele>
        <time>2013-03-12T10:11:58Z</time>
      </trkpt>
      <trkpt lat="43.7303" lon="7.4028">
        <ele>551.73737318258</ele>
        <time>2013-03-12T10:12:02Z</time>
      </trkpt>
      <trkpt lat="43.7303" lon="7.4028">
        <ele>551.73737318258</ele>
        <time>2013-03-12T10:12:07Z</time>
      </trkpt>
      <trkpt lat="43.7303" lon="7.4028">
        <ele>551.73737318258</ele>
        <time>2013-03-12T10:12:13Z</time>
      </trkpt>
      <trkpt lat="43.7303" lon="7.4028">
        <ele>551.73737318258</ele>
        <time>2013-03-12T10:12:17Z</time>
      </trkpt>
      <trkpt lat="43.7303" lon="7.4028">
        <ele>551.73737318258</ele>
        <time>2013-03-12T10:12:22Z</time>
      </trkpt>
      <trkpt lat="43.7303" lon="7.4028">
        <ele>551.73737318258</ele>
        <time>2013-03-12T10:12:28Z</time>
      </trkpt>
      <trkpt lat="43.7303" lon="7.4028">
        <ele>551.73737318258</ele>
        <time>2013-03-12T10:12:33Z</time>
      </trkpt>
      <trkpt lat="43.7303" lon="7.4028">
        <ele>551.73737318258</ele>
        <time>2013-03-12T10:12:37Z</time>
      </trkpt>
      <trkpt lat="43.7303" lon="7.4028">
        <ele>551.73737318258</ele>
        <time>2013-03-12T10:12:43Z</time>
      </trkpt>
      <trkpt lat="43.7303" lon="7.4028">
        <ele>551.73737318258</ele>
        <time>2013-03-12T10:12:48Z</time>
      </trkpt>
      <trkpt lat="43.7303" lon="7.4028">
        <ele>551.73737318258</ele>
        <time>2013-03-12T10:12:52Z</time>
      </trkpt>
      <trkpt lat="43.7303" lon="7.4028">
        <ele>551.73737318258</ele>
        <time>2013-03-12T10:12:58Z</time>
      </trkpt>
      <trkpt lat="43.7303" lon="7.4028">
        <ele>551.73737318258</ele>
        <time>2013-03-12T10:13:07Z</time>
      </trkpt>
      <trkpt lat="43.73031" lon="7.40275">
        <ele>551.59163470178</ele>
        <time>2013-03-12T10:13:13Z</time>
      </trkpt>
      <trkpt lat="43.73032" lon="7.40275">
        <ele>551.59163470178</ele>
        <time>2013-03-12T10:13:17Z</time>
      </trkpt>
      <trkpt lat="43.73033" lon="7.40273">
        <ele>551.59163470178</ele>
        <time>2013-03-12T10:13:22Z</time>
      </trkpt>
      <trkpt lat="43.73033" lon="7.40273">
        <ele>551.59163470178</ele>
        <time>2013-03-12T10:13:27Z</time>
      </trkpt>
      <trkpt lat="43.73033" lon="7.40272">
        <ele>551.59163470178</ele>
        <time>2013-03-12T10:13:33Z</time>
      </trkpt>
      <trkpt lat="43.73033" lon="7.40272">
        <ele>551.59163470178</ele>
        <time>2013-03-12T10:13:38Z</time>
      </trkpt>
      <trkpt lat="43.73033" lon="7.40272">
        <ele>551.59163470178</ele>
        <time>2013-03-12T10:13:42Z</time>
      </trkpt>
      <trkpt lat="43.73033" lon="7.40272">
        <ele>551.59163470178</ele>
        <time>2013-03-12T10:13:47Z</time>
      </trkpt>
      <trkpt lat="43.73033" lon="7.40272">
        <ele>551.59163470178</ele>
        <time>2013-03-12T10:13:52Z</time>
      </trkpt>
      <trkpt lat="43.73033" lon="7.40272">
        <ele>551.59163470178</ele>
        <time>2013-03-12T10:13:57Z</time>
      </trkpt>
      <trkpt lat="43.73033" lon="7.40272">
        <ele>551.59163470178</ele>
        <time>2013-03-12T10:14:03Z</time>
      </trkpt>
      <trkpt lat="43.73033" lon="7.40272">
        <ele>551.59163470178</ele>
        <time>2013-03-12T10:14:07Z</time>
      </trkpt>
      <trkpt lat="43.73033" lon="7.40272">
        <ele>551.59163470178</ele>
        <time>2013-03-12T10:14:12Z</time>
      </trkpt>
      <trkpt lat="43.73033" lon="7.40272">
        <ele>551.59163470178</ele>
        <time>2013-03-12T10:14:18Z</time>
      </trkpt>
      <trkpt lat="43.73033" lon="7.40272">
        <ele>551.59163470178</ele>
        <time>2013-03-12T10:14:23Z</time>
      </trkpt>
      <trkpt lat="43.73033" lon="7.40272">
        <ele>551.59163470178</ele>
        <time>2013-03-12T10:14:27Z</time>
      </trkpt>
      <trkpt lat="43.73033" lon="7.40272">
        <ele>551.59163470178</ele>
        <time>2013-03-12T10:14:32Z</time>
      </trkpt>
      <trkpt lat="43.73033" lon="7.40272">
        <ele>551.59163470178</ele>
        <time>2013-03-12T10:14:37Z</time>
      </trkpt>
      <trkpt lat="43.73033" lon="7.40272">
        <ele>551.59163470178</ele>
        <time>2013-03-12T10:14:42Z</time>
      </trkpt>
      <trkpt lat="43.73033" lon="7.40272">
        <ele>551.59163470178</ele>
        <time>2013-03-12T10:14:48Z</time>
      </trkpt>
      <trkpt lat="43.73033" lon="7.40272">
        <ele>551.59163470178</ele>
        <time>2013-03-12T10:14:52Z</time>
      </trkpt>
      <trkpt lat="43.73033" lon="7.40272">
        <ele>551.59163470178</ele>
        <time>2013-03-12T10:14:57Z</time>
      </trkpt>
      <trkpt lat="43.73033" lon="7.40272">
        <ele>551.59163470178</ele>
        <time>2013-03-12T10:15:02Z</time>
      </trkpt>
      <trkpt lat="43.73033" lon="7.40272">
        <ele>551.59163470178</ele>
        <time>2013-03-12T10:15:08Z</time>
      </trkpt>
      <trkpt lat="43.73033" lon="7.40272">
        <ele>551.59163470178</ele>
        <time>2013-03-12T10:15:12Z</time>
      </trkpt>
      <trkpt lat="43.73033" lon="7.40272">
        <ele>551.59163470178</ele>
        <time>2013-03-12T10:15:17Z</time>
      </trkpt>
      <trkpt lat="43.73033" lon="7.40272">
        <ele>551.59163470178</ele>
        <time>2013-03-12T10:15:23Z</time>
      </trkpt>
      <trkpt lat="43.73033" lon="7.40272">
        <ele>551.59163470178</ele>
        <time>2013-03-12T10:15:27Z</time>
      </trkpt>
      <trkpt lat="43.73033" lon="7.40272">
        <ele>551.59163470178</ele>
        <time>2013-03-12T10:15:37Z</time>
      </trkpt>
      <trkpt lat="43.73034" lon="7.40272">
        <ele>551.59163470178</ele>
        <time>2013-03-12T10:15:43Z</time>
      </trkpt>
      <trkpt lat="43.73034" lon="7.40272">
        <ele>551.59163470178</ele>
        <time>2013-03-12T10:15:47Z</time>
      </trkpt>
      <trkpt lat="43.73034" lon="7.40272">
        <ele>551.59163470178</ele>
        <time>2013-03-12T10:15:53Z</time>
      </trkpt>
      <trkpt lat="43.73034" lon="7.40271">
        <ele>551.59163470178</ele>
        <time>2013-03-12T10:15:57Z</time>
      </trkpt>
      <trkpt lat="43.73034" lon="7.40271">
        <ele>551.59163470178</ele>
        <time>2013-03-12T10:16:02Z</time>
      </trkpt>
      <trkpt lat="43.73034" lon="7.40272">
        <ele>551.59163470178</ele>
        <time>2013-03-12T10:16:07Z</time>
      </trkpt>
      <trkpt lat="43.73034" lon="7.40272">
        <ele>551.59163470178</ele>
        <time>2013-03-12T10:16:12Z</time>
      </trkpt>
      <trkpt lat="43.73034" lon="7.40272">
        <ele>551.59163470178</ele>
        <time>2013-03-12T10:16:17Z</time>
      </trkpt>
      <trkpt lat="43.73034" lon="7.40272">
        <ele>551.59163470178</ele>
        <time>2013-03-12T10:16:22Z</time>
      </trkpt>
      <trkpt lat="43.73034" lon="7.40272">
        <ele>551.59163470178</ele>
        <time>2013-03-12T10:16:27Z</time>
      </trkpt>
      <trkpt lat="43.73034" lon="7.40272">
        <ele>551.59163470178</ele>
        <time>2013-03-12T10:16:33Z</time>
      </trkpt>
      <trkpt lat="43.73034" lon="7.40272">
        <ele>551.59163470178</ele>
        <time>2013-03-12T10:16:38Z</time>
      </trkpt>
      <trkpt lat="43.73034" lon="7.40272">
        <ele>551.59163470178</ele>
        <time>2013-03-12T10:16:42Z</time>
      </trkpt>
      <trkpt lat="43.73034" lon="7.40272">
        <ele>551.59163470178</ele>
        <time>2013-03-12T10:16:48Z</time>
      </trkpt>
      <trkpt lat="43.73034" lon="7.40272">
        <ele>551.59163470178</ele>
        <time>2013-03-12T10:16:52Z</time>
      </trkpt>
      <trkpt lat="43.73034" lon="7.40272">
        <ele>551.59163470178</ele>
        <time>2013-03-12T10:16:57Z</time>
      </trkpt>
      <trkpt lat="43.73034" lon="7.40271">
        <ele>551.59163470178</ele>
        <time>2013-03-12T10:17:02Z</time>
      </trkpt>
      <trkpt lat="43.73034" lon="7.40271">
        <ele>551.59163470178</ele>
        <time>2013-03-12T10:17:07Z</time>
      </trkpt>
      <trkpt lat="43.73034" lon="7.40271">
        <ele>551.59163470178</ele>
        <time>2013-03-12T10:17:12Z</time>
      </trkpt>
      <trkpt lat="43.73034" lon="7.40271">
        <ele>551.59163470178</ele>
        <time>2013-03-12T10:17:18Z</time>
      </trkpt>
      <trkpt lat="43.73034" lon="7.40272">
        <ele>551.59163470178</ele>
        <time>2013-03-12T10:17:22Z</time>
      </trkpt>
      <trkpt lat="43.73034" lon="7.40272">
        <ele>551.59163470178</ele>
        <time>2013-03-12T10:17:28Z</time>
      </trkpt>
      <trkpt lat="43.73034" lon="7.40272">
        <ele>551.59163470178</ele>
        <time>2013-03-12T10:17:33Z</time>
      </trkpt>
      <trkpt lat="43.73034" lon="7.40272">
        <ele>551.59163470178</ele>
        <time>2013-03-12T10:17:37Z</time>
      </trkpt>
      <trkpt lat="43.73034" lon="7.40272">
        <ele>551.59163470178</ele>
        <time>2013-03-12T10:17:42Z</time>
      </trkpt>
      <trkpt lat="43.73034" lon="7.40272">
        <ele>551.59163470178</ele>
        <time>2013-03-12T10:17:48Z</time>
      </trkpt>
      <trkpt lat="43.73034" lon="7.40272">
        <ele>551.59163470178</ele>
        <time>2013-03-12T10:17:53Z</time>
      </trkpt>
      <trkpt lat="43.73034" lon="7.40272">
        <ele>551.59163470178</ele>
        <time>2013-03-12T10:17:57Z</time>
      </trkpt>
      <trkpt lat="43.73035" lon="7.40272">
        <ele>551.59163470178</ele>
        <time>2013-03-12T10:18:02Z</time>
      </trkpt>
      <trkpt lat="43.73035" lon="7.40272">
        <ele>551.59163470178</ele>
        <time>2013-03-12T10:18:07Z</time>
      </trkpt>
      <trkpt lat="43.73035" lon="7.40272">
        <ele>551.59163470178</ele>
        <time>2013-03-12T10:18:13Z</time>
      </trkpt>
      <trkpt lat="43.73035" lon="7.40272">
        <ele>551.59163470178</ele>
        <time>2013-03-12T10:18:17Z</time>
      </trkpt>
      <trkpt lat="43.73035" lon="7.40272">
        <ele>551.59163470178</ele>
        <time>2013-03-12T10:18:22Z</time>
      </trkpt>
      <trkpt lat="43.73035" lon="7.40272">
        <ele>551.59163470178</ele>
        <time>2013-03-12T10:18:28Z</time>
      </trkpt>
      <trkpt lat="43.73035" lon="7.40272">
        <ele>551.59163470178</ele>
        <time>2013-03-12T10:18:37Z</time>
      </trkpt>
      <trkpt lat="43.73035" lon="7.40272">
        <ele>551.59163470178</ele>
        <time>2013-03-12T10:18:42Z</time>
      </trkpt>
      <trkpt lat="43.73035" lon="7.40272">
        <ele>551.59163470178</ele>
        <time>2013-03-12T10:18:47Z</time>
      </trkpt>
      <trkpt lat="43.73035" lon="7.40272">
        <ele>551.59163470178</ele>
        <time>2013-03-12T10:18:52Z</time>
      </trkpt>
      <trkpt lat="43.73035" lon="7.40272">
        <ele>551.59163470178</ele>
        <time>2013-03-12T10:18:58Z</time>
      </trkpt>
      <trkpt lat="43.73035" lon="7.40272">
        <ele>551.59163470178</ele>
        <time>2013-03-12T10:19:03Z</time>
      </trkpt>
      <trkpt lat="43.73035" lon="7.40272">
        <ele>551.59163470178</ele>
        <time>2013-03-12T10:19:08Z</time>
      </trkpt>
      <trkpt lat="43.73035" lon="7.40272">
        <ele>551.59163470178</ele>
        <time>2013-03-12T10:19:17Z</time>
      </trkpt>
      <trkpt lat="43.73035" lon="7.40272">
        <ele>551.59163470178</ele>
        <time>2013-03-12T10:19:22Z</time>
      </trkpt>
      <trkpt lat="43.73035" lon="7.40272">
        <ele>551.47271240659</ele>
        <time>2013-03-12T10:19:28Z</time>
      </trkpt>
      <trkpt lat="43.73035" lon="7.40272">
        <ele>551.47271240659</ele>
        <time>2013-03-12T10:19:33Z</time>
      </trkpt>
      <trkpt lat="43.73035" lon="7.40272">
        <ele>551.47271240659</ele>
        <time>2013-03-12T10:19:37Z</time>
      </trkpt>
      <trkpt lat="43.73035" lon="7.40272">
        <ele>551.47271240659</ele>
        <time>2013-03-12T10:19:43Z</time>
      </trkpt>
      <trkpt lat="43.73035" lon="7.40272">
        <ele>551.47271240659</ele>
        <time>2013-03-12T10:19:48Z</time>
      </trkpt>
      <trkpt lat="43.73035" lon="7.40272">
        <ele>551.47271240659</ele>
        <time>2013-03-12T10:19:52Z</time>
      </trkpt>
      <trkpt lat="43.73035" lon="7.40272">
        <ele>551.47271240659</ele>
        <time>2013-03-12T10:19:58Z</time>
      </trkpt>
      <trkpt lat="43.73035" lon="7.40272">
        <ele>551.47271240659</ele>
        <time>2013-03-12T10:20:02Z</time>
      </trkpt>
      <trkpt lat="43.73035" lon="7.40272">
        <ele>551.47271240659</ele>
        <time>2013-03-12T10:20:08Z</time>
      </trkpt>
      <trkpt lat="43.73035" lon="7.40272">
        <ele>551.47271240659</ele>
        <time>2013-03-12T10:20:13Z</time>
      </trkpt>
      <trkpt lat="43.73035" lon="7.40272">
        <ele>551.47271240659</ele>
        <time>2013-03-12T10:20:18Z</time>
      </trkpt>
      <trkpt lat="43.73035" lon="7.40272">
        <ele>551.47271240659</ele>
        <time>2013-03-12T10:20:22Z</time>
      </trkpt>
      <trkpt lat="43.73035" lon="7.40272">
        <ele>551.47271240659</ele>
        <time>2013-03-12T10:20:28Z</time>
      </trkpt>
      <trkpt lat="43.73035" lon="7.40272">
        <ele>551.47271240659</ele>
        <time>2013-03-12T10:20:33Z</time>
      </trkpt>
      <trkpt lat="43.73035" lon="7.40272">
        <ele>551.47271240659</ele>
        <time>2013-03-12T10:20:37Z</time>
      </trkpt>
      <trkpt lat="43.73035" lon="7.40272">
        <ele>551.47271240659</ele>
        <time>2013-03-12T10:20:42Z</time>
      </trkpt>
      <trkpt lat="43.73035" lon="7.40272">
        <ele>551.47271240659</ele>
        <time>2013-03-12T10:20:47Z</time>
      </trkpt>
      <trkpt lat="43.73035" lon="7.40272">
        <ele>551.47271240659</ele>
        <time>2013-03-12T10:20:52Z</time>
      </trkpt>
      <trkpt lat="43.73035" lon="7.40272">
        <ele>551.47271240659</ele>
        <time>2013-03-12T10:20:57Z</time>
      </trkpt>
      <trkpt lat="43.73035" lon="7.40272">
        <ele>551.47271240659</ele>
        <time>2013-03-12T10:21:02Z</time>
      </trkpt>
      <trkpt lat="43.73035" lon="7.40272">
        <ele>551.47271240659</ele>
        <time>2013-03-12T10:21:07Z</time>
      </trkpt>
      <trkpt lat="43.73035" lon="7.40272">
        <ele>551.47271240659</ele>
        <time>2013-03-12T10:21:12Z</time>
      </trkpt>
      <trkpt lat="43.73035" lon="7.40272">
        <ele>551.47271240659</ele>
        <time>2013-03-12T10:21:17Z</time>
      </trkpt>
      <trkpt lat="43.73034" lon="7.40271">
        <ele>551.47271240659</ele>
        <time>2013-03-12T10:21:22Z</time>
      </trkpt>
      <trkpt lat="43.73035" lon="7.4027">
        <ele>551.47271240659</ele>
        <time>2013-03-12T10:21:27Z</time>
      </trkpt>
      <trkpt lat="43.73035" lon="7.40269">
        <ele>551.47271240659</ele>
        <time>2013-03-12T10:21:32Z</time>
      </trkpt>
      <trkpt lat="43.73035" lon="7.40269">
        <ele>551.47271240659</ele>
        <time>2013-03-12T10:21:37Z</time>
      </trkpt>
      <trkpt lat="43.73036" lon="7.40269">
        <ele>551.47271240659</ele>
        <time>2013-03-12T10:21:42Z</time>
      </trkpt>
      <trkpt lat="43.73036" lon="7.40269">
        <ele>551.47271240659</ele>
        <time>2013-03-12T10:21:48Z</time>
      </trkpt>
      <trkpt lat="43.73036" lon="7.40269">
        <ele>551.47271240659</ele>
        <time>2013-03-12T10:21:52Z</time>
      </trkpt>
      <trkpt lat="43.73036" lon="7.40269">
        <ele>551.47271240659</ele>
        <time>2013-03-12T10:21:58Z</time>
      </trkpt>
      <trkpt lat="43.73036" lon="7.40269">
        <ele>551.47271240659</ele>
        <time>2013-03-12T10:22:02Z</time>
      </trkpt>
      <trkpt lat="43.73037" lon="7.40268">
        <ele>551.47271240659</ele>
        <time>2013-03-12T10:22:08Z</time>
      </trkpt>
      <trkpt lat="43.73037" lon="7.40268">
        <ele>551.47271240659</ele>
        <time>2013-03-12T10:22:12Z</time>
      </trkpt>
      <trkpt lat="43.73038" lon="7.40267">
        <ele>551.47271240659</ele>
        <time>2013-03-12T10:22:17Z</time>
      </trkpt>
      <trkpt lat="43.73041" lon="7.40265">
        <ele>551.64285072998</ele>
        <time>2013-03-12T10:22:22Z</time>
      </trkpt>
      <trkpt lat="43.73043" lon="7.40264">
        <ele>551.64285072998</ele>
        <time>2013-03-12T10:22:28Z</time>
      </trkpt>
      <trkpt lat="43.73044" lon="7.40262">
        <ele>551.64285072998</ele>
        <time>2013-03-12T10:22:32Z</time>
      </trkpt>
      <trkpt lat="43.73047" lon="7.40261">
        <ele>551.64285072998</ele>
        <time>2013-03-12T10:22:38Z</time>
      </trkpt>
      <trkpt lat="43.7305" lon="7.40261">
        <ele>551.76771927519</ele>
        <time>2013-03-12T10:22:42Z</time>
      </trkpt>
      <trkpt lat="43.73053" lon="7.4026">
        <ele>551.76771927519</ele>
        <time>2013-03-12T10:22:48Z</time>
      </trkpt>
      <trkpt lat="43.73055" lon="7.40257">
        <ele>551.76771927519</ele>
        <time>2013-03-12T10:22:52Z</time>
      </trkpt>
      <trkpt lat="43.73058" lon="7.40255">
        <ele>551.99876676814</ele>
        <time>2013-03-12T10:22:57Z</time>
      </trkpt>
      <trkpt lat="43.73059" lon="7.40255">
        <ele>551.99876676814</ele>
        <time>2013-03-12T10:23:02Z</time>
      </trkpt>
      <trkpt lat="43.73062" lon="7.4025">
        <ele>551.99876676814</ele>
        <time>2013-03-12T10:23:08Z</time>
      </trkpt>
      <trkpt lat="43.73062" lon="7.40246">
        <ele>551.99876676814</ele>
        <time>2013-03-12T10:23:12Z</time>
      </trkpt>
      <trkpt lat="43.73063" lon="7.40244">
        <ele>551.94273597955</ele>
        <time>2013-03-12T10:23:17Z</time>
      </trkpt>
      <trkpt lat="43.73065" lon="7.40241">
        <ele>551.94273597955</ele>
        <time>2013-03-12T10:23:22Z</time>
      </trkpt>
      <trkpt lat="43.73067" lon="7.40238">
        <ele>551.94273597955</ele>
        <time>2013-03-12T10:23:28Z</time>
      </trkpt>
      <trkpt lat="43.73069" lon="7.40237">
        <ele>551.94273597955</ele>
        <time>2013-03-12T10:23:32Z</time>
      </trkpt>
      <trkpt lat="43.73072" lon="7.40236">
        <ele>551.88448603817</ele>
        <time>2013-03-12T10:23:37Z</time>
      </trkpt>
      <trkpt lat="43.73072" lon="7.40236">
        <ele>551.88448603817</ele>
        <time>2013-03-12T10:23:43Z</time>
      </trkpt>
      <trkpt lat="43.73074" lon="7.40235">
        <ele>551.88448603817</ele>
        <time>2013-03-12T10:23:47Z</time>
      </trkpt>
      <trkpt lat="43.73076" lon="7.40232">
        <ele>551.88448603817</ele>
        <time>2013-03-12T10:23:53Z</time>
      </trkpt>
      <trkpt lat="43.73078" lon="7.40231">
        <ele>551.88448603817</ele>
        <time>2013-03-12T10:23:57Z</time>
      </trkpt>
      <trkpt lat="43.73078" lon="7.40231">
        <ele>551.88448603817</ele>
        <time>2013-03-12T10:24:03Z</time>
      </trkpt>
      <trkpt lat="43.73079" lon="7.40231">
        <ele>551.88448603817</ele>
        <time>2013-03-12T10:24:07Z</time>
      </trkpt>
      <trkpt lat="43.73079" lon="7.40231">
        <ele>551.88448603817</ele>
        <time>2013-03-12T10:24:13Z</time>
      </trkpt>
      <trkpt lat="43.73079" lon="7.40231">
        <ele>551.69877170528</ele>
        <time>2013-03-12T10:24:17Z</time>
      </trkpt>
      <trkpt lat="43.7308" lon="7.4023">
        <ele>551.69877170528</ele>
        <time>2013-03-12T10:24:22Z</time>
      </trkpt>
      <trkpt lat="43.7308" lon="7.4023">
        <ele>551.69877170528</ele>
        <time>2013-03-12T10:24:28Z</time>
      </trkpt>
      <trkpt lat="43.73083" lon="7.40231">
        <ele>551.69877170528</ele>
        <time>2013-03-12T10:24:33Z</time>
      </trkpt>
      <trkpt lat="43.73082" lon="7.40234">
        <ele>551.69877170528</ele>
        <time>2013-03-12T10:24:38Z</time>
      </trkpt>
      <trkpt lat="43.73082" lon="7.40239">
        <ele>551.39951448578</ele>
        <time>2013-03-12T10:24:42Z</time>
      </trkpt>
      <trkpt lat="43.73083" lon="7.40243">
        <ele>551.39951448578</ele>
        <time>2013-03-12T10:24:47Z</time>
      </trkpt>
      <trkpt lat="43.73083" lon="7.40249">
        <ele>551.39951448578</ele>
        <time>2013-03-12T10:24:53Z</time>
      </trkpt>
      <trkpt lat="43.73083" lon="7.40253">
        <ele>551.0430668849</ele>
        <time>2013-03-12T10:24:57Z</time>
      </trkpt>
      <trkpt lat="43.73082" lon="7.40257">
        <ele>551.0430668849</ele>
        <time>2013-03-12T10:25:03Z</time>
      </trkpt>
      <trkpt lat="43.73081" lon="7.4026">
        <ele>551.0430668849</ele>
        <time>2013-03-12T10:25:07Z</time>
      </trkpt>
      <trkpt lat="43.73081" lon="7.40262">
        <ele>551.0430668849</ele>
        <time>2013-03-12T10:25:12Z</time>
      </trkpt>
      <trkpt lat="43.73082" lon="7.40265">
        <ele>550.49435242288</ele>
        <time>2013-03-12T10:25:18Z</time>
      </trkpt>
      <trkpt lat="43.73082" lon="7.40267">
        <ele>550.49435242288</ele>
        <time>2013-03-12T10:25:22Z</time>
      </trkpt>
      <trkpt lat="43.73082" lon="7.40269">
        <ele>550.49435242288</ele>
        <time>2013-03-12T10:25:28Z</time>
      </trkpt>
      <trkpt lat="43.73082" lon="7.40269">
        <ele>550.49435242288</ele>
        <time>2013-03-12T10:25:34Z</time>
      </trkpt>
      <trkpt lat="43.73082" lon="7.4027">
        <ele>550.49435242288</ele>
        <time>2013-03-12T10:25:37Z</time>
      </trkpt>
      <trkpt lat="43.73082" lon="7.40271">
        <ele>550.49435242288</ele>
        <time>2013-03-12T10:25:43Z</time>
      </trkpt>
      <trkpt lat="43.73082" lon="7.40271">
        <ele>550.49435242288</ele>
        <time>2013-03-12T10:25:47Z</time>
      </trkpt>
      <trkpt lat="43.73082" lon="7.40271">
        <ele>550.49435242288</ele>
        <time>2013-03-12T10:25:52Z</time>
      </trkpt>
      <trkpt lat="43.73082" lon="7.40271">
        <ele>550.49435242288</ele>
        <time>2013-03-12T10:25:58Z</time>
      </trkpt>
      <trkpt lat="43.73082" lon="7.40271">
        <ele>550.49435242288</ele>
        <time>2013-03-12T10:26:02Z</time>
      </trkpt>
      <trkpt lat="43.73082" lon="7.40271">
        <ele>550.49435242288</ele>
        <time>2013-03-12T10:26:07Z</time>
      </trkpt>
      <trkpt lat="43.73083" lon="7.4027">
        <ele>550.49435242288</ele>
        <time>2013-03-12T10:26:13Z</time>
      </trkpt>
      <trkpt lat="43.73083" lon="7.4027">
        <ele>550.49435242288</ele>
        <time>2013-03-12T10:26:17Z</time>
      </trkpt>
      <trkpt lat="43.73083" lon="7.40266">
        <ele>550.2050901111</ele>
        <time>2013-03-12T10:26:22Z</time>
      </trkpt>
      <trkpt lat="43.73082" lon="7.40264">
        <ele>550.2050901111</ele>
        <time>2013-03-12T10:26:28Z</time>
      </trkpt>
      <trkpt lat="43.73082" lon="7.40259">
        <ele>550.2050901111</ele>
        <time>2013-03-12T10:26:32Z</time>
      </trkpt>
      <trkpt lat="43.73082" lon="7.40256">
        <ele>550.2050901111</ele>
        <time>2013-03-12T10:26:37Z</time>
      </trkpt>
      <trkpt lat="43.73082" lon="7.40253">
        <ele>550.10299266521</ele>
        <time>2013-03-12T10:26:42Z</time>
      </trkpt>
      <trkpt lat="43.73081" lon="7.40252">
        <ele>550.10299266521</ele>
        <time>2013-03-12T10:26:47Z</time>
      </trkpt>
      <trkpt lat="43.73081" lon="7.40252">
        <ele>550.10299266521</ele>
        <time>2013-03-12T10:26:52Z</time>
      </trkpt>
      <trkpt lat="43.73082" lon="7.40245">
        <ele>550.10299266521</ele>
        <time>2013-03-12T10:26:57Z</time>
      </trkpt>
      <trkpt lat="43.73082" lon="7.40242">
        <ele>550.10299266521</ele>
        <time>2013-03-12T10:27:02Z</time>
      </trkpt>
      <trkpt lat="43.73083" lon="7.40239">
        <ele>549.84662465397</ele>
        <time>2013-03-12T10:27:07Z</time>
      </trkpt>
      <trkpt lat="43.73085" lon="7.40237">
        <ele>549.84662465397</ele>
        <time>2013-03-12T10:27:12Z</time>
      </trkpt>
      <trkpt lat="43.73087" lon="7.40234">
        <ele>549.84662465397</ele>
        <time>2013-03-12T10:27:18Z</time>
      </trkpt>
      <trkpt lat="43.73089" lon="7.40231">
        <ele>549.84662465397</ele>
        <time>2013-03-12T10:27:23Z</time>
      </trkpt>
      <trkpt lat="43.73089" lon="7.40226">
        <ele>549.06229422683</ele>
        <time>2013-03-12T10:27:28Z</time>
      </trkpt>
      <trkpt lat="43.7309" lon="7.4022">
        <ele>549.06229422683</ele>
        <time>2013-03-12T10:27:33Z</time>
      </trkpt>
      <trkpt lat="43.73092" lon="7.40213">
        <ele>548.34183473375</ele>
        <time>2013-03-12T10:27:38Z</time>
      </trkpt>
      <trkpt lat="43.73094" lon="7.40208">
        <ele>548.34183473375</ele>
        <time>2013-03-12T10:27:42Z</time>
      </trkpt>
      <trkpt lat="43.73097" lon="7.402">
        <ele>547.68566727558</ele>
        <time>2013-03-12T10:27:48Z</time>
      </trkpt>
      <trkpt lat="43.73097" lon="7.402">
        <ele>547.68566727558</ele>
        <time>2013-03-12T10:27:52Z</time>
      </trkpt>
      <trkpt lat="43.73099" lon="7.40196">
        <ele>547.68566727558</ele>
        <time>2013-03-12T10:27:58Z</time>
      </trkpt>
      <trkpt lat="43.73103" lon="7.40192">
        <ele>547.68566727558</ele>
        <time>2013-03-12T10:28:03Z</time>
      </trkpt>
      <trkpt lat="43.73109" lon="7.40188">
        <ele>546.964162395</ele>
        <time>2013-03-12T10:28:07Z</time>
      </trkpt>
      <trkpt lat="43.73108" lon="7.40189">
        <ele>546.964162395</ele>
        <time>2013-03-12T10:28:13Z</time>
      </trkpt>
      <trkpt lat="43.7311" lon="7.40187">
        <ele>546.964162395</ele>
        <time>2013-03-12T10:28:17Z</time>
      </trkpt>
      <trkpt lat="43.73115" lon="7.40188">
        <ele>546.964162395</ele>
        <time>2013-03-12T10:28:23Z</time>
      </trkpt>
      <trkpt lat="43.73117" lon="7.40185">
        <ele>546.17254178881</ele>
        <time>2013-03-12T10:28:27Z</time>
      </trkpt>
      <trkpt lat="43.73119" lon="7.40183">
        <ele>546.17254178881</ele>
        <time>2013-03-12T10:28:32Z</time>
      </trkpt>
      <trkpt lat="43.73119" lon="7.40182">
        <ele>546.17254178881</ele>
        <time>2013-03-12T10:28:37Z</time>
      </trkpt>
      <trkpt lat="43.73121" lon="7.40181">
        <ele>546.17254178881</ele>
        <time>2013-03-12T10:28:42Z</time>
      </trkpt>
      <trkpt lat="43.73122" lon="7.40181">
        <ele>546.17254178881</ele>
        <time>2013-03-12T10:28:48Z</time>
      </trkpt>
      <trkpt lat="43.73123" lon="7.40179">
        <ele>546.17254178881</ele>
        <time>2013-03-12T10:28:52Z</time>
      </trkpt>
      <trkpt lat="43.73125" lon="7.40175">
        <ele>545.98375134862</ele>
        <time>2013-03-12T10:28:57Z</time>
      </trkpt>
      <trkpt lat="43.73126" lon="7.40174">
        <ele>545.98375134862</ele>
        <time>2013-03-12T10:29:03Z</time>
      </trkpt>
      <trkpt lat="43.73125" lon="7.40174">
        <ele>545.98375134862</ele>
        <time>2013-03-12T10:29:07Z</time>
      </trkpt>
      <trkpt lat="43.73125" lon="7.40173">
        <ele>545.98375134862</ele>
        <time>2013-03-12T10:29:12Z</time>
      </trkpt>
      <trkpt lat="43.73125" lon="7.40173">
        <ele>545.98375134862</ele>
        <time>2013-03-12T10:29:18Z</time>
      </trkpt>
      <trkpt lat="43.73125" lon="7.40173">
        <ele>545.98375134862</ele>
        <time>2013-03-12T10:29:22Z</time>
      </trkpt>
      <trkpt lat="43.73129" lon="7.40173">
        <ele>545.98375134862</ele>
        <time>2013-03-12T10:29:28Z</time>
      </trkpt>
      <trkpt lat="43.73133" lon="7.40173">
        <ele>545.90980738273</ele>
        <time>2013-03-12T10:29:32Z</time>
      </trkpt>
      <trkpt lat="43.73134" lon="7.40173">
        <ele>545.90980738273</ele>
        <time>2013-03-12T10:29:37Z</time>
      </trkpt>
      <trkpt lat="43.73134" lon="7.40174">
        <ele>545.90980738273</ele>
        <time>2013-03-12T10:29:42Z</time>
      </trkpt>
      <trkpt lat="43.73135" lon="7.40174">
        <ele>545.90980738273</ele>
        <time>2013-03-12T10:29:47Z</time>
      </trkpt>
      <trkpt lat="43.73136" lon="7.40174">
        <ele>545.90980738273</ele>
        <time>2013-03-12T10:29:52Z</time>
      </trkpt>
      <trkpt lat="43.73137" lon="7.40175">
        <ele>545.90980738273</ele>
        <time>2013-03-12T10:29:57Z</time>
      </trkpt>
      <trkpt lat="43.7314" lon="7.40177">
        <ele>545.90980738273</ele>
        <time>2013-03-12T10:30:02Z</time>
      </trkpt>
      <trkpt lat="43.73143" lon="7.4018">
        <ele>546.39159458136</ele>
        <time>2013-03-12T10:30:07Z</time>
      </trkpt>
      <trkpt lat="43.73147" lon="7.40181">
        <ele>546.39159458136</ele>
        <time>2013-03-12T10:30:12Z</time>
      </trkpt>
      <trkpt lat="43.73149" lon="7.40181">
        <ele>546.39159458136</ele>
        <time>2013-03-12T10:30:17Z</time>
      </trkpt>
      <trkpt lat="43.73149" lon="7.40181">
        <ele>546.39159458136</ele>
        <time>2013-03-12T10:30:23Z</time>
      </trkpt>
      <trkpt lat="43.7315" lon="7.40181">
        <ele>546.39159458136</ele>
        <time>2013-03-12T10:30:27Z</time>
      </trkpt>
      <trkpt lat="43.73153" lon="7.40183">
        <ele>547.02888652025</ele>
        <time>2013-03-12T10:30:32Z</time>
      </trkpt>
      <trkpt lat="43.73155" lon="7.40182">
        <ele>547.02888652025</ele>
        <time>2013-03-12T10:30:38Z</time>
      </trkpt>
      <trkpt lat="43.73156" lon="7.40181">
        <ele>547.02888652025</ele>
        <time>2013-03-12T10:30:43Z</time>
      </trkpt>
      <trkpt lat="43.73156" lon="7.40182">
        <ele>547.02888652025</ele>
        <time>2013-03-12T10:30:47Z</time>
      </trkpt>
      <trkpt lat="43.73157" lon="7.40182">
        <ele>547.02888652025</ele>
        <time>2013-03-12T10:30:52Z</time>
      </trkpt>
      <trkpt lat="43.73157" lon="7.40183">
        <ele>547.02888652025</ele>
        <time>2013-03-12T10:30:57Z</time>
      </trkpt>
      <trkpt lat="43.73159" lon="7.40185">
        <ele>547.02888652025</ele>
        <time>2013-03-12T10:31:03Z</time>
      </trkpt>
      <trkpt lat="43.73161" lon="7.40186">
        <ele>547.02888652025</ele>
        <time>2013-03-12T10:31:07Z</time>
      </trkpt>
      <trkpt lat="43.73163" lon="7.40186">
        <ele>548.02673112824</ele>
        <time>2013-03-12T10:31:13Z</time>
      </trkpt>
      <trkpt lat="43.73166" lon="7.40187">
        <ele>548.02673112824</ele>
        <time>2013-03-12T10:31:17Z</time>
      </trkpt>
      <trkpt lat="43.73167" lon="7.40188">
        <ele>548.02673112824</ele>
        <time>2013-03-12T10:31:22Z</time>
      </trkpt>
      <trkpt lat="43.73168" lon="7.40189">
        <ele>548.02673112824</ele>
        <time>2013-03-12T10:31:27Z</time>
      </trkpt>
      <trkpt lat="43.73169" lon="7.4019">
        <ele>548.02673112824</ele>
        <time>2013-03-12T10:31:32Z</time>
      </trkpt>
      <trkpt lat="43.73169" lon="7.40189">
        <ele>548.02673112824</ele>
        <time>2013-03-12T10:31:37Z</time>
      </trkpt>
      <trkpt lat="43.7317" lon="7.40189">
        <ele>548.02673112824</ele>
        <time>2013-03-12T10:31:42Z</time>
      </trkpt>
      <trkpt lat="43.73171" lon="7.4019">
        <ele>548.91106476509</ele>
        <time>2013-03-12T10:31:48Z</time>
      </trkpt>
      <trkpt lat="43.73172" lon="7.40191">
        <ele>548.91106476509</ele>
        <time>2013-03-12T10:31:52Z</time>
      </trkpt>
      <trkpt lat="43.73172" lon="7.40191">
        <ele>548.91106476509</ele>
        <time>2013-03-12T10:31:58Z</time>
      </trkpt>
      <trkpt lat="43.73173" lon="7.40192">
        <ele>548.91106476509</ele>
        <time>2013-03-12T10:32:02Z</time>
      </trkpt>
      <trkpt lat="43.73176" lon="7.40189">
        <ele>548.91106476509</ele>
        <time>2013-03-12T10:32:07Z</time>
      </trkpt>
      <trkpt lat="43.73177" lon="7.4019">
        <ele>548.91106476509</ele>
        <time>2013-03-12T10:32:13Z</time>
      </trkpt>
      <trkpt lat="43.73177" lon="7.4019">
        <ele>548.91106476509</ele>
        <time>2013-03-12T10:32:17Z</time>
      </trkpt>
      <trkpt lat="43.73177" lon="7.4019">
        <ele>548.91106476509</ele>
        <time>2013-03-12T10:32:23Z</time>
      </trkpt>
      <trkpt lat="43.73177" lon="7.4019">
        <ele>548.91106476509</ele>
        <time>2013-03-12T10:32:27Z</time>
      </trkpt>
      <trkpt lat="43.73177" lon="7.4019">
        <ele>548.91106476509</ele>
        <time>2013-03-12T10:32:33Z</time>
      </trkpt>
      <trkpt lat="43.73177" lon="7.4019">
        <ele>548.91106476509</ele>
        <time>2013-03-12T10:32:38Z</time>
      </trkpt>
      <trkpt lat="43.73177" lon="7.4019">
        <ele>548.91106476509</ele>
        <time>2013-03-12T10:32:43Z</time>
      </trkpt>
      <trkpt lat="43.73177" lon="7.4019">
        <ele>548.91106476509</ele>
        <time>2013-03-12T10:32:48Z</time>
      </trkpt>
      <trkpt lat="43.73177" lon="7.4019">
        <ele>548.91106476509</ele>
        <time>2013-03-12T10:32:52Z</time>
      </trkpt>
      <trkpt lat="43.73177" lon="7.4019">
        <ele>548.91106476509</ele>
        <time>2013-03-12T10:32:58Z</time>
      </trkpt>
      <trkpt lat="43.73177" lon="7.4019">
        <ele>548.91106476509</ele>
        <time>2013-03-12T10:33:02Z</time>
      </trkpt>
      <trkpt lat="43.73177" lon="7.4019">
        <ele>548.91106476509</ele>
        <time>2013-03-12T10:33:07Z</time>
      </trkpt>
      <trkpt lat="43.73177" lon="7.4019">
        <ele>548.91106476509</ele>
        <time>2013-03-12T10:33:13Z</time>
      </trkpt>
      <trkpt lat="43.73178" lon="7.4019">
        <ele>548.91106476509</ele>
        <time>2013-03-12T10:33:17Z</time>
      </trkpt>
      <trkpt lat="43.73178" lon="7.4019">
        <ele>548.91106476509</ele>
        <time>2013-03-12T10:33:23Z</time>
      </trkpt>
      <trkpt lat="43.73178" lon="7.4019">
        <ele>548.91106476509</ele>
        <time>2013-03-12T10:33:27Z</time>
      </trkpt>
      <trkpt lat="43.73178" lon="7.40191">
        <ele>548.91106476509</ele>
        <time>2013-03-12T10:33:33Z</time>
      </trkpt>
      <trkpt lat="43.73178" lon="7.40191">
        <ele>548.91106476509</ele>
        <time>2013-03-12T10:33:37Z</time>
      </trkpt>
      <trkpt lat="43.73178" lon="7.40191">
        <ele>548.91106476509</ele>
        <time>2013-03-12T10:33:43Z</time>
      </trkpt>
      <trkpt lat="43.73178" lon="7.40191">
        <ele>548.91106476509</ele>
        <time>2013-03-12T10:33:47Z</time>
      </trkpt>
      <trkpt lat="43.73178" lon="7.40191">
        <ele>548.91106476509</ele>
        <time>2013-03-12T10:33:52Z</time>
      </trkpt>
      <trkpt lat="43.73178" lon="7.40191">
        <ele>548.91106476509</ele>
        <time>2013-03-12T10:33:58Z</time>
      </trkpt>
      <trkpt lat="43.73178" lon="7.40191">
        <ele>548.91106476509</ele>
        <time>2013-03-12T10:34:03Z</time>
      </trkpt>
      <trkpt lat="43.73175" lon="7.40191">
        <ele>549.76165160821</ele>
        <time>2013-03-12T10:34:07Z</time>
      </trkpt>
      <trkpt lat="43.73181" lon="7.40193">
        <ele>549.76165160821</ele>
        <time>2013-03-12T10:34:12Z</time>
      </trkpt>
      <trkpt lat="43.73188" lon="7.4019">
        <ele>550.78208645337</ele>
        <time>2013-03-12T10:34:18Z</time>
      </trkpt>
      <trkpt lat="43.7319" lon="7.40186">
        <ele>550.78208645337</ele>
        <time>2013-03-12T10:34:22Z</time>
      </trkpt>
      <trkpt lat="43.73192" lon="7.40184">
        <ele>550.78208645337</ele>
        <time>2013-03-12T10:34:27Z</time>
      </trkpt>
      <trkpt lat="43.73192" lon="7.40184">
        <ele>550.78208645337</ele>
        <time>2013-03-12T10:34:33Z</time>
      </trkpt>
      <trkpt lat="43.73191" lon="7.40184">
        <ele>550.78208645337</ele>
        <time>2013-03-12T10:34:37Z</time>
      </trkpt>
      <trkpt lat="43.73192" lon="7.40184">
        <ele>550.78208645337</ele>
        <time>2013-03-12T10:34:42Z</time>
      </trkpt>
      <trkpt lat="43.73193" lon="7.40186">
        <ele>550.78208645337</ele>
        <time>2013-03-12T10:34:47Z</time>
      </trkpt>
      <trkpt lat="43.73198" lon="7.40186">
        <ele>551.22371382673</ele>
        <time>2013-03-12T10:34:53Z</time>
      </trkpt>
      <trkpt lat="43.73206" lon="7.40186">
        <ele>551.22371382673</ele>
        <time>2013-03-12T10:34:58Z</time>
      </trkpt>
      <trkpt lat="43.73209" lon="7.40186">
        <ele>551.46083399248</ele>
        <time>2013-03-12T10:35:02Z</time>
      </trkpt>
      <trkpt lat="43.73217" lon="7.40183">
        <ele>551.46083399248</ele>
        <time>2013-03-12T10:35:07Z</time>
      </trkpt>
      <trkpt lat="43.73223" lon="7.40182">
        <ele>551.58134460096</ele>
        <time>2013-03-12T10:35:13Z</time>
      </trkpt>
      <trkpt lat="43.73228" lon="7.40181">
        <ele>551.58134460096</ele>
        <time>2013-03-12T10:35:17Z</time>
      </trkpt>
      <trkpt lat="43.73234" lon="7.40181">
        <ele>551.22019249051</ele>
        <time>2013-03-12T10:35:23Z</time>
      </trkpt>
      <trkpt lat="43.73236" lon="7.40177">
        <ele>551.22019249051</ele>
        <time>2013-03-12T10:35:27Z</time>
      </trkpt>
      <trkpt lat="43.73239" lon="7.40175">
        <ele>551.22019249051</ele>
        <time>2013-03-12T10:35:33Z</time>
      </trkpt>
      <trkpt lat="43.73241" lon="7.40176">
        <ele>551.22019249051</ele>
        <time>2013-03-12T10:35:38Z</time>
      </trkpt>
      <trkpt lat="43.73241" lon="7.40172">
        <ele>550.87626268576</ele>
        <time>2013-03-12T10:35:42Z</time>
      </trkpt>
      <trkpt lat="43.73244" lon="7.4017">
        <ele>550.87626268576</ele>
        <time>2013-03-12T10:35:48Z</time>
      </trkpt>
      <trkpt lat="43.73244" lon="7.4017">
        <ele>550.87626268576</ele>
        <time>2013-03-12T10:35:53Z</time>
      </trkpt>
      <trkpt lat="43.73246" lon="7.4017">
        <ele>550.87626268576</ele>
        <time>2013-03-12T10:35:57Z</time>
      </trkpt>
      <trkpt lat="43.73251" lon="7.40171">
        <ele>550.46404731266</ele>
        <time>2013-03-12T10:36:02Z</time>
      </trkpt>
      <trkpt lat="43.73257" lon="7.40171">
        <ele>550.46404731266</ele>
        <time>2013-03-12T10:36:07Z</time>
      </trkpt>
      <trkpt lat="43.73261" lon="7.40169">
        <ele>550.00531424755</ele>
        <time>2013-03-12T10:36:13Z</time>
      </trkpt>
      <trkpt lat="43.73264" lon="7.40168">
        <ele>550.00531424755</ele>
        <time>2013-03-12T10:36:17Z</time>
      </trkpt>
      <trkpt lat="43.73268" lon="7.40172">
        <ele>550.00531424755</ele>
        <time>2013-03-12T10:36:23Z</time>
      </trkpt>
      <trkpt lat="43.7327" lon="7.40174">
        <ele>549.57793102706</ele>
        <time>2013-03-12T10:36:27Z</time>
      </trkpt>
      <trkpt lat="43.73274" lon="7.40175">
        <ele>549.57793102706</ele>
        <time>2013-03-12T10:36:33Z</time>
      </trkpt>
      <trkpt lat="43.73277" lon="7.40174">
        <ele>549.57793102706</ele>
        <time>2013-03-12T10:36:37Z</time>
      </trkpt>
      <trkpt lat="43.73281" lon="7.40171">
        <ele>549.23946883422</ele>
        <time>2013-03-12T10:36:42Z</time>
      </trkpt>
      <trkpt lat="43.73284" lon="7.40172">
        <ele>549.23946883422</ele>
        <time>2013-03-12T10:36:48Z</time>
      </trkpt>
      <trkpt lat="43.73287" lon="7.40172">
        <ele>549.23946883422</ele>
        <time>2013-03-12T10:36:52Z</time>
      </trkpt>
      <trkpt lat="43.73291" lon="7.40171">
        <ele>548.7547198406</ele>
        <time>2013-03-12T10:36:58Z</time>
      </trkpt>
      <trkpt lat="43.73294" lon="7.40169">
        <ele>548.7547198406</ele>
        <time>2013-03-12T10:37:02Z</time>
      </trkpt>
      <trkpt lat="43.73296" lon="7.40169">
        <ele>548.7547198406</ele>
        <time>2013-03-12T10:37:08Z</time>
      </trkpt>
      <trkpt lat="43.73299" lon="7.4017">
        <ele>548.7547198406</ele>
        <time>2013-03-12T10:37:13Z</time>
      </trkpt>
      <trkpt lat="43.73299" lon="7.40169">
        <ele>548.0357858217</ele>
        <time>2013-03-12T10:37:17Z</time>
      </trkpt>
      <trkpt lat="43.73303" lon="7.40168">
        <ele>548.0357858217</ele>
        <time>2013-03-12T10:37:23Z</time>
      </trkpt>
      <trkpt lat="43.73305" lon="7.40169">
        <ele>548.0357858217</ele>
        <time>2013-03-12T10:37:27Z</time>
      </trkpt>
      <trkpt lat="43.7331" lon="7.40168">
        <ele>547.0882686203</ele>
        <time>2013-03-12T10:37:33Z</time>
      </trkpt>
      <trkpt lat="43.73311" lon="7.40164">
        <ele>547.0882686203</ele>
        <time>2013-03-12T10:37:38Z</time>
      </trkpt>
      <trkpt lat="43.73312" lon="7.40163">
        <ele>547.0882686203</ele>
        <time>2013-03-12T10:37:43Z</time>
      </trkpt>
      <trkpt lat="43.73312" lon="7.40161">
        <ele>547.0882686203</ele>
        <time>2013-03-12T10:37:47Z</time>
      </trkpt>
      <trkpt lat="43.73311" lon="7.40162">
        <ele>547.0882686203</ele>
        <time>2013-03-12T10:37:52Z</time>
      </trkpt>
      <trkpt lat="43.73311" lon="7.40162">
        <ele>547.0882686203</ele>
        <time>2013-03-12T10:37:58Z</time>
      </trkpt>
      <trkpt lat="43.73311" lon="7.40161">
        <ele>547.0882686203</ele>
        <time>2013-03-12T10:38:02Z</time>
      </trkpt>
      <trkpt lat="43.73311" lon="7.40161">
        <ele>547.0882686203</ele>
        <time>2013-03-12T10:38:07Z</time>
      </trkpt>
      <trkpt lat="43.73311" lon="7.40161">
        <ele>547.0882686203</ele>
        <time>2013-03-12T10:38:12Z</time>
      </trkpt>
      <trkpt lat="43.73311" lon="7.40161">
        <ele>547.0882686203</ele>
        <time>2013-03-12T10:38:17Z</time>
      </trkpt>
      <trkpt lat="43.73311" lon="7.40163">
        <ele>547.0882686203</ele>
        <time>2013-03-12T10:38:23Z</time>
      </trkpt>
      <trkpt lat="43.73312" lon="7.40166">
        <ele>545.71616080781</ele>
        <time>2013-03-12T10:38:27Z</time>
      </trkpt>
      <trkpt lat="43.73312" lon="7.40168">
        <ele>545.71616080781</ele>
        <time>2013-03-12T10:38:33Z</time>
      </trkpt>
      <trkpt lat="43.73314" lon="7.40171">
        <ele>545.71616080781</ele>
        <time>2013-03-12T10:38:37Z</time>
      </trkpt>
      <trkpt lat="43.73319" lon="7.4017">
        <ele>544.34422413643</ele>
        <time>2013-03-12T10:38:42Z</time>
      </trkpt>
      <trkpt lat="43.73323" lon="7.40171">
        <ele>544.34422413643</ele>
        <time>2013-03-12T10:38:47Z</time>
      </trkpt>
      <trkpt lat="43.73328" lon="7.40169">
        <ele>544.34422413643</ele>
        <time>2013-03-12T10:38:53Z</time>
      </trkpt>
      <trkpt lat="43.73328" lon="7.40169">
        <ele>542.84712414129</ele>
        <time>2013-03-12T10:38:57Z</time>
      </trkpt>
      <trkpt lat="43.73334" lon="7.40171">
        <ele>542.84712414129</ele>
        <time>2013-03-12T10:39:03Z</time>
      </trkpt>
      <trkpt lat="43.73338" lon="7.40172">
        <ele>541.71425325747</ele>
        <time>2013-03-12T10:39:07Z</time>
      </trkpt>
      <trkpt lat="43.73344" lon="7.4017">
        <ele>541.71425325747</ele>
        <time>2013-03-12T10:39:12Z</time>
      </trkpt>
      <trkpt lat="43.7335" lon="7.40168">
        <ele>540.67737287865</ele>
        <time>2013-03-12T10:39:17Z</time>
      </trkpt>
      <trkpt lat="43.73352" lon="7.40161">
        <ele>540.67737287865</ele>
        <time>2013-03-12T10:39:23Z</time>
      </trkpt>
      <trkpt lat="43.73356" lon="7.40166">
        <ele>539.53080646541</ele>
        <time>2013-03-12T10:39:28Z</time>
      </trkpt>
      <trkpt lat="43.73359" lon="7.40168">
        <ele>539.53080646541</ele>
        <time>2013-03-12T10:39:33Z</time>
      </trkpt>
      <trkpt lat="43.73363" lon="7.40169">
        <ele>539.53080646541</ele>
        <time>2013-03-12T10:39:37Z</time>
      </trkpt>
      <trkpt lat="43.73368" lon="7.40169">
        <ele>538.58857435015</ele>
        <time>2013-03-12T10:39:43Z</time>
      </trkpt>
      <trkpt lat="43.73374" lon="7.40169">
        <ele>538.58857435015</ele>
        <time>2013-03-12T10:39:47Z</time>
      </trkpt>
      <trkpt lat="43.73377" lon="7.40169">
        <ele>537.27627854201</ele>
        <time>2013-03-12T10:39:53Z</time>
      </trkpt>
      <trkpt lat="43.73383" lon="7.40165">
        <ele>537.27627854201</ele>
        <time>2013-03-12T10:39:57Z</time>
      </trkpt>
      <trkpt lat="43.73386" lon="7.40166">
        <ele>536.38846598771</ele>
        <time>2013-03-12T10:40:02Z</time>
      </trkpt>
      <trkpt lat="43.7339" lon="7.40167">
        <ele>536.38846598771</ele>
        <time>2013-03-12T10:40:07Z</time>
      </trkpt>
      <trkpt lat="43.73393" lon="7.40168">
        <ele>536.38846598771</ele>
        <time>2013-03-12T10:40:13Z</time>
      </trkpt>
      <trkpt lat="43.73395" lon="7.40168">
        <ele>536.38846598771</ele>
        <time>2013-03-12T10:40:17Z</time>
      </trkpt>
      <trkpt lat="43.73395" lon="7.40167">
        <ele>535.26213617293</ele>
        <time>2013-03-12T10:40:22Z</time>
      </trkpt>
      <trkpt lat="43.73395" lon="7.40167">
        <ele>535.26213617293</ele>
        <time>2013-03-12T10:40:27Z</time>
      </trkpt>
      <trkpt lat="43.73399" lon="7.40168">
        <ele>535.26213617293</ele>
        <time>2013-03-12T10:40:32Z</time>
      </trkpt>
      <trkpt lat="43.734" lon="7.40172">
        <ele>535.26213617293</ele>
        <time>2013-03-12T10:40:37Z</time>
      </trkpt>
      <trkpt lat="43.73406" lon="7.40171">
        <ele>533.85999409654</ele>
        <time>2013-03-12T10:40:42Z</time>
      </trkpt>
      <trkpt lat="43.73411" lon="7.4017">
        <ele>533.85999409654</ele>
        <time>2013-03-12T10:40:48Z</time>
      </trkpt>
      <trkpt lat="43.73415" lon="7.4017">
        <ele>532.78223531567</ele>
        <time>2013-03-12T10:40:52Z</time>
      </trkpt>
      <trkpt lat="43.73417" lon="7.40171">
        <ele>532.78223531567</ele>
        <time>2013-03-12T10:40:57Z</time>
      </trkpt>
      <trkpt lat="43.73417" lon="7.40172">
        <ele>532.78223531567</ele>
        <time>2013-03-12T10:41:02Z</time>
      </trkpt>
      <trkpt lat="43.73417" lon="7.40172">
        <ele>532.78223531567</ele>
        <time>2013-03-12T10:41:07Z</time>
      </trkpt>
      <trkpt lat="43.7342" lon="7.40171">
        <ele>532.78223531567</ele>
        <time>2013-03-12T10:41:12Z</time>
      </trkpt>
      <trkpt lat="43.73423" lon="7.40167">
        <ele>531.97867719686</ele>
        <time>2013-03-12T10:41:18Z</time>
      </trkpt>
      <trkpt lat="43.73425" lon="7.40167">
        <ele>531.97867719686</ele>
        <time>2013-03-12T10:41:22Z</time>
      </trkpt>
      <trkpt lat="43.73428" lon="7.40167">
        <ele>531.97867719686</ele>
        <time>2013-03-12T10:41:27Z</time>
      </trkpt>
      <trkpt lat="43.73433" lon="7.40167">
        <ele>531.07048827509</ele>
        <time>2013-03-12T10:41:32Z</time>
      </trkpt>
      <trkpt lat="43.73436" lon="7.40166">
        <ele>531.07048827509</ele>
        <time>2013-03-12T10:41:37Z</time>
      </trkpt>
      <trkpt lat="43.73439" lon="7.40162">
        <ele>531.07048827509</ele>
        <time>2013-03-12T10:41:42Z</time>
      </trkpt>
      <trkpt lat="43.73444" lon="7.40161">
        <ele>529.90860614045</ele>
        <time>2013-03-12T10:41:47Z</time>
      </trkpt>
      <trkpt lat="43.73447" lon="7.40159">
        <ele>529.90860614045</ele>
        <time>2013-03-12T10:41:52Z</time>
      </trkpt>
      <trkpt lat="43.73447" lon="7.40159">
        <ele>529.90860614045</ele>
        <time>2013-03-12T10:41:57Z</time>
      </trkpt>
      <trkpt lat="43.73449" lon="7.40158">
        <ele>529.90860614045</ele>
        <time>2013-03-12T10:42:02Z</time>
      </trkpt>
      <trkpt lat="43.73452" lon="7.40157">
        <ele>529.90860614045</ele>
        <time>2013-03-12T10:42:08Z</time>
      </trkpt>
      <trkpt lat="43.73456" lon="7.40154">
        <ele>528.75903468958</ele>
        <time>2013-03-12T10:42:13Z</time>
      </trkpt>
      <trkpt lat="43.7346" lon="7.40152">
        <ele>528.75903468958</ele>
        <time>2013-03-12T10:42:17Z</time>
      </trkpt>
      <trkpt lat="43.73465" lon="7.40148">
        <ele>527.6807536792</ele>
        <time>2013-03-12T10:42:22Z</time>
      </trkpt>
      <trkpt lat="43.73467" lon="7.40146">
        <ele>527.6807536792</ele>
        <time>2013-03-12T10:42:28Z</time>
      </trkpt>
      <trkpt lat="43.73471" lon="7.40141">
        <ele>527.6807536792</ele>
        <time>2013-03-12T10:42:32Z</time>
      </trkpt>
      <trkpt lat="43.73471" lon="7.40139">
        <ele>526.61281846509</ele>
        <time>2013-03-12T10:42:39Z</time>
      </trkpt>
      <trkpt lat="43.73473" lon="7.40138">
        <ele>526.61281846509</ele>
        <time>2013-03-12T10:42:42Z</time>
      </trkpt>
      <trkpt lat="43.73473" lon="7.40138">
        <ele>526.61281846509</ele>
        <time>2013-03-12T10:42:48Z</time>
      </trkpt>
      <trkpt lat="43.73473" lon="7.40138">
        <ele>526.61281846509</ele>
        <time>2013-03-12T10:42:53Z</time>
      </trkpt>
      <trkpt lat="43.73473" lon="7.40138">
        <ele>526.61281846509</ele>
        <time>2013-03-12T10:42:57Z</time>
      </trkpt>
      <trkpt lat="43.73473" lon="7.40138">
        <ele>526.61281846509</ele>
        <time>2013-03-12T10:43:02Z</time>
      </trkpt>
      <trkpt lat="43.73473" lon="7.40138">
        <ele>526.61281846509</ele>
        <time>2013-03-12T10:43:07Z</time>
      </trkpt>
      <trkpt lat="43.73473" lon="7.40138">
        <ele>526.61281846509</ele>
        <time>2013-03-12T10:43:13Z</time>
      </trkpt>
      <trkpt lat="43.73472" lon="7.40139">
        <ele>526.61281846509</ele>
        <time>2013-03-12T10:43:18Z</time>
      </trkpt>
      <trkpt lat="43.73473" lon="7.40141">
        <ele>526.61281846509</ele>
        <time>2013-03-12T10:43:23Z</time>
      </trkpt>
      <trkpt lat="43.73476" lon="7.40139">
        <ele>526.61281846509</ele>
        <time>2013-03-12T10:43:28Z</time>
      </trkpt>
      <trkpt lat="43.73479" lon="7.40137">
        <ele>525.42657544905</ele>
        <time>2013-03-12T10:43:33Z</time>
      </trkpt>
      <trkpt lat="43.73481" lon="7.40134">
        <ele>525.42657544905</ele>
        <time>2013-03-12T10:43:37Z</time>
      </trkpt>
      <trkpt lat="43.73483" lon="7.40127">
        <ele>525.42657544905</ele>
        <time>2013-03-12T10:43:42Z</time>
      </trkpt>
      <trkpt lat="43.73483" lon="7.40122">
        <ele>524.56508832115</ele>
        <time>2013-03-12T10:43:47Z</time>
      </trkpt>
      <trkpt lat="43.73482" lon="7.40122">
        <ele>524.56508832115</ele>
        <time>2013-03-12T10:43:53Z</time>
      </trkpt>
      <trkpt lat="43.73481" lon="7.40123">
        <ele>524.56508832115</ele>
        <time>2013-03-12T10:43:57Z</time>
      </trkpt>
      <trkpt lat="43.7348" lon="7.40123">
        <ele>524.56508832115</ele>
        <time>2013-03-12T10:44:03Z</time>
      </trkpt>
      <trkpt lat="43.7348" lon="7.40125">
        <ele>524.56508832115</ele>
        <time>2013-03-12T10:44:07Z</time>
      </trkpt>
      <trkpt lat="43.73479" lon="7.40125">
        <ele>524.56508832115</ele>
        <time>2013-03-12T10:44:12Z</time>
      </trkpt>
      <trkpt lat="43.73482" lon="7.40124">
        <ele>523.84701077424</ele>
        <time>2013-03-12T10:44:17Z</time>
      </trkpt>
      <trkpt lat="43.73487" lon="7.4012">
        <ele>523.84701077424</ele>
        <time>2013-03-12T10:44:22Z</time>
      </trkpt>
      <trkpt lat="43.73495" lon="7.40116">
        <ele>523.33440175462</ele>
        <time>2013-03-12T10:44:27Z</time>
      </trkpt>
      <trkpt lat="43.73501" lon="7.40115">
        <ele>523.33440175462</ele>
        <time>2013-03-12T10:44:32Z</time>
      </trkpt>
      <trkpt lat="43.73506" lon="7.40114">
        <ele>522.70940894639</ele>
        <time>2013-03-12T10:44:37Z</time>
      </trkpt>
      <trkpt lat="43.73513" lon="7.40114">
        <ele>522.70940894639</ele>
        <time>2013-03-12T10:44:43Z</time>
      </trkpt>
      <trkpt lat="43.73516" lon="7.40114">
        <ele>522.13891915916</ele>
        <time>2013-03-12T10:44:48Z</time>
      </trkpt>
      <trkpt lat="43.73521" lon="7.40114">
        <ele>522.13891915916</ele>
        <time>2013-03-12T10:44:52Z</time>
      </trkpt>
      <trkpt lat="43.73528" lon="7.40114">
        <ele>521.56116512463</ele>
        <time>2013-03-12T10:44:57Z</time>
      </trkpt>
      <trkpt lat="43.73532" lon="7.40113">
        <ele>521.56116512463</ele>
        <time>2013-03-12T10:45:02Z</time>
      </trkpt>
      <trkpt lat="43.73536" lon="7.40109">
        <ele>521.01974622988</ele>
        <time>2013-03-12T10:45:08Z</time>
      </trkpt>
      <trkpt lat="43.73543" lon="7.40106">
        <ele>521.01974622988</ele>
        <time>2013-03-12T10:45:12Z</time>
      </trkpt>
      <trkpt lat="43.73543" lon="7.40102">
        <ele>520.61253874342</ele>
        <time>2013-03-12T10:45:17Z</time>
      </trkpt>
      <trkpt lat="43.73547" lon="7.40097">
        <ele>520.61253874342</ele>
        <time>2013-03-12T10:45:23Z</time>
      </trkpt>
      <trkpt lat="43.73549" lon="7.40092">
        <ele>520.61253874342</ele>
        <time>2013-03-12T10:45:27Z</time>
      </trkpt>
      <trkpt lat="43.73551" lon="7.40089">
        <ele>520.01187300411</ele>
        <time>2013-03-12T10:45:32Z</time>
      </trkpt>
      <trkpt lat="43.73554" lon="7.40085">
        <ele>520.01187300411</ele>
        <time>2013-03-12T10:45:37Z</time>
      </trkpt>
      <trkpt lat="43.73558" lon="7.40078">
        <ele>519.5487303332</ele>
        <time>2013-03-12T10:45:42Z</time>
      </trkpt>
      <trkpt lat="43.73562" lon="7.40075">
        <ele>519.5487303332</ele>
        <time>2013-03-12T10:45:47Z</time>
      </trkpt>
      <trkpt lat="43.73565" lon="7.40068">
        <ele>519.24112484172</ele>
        <time>2013-03-12T10:45:52Z</time>
      </trkpt>
      <trkpt lat="43.73569" lon="7.40064">
        <ele>519.24112484172</ele>
        <time>2013-03-12T10:45:57Z</time>
      </trkpt>
      <trkpt lat="43.73574" lon="7.40059">
        <ele>519.06203837135</ele>
        <time>2013-03-12T10:46:02Z</time>
      </trkpt>
      <trkpt lat="43.73575" lon="7.40057">
        <ele>519.06203837135</ele>
        <time>2013-03-12T10:46:07Z</time>
      </trkpt>
      <trkpt lat="43.7358" lon="7.40053">
        <ele>519.06203837135</ele>
        <time>2013-03-12T10:46:12Z</time>
      </trkpt>
      <trkpt lat="43.73585" lon="7.40047">
        <ele>518.87075498579</ele>
        <time>2013-03-12T10:46:18Z</time>
      </trkpt>
      <trkpt lat="43.73588" lon="7.40044">
        <ele>518.87075498579</ele>
        <time>2013-03-12T10:46:22Z</time>
      </trkpt>
      <trkpt lat="43.73595" lon="7.40038">
        <ele>518.53690318592</ele>
        <time>2013-03-12T10:46:27Z</time>
      </trkpt>
      <trkpt lat="43.73599" lon="7.40033">
        <ele>518.53690318592</ele>
        <time>2013-03-12T10:46:33Z</time>
      </trkpt>
      <trkpt lat="43.73606" lon="7.40029">
        <ele>518.04094548514</ele>
        <time>2013-03-12T10:46:38Z</time>
      </trkpt>
      <trkpt lat="43.7361" lon="7.40026">
        <ele>518.04094548514</ele>
        <time>2013-03-12T10:46:42Z</time>
      </trkpt>
      <trkpt lat="43.73617" lon="7.40022">
        <ele>517.36521846034</ele>
        <time>2013-03-12T10:46:48Z</time>
      </trkpt>
      <trkpt lat="43.73621" lon="7.40019">
        <ele>517.36521846034</ele>
        <time>2013-03-12T10:46:52Z</time>
      </trkpt>
      <trkpt lat="43.73626" lon="7.40014">
        <ele>516.62354823519</ele>
        <time>2013-03-12T10:46:57Z</time>
      </trkpt>
      <trkpt lat="43.73632" lon="7.40011">
        <ele>516.62354823519</ele>
        <time>2013-03-12T10:47:02Z</time>
      </trkpt>
      <trkpt lat="43.73638" lon="7.40007">
        <ele>515.84951866919</ele>
        <time>2013-03-12T10:47:07Z</time>
      </trkpt>
      <trkpt lat="43.7364" lon="7.40004">
        <ele>515.84951866919</ele>
        <time>2013-03-12T10:47:13Z</time>
      </trkpt>
      <trkpt lat="43.73639" lon="7.40003">
        <ele>515.84951866919</ele>
        <time>2013-03-12T10:47:17Z</time>
      </trkpt>
      <trkpt lat="43.73639" lon="7.40002">
        <ele>515.84951866919</ele>
        <time>2013-03-12T10:47:22Z</time>
      </trkpt>
      <trkpt lat="43.73642" lon="7.40002">
        <ele>515.84951866919</ele>
        <time>2013-03-12T10:47:28Z</time>
      </trkpt>
      <trkpt lat="43.73648" lon="7.4">
        <ele>514.80051696593</ele>
        <time>2013-03-12T10:47:32Z</time>
      </trkpt>
      <trkpt lat="43.73654" lon="7.39999">
        <ele>514.80051696593</ele>
        <time>2013-03-12T10:47:37Z</time>
      </trkpt>
      <trkpt lat="43.7366" lon="7.39998">
        <ele>513.72808159939</ele>
        <time>2013-03-12T10:47:43Z</time>
      </trkpt>
      <trkpt lat="43.73665" lon="7.39997">
        <ele>513.72808159939</ele>
        <time>2013-03-12T10:47:47Z</time>
      </trkpt>
      <trkpt lat="43.73669" lon="7.39996">
        <ele>512.80768484467</ele>
        <time>2013-03-12T10:47:52Z</time>
      </trkpt>
      <trkpt lat="43.73675" lon="7.39996">
        <ele>512.80768484467</ele>
        <time>2013-03-12T10:47:57Z</time>
      </trkpt>
      <trkpt lat="43.7368" lon="7.39995">
        <ele>511.69708253571</ele>
        <time>2013-03-12T10:48:02Z</time>
      </trkpt>
      <trkpt lat="43.73686" lon="7.39994">
        <ele>511.69708253571</ele>
        <time>2013-03-12T10:48:08Z</time>
      </trkpt>
      <trkpt lat="43.73689" lon="7.39993">
        <ele>511.10288318023</ele>
        <time>2013-03-12T10:48:12Z</time>
      </trkpt>
      <trkpt lat="43.73699" lon="7.39992">
        <ele>510.45338346139</ele>
        <time>2013-03-12T10:48:18Z</time>
      </trkpt>
      <trkpt lat="43.73705" lon="7.3999">
        <ele>510.45338346139</ele>
        <time>2013-03-12T10:48:22Z</time>
      </trkpt>
      <trkpt lat="43.7371" lon="7.39989">
        <ele>509.78105539756</ele>
        <time>2013-03-12T10:48:27Z</time>
      </trkpt>
      <trkpt lat="43.73716" lon="7.39987">
        <ele>509.78105539756</ele>
        <time>2013-03-12T10:48:33Z</time>
      </trkpt>
      <trkpt lat="43.73719" lon="7.39987">
        <ele>509.0007516618</ele>
        <time>2013-03-12T10:48:37Z</time>
      </trkpt>
      <trkpt lat="43.73722" lon="7.39989">
        <ele>509.0007516618</ele>
        <time>2013-03-12T10:48:42Z</time>
      </trkpt>
      <trkpt lat="43.73728" lon="7.39992">
        <ele>507.99064147041</ele>
        <time>2013-03-12T10:48:48Z</time>
      </trkpt>
      <trkpt lat="43.73732" lon="7.39997">
        <ele>507.99064147041</ele>
        <time>2013-03-12T10:48:52Z</time>
      </trkpt>
      <trkpt lat="43.73737" lon="7.4">
        <ele>507.04199229828</ele>
        <time>2013-03-12T10:48:57Z</time>
      </trkpt>
      <trkpt lat="43.7374" lon="7.40003">
        <ele>507.04199229828</ele>
        <time>2013-03-12T10:49:02Z</time>
      </trkpt>
      <trkpt lat="43.73745" lon="7.40007">
        <ele>505.94892838822</ele>
        <time>2013-03-12T10:49:08Z</time>
      </trkpt>
      <trkpt lat="43.73749" lon="7.40012">
        <ele>505.94892838822</ele>
        <time>2013-03-12T10:49:12Z</time>
      </trkpt>
      <trkpt lat="43.73753" lon="7.40016">
        <ele>504.69402715976</ele>
        <time>2013-03-12T10:49:18Z</time>
      </trkpt>
      <trkpt lat="43.73757" lon="7.40021">
        <ele>504.69402715976</ele>
        <time>2013-03-12T10:49:22Z</time>
      </trkpt>
      <trkpt lat="43.73763" lon="7.40026">
        <ele>503.73715657683</ele>
        <time>2013-03-12T10:49:27Z</time>
      </trkpt>
      <trkpt lat="43.73764" lon="7.40031">
        <ele>503.73715657683</ele>
        <time>2013-03-12T10:49:33Z</time>
      </trkpt>
      <trkpt lat="43.73766" lon="7.40034">
        <ele>503.73715657683</ele>
        <time>2013-03-12T10:49:37Z</time>
      </trkpt>
      <trkpt lat="43.73772" lon="7.40041">
        <ele>502.89828874989</ele>
        <time>2013-03-12T10:49:43Z</time>
      </trkpt>
      <trkpt lat="43.73772" lon="7.40045">
        <ele>502.89828874989</ele>
        <time>2013-03-12T10:49:47Z</time>
      </trkpt>
      <trkpt lat="43.73775" lon="7.4005">
        <ele>502.89828874989</ele>
        <time>2013-03-12T10:49:52Z</time>
      </trkpt>
      <trkpt lat="43.73777" lon="7.40053">
        <ele>501.79411029928</ele>
        <time>2013-03-12T10:49:57Z</time>
      </trkpt>
      <trkpt lat="43.7378" lon="7.40058">
        <ele>501.79411029928</ele>
        <time>2013-03-12T10:50:02Z</time>
      </trkpt>
      <trkpt lat="43.73787" lon="7.4006">
        <ele>500.64664143408</ele>
        <time>2013-03-12T10:50:07Z</time>
      </trkpt>
      <trkpt lat="43.7379" lon="7.40069">
        <ele>500.64664143408</ele>
        <time>2013-03-12T10:50:13Z</time>
      </trkpt>
      <trkpt lat="43.73795" lon="7.40073">
        <ele>499.79140082868</ele>
        <time>2013-03-12T10:50:17Z</time>
      </trkpt>
      <trkpt lat="43.73799" lon="7.40078">
        <ele>499.79140082868</ele>
        <time>2013-03-12T10:50:23Z</time>
      </trkpt>
      <trkpt lat="43.73802" lon="7.40078">
        <ele>499.79140082868</ele>
        <time>2013-03-12T10:50:27Z</time>
      </trkpt>
      <trkpt lat="43.73802" lon="7.40077">
        <ele>499.79140082868</ele>
        <time>2013-03-12T10:50:32Z</time>
      </trkpt>
      <trkpt lat="43.73803" lon="7.40078">
        <ele>498.88992625093</ele>
        <time>2013-03-12T10:50:39Z</time>
      </trkpt>
      <trkpt lat="43.73803" lon="7.40078">
        <ele>498.88992625093</ele>
        <time>2013-03-12T10:50:42Z</time>
      </trkpt>
      <trkpt lat="43.73804" lon="7.40078">
        <ele>498.88992625093</ele>
        <time>2013-03-12T10:50:47Z</time>
      </trkpt>
      <trkpt lat="43.73806" lon="7.40077">
        <ele>498.88992625093</ele>
        <time>2013-03-12T10:50:52Z</time>
      </trkpt>
      <trkpt lat="43.73813" lon="7.40077">
        <ele>497.41256663334</ele>
        <time>2013-03-12T10:50:57Z</time>
      </trkpt>
      <trkpt lat="43.73822" lon="7.40078">
        <ele>497.41256663334</ele>
        <time>2013-03-12T10:51:03Z</time>
      </trkpt>
      <trkpt lat="43.73822" lon="7.40078">
        <ele>497.41256663334</ele>
        <time>2013-03-12T10:51:07Z</time>
      </trkpt>
      <trkpt lat="43.73822" lon="7.40077">
        <ele>496.49863506484</ele>
        <time>2013-03-12T10:51:12Z</time>
      </trkpt>
      <trkpt lat="43.73822" lon="7.40077">
        <ele>496.49863506484</ele>
        <time>2013-03-12T10:51:17Z</time>
      </trkpt>
      <trkpt lat="43.73822" lon="7.40077">
        <ele>496.49863506484</ele>
        <time>2013-03-12T10:51:22Z</time>
      </trkpt>
      <trkpt lat="43.73823" lon="7.40078">
        <ele>496.49863506484</ele>
        <time>2013-03-12T10:51:27Z</time>
      </trkpt>
      <trkpt lat="43.73825" lon="7.40077">
        <ele>496.49863506484</ele>
        <time>2013-03-12T10:51:32Z</time>
      </trkpt>
      <trkpt lat="43.73829" lon="7.40074">
        <ele>496.49863506484</ele>
        <time>2013-03-12T10:51:37Z</time>
      </trkpt>
      <trkpt lat="43.73837" lon="7.40071">
        <ele>495.50164302939</ele>
        <time>2013-03-12T10:51:43Z</time>
      </trkpt>
      <trkpt lat="43.73841" lon="7.40074">
        <ele>495.50164302939</ele>
        <time>2013-03-12T10:51:47Z</time>
      </trkpt>
      <trkpt lat="43.73844" lon="7.40074">
        <ele>495.50164302939</ele>
        <time>2013-03-12T10:51:52Z</time>
      </trkpt>
      <trkpt lat="43.73849" lon="7.40076">
        <ele>494.39925353145</ele>
        <time>2013-03-12T10:51:57Z</time>
      </trkpt>
      <trkpt lat="43.73853" lon="7.40077">
        <ele>494.39925353145</ele>
        <time>2013-03-12T10:52:03Z</time>
      </trkpt>
      <trkpt lat="43.73861" lon="7.40077">
        <ele>493.18545952087</ele>
        <time>2013-03-12T10:52:07Z</time>
      </trkpt>
      <trkpt lat="43.73866" lon="7.4008">
        <ele>493.18545952087</ele>
        <time>2013-03-12T10:52:13Z</time>
      </trkpt>
      <trkpt lat="43.73872" lon="7.40078">
        <ele>492.89259151087</ele>
        <time>2013-03-12T10:52:17Z</time>
      </trkpt>
      <trkpt lat="43.73886" lon="7.40075">
        <ele>491.13116562636</ele>
        <time>2013-03-12T10:52:23Z</time>
      </trkpt>
      <trkpt lat="43.73889" lon="7.40076">
        <ele>491.13116562636</ele>
        <time>2013-03-12T10:52:27Z</time>
      </trkpt>
      <trkpt lat="43.73892" lon="7.40077">
        <ele>491.13116562636</ele>
        <time>2013-03-12T10:52:32Z</time>
      </trkpt>
      <trkpt lat="43.73898" lon="7.40079">
        <ele>490.36053271425</ele>
        <time>2013-03-12T10:52:38Z</time>
      </trkpt>
      <trkpt lat="43.73902" lon="7.40081">
        <ele>490.36053271425</ele>
        <time>2013-03-12T10:52:42Z</time>
      </trkpt>
      <trkpt lat="43.73909" lon="7.4008">
        <ele>490.23376325036</ele>
        <time>2013-03-12T10:52:47Z</time>
      </trkpt>
      <trkpt lat="43.73917" lon="7.4008">
        <ele>490.23376325036</ele>
        <time>2013-03-12T10:52:53Z</time>
      </trkpt>
      <trkpt lat="43.73922" lon="7.40081">
        <ele>490.00967179596</ele>
        <time>2013-03-12T10:52:57Z</time>
      </trkpt>
      <trkpt lat="43.73926" lon="7.40082">
        <ele>490.00967179596</ele>
        <time>2013-03-12T10:53:02Z</time>
      </trkpt>
      <trkpt lat="43.73931" lon="7.40081">
        <ele>489.65028411782</ele>
        <time>2013-03-12T10:53:08Z</time>
      </trkpt>
      <trkpt lat="43.73937" lon="7.40079">
        <ele>489.65028411782</ele>
        <time>2013-03-12T10:53:12Z</time>
      </trkpt>
      <trkpt lat="43.73943" lon="7.40073">
        <ele>489.13520228094</ele>
        <time>2013-03-12T10:53:18Z</time>
      </trkpt>
      <trkpt lat="43.73949" lon="7.40068">
        <ele>489.13520228094</ele>
        <time>2013-03-12T10:53:22Z</time>
      </trkpt>
      <trkpt lat="43.73953" lon="7.40062">
        <ele>488.89270968869</ele>
        <time>2013-03-12T10:53:28Z</time>
      </trkpt>
      <trkpt lat="43.73956" lon="7.40058">
        <ele>488.89270968869</ele>
        <time>2013-03-12T10:53:32Z</time>
      </trkpt>
      <trkpt lat="43.73961" lon="7.40051">
        <ele>489.04505929282</ele>
        <time>2013-03-12T10:53:37Z</time>
      </trkpt>
      <trkpt lat="43.73964" lon="7.40045">
        <ele>489.04505929282</ele>
        <time>2013-03-12T10:53:42Z</time>
      </trkpt>
      <trkpt lat="43.73969" lon="7.4004">
        <ele>489.34415054762</ele>
        <time>2013-03-12T10:53:47Z</time>
      </trkpt>
      <trkpt lat="43.73973" lon="7.40036">
        <ele>489.34415054762</ele>
        <time>2013-03-12T10:53:52Z</time>
      </trkpt>
      <trkpt lat="43.73977" lon="7.4003">
        <ele>489.4876600715</ele>
        <time>2013-03-12T10:53:57Z</time>
      </trkpt>
      <trkpt lat="43.73981" lon="7.40025">
        <ele>489.4876600715</ele>
        <time>2013-03-12T10:54:02Z</time>
      </trkpt>
      <trkpt lat="43.73985" lon="7.4002">
        <ele>489.61385795622</ele>
        <time>2013-03-12T10:54:08Z</time>
      </trkpt>
      <trkpt lat="43.73988" lon="7.40013">
        <ele>489.61385795622</ele>
        <time>2013-03-12T10:54:13Z</time>
      </trkpt>
      <trkpt lat="43.73991" lon="7.40007">
        <ele>489.76447202748</ele>
        <time>2013-03-12T10:54:18Z</time>
      </trkpt>
      <trkpt lat="43.73994" lon="7.40004">
        <ele>489.76447202748</ele>
        <time>2013-03-12T10:54:22Z</time>
      </trkpt>
      <trkpt lat="43.73998" lon="7.39998">
        <ele>489.47374579806</ele>
        <time>2013-03-12T10:54:27Z</time>
      </trkpt>
      <trkpt lat="43.74001" lon="7.39992">
        <ele>489.47374579806</ele>
        <time>2013-03-12T10:54:32Z</time>
      </trkpt>
      <trkpt lat="43.74005" lon="7.39986">
        <ele>489.20490704163</ele>
        <time>2013-03-12T10:54:38Z</time>
      </trkpt>
      <trkpt lat="43.74008" lon="7.3998">
        <ele>489.20490704163</ele>
        <time>2013-03-12T10:54:42Z</time>
      </trkpt>
      <trkpt lat="43.74012" lon="7.39974">
        <ele>489.09891725504</ele>
        <time>2013-03-12T10:54:47Z</time>
      </trkpt>
      <trkpt lat="43.74016" lon="7.39969">
        <ele>489.09891725504</ele>
        <time>2013-03-12T10:54:52Z</time>
      </trkpt>
      <trkpt lat="43.74019" lon="7.39966">
        <ele>488.89687392126</ele>
        <time>2013-03-12T10:54:57Z</time>
      </trkpt>
      <trkpt lat="43.74024" lon="7.3996">
        <ele>488.89687392126</ele>
        <time>2013-03-12T10:55:03Z</time>
      </trkpt>
      <trkpt lat="43.74027" lon="7.39957">
        <ele>488.53214522698</ele>
        <time>2013-03-12T10:55:07Z</time>
      </trkpt>
      <trkpt lat="43.74031" lon="7.39953">
        <ele>488.53214522698</ele>
        <time>2013-03-12T10:55:12Z</time>
      </trkpt>
      <trkpt lat="43.74036" lon="7.39948">
        <ele>488.0876113208</ele>
        <time>2013-03-12T10:55:18Z</time>
      </trkpt>
      <trkpt lat="43.7404" lon="7.39944">
        <ele>488.0876113208</ele>
        <time>2013-03-12T10:55:22Z</time>
      </trkpt>
      <trkpt lat="43.74044" lon="7.3994">
        <ele>487.49622621043</ele>
        <time>2013-03-12T10:55:28Z</time>
      </trkpt>
      <trkpt lat="43.74048" lon="7.39937">
        <ele>487.49622621043</ele>
        <time>2013-03-12T10:55:32Z</time>
      </trkpt>
      <trkpt lat="43.74053" lon="7.39933">
        <ele>486.9989629569</ele>
        <time>2013-03-12T10:55:37Z</time>
      </trkpt>
      <trkpt lat="43.74056" lon="7.39932">
        <ele>486.9989629569</ele>
        <time>2013-03-12T10:55:43Z</time>
      </trkpt>
      <trkpt lat="43.74063" lon="7.39927">
        <ele>486.61712027422</ele>
        <time>2013-03-12T10:55:48Z</time>
      </trkpt>
      <trkpt lat="43.74068" lon="7.39925">
        <ele>486.61712027422</ele>
        <time>2013-03-12T10:55:53Z</time>
      </trkpt>
      <trkpt lat="43.74072" lon="7.3992">
        <ele>485.93782003973</ele>
        <time>2013-03-12T10:55:57Z</time>
      </trkpt>
      <trkpt lat="43.74075" lon="7.39917">
        <ele>485.93782003973</ele>
        <time>2013-03-12T10:56:02Z</time>
      </trkpt>
      <trkpt lat="43.7408" lon="7.39914">
        <ele>485.35759170743</ele>
        <time>2013-03-12T10:56:07Z</time>
      </trkpt>
      <trkpt lat="43.74086" lon="7.39913">
        <ele>485.35759170743</ele>
        <time>2013-03-12T10:56:13Z</time>
      </trkpt>
      <trkpt lat="43.74091" lon="7.39911">
        <ele>484.98419917741</ele>
        <time>2013-03-12T10:56:17Z</time>
      </trkpt>
      <trkpt lat="43.74095" lon="7.39911">
        <ele>484.98419917741</ele>
        <time>2013-03-12T10:56:22Z</time>
      </trkpt>
      <trkpt lat="43.74098" lon="7.3991">
        <ele>484.98419917741</ele>
        <time>2013-03-12T10:56:27Z</time>
      </trkpt>
      <trkpt lat="43.74102" lon="7.3991">
        <ele>484.59990485743</ele>
        <time>2013-03-12T10:56:33Z</time>
      </trkpt>
      <trkpt lat="43.74108" lon="7.39909">
        <ele>484.59990485743</ele>
        <time>2013-03-12T10:56:37Z</time>
      </trkpt>
      <trkpt lat="43.74112" lon="7.39909">
        <ele>484.14714574785</ele>
        <time>2013-03-12T10:56:42Z</time>
      </trkpt>
      <trkpt lat="43.74118" lon="7.3991">
        <ele>484.14714574785</ele>
        <time>2013-03-12T10:56:47Z</time>
      </trkpt>
      <trkpt lat="43.74122" lon="7.39909">
        <ele>483.21253749726</ele>
        <time>2013-03-12T10:56:52Z</time>
      </trkpt>
      <trkpt lat="43.74125" lon="7.3991">
        <ele>483.21253749726</ele>
        <time>2013-03-12T10:56:58Z</time>
      </trkpt>
      <trkpt lat="43.74131" lon="7.39911">
        <ele>482.27911491752</ele>
        <time>2013-03-12T10:57:03Z</time>
      </trkpt>
      <trkpt lat="43.74134" lon="7.39911">
        <ele>482.27911491752</ele>
        <time>2013-03-12T10:57:07Z</time>
      </trkpt>
      <trkpt lat="43.74139" lon="7.39917">
        <ele>481.27565563849</ele>
        <time>2013-03-12T10:57:13Z</time>
      </trkpt>
      <trkpt lat="43.74145" lon="7.3992">
        <ele>481.27565563849</ele>
        <time>2013-03-12T10:57:17Z</time>
      </trkpt>
      <trkpt lat="43.74151" lon="7.39926">
        <ele>479.79052325461</ele>
        <time>2013-03-12T10:57:22Z</time>
      </trkpt>
      <trkpt lat="43.74154" lon="7.39927">
        <ele>479.79052325461</ele>
        <time>2013-03-12T10:57:27Z</time>
      </trkpt>
      <trkpt lat="43.74158" lon="7.39934">
        <ele>479.00009074765</ele>
        <time>2013-03-12T10:57:32Z</time>
      </trkpt>
      <trkpt lat="43.7416" lon="7.39936">
        <ele>479.00009074765</ele>
        <time>2013-03-12T10:57:38Z</time>
      </trkpt>
      <trkpt lat="43.74165" lon="7.39941">
        <ele>479.00009074765</ele>
        <time>2013-03-12T10:57:42Z</time>
      </trkpt>
      <trkpt lat="43.74169" lon="7.39946">
        <ele>478.39274675098</ele>
        <time>2013-03-12T10:57:47Z</time>
      </trkpt>
      <trkpt lat="43.74171" lon="7.39953">
        <ele>478.39274675098</ele>
        <time>2013-03-12T10:57:53Z</time>
      </trkpt>
      <trkpt lat="43.74174" lon="7.39958">
        <ele>477.73894802825</ele>
        <time>2013-03-12T10:57:57Z</time>
      </trkpt>
      <trkpt lat="43.74177" lon="7.39962">
        <ele>477.73894802825</ele>
        <time>2013-03-12T10:58:03Z</time>
      </trkpt>
      <trkpt lat="43.74177" lon="7.39963">
        <ele>477.73894802825</ele>
        <time>2013-03-12T10:58:07Z</time>
      </trkpt>
      <trkpt lat="43.74177" lon="7.39963">
        <ele>477.73894802825</ele>
        <time>2013-03-12T10:58:13Z</time>
      </trkpt>
      <trkpt lat="43.74179" lon="7.39971">
        <ele>477.47465210294</ele>
        <time>2013-03-12T10:58:17Z</time>
      </trkpt>
      <trkpt lat="43.74176" lon="7.39976">
        <ele>477.47465210294</ele>
        <time>2013-03-12T10:58:22Z</time>
      </trkpt>
      <trkpt lat="43.74182" lon="7.3998">
        <ele>477.38302885985</ele>
        <time>2013-03-12T10:58:28Z</time>
      </trkpt>
      <trkpt lat="43.74183" lon="7.39984">
        <ele>477.38302885985</ele>
        <time>2013-03-12T10:58:32Z</time>
      </trkpt>
      <trkpt lat="43.74185" lon="7.39989">
        <ele>477.38302885985</ele>
        <time>2013-03-12T10:58:38Z</time>
      </trkpt>
      <trkpt lat="43.74187" lon="7.39994">
        <ele>477.47886860898</ele>
        <time>2013-03-12T10:58:42Z</time>
      </trkpt>
      <trkpt lat="43.7419" lon="7.39998">
        <ele>477.47886860898</ele>
        <time>2013-03-12T10:58:48Z</time>
      </trkpt>
      <trkpt lat="43.74192" lon="7.40002">
        <ele>477.47886860898</ele>
        <time>2013-03-12T10:58:52Z</time>
      </trkpt>
      <trkpt lat="43.74193" lon="7.40007">
        <ele>478.13564083134</ele>
        <time>2013-03-12T10:58:58Z</time>
      </trkpt>
      <trkpt lat="43.74198" lon="7.40012">
        <ele>478.13564083134</ele>
        <time>2013-03-12T10:59:03Z</time>
      </trkpt>
      <trkpt lat="43.742" lon="7.40016">
        <ele>478.61699160914</ele>
        <time>2013-03-12T10:59:07Z</time>
      </trkpt>
      <trkpt lat="43.74202" lon="7.40018">
        <ele>478.61699160914</ele>
        <time>2013-03-12T10:59:12Z</time>
      </trkpt>
      <trkpt lat="43.74201" lon="7.40018">
        <ele>478.61699160914</ele>
        <time>2013-03-12T10:59:18Z</time>
      </trkpt>
      <trkpt lat="43.74201" lon="7.40019">
        <ele>478.61699160914</ele>
        <time>2013-03-12T10:59:22Z</time>
      </trkpt>
      <trkpt lat="43.74204" lon="7.4002">
        <ele>478.61699160914</ele>
        <time>2013-03-12T10:59:28Z</time>
      </trkpt>
      <trkpt lat="43.74204" lon="7.4002">
        <ele>478.61699160914</ele>
        <time>2013-03-12T10:59:32Z</time>
      </trkpt>
      <trkpt lat="43.74206" lon="7.40022">
        <ele>478.61699160914</ele>
        <time>2013-03-12T10:59:38Z</time>
      </trkpt>
      <trkpt lat="43.74206" lon="7.40021">
        <ele>478.61699160914</ele>
        <time>2013-03-12T10:59:42Z</time>
      </trkpt>
      <trkpt lat="43.74208" lon="7.4002">
        <ele>478.81762044291</ele>
        <time>2013-03-12T10:59:48Z</time>
      </trkpt>
      <trkpt lat="43.74209" lon="7.40019">
        <ele>478.81762044291</ele>
        <time>2013-03-12T10:59:52Z</time>
      </trkpt>
      <trkpt lat="43.74209" lon="7.40019">
        <ele>478.81762044291</ele>
        <time>2013-03-12T10:59:57Z</time>
      </trkpt>
      <trkpt lat="43.74209" lon="7.40019">
        <ele>478.81762044291</ele>
        <time>2013-03-12T11:00:02Z</time>
      </trkpt>
      <trkpt lat="43.74208" lon="7.40019">
        <ele>478.81762044291</ele>
        <time>2013-03-12T11:00:07Z</time>
      </trkpt>
      <trkpt lat="43.74208" lon="7.4002">
        <ele>478.81762044291</ele>
        <time>2013-03-12T11:00:12Z</time>
      </trkpt>
      <trkpt lat="43.74206" lon="7.40022">
        <ele>478.81762044291</ele>
        <time>2013-03-12T11:00:17Z</time>
      </trkpt>
      <trkpt lat="43.74204" lon="7.40024">
        <ele>478.81762044291</ele>
        <time>2013-03-12T11:00:22Z</time>
      </trkpt>
      <trkpt lat="43.74197" lon="7.40026">
        <ele>479.46221445377</ele>
        <time>2013-03-12T11:00:28Z</time>
      </trkpt>
      <trkpt lat="43.7419" lon="7.40023">
        <ele>479.46221445377</ele>
        <time>2013-03-12T11:00:33Z</time>
      </trkpt>
      <trkpt lat="43.74187" lon="7.40026">
        <ele>480.38517355226</ele>
        <time>2013-03-12T11:00:38Z</time>
      </trkpt>
      <trkpt lat="43.74185" lon="7.40037">
        <ele>480.38517355226</ele>
        <time>2013-03-12T11:00:42Z</time>
      </trkpt>
      <trkpt lat="43.74184" lon="7.40042">
        <ele>481.12969276793</ele>
        <time>2013-03-12T11:00:47Z</time>
      </trkpt>
      <trkpt lat="43.7418" lon="7.40047">
        <ele>481.12969276793</ele>
        <time>2013-03-12T11:00:52Z</time>
      </trkpt>
      <trkpt lat="43.74175" lon="7.40048">
        <ele>482.26744333271</ele>
        <time>2013-03-12T11:00:57Z</time>
      </trkpt>
      <trkpt lat="43.74174" lon="7.40054">
        <ele>482.26744333271</ele>
        <time>2013-03-12T11:01:02Z</time>
      </trkpt>
      <trkpt lat="43.74174" lon="7.40061">
        <ele>483.28945804001</ele>
        <time>2013-03-12T11:01:07Z</time>
      </trkpt>
      <trkpt lat="43.74179" lon="7.40066">
        <ele>483.28945804001</ele>
        <time>2013-03-12T11:01:13Z</time>
      </trkpt>
      <trkpt lat="43.7418" lon="7.40067">
        <ele>483.28945804001</ele>
        <time>2013-03-12T11:01:17Z</time>
      </trkpt>
      <trkpt lat="43.74182" lon="7.40074">
        <ele>484.1280611319</ele>
        <time>2013-03-12T11:01:22Z</time>
      </trkpt>
      <trkpt lat="43.74183" lon="7.40077">
        <ele>484.1280611319</ele>
        <time>2013-03-12T11:01:27Z</time>
      </trkpt>
      <trkpt lat="43.74188" lon="7.40087">
        <ele>485.28317062068</ele>
        <time>2013-03-12T11:01:33Z</time>
      </trkpt>
      <trkpt lat="43.7419" lon="7.40094">
        <ele>485.28317062068</ele>
        <time>2013-03-12T11:01:37Z</time>
      </trkpt>
      <trkpt lat="43.74195" lon="7.40096">
        <ele>486.59749625351</ele>
        <time>2013-03-12T11:01:43Z</time>
      </trkpt>
      <trkpt lat="43.74197" lon="7.40099">
        <ele>486.59749625351</ele>
        <time>2013-03-12T11:01:47Z</time>
      </trkpt>
      <trkpt lat="43.74195" lon="7.40098">
        <ele>486.59749625351</ele>
        <time>2013-03-12T11:01:53Z</time>
      </trkpt>
      <trkpt lat="43.74195" lon="7.40098">
        <ele>486.59749625351</ele>
        <time>2013-03-12T11:01:57Z</time>
      </trkpt>
      <trkpt lat="43.74194" lon="7.401">
        <ele>486.59749625351</ele>
        <time>2013-03-12T11:02:02Z</time>
      </trkpt>
      <trkpt lat="43.74194" lon="7.40102">
        <ele>486.59749625351</ele>
        <time>2013-03-12T11:02:07Z</time>
      </trkpt>
      <trkpt lat="43.74194" lon="7.40104">
        <ele>486.98821932891</ele>
        <time>2013-03-12T11:02:12Z</time>
      </trkpt>
      <trkpt lat="43.74192" lon="7.40109">
        <ele>486.98821932891</ele>
        <time>2013-03-12T11:02:18Z</time>
      </trkpt>
      <trkpt lat="43.74198" lon="7.40114">
        <ele>487.19849031349</ele>
        <time>2013-03-12T11:02:23Z</time>
      </trkpt>
      <trkpt lat="43.74198" lon="7.40117">
        <ele>487.19849031349</ele>
        <time>2013-03-12T11:02:27Z</time>
      </trkpt>
      <trkpt lat="43.74197" lon="7.40123">
        <ele>487.19849031349</ele>
        <time>2013-03-12T11:02:32Z</time>
      </trkpt>
      <trkpt lat="43.74195" lon="7.4013">
        <ele>487.57159941575</ele>
        <time>2013-03-12T11:02:38Z</time>
      </trkpt>
      <trkpt lat="43.74195" lon="7.40134">
        <ele>487.57159941575</ele>
        <time>2013-03-12T11:02:42Z</time>
      </trkpt>
      <trkpt lat="43.74195" lon="7.40134">
        <ele>487.57159941575</ele>
        <time>2013-03-12T11:02:48Z</time>
      </trkpt>
      <trkpt lat="43.74193" lon="7.40141">
        <ele>487.57159941575</ele>
        <time>2013-03-12T11:02:52Z</time>
      </trkpt>
      <trkpt lat="43.74188" lon="7.40132">
        <ele>487.01296247168</ele>
        <time>2013-03-12T11:02:57Z</time>
      </trkpt>
      <trkpt lat="43.7419" lon="7.40132">
        <ele>487.01296247168</ele>
        <time>2013-03-12T11:03:03Z</time>
      </trkpt>
      <trkpt lat="43.74193" lon="7.40131">
        <ele>487.01296247168</ele>
        <time>2013-03-12T11:03:07Z</time>
      </trkpt>
      <trkpt lat="43.74193" lon="7.40131">
        <ele>487.01296247168</ele>
        <time>2013-03-12T11:03:13Z</time>
      </trkpt>
      <trkpt lat="43.74193" lon="7.40131">
        <ele>487.01296247168</ele>
        <time>2013-03-12T11:03:17Z</time>
      </trkpt>
      <trkpt lat="43.74193" lon="7.40131">
        <ele>487.01296247168</ele>
        <time>2013-03-12T11:03:22Z</time>
      </trkpt>
      <trkpt lat="43.74193" lon="7.40131">
        <ele>487.01296247168</ele>
        <time>2013-03-12T11:03:28Z</time>
      </trkpt>
      <trkpt lat="43.74193" lon="7.40131">
        <ele>487.01296247168</ele>
        <time>2013-03-12T11:03:32Z</time>
      </trkpt>
      <trkpt lat="43.74185" lon="7.40129">
        <ele>486.68718082987</ele>
        <time>2013-03-12T11:03:37Z</time>
      </trkpt>
      <trkpt lat="43.7418" lon="7.40129">
        <ele>486.68718082987</ele>
        <time>2013-03-12T11:03:42Z</time>
      </trkpt>
      <trkpt lat="43.74176" lon="7.4013">
        <ele>485.8136965844</ele>
        <time>2013-03-12T11:03:48Z</time>
      </trkpt>
      <trkpt lat="43.74175" lon="7.4013">
        <ele>485.8136965844</ele>
        <time>2013-03-12T11:03:52Z</time>
      </trkpt>
      <trkpt lat="43.74172" lon="7.40132">
        <ele>485.8136965844</ele>
        <time>2013-03-12T11:03:58Z</time>
      </trkpt>
      <trkpt lat="43.74168" lon="7.40137">
        <ele>483.90147439265</ele>
        <time>2013-03-12T11:04:03Z</time>
      </trkpt>
      <trkpt lat="43.74163" lon="7.40142">
        <ele>483.90147439265</ele>
        <time>2013-03-12T11:04:07Z</time>
      </trkpt>
      <trkpt lat="43.74157" lon="7.40147">
        <ele>482.28549911896</ele>
        <time>2013-03-12T11:04:13Z</time>
      </trkpt>
      <trkpt lat="43.74153" lon="7.40149">
        <ele>482.28549911896</ele>
        <time>2013-03-12T11:04:18Z</time>
      </trkpt>
      <trkpt lat="43.74146" lon="7.40152">
        <ele>480.70314385434</ele>
        <time>2013-03-12T11:04:22Z</time>
      </trkpt>
      <trkpt lat="43.74142" lon="7.40154">
        <ele>480.70314385434</ele>
        <time>2013-03-12T11:04:27Z</time>
      </trkpt>
      <trkpt lat="43.74138" lon="7.40153">
        <ele>480.70314385434</ele>
        <time>2013-03-12T11:04:32Z</time>
      </trkpt>
      <trkpt lat="43.74135" lon="7.40158">
        <ele>478.69483971638</ele>
        <time>2013-03-12T11:04:37Z</time>
      </trkpt>
      <trkpt lat="43.7413" lon="7.4016">
        <ele>478.69483971638</ele>
        <time>2013-03-12T11:04:43Z</time>
      </trkpt>
      <trkpt lat="43.74129" lon="7.40161">
        <ele>478.69483971638</ele>
        <time>2013-03-12T11:04:47Z</time>
      </trkpt>
      <trkpt lat="43.74124" lon="7.40165">
        <ele>477.03210621299</ele>
        <time>2013-03-12T11:04:52Z</time>
      </trkpt>
      <trkpt lat="43.7412" lon="7.40166">
        <ele>477.03210621299</ele>
        <time>2013-03-12T11:04:57Z</time>
      </trkpt>
      <trkpt lat="43.74115" lon="7.40169">
        <ele>475.26151422643</ele>
        <time>2013-03-12T11:05:02Z</time>
      </trkpt>
      <trkpt lat="43.7411" lon="7.40171">
        <ele>475.26151422643</ele>
        <time>2013-03-12T11:05:08Z</time>
      </trkpt>
      <trkpt lat="43.74107" lon="7.40173">
        <ele>475.26151422643</ele>
        <time>2013-03-12T11:05:12Z</time>
      </trkpt>
      <trkpt lat="43.74108" lon="7.40177">
        <ele>473.06410590902</ele>
        <time>2013-03-12T11:05:17Z</time>
      </trkpt>
      <trkpt lat="43.74107" lon="7.40177">
        <ele>473.06410590902</ele>
        <time>2013-03-12T11:05:22Z</time>
      </trkpt>
      <trkpt lat="43.74101" lon="7.40178">
        <ele>473.06410590902</ele>
        <time>2013-03-12T11:05:27Z</time>
      </trkpt>
      <trkpt lat="43.74094" lon="7.4018">
        <ele>470.98136450998</ele>
        <time>2013-03-12T11:05:33Z</time>
      </trkpt>
      <trkpt lat="43.7409" lon="7.4018">
        <ele>470.98136450998</ele>
        <time>2013-03-12T11:05:37Z</time>
      </trkpt>
      <trkpt lat="43.74086" lon="7.40182">
        <ele>470.98136450998</ele>
        <time>2013-03-12T11:05:42Z</time>
      </trkpt>
      <trkpt lat="43.74083" lon="7.40188">
        <ele>469.21199714571</ele>
        <time>2013-03-12T11:05:48Z</time>
      </trkpt>
      <trkpt lat="43.74079" lon="7.40189">
        <ele>469.21199714571</ele>
        <time>2013-03-12T11:05:53Z</time>
      </trkpt>
      <trkpt lat="43.74075" lon="7.4019">
        <ele>469.21199714571</ele>
        <time>2013-03-12T11:05:58Z</time>
      </trkpt>
      <trkpt lat="43.74072" lon="7.40193">
        <ele>467.4780235274</ele>
        <time>2013-03-12T11:06:03Z</time>
      </trkpt>
      <trkpt lat="43.74067" lon="7.40195">
        <ele>467.4780235274</ele>
        <time>2013-03-12T11:06:07Z</time>
      </trkpt>
      <trkpt lat="43.74065" lon="7.40198">
        <ele>467.4780235274</ele>
        <time>2013-03-12T11:06:12Z</time>
      </trkpt>
      <trkpt lat="43.74063" lon="7.40201">
        <ele>465.42084001919</ele>
        <time>2013-03-12T11:06:18Z</time>
      </trkpt>
      <trkpt lat="43.74063" lon="7.40202">
        <ele>465.42084001919</ele>
        <time>2013-03-12T11:06:22Z</time>
      </trkpt>
      <trkpt lat="43.74063" lon="7.40202">
        <ele>465.42084001919</ele>
        <time>2013-03-12T11:06:27Z</time>
      </trkpt>
      <trkpt lat="43.7406" lon="7.40201">
        <ele>465.42084001919</ele>
        <time>2013-03-12T11:06:32Z</time>
      </trkpt>
      <trkpt lat="43.74056" lon="7.40202">
        <ele>465.42084001919</ele>
        <time>2013-03-12T11:06:37Z</time>
      </trkpt>
      <trkpt lat="43.7405" lon="7.40202">
        <ele>463.57368394845</ele>
        <time>2013-03-12T11:06:43Z</time>
      </trkpt>
      <trkpt lat="43.74044" lon="7.40204">
        <ele>463.57368394845</ele>
        <time>2013-03-12T11:06:48Z</time>
      </trkpt>
      <trkpt lat="43.74039" lon="7.40205">
        <ele>462.04084899578</ele>
        <time>2013-03-12T11:06:52Z</time>
      </trkpt>
      <trkpt lat="43.74034" lon="7.40205">
        <ele>462.04084899578</ele>
        <time>2013-03-12T11:06:58Z</time>
      </trkpt>
      <trkpt lat="43.74029" lon="7.40207">
        <ele>460.58654078882</ele>
        <time>2013-03-12T11:07:02Z</time>
      </trkpt>
      <trkpt lat="43.74025" lon="7.40207">
        <ele>460.58654078882</ele>
        <time>2013-03-12T11:07:08Z</time>
      </trkpt>
      <trkpt lat="43.74018" lon="7.40206">
        <ele>459.30901683183</ele>
        <time>2013-03-12T11:07:12Z</time>
      </trkpt>
      <trkpt lat="43.74014" lon="7.40205">
        <ele>459.30901683183</ele>
        <time>2013-03-12T11:07:17Z</time>
      </trkpt>
      <trkpt lat="43.74007" lon="7.40208">
        <ele>458.28431383994</ele>
        <time>2013-03-12T11:07:22Z</time>
      </trkpt>
      <trkpt lat="43.74003" lon="7.40209">
        <ele>458.28431383994</ele>
        <time>2013-03-12T11:07:28Z</time>
      </trkpt>
      <trkpt lat="43.73998" lon="7.40212">
        <ele>457.56766694386</ele>
        <time>2013-03-12T11:07:32Z</time>
      </trkpt>
      <trkpt lat="43.73993" lon="7.4021">
        <ele>457.56766694386</ele>
        <time>2013-03-12T11:07:38Z</time>
      </trkpt>
      <trkpt lat="43.73989" lon="7.4021">
        <ele>457.16606297754</ele>
        <time>2013-03-12T11:07:42Z</time>
      </trkpt>
      <trkpt lat="43.73983" lon="7.40212">
        <ele>457.16606297754</ele>
        <time>2013-03-12T11:07:47Z</time>
      </trkpt>
      <trkpt lat="43.73978" lon="7.40212">
        <ele>457.2147036514</ele>
        <time>2013-03-12T11:07:53Z</time>
      </trkpt>
      <trkpt lat="43.73974" lon="7.40213">
        <ele>457.2147036514</ele>
        <time>2013-03-12T11:07:57Z</time>
      </trkpt>
      <trkpt lat="43.7397" lon="7.40214">
        <ele>457.2147036514</ele>
        <time>2013-03-12T11:08:02Z</time>
      </trkpt>
      <trkpt lat="43.73965" lon="7.40213">
        <ele>457.60693753432</ele>
        <time>2013-03-12T11:08:07Z</time>
      </trkpt>
      <trkpt lat="43.73962" lon="7.40215">
        <ele>457.60693753432</ele>
        <time>2013-03-12T11:08:13Z</time>
      </trkpt>
      <trkpt lat="43.73957" lon="7.40214">
        <ele>457.60693753432</ele>
        <time>2013-03-12T11:08:17Z</time>
      </trkpt>
      <trkpt lat="43.73954" lon="7.40217">
        <ele>457.96910208263</ele>
        <time>2013-03-12T11:08:23Z</time>
      </trkpt>
      <trkpt lat="43.7395" lon="7.40218">
        <ele>457.96910208263</ele>
        <time>2013-03-12T11:08:27Z</time>
      </trkpt>
      <trkpt lat="43.73947" lon="7.40219">
        <ele>457.96910208263</ele>
        <time>2013-03-12T11:08:32Z</time>
      </trkpt>
      <trkpt lat="43.73942" lon="7.40222">
        <ele>458.21440872484</ele>
        <time>2013-03-12T11:08:38Z</time>
      </trkpt>
      <trkpt lat="43.73937" lon="7.40222">
        <ele>458.21440872484</ele>
        <time>2013-03-12T11:08:42Z</time>
      </trkpt>
      <trkpt lat="43.73931" lon="7.40223">
        <ele>458.69505801546</ele>
        <time>2013-03-12T11:08:48Z</time>
      </trkpt>
      <trkpt lat="43.73928" lon="7.40225">
        <ele>458.69505801546</ele>
        <time>2013-03-12T11:08:53Z</time>
      </trkpt>
      <trkpt lat="43.73924" lon="7.40226">
        <ele>458.69505801546</ele>
        <time>2013-03-12T11:08:57Z</time>
      </trkpt>
      <trkpt lat="43.73921" lon="7.40229">
        <ele>459.04494799942</ele>
        <time>2013-03-12T11:09:02Z</time>
      </trkpt>
      <trkpt lat="43.73922" lon="7.40234">
        <ele>459.04494799942</ele>
        <time>2013-03-12T11:09:08Z</time>
      </trkpt>
      <trkpt lat="43.73922" lon="7.40235">
        <ele>459.04494799942</ele>
        <time>2013-03-12T11:09:12Z</time>
      </trkpt>
      <trkpt lat="43.73922" lon="7.40234">
        <ele>459.04494799942</ele>
        <time>2013-03-12T11:09:17Z</time>
      </trkpt>
      <trkpt lat="43.73922" lon="7.40234">
        <ele>459.04494799942</ele>
        <time>2013-03-12T11:09:23Z</time>
      </trkpt>
      <trkpt lat="43.73922" lon="7.40234">
        <ele>459.04494799942</ele>
        <time>2013-03-12T11:09:27Z</time>
      </trkpt>
      <trkpt lat="43.73922" lon="7.40234">
        <ele>459.04494799942</ele>
        <time>2013-03-12T11:09:33Z</time>
      </trkpt>
      <trkpt lat="43.73922" lon="7.40234">
        <ele>459.04494799942</ele>
        <time>2013-03-12T11:09:37Z</time>
      </trkpt>
      <trkpt lat="43.73922" lon="7.40234">
        <ele>459.04494799942</ele>
        <time>2013-03-12T11:09:42Z</time>
      </trkpt>
      <trkpt lat="43.73922" lon="7.40234">
        <ele>459.04494799942</ele>
        <time>2013-03-12T11:09:47Z</time>
      </trkpt>
      <trkpt lat="43.73922" lon="7.40234">
        <ele>459.04494799942</ele>
        <time>2013-03-12T11:09:52Z</time>
      </trkpt>
      <trkpt lat="43.73922" lon="7.40234">
        <ele>459.04494799942</ele>
        <time>2013-03-12T11:09:58Z</time>
      </trkpt>
      <trkpt lat="43.73922" lon="7.40234">
        <ele>459.04494799942</ele>
        <time>2013-03-12T11:10:03Z</time>
      </trkpt>
      <trkpt lat="43.73922" lon="7.40234">
        <ele>459.04494799942</ele>
        <time>2013-03-12T11:10:07Z</time>
      </trkpt>
      <trkpt lat="43.73922" lon="7.40234">
        <ele>459.04494799942</ele>
        <time>2013-03-12T11:10:13Z</time>
      </trkpt>
      <trkpt lat="43.73922" lon="7.40234">
        <ele>459.04494799942</ele>
        <time>2013-03-12T11:10:17Z</time>
      </trkpt>
      <trkpt lat="43.73922" lon="7.40234">
        <ele>459.04494799942</ele>
        <time>2013-03-12T11:10:22Z</time>
      </trkpt>
      <trkpt lat="43.73922" lon="7.40234">
        <ele>459.04494799942</ele>
        <time>2013-03-12T11:10:27Z</time>
      </trkpt>
      <trkpt lat="43.7392" lon="7.40233">
        <ele>459.04494799942</ele>
        <time>2013-03-12T11:10:32Z</time>
      </trkpt>
      <trkpt lat="43.73915" lon="7.40234">
        <ele>458.89638846571</ele>
        <time>2013-03-12T11:10:38Z</time>
      </trkpt>
      <trkpt lat="43.73912" lon="7.40234">
        <ele>458.89638846571</ele>
        <time>2013-03-12T11:10:42Z</time>
      </trkpt>
      <trkpt lat="43.73907" lon="7.40237">
        <ele>458.89638846571</ele>
        <time>2013-03-12T11:10:47Z</time>
      </trkpt>
      <trkpt lat="43.73903" lon="7.40239">
        <ele>458.94768056927</ele>
        <time>2013-03-12T11:10:52Z</time>
      </trkpt>
      <trkpt lat="43.73898" lon="7.40243">
        <ele>458.94768056927</ele>
        <time>2013-03-12T11:10:58Z</time>
      </trkpt>
      <trkpt lat="43.73894" lon="7.40246">
        <ele>459.09588001394</ele>
        <time>2013-03-12T11:11:03Z</time>
      </trkpt>
      <trkpt lat="43.7389" lon="7.40249">
        <ele>459.09588001394</ele>
        <time>2013-03-12T11:11:07Z</time>
      </trkpt>
      <trkpt lat="43.73887" lon="7.40251">
        <ele>459.09588001394</ele>
        <time>2013-03-12T11:11:13Z</time>
      </trkpt>
      <trkpt lat="43.73883" lon="7.40254">
        <ele>459.36061856444</ele>
        <time>2013-03-12T11:11:17Z</time>
      </trkpt>
      <trkpt lat="43.73879" lon="7.40257">
        <ele>459.36061856444</ele>
        <time>2013-03-12T11:11:22Z</time>
      </trkpt>
      <trkpt lat="43.73876" lon="7.40259">
        <ele>459.36061856444</ele>
        <time>2013-03-12T11:11:28Z</time>
      </trkpt>
      <trkpt lat="43.73873" lon="7.4026">
        <ele>459.3130167952</ele>
        <time>2013-03-12T11:11:32Z</time>
      </trkpt>
      <trkpt lat="43.7387" lon="7.40264">
        <ele>459.3130167952</ele>
        <time>2013-03-12T11:11:37Z</time>
      </trkpt>
      <trkpt lat="43.73867" lon="7.40267">
        <ele>459.3130167952</ele>
        <time>2013-03-12T11:11:42Z</time>
      </trkpt>
      <trkpt lat="43.73863" lon="7.40271">
        <ele>459.26272949648</ele>
        <time>2013-03-12T11:11:47Z</time>
      </trkpt>
      <trkpt lat="43.7386" lon="7.40274">
        <ele>459.26272949648</ele>
        <time>2013-03-12T11:11:52Z</time>
      </trkpt>
      <trkpt lat="43.73857" lon="7.40277">
        <ele>459.26272949648</ele>
        <time>2013-03-12T11:11:57Z</time>
      </trkpt>
      <trkpt lat="43.73853" lon="7.4028">
        <ele>458.89141737924</ele>
        <time>2013-03-12T11:12:03Z</time>
      </trkpt>
      <trkpt lat="43.73849" lon="7.40283">
        <ele>458.89141737924</ele>
        <time>2013-03-12T11:12:07Z</time>
      </trkpt>
      <trkpt lat="43.73846" lon="7.40287">
        <ele>458.89141737924</ele>
        <time>2013-03-12T11:12:13Z</time>
      </trkpt>
      <trkpt lat="43.73844" lon="7.40291">
        <ele>458.27973071914</ele>
        <time>2013-03-12T11:12:17Z</time>
      </trkpt>
      <trkpt lat="43.73839" lon="7.40294">
        <ele>458.27973071914</ele>
        <time>2013-03-12T11:12:22Z</time>
      </trkpt>
      <trkpt lat="43.73836" lon="7.40296">
        <ele>458.27973071914</ele>
        <time>2013-03-12T11:12:27Z</time>
      </trkpt>
      <trkpt lat="43.73832" lon="7.40302">
        <ele>457.63278546964</ele>
        <time>2013-03-12T11:12:32Z</time>
      </trkpt>
      <trkpt lat="43.7383" lon="7.40303">
        <ele>457.63278546964</ele>
        <time>2013-03-12T11:12:37Z</time>
      </trkpt>
      <trkpt lat="43.73828" lon="7.40304">
        <ele>457.63278546964</ele>
        <time>2013-03-12T11:12:42Z</time>
      </trkpt>
      <trkpt lat="43.73828" lon="7.40303">
        <ele>457.63278546964</ele>
        <time>2013-03-12T11:12:47Z</time>
      </trkpt>
      <trkpt lat="43.73828" lon="7.40303">
        <ele>457.63278546964</ele>
        <time>2013-03-12T11:12:52Z</time>
      </trkpt>
      <trkpt lat="43.73828" lon="7.40303">
        <ele>457.63278546964</ele>
        <time>2013-03-12T11:12:57Z</time>
      </trkpt>
      <trkpt lat="43.73828" lon="7.40303">
        <ele>457.63278546964</ele>
        <time>2013-03-12T11:13:03Z</time>
      </trkpt>
      <trkpt lat="43.73828" lon="7.40303">
        <ele>457.63278546964</ele>
        <time>2013-03-12T11:13:07Z</time>
      </trkpt>
      <trkpt lat="43.73828" lon="7.40303">
        <ele>457.63278546964</ele>
        <time>2013-03-12T11:13:13Z</time>
      </trkpt>
      <trkpt lat="43.73828" lon="7.40303">
        <ele>457.63278546964</ele>
        <time>2013-03-12T11:13:18Z</time>
      </trkpt>
      <trkpt lat="43.73828" lon="7.40303">
        <ele>457.63278546964</ele>
        <time>2013-03-12T11:13:23Z</time>
      </trkpt>
      <trkpt lat="43.73828" lon="7.40303">
        <ele>457.63278546964</ele>
        <time>2013-03-12T11:13:27Z</time>
      </trkpt>
      <trkpt lat="43.73828" lon="7.40303">
        <ele>457.63278546964</ele>
        <time>2013-03-12T11:13:33Z</time>
      </trkpt>
      <trkpt lat="43.73828" lon="7.40303">
        <ele>457.63278546964</ele>
        <time>2013-03-12T11:13:37Z</time>
      </trkpt>
      <trkpt lat="43.73828" lon="7.40303">
        <ele>457.63278546964</ele>
        <time>2013-03-12T11:13:43Z</time>
      </trkpt>
      <trkpt lat="43.73828" lon="7.40303">
        <ele>457.63278546964</ele>
        <time>2013-03-12T11:13:48Z</time>
      </trkpt>
      <trkpt lat="43.73828" lon="7.40303">
        <ele>457.63278546964</ele>
        <time>2013-03-12T11:13:52Z</time>
      </trkpt>
      <trkpt lat="43.73828" lon="7.40303">
        <ele>457.63278546964</ele>
        <time>2013-03-12T11:13:58Z</time>
      </trkpt>
      <trkpt lat="43.73828" lon="7.40303">
        <ele>457.63278546964</ele>
        <time>2013-03-12T11:14:02Z</time>
      </trkpt>
      <trkpt lat="43.73828" lon="7.40303">
        <ele>457.63278546964</ele>
        <time>2013-03-12T11:14:08Z</time>
      </trkpt>
      <trkpt lat="43.73828" lon="7.40306">
        <ele>457.63278546964</ele>
        <time>2013-03-12T11:14:12Z</time>
      </trkpt>
      <trkpt lat="43.73823" lon="7.4031">
        <ele>456.73723250957</ele>
        <time>2013-03-12T11:14:18Z</time>
      </trkpt>
      <trkpt lat="43.73818" lon="7.40315">
        <ele>456.73723250957</ele>
        <time>2013-03-12T11:14:22Z</time>
      </trkpt>
      <trkpt lat="43.73813" lon="7.40318">
        <ele>455.55462724717</ele>
        <time>2013-03-12T11:14:28Z</time>
      </trkpt>
      <trkpt lat="43.73807" lon="7.40322">
        <ele>455.55462724717</ele>
        <time>2013-03-12T11:14:32Z</time>
      </trkpt>
      <trkpt lat="43.738" lon="7.40327">
        <ele>454.8283641146</ele>
        <time>2013-03-12T11:14:37Z</time>
      </trkpt>
      <trkpt lat="43.73793" lon="7.40331">
        <ele>454.8283641146</ele>
        <time>2013-03-12T11:14:43Z</time>
      </trkpt>
      <trkpt lat="43.73786" lon="7.40335">
        <ele>454.39569871269</ele>
        <time>2013-03-12T11:14:47Z</time>
      </trkpt>
      <trkpt lat="43.7378" lon="7.40339">
        <ele>454.39569871269</ele>
        <time>2013-03-12T11:14:52Z</time>
      </trkpt>
      <trkpt lat="43.73775" lon="7.40342">
        <ele>453.90326674664</ele>
        <time>2013-03-12T11:14:57Z</time>
      </trkpt>
      <trkpt lat="43.73769" lon="7.40347">
        <ele>453.90326674664</ele>
        <time>2013-03-12T11:15:02Z</time>
      </trkpt>
      <trkpt lat="43.73764" lon="7.40354">
        <ele>453.31205485647</ele>
        <time>2013-03-12T11:15:07Z</time>
      </trkpt>
      <trkpt lat="43.7376" lon="7.40358">
        <ele>453.31205485647</ele>
        <time>2013-03-12T11:15:12Z</time>
      </trkpt>
      <trkpt lat="43.73754" lon="7.40363">
        <ele>452.22591670011</ele>
        <time>2013-03-12T11:15:17Z</time>
      </trkpt>
      <trkpt lat="43.73754" lon="7.40369">
        <ele>452.22591670011</ele>
        <time>2013-03-12T11:15:22Z</time>
      </trkpt>
      <trkpt lat="43.7375" lon="7.40375">
        <ele>451.5761966253</ele>
        <time>2013-03-12T11:15:27Z</time>
      </trkpt>
      <trkpt lat="43.73745" lon="7.40383">
        <ele>451.5761966253</ele>
        <time>2013-03-12T11:15:32Z</time>
      </trkpt>
      <trkpt lat="43.73738" lon="7.40387">
        <ele>450.69701954564</ele>
        <time>2013-03-12T11:15:37Z</time>
      </trkpt>
      <trkpt lat="43.73733" lon="7.4039">
        <ele>450.69701954564</ele>
        <time>2013-03-12T11:15:42Z</time>
      </trkpt>
      <trkpt lat="43.73727" lon="7.40394">
        <ele>449.83673285006</ele>
        <time>2013-03-12T11:15:47Z</time>
      </trkpt>
      <trkpt lat="43.73725" lon="7.40394">
        <ele>449.83673285006</ele>
        <time>2013-03-12T11:15:52Z</time>
      </trkpt>
      <trkpt lat="43.73728" lon="7.40388">
        <ele>449.83673285006</ele>
        <time>2013-03-12T11:15:57Z</time>
      </trkpt>
      <trkpt lat="43.7373" lon="7.40385">
        <ele>449.36949401925</ele>
        <time>2013-03-12T11:16:02Z</time>
      </trkpt>
      <trkpt lat="43.73731" lon="7.40382">
        <ele>449.36949401925</ele>
        <time>2013-03-12T11:16:08Z</time>
      </trkpt>
      <trkpt lat="43.73731" lon="7.40383">
        <ele>449.36949401925</ele>
        <time>2013-03-12T11:16:12Z</time>
      </trkpt>
      <trkpt lat="43.7373" lon="7.40383">
        <ele>449.36949401925</ele>
        <time>2013-03-12T11:16:19Z</time>
      </trkpt>
      <trkpt lat="43.73728" lon="7.40386">
        <ele>449.36949401925</ele>
        <time>2013-03-12T11:16:22Z</time>
      </trkpt>
      <trkpt lat="43.73724" lon="7.40388">
        <ele>449.77056868246</ele>
        <time>2013-03-12T11:16:28Z</time>
      </trkpt>
      <trkpt lat="43.73724" lon="7.40389">
        <ele>449.77056868246</ele>
        <time>2013-03-12T11:16:32Z</time>
      </trkpt>
      <trkpt lat="43.73724" lon="7.40391">
        <ele>449.77056868246</ele>
        <time>2013-03-12T11:16:38Z</time>
      </trkpt>
      <trkpt lat="43.7372" lon="7.40396">
        <ele>449.77056868246</ele>
        <time>2013-03-12T11:16:42Z</time>
      </trkpt>
      <trkpt lat="43.73717" lon="7.40399">
        <ele>451.43464119472</ele>
        <time>2013-03-12T11:16:48Z</time>
      </trkpt>
      <trkpt lat="43.7371" lon="7.40404">
        <ele>451.43464119472</ele>
        <time>2013-03-12T11:16:53Z</time>
      </trkpt>
      <trkpt lat="43.73709" lon="7.40406">
        <ele>452.89365658351</ele>
        <time>2013-03-12T11:16:57Z</time>
      </trkpt>
      <trkpt lat="43.73703" lon="7.40407">
        <ele>452.89365658351</ele>
        <time>2013-03-12T11:17:02Z</time>
      </trkpt>
      <trkpt lat="43.73697" lon="7.40409">
        <ele>454.40204368049</ele>
        <time>2013-03-12T11:17:07Z</time>
      </trkpt>
      <trkpt lat="43.73692" lon="7.40412">
        <ele>454.40204368049</ele>
        <time>2013-03-12T11:17:12Z</time>
      </trkpt>
      <trkpt lat="43.73691" lon="7.40414">
        <ele>454.40204368049</ele>
        <time>2013-03-12T11:17:17Z</time>
      </trkpt>
      <trkpt lat="43.73692" lon="7.40415">
        <ele>454.40204368049</ele>
        <time>2013-03-12T11:17:22Z</time>
      </trkpt>
      <trkpt lat="43.73692" lon="7.40416">
        <ele>454.75432452307</ele>
        <time>2013-03-12T11:17:27Z</time>
      </trkpt>
      <trkpt lat="43.73687" lon="7.40416">
        <ele>454.75432452307</ele>
        <time>2013-03-12T11:17:32Z</time>
      </trkpt>
      <trkpt lat="43.73683" lon="7.40419">
        <ele>455.25793082405</ele>
        <time>2013-03-12T11:17:38Z</time>
      </trkpt>
      <trkpt lat="43.73681" lon="7.40419">
        <ele>455.25793082405</ele>
        <time>2013-03-12T11:17:42Z</time>
      </trkpt>
      <trkpt lat="43.73676" lon="7.40417">
        <ele>455.25793082405</ele>
        <time>2013-03-12T11:17:47Z</time>
      </trkpt>
      <trkpt lat="43.73675" lon="7.40418">
        <ele>455.25793082405</ele>
        <time>2013-03-12T11:17:52Z</time>
      </trkpt>
      <trkpt lat="43.73671" lon="7.40418">
        <ele>456.21598043103</ele>
        <time>2013-03-12T11:17:57Z</time>
      </trkpt>
      <trkpt lat="43.73667" lon="7.4042">
        <ele>456.21598043103</ele>
        <time>2013-03-12T11:18:02Z</time>
      </trkpt>
      <trkpt lat="43.73664" lon="7.40423">
        <ele>456.21598043103</ele>
        <time>2013-03-12T11:18:08Z</time>
      </trkpt>
      <trkpt lat="43.73662" lon="7.40429">
        <ele>456.81286499117</ele>
        <time>2013-03-12T11:18:12Z</time>
      </trkpt>
      <trkpt lat="43.73659" lon="7.40429">
        <ele>456.81286499117</ele>
        <time>2013-03-12T11:18:17Z</time>
      </trkpt>
      <trkpt lat="43.7365" lon="7.40431">
        <ele>457.61979164012</ele>
        <time>2013-03-12T11:18:23Z</time>
      </trkpt>
      <trkpt lat="43.73646" lon="7.40436">
        <ele>457.61979164012</ele>
        <time>2013-03-12T11:18:27Z</time>
      </trkpt>
      <trkpt lat="43.73645" lon="7.40444">
        <ele>458.73315541206</ele>
        <time>2013-03-12T11:18:32Z</time>
      </trkpt>
      <trkpt lat="43.73641" lon="7.4045">
        <ele>458.73315541206</ele>
        <time>2013-03-12T11:18:37Z</time>
      </trkpt>
      <trkpt lat="43.73635" lon="7.40455">
        <ele>459.7370982549</ele>
        <time>2013-03-12T11:18:42Z</time>
      </trkpt>
      <trkpt lat="43.73632" lon="7.40457">
        <ele>459.7370982549</ele>
        <time>2013-03-12T11:18:47Z</time>
      </trkpt>
      <trkpt lat="43.7363" lon="7.4046">
        <ele>459.7370982549</ele>
        <time>2013-03-12T11:18:53Z</time>
      </trkpt>
      <trkpt lat="43.73629" lon="7.40463">
        <ele>459.7370982549</ele>
        <time>2013-03-12T11:18:58Z</time>
      </trkpt>
      <trkpt lat="43.73627" lon="7.40469">
        <ele>460.79432240326</ele>
        <time>2013-03-12T11:19:02Z</time>
      </trkpt>
      <trkpt lat="43.73625" lon="7.40471">
        <ele>460.79432240326</ele>
        <time>2013-03-12T11:19:08Z</time>
      </trkpt>
      <trkpt lat="43.73623" lon="7.40473">
        <ele>460.79432240326</ele>
        <time>2013-03-12T11:19:12Z</time>
      </trkpt>
      <trkpt lat="43.73621" lon="7.40476">
        <ele>460.79432240326</ele>
        <time>2013-03-12T11:19:18Z</time>
      </trkpt>
      <trkpt lat="43.73621" lon="7.40476">
        <ele>461.49348216855</ele>
        <time>2013-03-12T11:19:22Z</time>
      </trkpt>
      <trkpt lat="43.73618" lon="7.40477">
        <ele>461.49348216855</ele>
        <time>2013-03-12T11:19:28Z</time>
      </trkpt>
      <trkpt lat="43.73616" lon="7.40478">
        <ele>461.49348216855</ele>
        <time>2013-03-12T11:19:32Z</time>
      </trkpt>
      <trkpt lat="43.73613" lon="7.40483">
        <ele>462.40567881554</ele>
        <time>2013-03-12T11:19:38Z</time>
      </trkpt>
      <trkpt lat="43.73609" lon="7.40477">
        <ele>462.40567881554</ele>
        <time>2013-03-12T11:19:42Z</time>
      </trkpt>
      <trkpt lat="43.73606" lon="7.40482">
        <ele>463.28135776637</ele>
        <time>2013-03-12T11:19:48Z</time>
      </trkpt>
      <trkpt lat="43.73599" lon="7.40488">
        <ele>463.28135776637</ele>
        <time>2013-03-12T11:19:52Z</time>
      </trkpt>
      <trkpt lat="43.73592" lon="7.40491">
        <ele>464.19212987608</ele>
        <time>2013-03-12T11:19:58Z</time>
      </trkpt>
      <trkpt lat="43.73583" lon="7.40498">
        <ele>465.69432544107</ele>
        <time>2013-03-12T11:20:02Z</time>
      </trkpt>
      <trkpt lat="43.73578" lon="7.40497">
        <ele>465.69432544107</ele>
        <time>2013-03-12T11:20:07Z</time>
      </trkpt>
      <trkpt lat="43.73575" lon="7.40492">
        <ele>467.48041875637</ele>
        <time>2013-03-12T11:20:12Z</time>
      </trkpt>
      <trkpt lat="43.73572" lon="7.40498">
        <ele>467.48041875637</ele>
        <time>2013-03-12T11:20:17Z</time>
      </trkpt>
      <trkpt lat="43.73569" lon="7.405">
        <ele>467.48041875637</ele>
        <time>2013-03-12T11:20:22Z</time>
      </trkpt>
      <trkpt lat="43.73567" lon="7.405">
        <ele>468.91892045649</ele>
        <time>2013-03-12T11:20:27Z</time>
      </trkpt>
      <trkpt lat="43.73566" lon="7.40501">
        <ele>468.91892045649</ele>
        <time>2013-03-12T11:20:32Z</time>
      </trkpt>
      <trkpt lat="43.73564" lon="7.40502">
        <ele>468.91892045649</ele>
        <time>2013-03-12T11:20:38Z</time>
      </trkpt>
      <trkpt lat="43.73564" lon="7.40502">
        <ele>468.91892045649</ele>
        <time>2013-03-12T11:20:43Z</time>
      </trkpt>
      <trkpt lat="43.73564" lon="7.40502">
        <ele>468.91892045649</ele>
        <time>2013-03-12T11:20:47Z</time>
      </trkpt>
      <trkpt lat="43.73562" lon="7.40503">
        <ele>468.91892045649</ele>
        <time>2013-03-12T11:20:53Z</time>
      </trkpt>
      <trkpt lat="43.73561" lon="7.40503">
        <ele>468.91892045649</ele>
        <time>2013-03-12T11:20:57Z</time>
      </trkpt>
      <trkpt lat="43.7356" lon="7.40503">
        <ele>468.91892045649</ele>
        <time>2013-03-12T11:21:02Z</time>
      </trkpt>
      <trkpt lat="43.73559" lon="7.40503">
        <ele>469.64198462848</ele>
        <time>2013-03-12T11:21:07Z</time>
      </trkpt>
      <trkpt lat="43.73558" lon="7.40501">
        <ele>469.64198462848</ele>
        <time>2013-03-12T11:21:13Z</time>
      </trkpt>
      <trkpt lat="43.73559" lon="7.40501">
        <ele>469.64198462848</ele>
        <time>2013-03-12T11:21:17Z</time>
      </trkpt>
      <trkpt lat="43.73557" lon="7.40503">
        <ele>469.64198462848</ele>
        <time>2013-03-12T11:21:23Z</time>
      </trkpt>
      <trkpt lat="43.73558" lon="7.40502">
        <ele>469.64198462848</ele>
        <time>2013-03-12T11:21:27Z</time>
      </trkpt>
      <trkpt lat="43.73558" lon="7.40501">
        <ele>469.64198462848</ele>
        <time>2013-03-12T11:21:32Z</time>
      </trkpt>
      <trkpt lat="43.73556" lon="7.40501">
        <ele>469.64198462848</ele>
        <time>2013-03-12T11:21:37Z</time>
      </trkpt>
      <trkpt lat="43.7355" lon="7.405">
        <ele>469.31090798018</ele>
        <time>2013-03-12T11:21:43Z</time>
      </trkpt>
      <trkpt lat="43.73545" lon="7.405">
        <ele>469.31090798018</ele>
        <time>2013-03-12T11:21:47Z</time>
      </trkpt>
      <trkpt lat="43.73541" lon="7.40498">
        <ele>468.81105906515</ele>
        <time>2013-03-12T11:21:52Z</time>
      </trkpt>
      <trkpt lat="43.73538" lon="7.40499">
        <ele>468.81105906515</ele>
        <time>2013-03-12T11:21:58Z</time>
      </trkpt>
      <trkpt lat="43.73534" lon="7.40496">
        <ele>468.81105906515</ele>
        <time>2013-03-12T11:22:03Z</time>
      </trkpt>
      <trkpt lat="43.73531" lon="7.40497">
        <ele>468.47336736381</ele>
        <time>2013-03-12T11:22:07Z</time>
      </trkpt>
      <trkpt lat="43.73526" lon="7.40497">
        <ele>468.47336736381</ele>
        <time>2013-03-12T11:22:13Z</time>
      </trkpt>
      <trkpt lat="43.73523" lon="7.40497">
        <ele>468.47336736381</ele>
        <time>2013-03-12T11:22:17Z</time>
      </trkpt>
      <trkpt lat="43.73521" lon="7.40495">
        <ele>467.14856722506</ele>
        <time>2013-03-12T11:22:22Z</time>
      </trkpt>
      <trkpt lat="43.73516" lon="7.40496">
        <ele>467.14856722506</ele>
        <time>2013-03-12T11:22:27Z</time>
      </trkpt>
      <trkpt lat="43.73508" lon="7.40497">
        <ele>465.87868826156</ele>
        <time>2013-03-12T11:22:33Z</time>
      </trkpt>
      <trkpt lat="43.73504" lon="7.40496">
        <ele>465.87868826156</ele>
        <time>2013-03-12T11:22:37Z</time>
      </trkpt>
      <trkpt lat="43.73497" lon="7.40496">
        <ele>465.22561289593</ele>
        <time>2013-03-12T11:22:43Z</time>
      </trkpt>
      <trkpt lat="43.73492" lon="7.40496">
        <ele>465.22561289593</ele>
        <time>2013-03-12T11:22:47Z</time>
      </trkpt>
      <trkpt lat="43.73486" lon="7.40496">
        <ele>464.98771394691</ele>
        <time>2013-03-12T11:22:52Z</time>
      </trkpt>
      <trkpt lat="43.73475" lon="7.40496">
        <ele>465.89936500785</ele>
        <time>2013-03-12T11:22:58Z</time>
      </trkpt>
      <trkpt lat="43.73469" lon="7.40495">
        <ele>465.89936500785</ele>
        <time>2013-03-12T11:23:02Z</time>
      </trkpt>
      <trkpt lat="43.73466" lon="7.40494">
        <ele>466.51937091163</ele>
        <time>2013-03-12T11:23:07Z</time>
      </trkpt>
      <trkpt lat="43.73462" lon="7.40494">
        <ele>466.51937091163</ele>
        <time>2013-03-12T11:23:12Z</time>
      </trkpt>
      <trkpt lat="43.73458" lon="7.40494">
        <ele>466.51937091163</ele>
        <time>2013-03-12T11:23:17Z</time>
      </trkpt>
      <trkpt lat="43.73453" lon="7.40492">
        <ele>466.49321391038</ele>
        <time>2013-03-12T11:23:23Z</time>
      </trkpt>
      <trkpt lat="43.73451" lon="7.40492">
        <ele>466.49321391038</ele>
        <time>2013-03-12T11:23:27Z</time>
      </trkpt>
      <trkpt lat="43.73446" lon="7.40495">
        <ele>466.49321391038</ele>
        <time>2013-03-12T11:23:32Z</time>
      </trkpt>
      <trkpt lat="43.73443" lon="7.40497">
        <ele>465.59514051136</ele>
        <time>2013-03-12T11:23:38Z</time>
      </trkpt>
      <trkpt lat="43.73435" lon="7.40498">
        <ele>465.59514051136</ele>
        <time>2013-03-12T11:23:43Z</time>
      </trkpt>
      <trkpt lat="43.73429" lon="7.40499">
        <ele>465.80894539997</ele>
        <time>2013-03-12T11:23:48Z</time>
      </trkpt>
      <trkpt lat="43.73423" lon="7.40499">
        <ele>465.80894539997</ele>
        <time>2013-03-12T11:23:53Z</time>
      </trkpt>
      <trkpt lat="43.73418" lon="7.405">
        <ele>467.08174578489</ele>
        <time>2013-03-12T11:23:58Z</time>
      </trkpt>
      <trkpt lat="43.7341" lon="7.405">
        <ele>467.08174578489</ele>
        <time>2013-03-12T11:24:03Z</time>
      </trkpt>
      <trkpt lat="43.73405" lon="7.40502">
        <ele>469.11661029632</ele>
        <time>2013-03-12T11:24:07Z</time>
      </trkpt>
      <trkpt lat="43.734" lon="7.40503">
        <ele>469.11661029632</ele>
        <time>2013-03-12T11:24:13Z</time>
      </trkpt>
      <trkpt lat="43.73395" lon="7.40503">
        <ele>470.8437009251</ele>
        <time>2013-03-12T11:24:17Z</time>
      </trkpt>
      <trkpt lat="43.7339" lon="7.40503">
        <ele>470.8437009251</ele>
        <time>2013-03-12T11:24:23Z</time>
      </trkpt>
      <trkpt lat="43.73386" lon="7.40504">
        <ele>470.8437009251</ele>
        <time>2013-03-12T11:24:28Z</time>
      </trkpt>
      <trkpt lat="43.73384" lon="7.40503">
        <ele>471.69059189711</ele>
        <time>2013-03-12T11:24:33Z</time>
      </trkpt>
      <trkpt lat="43.73381" lon="7.40506">
        <ele>471.69059189711</ele>
        <time>2013-03-12T11:24:39Z</time>
      </trkpt>
      <trkpt lat="43.73381" lon="7.40507">
        <ele>471.69059189711</ele>
        <time>2013-03-12T11:24:42Z</time>
      </trkpt>
      <trkpt lat="43.73376" lon="7.40509">
        <ele>471.69059189711</ele>
        <time>2013-03-12T11:24:47Z</time>
      </trkpt>
      <trkpt lat="43.73372" lon="7.4051">
        <ele>472.08055353391</ele>
        <time>2013-03-12T11:24:53Z</time>
      </trkpt>
      <trkpt lat="43.73367" lon="7.40509">
        <ele>472.08055353391</ele>
        <time>2013-03-12T11:24:57Z</time>
      </trkpt>
      <trkpt lat="43.73365" lon="7.4051">
        <ele>472.08055353391</ele>
        <time>2013-03-12T11:25:03Z</time>
      </trkpt>
      <trkpt lat="43.73361" lon="7.40511">
        <ele>472.63766977916</ele>
        <time>2013-03-12T11:25:08Z</time>
      </trkpt>
      <trkpt lat="43.7336" lon="7.40513">
        <ele>472.63766977916</ele>
        <time>2013-03-12T11:25:12Z</time>
      </trkpt>
      <trkpt lat="43.73353" lon="7.40515">
        <ele>472.6139348706</ele>
        <time>2013-03-12T11:25:17Z</time>
      </trkpt>
      <trkpt lat="43.73352" lon="7.40513">
        <ele>472.6139348706</ele>
        <time>2013-03-12T11:25:23Z</time>
      </trkpt>
      <trkpt lat="43.7335" lon="7.4051">
        <ele>472.6139348706</ele>
        <time>2013-03-12T11:25:28Z</time>
      </trkpt>
      <trkpt lat="43.73346" lon="7.40508">
        <ele>471.72147411067</ele>
        <time>2013-03-12T11:25:33Z</time>
      </trkpt>
      <trkpt lat="43.73341" lon="7.40507">
        <ele>471.72147411067</ele>
        <time>2013-03-12T11:25:38Z</time>
      </trkpt>
      <trkpt lat="43.73338" lon="7.40503">
        <ele>470.50305424219</ele>
        <time>2013-03-12T11:25:43Z</time>
      </trkpt>
      <trkpt lat="43.73332" lon="7.40503">
        <ele>470.50305424219</ele>
        <time>2013-03-12T11:25:47Z</time>
      </trkpt>
      <trkpt lat="43.73333" lon="7.40499">
        <ele>470.50305424219</ele>
        <time>2013-03-12T11:25:53Z</time>
      </trkpt>
      <trkpt lat="43.73329" lon="7.40494">
        <ele>468.90047545131</ele>
        <time>2013-03-12T11:25:57Z</time>
      </trkpt>
      <trkpt lat="43.73325" lon="7.40493">
        <ele>468.90047545131</ele>
        <time>2013-03-12T11:26:03Z</time>
      </trkpt>
      <trkpt lat="43.73323" lon="7.40495">
        <ele>468.90047545131</ele>
        <time>2013-03-12T11:26:07Z</time>
      </trkpt>
      <trkpt lat="43.73322" lon="7.40492">
        <ele>468.90047545131</ele>
        <time>2013-03-12T11:26:13Z</time>
      </trkpt>
      <trkpt lat="43.73319" lon="7.4049">
        <ele>466.77443341116</ele>
        <time>2013-03-12T11:26:17Z</time>
      </trkpt>
      <trkpt lat="43.73315" lon="7.40493">
        <ele>466.77443341116</ele>
        <time>2013-03-12T11:26:23Z</time>
      </trkpt>
      <trkpt lat="43.73312" lon="7.40493">
        <ele>466.77443341116</ele>
        <time>2013-03-12T11:26:27Z</time>
      </trkpt>
      <trkpt lat="43.73312" lon="7.40492">
        <ele>466.77443341116</ele>
        <time>2013-03-12T11:26:32Z</time>
      </trkpt>
      <trkpt lat="43.73312" lon="7.40498">
        <ele>464.71787366384</ele>
        <time>2013-03-12T11:26:37Z</time>
      </trkpt>
      <trkpt lat="43.73309" lon="7.40499">
        <ele>464.71787366384</ele>
        <time>2013-03-12T11:26:42Z</time>
      </trkpt>
      <trkpt lat="43.73303" lon="7.40503">
        <ele>462.87645314778</ele>
        <time>2013-03-12T11:26:47Z</time>
      </trkpt>
      <trkpt lat="43.73298" lon="7.40503">
        <ele>462.87645314778</ele>
        <time>2013-03-12T11:26:53Z</time>
      </trkpt>
      <trkpt lat="43.73294" lon="7.40504">
        <ele>461.37007279949</ele>
        <time>2013-03-12T11:26:57Z</time>
      </trkpt>
      <trkpt lat="43.73292" lon="7.40508">
        <ele>461.37007279949</ele>
        <time>2013-03-12T11:27:02Z</time>
      </trkpt>
      <trkpt lat="43.73287" lon="7.40511">
        <ele>461.37007279949</ele>
        <time>2013-03-12T11:27:08Z</time>
      </trkpt>
      <trkpt lat="43.73284" lon="7.40511">
        <ele>459.73238464708</ele>
        <time>2013-03-12T11:27:13Z</time>
      </trkpt>
      <trkpt lat="43.73278" lon="7.40509">
        <ele>459.73238464708</ele>
        <time>2013-03-12T11:27:18Z</time>
      </trkpt>
      <trkpt lat="43.73275" lon="7.40506">
        <ele>457.35866287277</ele>
        <time>2013-03-12T11:27:22Z</time>
      </trkpt>
      <trkpt lat="43.73271" lon="7.40508">
        <ele>457.35866287277</ele>
        <time>2013-03-12T11:27:28Z</time>
      </trkpt>
      <trkpt lat="43.73265" lon="7.40507">
        <ele>454.87229720358</ele>
        <time>2013-03-12T11:27:32Z</time>
      </trkpt>
      <trkpt lat="43.73262" lon="7.40504">
        <ele>454.87229720358</ele>
        <time>2013-03-12T11:27:38Z</time>
      </trkpt>
      <trkpt lat="43.73257" lon="7.40505">
        <ele>454.87229720358</ele>
        <time>2013-03-12T11:27:43Z</time>
      </trkpt>
      <trkpt lat="43.73253" lon="7.40507">
        <ele>453.42754900585</ele>
        <time>2013-03-12T11:27:47Z</time>
      </trkpt>
      <trkpt lat="43.7325" lon="7.40508">
        <ele>453.42754900585</ele>
        <time>2013-03-12T11:27:53Z</time>
      </trkpt>
      <trkpt lat="43.73248" lon="7.40506">
        <ele>453.42754900585</ele>
        <time>2013-03-12T11:27:57Z</time>
      </trkpt>
      <trkpt lat="43.73245" lon="7.40504">
        <ele>451.03570180231</ele>
        <time>2013-03-12T11:28:03Z</time>
      </trkpt>
      <trkpt lat="43.73245" lon="7.40505">
        <ele>451.03570180231</ele>
        <time>2013-03-12T11:28:07Z</time>
      </trkpt>
      <trkpt lat="43.73239" lon="7.40504">
        <ele>451.03570180231</ele>
        <time>2013-03-12T11:28:13Z</time>
      </trkpt>
      <trkpt lat="43.73238" lon="7.40504">
        <ele>451.03570180231</ele>
        <time>2013-03-12T11:28:17Z</time>
      </trkpt>
      <trkpt lat="43.73237" lon="7.40503">
        <ele>449.08475754411</ele>
        <time>2013-03-12T11:28:23Z</time>
      </trkpt>
      <trkpt lat="43.73236" lon="7.40503">
        <ele>449.08475754411</ele>
        <time>2013-03-12T11:28:27Z</time>
      </trkpt>
      <trkpt lat="43.73234" lon="7.40503">
        <ele>449.08475754411</ele>
        <time>2013-03-12T11:28:33Z</time>
      </trkpt>
      <trkpt lat="43.73233" lon="7.40503">
        <ele>449.08475754411</ele>
        <time>2013-03-12T11:28:37Z</time>
      </trkpt>
      <trkpt lat="43.73232" lon="7.40502">
        <ele>449.08475754411</ele>
        <time>2013-03-12T11:28:43Z</time>
      </trkpt>
      <trkpt lat="43.7323" lon="7.405">
        <ele>449.08475754411</ele>
        <time>2013-03-12T11:28:47Z</time>
      </trkpt>
      <trkpt lat="43.7323" lon="7.40502">
        <ele>449.08475754411</ele>
        <time>2013-03-12T11:28:53Z</time>
      </trkpt>
      <trkpt lat="43.7323" lon="7.40502">
        <ele>446.64007907433</ele>
        <time>2013-03-12T11:28:57Z</time>
      </trkpt>
      <trkpt lat="43.73236" lon="7.40505">
        <ele>446.64007907433</ele>
        <time>2013-03-12T11:29:03Z</time>
      </trkpt>
      <trkpt lat="43.73237" lon="7.40509">
        <ele>446.64007907433</ele>
        <time>2013-03-12T11:29:08Z</time>
      </trkpt>
      <trkpt lat="43.73239" lon="7.40513">
        <ele>443.15397746581</ele>
        <time>2013-03-12T11:29:12Z</time>
      </trkpt>
      <trkpt lat="43.73241" lon="7.40516">
        <ele>443.15397746581</ele>
        <time>2013-03-12T11:29:17Z</time>
      </trkpt>
      <trkpt lat="43.73243" lon="7.40518">
        <ele>443.15397746581</ele>
        <time>2013-03-12T11:29:23Z</time>
      </trkpt>
      <trkpt lat="43.73238" lon="7.40519">
        <ele>439.85110080856</ele>
        <time>2013-03-12T11:29:27Z</time>
      </trkpt>
      <trkpt lat="43.73235" lon="7.40519">
        <ele>439.85110080856</ele>
        <time>2013-03-12T11:29:32Z</time>
      </trkpt>
      <trkpt lat="43.73236" lon="7.40522">
        <ele>439.85110080856</ele>
        <time>2013-03-12T11:29:37Z</time>
      </trkpt>
      <trkpt lat="43.73234" lon="7.40522">
        <ele>439.85110080856</ele>
        <time>2013-03-12T11:29:42Z</time>
      </trkpt>
      <trkpt lat="43.73233" lon="7.40518">
        <ele>436.53963414397</ele>
        <time>2013-03-12T11:29:47Z</time>
      </trkpt>
      <trkpt lat="43.7323" lon="7.40517">
        <ele>436.53963414397</ele>
        <time>2013-03-12T11:29:53Z</time>
      </trkpt>
      <trkpt lat="43.73229" lon="7.40516">
        <ele>436.53963414397</ele>
        <time>2013-03-12T11:29:57Z</time>
      </trkpt>
      <trkpt lat="43.73226" lon="7.40516">
        <ele>436.53963414397</ele>
        <time>2013-03-12T11:30:03Z</time>
      </trkpt>
      <trkpt lat="43.73225" lon="7.40514">
        <ele>432.60936436805</ele>
        <time>2013-03-12T11:30:07Z</time>
      </trkpt>
      <trkpt lat="43.73225" lon="7.40517">
        <ele>432.60936436805</ele>
        <time>2013-03-12T11:30:12Z</time>
      </trkpt>
      <trkpt lat="43.73224" lon="7.40518">
        <ele>432.60936436805</ele>
        <time>2013-03-12T11:30:18Z</time>
      </trkpt>
      <trkpt lat="43.73222" lon="7.40517">
        <ele>432.60936436805</ele>
        <time>2013-03-12T11:30:22Z</time>
      </trkpt>
      <trkpt lat="43.7322" lon="7.40516">
        <ele>432.60936436805</ele>
        <time>2013-03-12T11:30:28Z</time>
      </trkpt>
      <trkpt lat="43.73219" lon="7.40516">
        <ele>432.60936436805</ele>
        <time>2013-03-12T11:30:32Z</time>
      </trkpt>
      <trkpt lat="43.73217" lon="7.40518">
        <ele>428.11612269522</ele>
        <time>2013-03-12T11:30:37Z</time>
      </trkpt>
      <trkpt lat="43.73214" lon="7.40515">
        <ele>428.11612269522</ele>
        <time>2013-03-12T11:30:42Z</time>
      </trkpt>
      <trkpt lat="43.73214" lon="7.40514">
        <ele>428.11612269522</ele>
        <time>2013-03-12T11:30:47Z</time>
      </trkpt>
      <trkpt lat="43.73212" lon="7.40513">
        <ele>428.11612269522</ele>
        <time>2013-03-12T11:30:52Z</time>
      </trkpt>
      <trkpt lat="43.7321" lon="7.40512">
        <ele>428.11612269522</ele>
        <time>2013-03-12T11:30:58Z</time>
      </trkpt>
      <trkpt lat="43.73206" lon="7.40511">
        <ele>424.1073745526</ele>
        <time>2013-03-12T11:31:02Z</time>
      </trkpt>
      <trkpt lat="43.73203" lon="7.4051">
        <ele>424.1073745526</ele>
        <time>2013-03-12T11:31:08Z</time>
      </trkpt>
      <trkpt lat="43.73203" lon="7.4051">
        <ele>424.1073745526</ele>
        <time>2013-03-12T11:31:12Z</time>
      </trkpt>
      <trkpt lat="43.73203" lon="7.40511">
        <ele>424.1073745526</ele>
        <time>2013-03-12T11:31:18Z</time>
      </trkpt>
      <trkpt lat="43.73203" lon="7.40511">
        <ele>424.1073745526</ele>
        <time>2013-03-12T11:31:23Z</time>
      </trkpt>
      <trkpt lat="43.73205" lon="7.40514">
        <ele>424.1073745526</ele>
        <time>2013-03-12T11:31:27Z</time>
      </trkpt>
      <trkpt lat="43.73207" lon="7.40516">
        <ele>420.22623146429</ele>
        <time>2013-03-12T11:31:33Z</time>
      </trkpt>
      <trkpt lat="43.73208" lon="7.40519">
        <ele>420.22623146429</ele>
        <time>2013-03-12T11:31:37Z</time>
      </trkpt>
      <trkpt lat="43.73209" lon="7.4052">
        <ele>420.22623146429</ele>
        <time>2013-03-12T11:31:42Z</time>
      </trkpt>
      <trkpt lat="43.7321" lon="7.40523">
        <ele>420.22623146429</ele>
        <time>2013-03-12T11:31:48Z</time>
      </trkpt>
      <trkpt lat="43.73211" lon="7.40526">
        <ele>416.67463587676</ele>
        <time>2013-03-12T11:31:52Z</time>
      </trkpt>
      <trkpt lat="43.7321" lon="7.40528">
        <ele>416.67463587676</ele>
        <time>2013-03-12T11:31:58Z</time>
      </trkpt>
      <trkpt lat="43.73209" lon="7.40526">
        <ele>416.67463587676</ele>
        <time>2013-03-12T11:32:03Z</time>
      </trkpt>
      <trkpt lat="43.73207" lon="7.40526">
        <ele>416.67463587676</ele>
        <time>2013-03-12T11:32:08Z</time>
      </trkpt>
      <trkpt lat="43.73206" lon="7.40526">
        <ele>416.67463587676</ele>
        <time>2013-03-12T11:32:13Z</time>
      </trkpt>
      <trkpt lat="43.73204" lon="7.40526">
        <ele>416.67463587676</ele>
        <time>2013-03-12T11:32:17Z</time>
      </trkpt>
      <trkpt lat="43.73203" lon="7.40525">
        <ele>414.14291203979</ele>
        <time>2013-03-12T11:32:22Z</time>
      </trkpt>
      <trkpt lat="43.73202" lon="7.40525">
        <ele>414.14291203979</ele>
        <time>2013-03-12T11:32:28Z</time>
      </trkpt>
      <trkpt lat="43.73202" lon="7.40525">
        <ele>414.14291203979</ele>
        <time>2013-03-12T11:32:33Z</time>
      </trkpt>
      <trkpt lat="43.73202" lon="7.40526">
        <ele>414.14291203979</ele>
        <time>2013-03-12T11:32:38Z</time>
      </trkpt>
      <trkpt lat="43.73201" lon="7.40524">
        <ele>414.14291203979</ele>
        <time>2013-03-12T11:32:42Z</time>
      </trkpt>
      <trkpt lat="43.73196" lon="7.40519">
        <ele>414.14291203979</ele>
        <time>2013-03-12T11:32:48Z</time>
      </trkpt>
      <trkpt lat="43.73194" lon="7.40516">
        <ele>411.59586997069</ele>
        <time>2013-03-12T11:32:52Z</time>
      </trkpt>
      <trkpt lat="43.73192" lon="7.40514">
        <ele>411.59586997069</ele>
        <time>2013-03-12T11:32:58Z</time>
      </trkpt>
      <trkpt lat="43.7319" lon="7.40508">
        <ele>411.59586997069</ele>
        <time>2013-03-12T11:33:02Z</time>
      </trkpt>
      <trkpt lat="43.7319" lon="7.40506">
        <ele>409.39997700987</ele>
        <time>2013-03-12T11:33:08Z</time>
      </trkpt>
      <trkpt lat="43.73187" lon="7.40503">
        <ele>409.39997700987</ele>
        <time>2013-03-12T11:33:13Z</time>
      </trkpt>
      <trkpt lat="43.73186" lon="7.40504">
        <ele>409.39997700987</ele>
        <time>2013-03-12T11:33:17Z</time>
      </trkpt>
      <trkpt lat="43.73184" lon="7.405">
        <ele>409.39997700987</ele>
        <time>2013-03-12T11:33:23Z</time>
      </trkpt>
      <trkpt lat="43.73183" lon="7.40496">
        <ele>407.21622335709</ele>
        <time>2013-03-12T11:33:27Z</time>
      </trkpt>
      <trkpt lat="43.73181" lon="7.40493">
        <ele>407.21622335709</ele>
        <time>2013-03-12T11:33:32Z</time>
      </trkpt>
      <trkpt lat="43.73177" lon="7.40492">
        <ele>407.21622335709</ele>
        <time>2013-03-12T11:33:38Z</time>
      </trkpt>
      <trkpt lat="43.73174" lon="7.4049">
        <ele>405.01844810748</ele>
        <time>2013-03-12T11:33:42Z</time>
      </trkpt>
      <trkpt lat="43.7317" lon="7.40486">
        <ele>405.01844810748</ele>
        <time>2013-03-12T11:33:47Z</time>
      </trkpt>
      <trkpt lat="43.73168" lon="7.40488">
        <ele>405.01844810748</ele>
        <time>2013-03-12T11:33:53Z</time>
      </trkpt>
      <trkpt lat="43.73171" lon="7.4049">
        <ele>401.88872496347</ele>
        <time>2013-03-12T11:33:57Z</time>
      </trkpt>
      <trkpt lat="43.73173" lon="7.40494">
        <ele>401.88872496347</ele>
        <time>2013-03-12T11:34:03Z</time>
      </trkpt>
      <trkpt lat="43.73174" lon="7.40496">
        <ele>401.88872496347</ele>
        <time>2013-03-12T11:34:07Z</time>
      </trkpt>
      <trkpt lat="43.73176" lon="7.40499">
        <ele>401.88872496347</ele>
        <time>2013-03-12T11:34:13Z</time>
      </trkpt>
      <trkpt lat="43.73176" lon="7.40501">
        <ele>398.52092924898</ele>
        <time>2013-03-12T11:34:17Z</time>
      </trkpt>
      <trkpt lat="43.73177" lon="7.40503">
        <ele>398.52092924898</ele>
        <time>2013-03-12T11:34:22Z</time>
      </trkpt>
      <trkpt lat="43.73177" lon="7.40506">
        <ele>398.52092924898</ele>
        <time>2013-03-12T11:34:27Z</time>
      </trkpt>
      <trkpt lat="43.73178" lon="7.40507">
        <ele>398.52092924898</ele>
        <time>2013-03-12T11:34:32Z</time>
      </trkpt>
      <trkpt lat="43.73176" lon="7.40505">
        <ele>398.52092924898</ele>
        <time>2013-03-12T11:34:38Z</time>
      </trkpt>
      <trkpt lat="43.73174" lon="7.40502">
        <ele>395.32782512343</ele>
        <time>2013-03-12T11:34:42Z</time>
      </trkpt>
      <trkpt lat="43.7317" lon="7.40499">
        <ele>395.32782512343</ele>
        <time>2013-03-12T11:34:47Z</time>
      </trkpt>
      <trkpt lat="43.73169" lon="7.405">
        <ele>395.32782512343</ele>
        <time>2013-03-12T11:34:53Z</time>
      </trkpt>
      <trkpt lat="43.73169" lon="7.40502">
        <ele>395.32782512343</ele>
        <time>2013-03-12T11:34:57Z</time>
      </trkpt>
      <trkpt lat="43.7317" lon="7.40505">
        <ele>392.17233706348</ele>
        <time>2013-03-12T11:35:02Z</time>
      </trkpt>
      <trkpt lat="43.73171" lon="7.40506">
        <ele>392.17233706348</ele>
        <time>2013-03-12T11:35:08Z</time>
      </trkpt>
      <trkpt lat="43.73172" lon="7.40507">
        <ele>392.17233706348</ele>
        <time>2013-03-12T11:35:12Z</time>
      </trkpt>
      <trkpt lat="43.73171" lon="7.40507">
        <ele>392.17233706348</ele>
        <time>2013-03-12T11:35:18Z</time>
      </trkpt>
      <trkpt lat="43.7317" lon="7.40508">
        <ele>392.17233706348</ele>
        <time>2013-03-12T11:35:22Z</time>
      </trkpt>
      <trkpt lat="43.73166" lon="7.40501">
        <ele>388.56684752644</ele>
        <time>2013-03-12T11:35:27Z</time>
      </trkpt>
      <trkpt lat="43.73165" lon="7.40503">
        <ele>388.56684752644</ele>
        <time>2013-03-12T11:35:32Z</time>
      </trkpt>
      <trkpt lat="43.73164" lon="7.40502">
        <ele>388.56684752644</ele>
        <time>2013-03-12T11:35:37Z</time>
      </trkpt>
      <trkpt lat="43.73162" lon="7.40501">
        <ele>388.56684752644</ele>
        <time>2013-03-12T11:35:42Z</time>
      </trkpt>
      <trkpt lat="43.73158" lon="7.405">
        <ele>388.56684752644</ele>
        <time>2013-03-12T11:35:48Z</time>
      </trkpt>
      <trkpt lat="43.73158" lon="7.405">
        <ele>385.91962923867</ele>
        <time>2013-03-12T11:35:52Z</time>
      </trkpt>
      <trkpt lat="43.73156" lon="7.40497">
        <ele>385.91962923867</ele>
        <time>2013-03-12T11:35:58Z</time>
      </trkpt>
      <trkpt lat="43.73155" lon="7.40496">
        <ele>385.91962923867</ele>
        <time>2013-03-12T11:36:03Z</time>
      </trkpt>
      <trkpt lat="43.7315" lon="7.40494">
        <ele>383.35651409609</ele>
        <time>2013-03-12T11:36:07Z</time>
      </trkpt>
      <trkpt lat="43.7315" lon="7.40494">
        <ele>383.35651409609</ele>
        <time>2013-03-12T11:36:13Z</time>
      </trkpt>
      <trkpt lat="43.73149" lon="7.40494">
        <ele>383.35651409609</ele>
        <time>2013-03-12T11:36:17Z</time>
      </trkpt>
      <trkpt lat="43.73149" lon="7.40494">
        <ele>383.35651409609</ele>
        <time>2013-03-12T11:36:23Z</time>
      </trkpt>
      <trkpt lat="43.73152" lon="7.40496">
        <ele>383.35651409609</ele>
        <time>2013-03-12T11:36:27Z</time>
      </trkpt>
      <trkpt lat="43.73154" lon="7.40498">
        <ele>383.35651409609</ele>
        <time>2013-03-12T11:36:32Z</time>
      </trkpt>
      <trkpt lat="43.73156" lon="7.405">
        <ele>380.93176291907</ele>
        <time>2013-03-12T11:36:38Z</time>
      </trkpt>
      <trkpt lat="43.73157" lon="7.40503">
        <ele>380.93176291907</ele>
        <time>2013-03-12T11:36:43Z</time>
      </trkpt>
      <trkpt lat="43.73154" lon="7.40503">
        <ele>380.93176291907</ele>
        <time>2013-03-12T11:36:47Z</time>
      </trkpt>
      <trkpt lat="43.73152" lon="7.40503">
        <ele>380.93176291907</ele>
        <time>2013-03-12T11:36:53Z</time>
      </trkpt>
      <trkpt lat="43.7315" lon="7.40502">
        <ele>380.93176291907</ele>
        <time>2013-03-12T11:36:57Z</time>
      </trkpt>
      <trkpt lat="43.73149" lon="7.40501">
        <ele>379.06974141442</ele>
        <time>2013-03-12T11:37:03Z</time>
      </trkpt>
      <trkpt lat="43.73147" lon="7.40499">
        <ele>379.06974141442</ele>
        <time>2013-03-12T11:37:07Z</time>
      </trkpt>
      <trkpt lat="43.73144" lon="7.40499">
        <ele>379.06974141442</ele>
        <time>2013-03-12T11:37:12Z</time>
      </trkpt>
      <trkpt lat="43.73142" lon="7.40498">
        <ele>379.06974141442</ele>
        <time>2013-03-12T11:37:18Z</time>
      </trkpt>
      <trkpt lat="43.73141" lon="7.40495">
        <ele>377.35484123157</ele>
        <time>2013-03-12T11:37:24Z</time>
      </trkpt>
      <trkpt lat="43.7314" lon="7.40496">
        <ele>377.35484123157</ele>
        <time>2013-03-12T11:37:27Z</time>
      </trkpt>
      <trkpt lat="43.73139" lon="7.40498">
        <ele>377.35484123157</ele>
        <time>2013-03-12T11:37:32Z</time>
      </trkpt>
      <trkpt lat="43.73137" lon="7.40496">
        <ele>377.35484123157</ele>
        <time>2013-03-12T11:37:38Z</time>
      </trkpt>
      <trkpt lat="43.73136" lon="7.40495">
        <ele>377.35484123157</ele>
        <time>2013-03-12T11:37:42Z</time>
      </trkpt>
      <trkpt lat="43.73135" lon="7.40496">
        <ele>377.35484123157</ele>
        <time>2013-03-12T11:37:48Z</time>
      </trkpt>
      <trkpt lat="43.73133" lon="7.40493">
        <ele>375.54549570783</ele>
        <time>2013-03-12T11:37:53Z</time>
      </trkpt>
      <trkpt lat="43.73131" lon="7.40491">
        <ele>375.54549570783</ele>
        <time>2013-03-12T11:37:59Z</time>
      </trkpt>
      <trkpt lat="43.73125" lon="7.40484">
        <ele>373.27386266506</ele>
        <time>2013-03-12T11:38:02Z</time>
      </trkpt>
      <trkpt lat="43.73127" lon="7.40486">
        <ele>373.27386266506</ele>
        <time>2013-03-12T11:38:07Z</time>
      </trkpt>
      <trkpt lat="43.73127" lon="7.40486">
        <ele>373.27386266506</ele>
        <time>2013-03-12T11:38:12Z</time>
      </trkpt>
      <trkpt lat="43.73128" lon="7.40488">
        <ele>373.27386266506</ele>
        <time>2013-03-12T11:38:18Z</time>
      </trkpt>
      <trkpt lat="43.73128" lon="7.40486">
        <ele>373.27386266506</ele>
        <time>2013-03-12T11:38:22Z</time>
      </trkpt>
      <trkpt lat="43.73126" lon="7.40487">
        <ele>373.27386266506</ele>
        <time>2013-03-12T11:38:28Z</time>
      </trkpt>
      <trkpt lat="43.73126" lon="7.40485">
        <ele>373.27386266506</ele>
        <time>2013-03-12T11:38:32Z</time>
      </trkpt>
      <trkpt lat="43.73125" lon="7.40484">
        <ele>372.33310347076</ele>
        <time>2013-03-12T11:38:37Z</time>
      </trkpt>
      <trkpt lat="43.73123" lon="7.40483">
        <ele>372.33310347076</ele>
        <time>2013-03-12T11:38:42Z</time>
      </trkpt>
      <trkpt lat="43.73123" lon="7.40483">
        <ele>372.33310347076</ele>
        <time>2013-03-12T11:38:47Z</time>
      </trkpt>
      <trkpt lat="43.73122" lon="7.40481">
        <ele>372.33310347076</ele>
        <time>2013-03-12T11:38:53Z</time>
      </trkpt>
      <trkpt lat="43.7312" lon="7.40477">
        <ele>372.33310347076</ele>
        <time>2013-03-12T11:38:57Z</time>
      </trkpt>
      <trkpt lat="43.73119" lon="7.40476">
        <ele>372.33439926685</ele>
        <time>2013-03-12T11:39:02Z</time>
      </trkpt>
      <trkpt lat="43.73117" lon="7.40477">
        <ele>372.33439926685</ele>
        <time>2013-03-12T11:39:07Z</time>
      </trkpt>
      <trkpt lat="43.73113" lon="7.40473">
        <ele>372.33439926685</ele>
        <time>2013-03-12T11:39:12Z</time>
      </trkpt>
      <trkpt lat="43.73111" lon="7.40472">
        <ele>371.71860210152</ele>
        <time>2013-03-12T11:39:17Z</time>
      </trkpt>
      <trkpt lat="43.7311" lon="7.40473">
        <ele>371.71860210152</ele>
        <time>2013-03-12T11:39:22Z</time>
      </trkpt>
      <trkpt lat="43.73113" lon="7.40476">
        <ele>371.71860210152</ele>
        <time>2013-03-12T11:39:28Z</time>
      </trkpt>
      <trkpt lat="43.73115" lon="7.40478">
        <ele>371.71860210152</ele>
        <time>2013-03-12T11:39:32Z</time>
      </trkpt>
      <trkpt lat="43.73116" lon="7.40479">
        <ele>371.71860210152</ele>
        <time>2013-03-12T11:39:37Z</time>
      </trkpt>
      <trkpt lat="43.73115" lon="7.40481">
        <ele>369.69122065788</ele>
        <time>2013-03-12T11:39:42Z</time>
      </trkpt>
      <trkpt lat="43.73113" lon="7.40478">
        <ele>369.69122065788</ele>
        <time>2013-03-12T11:39:48Z</time>
      </trkpt>
      <trkpt lat="43.73111" lon="7.40478">
        <ele>369.69122065788</ele>
        <time>2013-03-12T11:39:52Z</time>
      </trkpt>
      <trkpt lat="43.73109" lon="7.40473">
        <ele>369.69122065788</ele>
        <time>2013-03-12T11:39:58Z</time>
      </trkpt>
      <trkpt lat="43.73108" lon="7.40472">
        <ele>366.903460214</ele>
        <time>2013-03-12T11:40:02Z</time>
      </trkpt>
      <trkpt lat="43.73106" lon="7.40472">
        <ele>366.903460214</ele>
        <time>2013-03-12T11:40:07Z</time>
      </trkpt>
      <trkpt lat="43.73105" lon="7.4047">
        <ele>366.903460214</ele>
        <time>2013-03-12T11:40:13Z</time>
      </trkpt>
      <trkpt lat="43.73104" lon="7.40468">
        <ele>366.903460214</ele>
        <time>2013-03-12T11:40:17Z</time>
      </trkpt>
      <trkpt lat="43.73103" lon="7.40467">
        <ele>366.903460214</ele>
        <time>2013-03-12T11:40:23Z</time>
      </trkpt>
      <trkpt lat="43.73101" lon="7.40464">
        <ele>364.03279472328</ele>
        <time>2013-03-12T11:40:27Z</time>
      </trkpt>
      <trkpt lat="43.731" lon="7.40464">
        <ele>364.03279472328</ele>
        <time>2013-03-12T11:40:32Z</time>
      </trkpt>
      <trkpt lat="43.73093" lon="7.4046">
        <ele>364.03279472328</ele>
        <time>2013-03-12T11:40:38Z</time>
      </trkpt>
      <trkpt lat="43.7309" lon="7.40458">
        <ele>361.13064097455</ele>
        <time>2013-03-12T11:40:43Z</time>
      </trkpt>
      <trkpt lat="43.73088" lon="7.40456">
        <ele>361.13064097455</ele>
        <time>2013-03-12T11:40:48Z</time>
      </trkpt>
      <trkpt lat="43.73084" lon="7.40455">
        <ele>361.13064097455</ele>
        <time>2013-03-12T11:40:53Z</time>
      </trkpt>
      <trkpt lat="43.73082" lon="7.40454">
        <ele>358.82109535123</ele>
        <time>2013-03-12T11:40:57Z</time>
      </trkpt>
      <trkpt lat="43.73079" lon="7.40454">
        <ele>358.82109535123</ele>
        <time>2013-03-12T11:41:03Z</time>
      </trkpt>
      <trkpt lat="43.73077" lon="7.40452">
        <ele>358.82109535123</ele>
        <time>2013-03-12T11:41:07Z</time>
      </trkpt>
      <trkpt lat="43.73073" lon="7.40452">
        <ele>358.82109535123</ele>
        <time>2013-03-12T11:41:12Z</time>
      </trkpt>
      <trkpt lat="43.7307" lon="7.40451">
        <ele>357.30598352807</ele>
        <time>2013-03-12T11:41:18Z</time>
      </trkpt>
      <trkpt lat="43.73067" lon="7.40451">
        <ele>357.30598352807</ele>
        <time>2013-03-12T11:41:22Z</time>
      </trkpt>
      <trkpt lat="43.73066" lon="7.40452">
        <ele>357.30598352807</ele>
        <time>2013-03-12T11:41:27Z</time>
      </trkpt>
      <trkpt lat="43.73064" lon="7.40453">
        <ele>357.30598352807</ele>
        <time>2013-03-12T11:41:32Z</time>
      </trkpt>
      <trkpt lat="43.73063" lon="7.40455">
        <ele>357.30598352807</ele>
        <time>2013-03-12T11:41:37Z</time>
      </trkpt>
      <trkpt lat="43.73063" lon="7.40455">
        <ele>357.30598352807</ele>
        <time>2013-03-12T11:41:43Z</time>
      </trkpt>
      <trkpt lat="43.73064" lon="7.40455">
        <ele>357.30598352807</ele>
        <time>2013-03-12T11:41:47Z</time>
      </trkpt>
      <trkpt lat="43.73064" lon="7.40455">
        <ele>357.30598352807</ele>
        <time>2013-03-12T11:41:52Z</time>
      </trkpt>
      <trkpt lat="43.73062" lon="7.40456">
        <ele>356.64030949775</ele>
        <time>2013-03-12T11:41:58Z</time>
      </trkpt>
      <trkpt lat="43.7306" lon="7.40455">
        <ele>356.64030949775</ele>
        <time>2013-03-12T11:42:02Z</time>
      </trkpt>
      <trkpt lat="43.73061" lon="7.40455">
        <ele>356.64030949775</ele>
        <time>2013-03-12T11:42:07Z</time>
      </trkpt>
      <trkpt lat="43.7306" lon="7.40457">
        <ele>356.64030949775</ele>
        <time>2013-03-12T11:42:13Z</time>
      </trkpt>
      <trkpt lat="43.7306" lon="7.40456">
        <ele>356.64030949775</ele>
        <time>2013-03-12T11:42:17Z</time>
      </trkpt>
      <trkpt lat="43.7306" lon="7.40456">
        <ele>356.64030949775</ele>
        <time>2013-03-12T11:42:23Z</time>
      </trkpt>
      <trkpt lat="43.7306" lon="7.40456">
        <ele>356.64030949775</ele>
        <time>2013-03-12T11:42:27Z</time>
      </trkpt>
      <trkpt lat="43.7306" lon="7.40456">
        <ele>356.64030949775</ele>
        <time>2013-03-12T11:42:33Z</time>
      </trkpt>
      <trkpt lat="43.7306" lon="7.40456">
        <ele>356.64030949775</ele>
        <time>2013-03-12T11:42:37Z</time>
      </trkpt>
      <trkpt lat="43.7306" lon="7.40456">
        <ele>356.64030949775</ele>
        <time>2013-03-12T11:42:43Z</time>
      </trkpt>
      <trkpt lat="43.7306" lon="7.40456">
        <ele>356.64030949775</ele>
        <time>2013-03-12T11:42:47Z</time>
      </trkpt>
      <trkpt lat="43.7306" lon="7.40456">
        <ele>356.64030949775</ele>
        <time>2013-03-12T11:42:52Z</time>
      </trkpt>
      <trkpt lat="43.7306" lon="7.40456">
        <ele>356.64030949775</ele>
        <time>2013-03-12T11:42:58Z</time>
      </trkpt>
      <trkpt lat="43.7306" lon="7.40456">
        <ele>356.64030949775</ele>
        <time>2013-03-12T11:43:02Z</time>
      </trkpt>
      <trkpt lat="43.7306" lon="7.40456">
        <ele>356.64030949775</ele>
        <time>2013-03-12T11:43:07Z</time>
      </trkpt>
      <trkpt lat="43.7306" lon="7.40456">
        <ele>356.64030949775</ele>
        <time>2013-03-12T11:43:13Z</time>
      </trkpt>
      <trkpt lat="43.7306" lon="7.40456">
        <ele>356.64030949775</ele>
        <time>2013-03-12T11:43:17Z</time>
      </trkpt>
      <trkpt lat="43.7306" lon="7.40456">
        <ele>356.64030949775</ele>
        <time>2013-03-12T11:43:23Z</time>
      </trkpt>
      <trkpt lat="43.7306" lon="7.40456">
        <ele>356.64030949775</ele>
        <time>2013-03-12T11:43:27Z</time>
      </trkpt>
      <trkpt lat="43.7306" lon="7.40456">
        <ele>356.64030949775</ele>
        <time>2013-03-12T11:43:32Z</time>
      </trkpt>
      <trkpt lat="43.7306" lon="7.40456">
        <ele>356.64030949775</ele>
        <time>2013-03-12T11:43:37Z</time>
      </trkpt>
      <trkpt lat="43.7306" lon="7.40456">
        <ele>356.64030949775</ele>
        <time>2013-03-12T11:43:43Z</time>
      </trkpt>
      <trkpt lat="43.7306" lon="7.40456">
        <ele>356.64030949775</ele>
        <time>2013-03-12T11:43:47Z</time>
      </trkpt>
      <trkpt lat="43.7306" lon="7.40456">
        <ele>356.64030949775</ele>
        <time>2013-03-12T11:43:52Z</time>
      </trkpt>
      <trkpt lat="43.7306" lon="7.40456">
        <ele>356.64030949775</ele>
        <time>2013-03-12T11:43:57Z</time>
      </trkpt>
      <trkpt lat="43.7306" lon="7.40456">
        <ele>356.64030949775</ele>
        <time>2013-03-12T11:44:03Z</time>
      </trkpt>
      <trkpt lat="43.7306" lon="7.40456">
        <ele>356.64030949775</ele>
        <time>2013-03-12T11:44:07Z</time>
      </trkpt>
      <trkpt lat="43.7306" lon="7.40456">
        <ele>356.64030949775</ele>
        <time>2013-03-12T11:44:13Z</time>
      </trkpt>
      <trkpt lat="43.7306" lon="7.40456">
        <ele>356.64030949775</ele>
        <time>2013-03-12T11:44:17Z</time>
      </trkpt>
      <trkpt lat="43.7306" lon="7.40456">
        <ele>356.64030949775</ele>
        <time>2013-03-12T11:44:23Z</time>
      </trkpt>
      <trkpt lat="43.7306" lon="7.40456">
        <ele>356.64030949775</ele>
        <time>2013-03-12T11:44:27Z</time>
      </trkpt>
      <trkpt lat="43.7306" lon="7.40456">
        <ele>356.64030949775</ele>
        <time>2013-03-12T11:44:33Z</time>
      </trkpt>
      <trkpt lat="43.7306" lon="7.40456">
        <ele>356.64030949775</ele>
        <time>2013-03-12T11:44:37Z</time>
      </trkpt>
      <trkpt lat="43.7306" lon="7.40456">
        <ele>356.64030949775</ele>
        <time>2013-03-12T11:44:43Z</time>
      </trkpt>
      <trkpt lat="43.7306" lon="7.40456">
        <ele>356.64030949775</ele>
        <time>2013-03-12T11:44:47Z</time>
      </trkpt>
      <trkpt lat="43.7306" lon="7.40456">
        <ele>356.64030949775</ele>
        <time>2013-03-12T11:44:52Z</time>
      </trkpt>
      <trkpt lat="43.7306" lon="7.40456">
        <ele>356.64030949775</ele>
        <time>2013-03-12T11:44:57Z</time>
      </trkpt>
      <trkpt lat="43.7306" lon="7.40456">
        <ele>356.64030949775</ele>
        <time>2013-03-12T11:45:02Z</time>
      </trkpt>
      <trkpt lat="43.7306" lon="7.40456">
        <ele>356.64030949775</ele>
        <time>2013-03-12T11:45:08Z</time>
      </trkpt>
      <trkpt lat="43.7306" lon="7.40456">
        <ele>356.64030949775</ele>
        <time>2013-03-12T11:45:13Z</time>
      </trkpt>
      <trkpt lat="43.7306" lon="7.40456">
        <ele>356.64030949775</ele>
        <time>2013-03-12T11:45:18Z</time>
      </trkpt>
      <trkpt lat="43.7306" lon="7.40456">
        <ele>356.64030949775</ele>
        <time>2013-03-12T11:45:22Z</time>
      </trkpt>
      <trkpt lat="43.7306" lon="7.40456">
        <ele>356.64030949775</ele>
        <time>2013-03-12T11:45:28Z</time>
      </trkpt>
      <trkpt lat="43.7306" lon="7.40456">
        <ele>356.64030949775</ele>
        <time>2013-03-12T11:45:33Z</time>
      </trkpt>
      <trkpt lat="43.7306" lon="7.40456">
        <ele>356.64030949775</ele>
        <time>2013-03-12T11:45:38Z</time>
      </trkpt>
      <trkpt lat="43.7306" lon="7.40456">
        <ele>356.64030949775</ele>
        <time>2013-03-12T11:45:42Z</time>
      </trkpt>
      <trkpt lat="43.7306" lon="7.40456">
        <ele>356.64030949775</ele>
        <time>2013-03-12T11:45:48Z</time>
      </trkpt>
      <trkpt lat="43.7306" lon="7.40456">
        <ele>356.64030949775</ele>
        <time>2013-03-12T11:45:52Z</time>
      </trkpt>
      <trkpt lat="43.7306" lon="7.40456">
        <ele>356.64030949775</ele>
        <time>2013-03-12T11:45:57Z</time>
      </trkpt>
      <trkpt lat="43.7306" lon="7.40456">
        <ele>356.64030949775</ele>
        <time>2013-03-12T11:46:02Z</time>
      </trkpt>
      <trkpt lat="43.7306" lon="7.40456">
        <ele>356.64030949775</ele>
        <time>2013-03-12T11:46:07Z</time>
      </trkpt>
      <trkpt lat="43.7306" lon="7.40456">
        <ele>356.64030949775</ele>
        <time>2013-03-12T11:46:12Z</time>
      </trkpt>
      <trkpt lat="43.7306" lon="7.40456">
        <ele>356.64030949775</ele>
        <time>2013-03-12T11:46:18Z</time>
      </trkpt>
      <trkpt lat="43.73059" lon="7.40456">
        <ele>356.64030949775</ele>
        <time>2013-03-12T11:46:22Z</time>
      </trkpt>
      <trkpt lat="43.73056" lon="7.40455">
        <ele>356.93024296917</ele>
        <time>2013-03-12T11:46:28Z</time>
      </trkpt>
      <trkpt lat="43.73054" lon="7.4046">
        <ele>356.93024296917</ele>
        <time>2013-03-12T11:46:33Z</time>
      </trkpt>
      <trkpt lat="43.73053" lon="7.40461">
        <ele>356.93024296917</ele>
        <time>2013-03-12T11:46:37Z</time>
      </trkpt>
      <trkpt lat="43.73051" lon="7.40461">
        <ele>356.93024296917</ele>
        <time>2013-03-12T11:46:42Z</time>
      </trkpt>
      <trkpt lat="43.7305" lon="7.40461">
        <ele>356.93024296917</ele>
        <time>2013-03-12T11:46:48Z</time>
      </trkpt>
      <trkpt lat="43.7305" lon="7.40462">
        <ele>356.93024296917</ele>
        <time>2013-03-12T11:46:53Z</time>
      </trkpt>
      <trkpt lat="43.73048" lon="7.40463">
        <ele>356.70062228096</ele>
        <time>2013-03-12T11:46:57Z</time>
      </trkpt>
      <trkpt lat="43.73047" lon="7.40462">
        <ele>356.70062228096</ele>
        <time>2013-03-12T11:47:03Z</time>
      </trkpt>
      <trkpt lat="43.73046" lon="7.40463">
        <ele>356.70062228096</ele>
        <time>2013-03-12T11:47:08Z</time>
      </trkpt>
      <trkpt lat="43.73045" lon="7.40463">
        <ele>356.70062228096</ele>
        <time>2013-03-12T11:47:12Z</time>
      </trkpt>
      <trkpt lat="43.73042" lon="7.40463">
        <ele>356.70062228096</ele>
        <time>2013-03-12T11:47:17Z</time>
      </trkpt>
      <trkpt lat="43.73038" lon="7.40466">
        <ele>355.7533857668</ele>
        <time>2013-03-12T11:47:22Z</time>
      </trkpt>
      <trkpt lat="43.73037" lon="7.4047">
        <ele>355.7533857668</ele>
        <time>2013-03-12T11:47:27Z</time>
      </trkpt>
      <trkpt lat="43.73034" lon="7.40471">
        <ele>355.7533857668</ele>
        <time>2013-03-12T11:47:33Z</time>
      </trkpt>
      <trkpt lat="43.73034" lon="7.40469">
        <ele>355.7533857668</ele>
        <time>2013-03-12T11:47:37Z</time>
      </trkpt>
      <trkpt lat="43.73034" lon="7.40467">
        <ele>354.90139617135</ele>
        <time>2013-03-12T11:47:42Z</time>
      </trkpt>
      <trkpt lat="43.73031" lon="7.40466">
        <ele>354.90139617135</ele>
        <time>2013-03-12T11:47:48Z</time>
      </trkpt>
      <trkpt lat="43.73028" lon="7.40466">
        <ele>354.90139617135</ele>
        <time>2013-03-12T11:47:53Z</time>
      </trkpt>
      <trkpt lat="43.73027" lon="7.40468">
        <ele>354.90139617135</ele>
        <time>2013-03-12T11:47:58Z</time>
      </trkpt>
      <trkpt lat="43.73028" lon="7.40467">
        <ele>354.90139617135</ele>
        <time>2013-03-12T11:48:02Z</time>
      </trkpt>
      <trkpt lat="43.73026" lon="7.40465">
        <ele>354.09052373444</ele>
        <time>2013-03-12T11:48:07Z</time>
      </trkpt>
      <trkpt lat="43.73026" lon="7.40462">
        <ele>354.09052373444</ele>
        <time>2013-03-12T11:48:12Z</time>
      </trkpt>
      <trkpt lat="43.73025" lon="7.40461">
        <ele>354.09052373444</ele>
        <time>2013-03-12T11:48:19Z</time>
      </trkpt>
      <trkpt lat="43.73025" lon="7.40459">
        <ele>354.09052373444</ele>
        <time>2013-03-12T11:48:22Z</time>
      </trkpt>
      <trkpt lat="43.73026" lon="7.40458">
        <ele>354.09052373444</ele>
        <time>2013-03-12T11:48:27Z</time>
      </trkpt>
      <trkpt lat="43.73026" lon="7.40455">
        <ele>354.09052373444</ele>
        <time>2013-03-12T11:48:32Z</time>
      </trkpt>
      <trkpt lat="43.73022" lon="7.40454">
        <ele>353.06876518129</ele>
        <time>2013-03-12T11:48:37Z</time>
      </trkpt>
      <trkpt lat="43.7302" lon="7.40452">
        <ele>353.06876518129</ele>
        <time>2013-03-12T11:48:43Z</time>
      </trkpt>
      <trkpt lat="43.7302" lon="7.40451">
        <ele>353.06876518129</ele>
        <time>2013-03-12T11:48:48Z</time>
      </trkpt>
      <trkpt lat="43.73017" lon="7.40449">
        <ele>353.06876518129</ele>
        <time>2013-03-12T11:48:52Z</time>
      </trkpt>
      <trkpt lat="43.73016" lon="7.40449">
        <ele>353.06876518129</ele>
        <time>2013-03-12T11:48:57Z</time>
      </trkpt>
      <trkpt lat="43.73016" lon="7.40449">
        <ele>353.06876518129</ele>
        <time>2013-03-12T11:49:02Z</time>
      </trkpt>
      <trkpt lat="43.73016" lon="7.40448">
        <ele>353.06876518129</ele>
        <time>2013-03-12T11:49:07Z</time>
      </trkpt>
      <trkpt lat="43.73016" lon="7.40448">
        <ele>353.06876518129</ele>
        <time>2013-03-12T11:49:13Z</time>
      </trkpt>
      <trkpt lat="43.73016" lon="7.40448">
        <ele>353.06876518129</ele>
        <time>2013-03-12T11:49:17Z</time>
      </trkpt>
      <trkpt lat="43.73016" lon="7.40448">
        <ele>353.06876518129</ele>
        <time>2013-03-12T11:49:22Z</time>
      </trkpt>
      <trkpt lat="43.73016" lon="7.40448">
        <ele>353.06876518129</ele>
        <time>2013-03-12T11:49:27Z</time>
      </trkpt>
      <trkpt lat="43.73016" lon="7.40448">
        <ele>353.06876518129</ele>
        <time>2013-03-12T11:49:33Z</time>
      </trkpt>
      <trkpt lat="43.73016" lon="7.40448">
        <ele>353.06876518129</ele>
        <time>2013-03-12T11:49:37Z</time>
      </trkpt>
      <trkpt lat="43.73016" lon="7.40449">
        <ele>353.06876518129</ele>
        <time>2013-03-12T11:49:42Z</time>
      </trkpt>
      <trkpt lat="43.73013" lon="7.40449">
        <ele>351.84824016732</ele>
        <time>2013-03-12T11:49:48Z</time>
      </trkpt>
      <trkpt lat="43.7301" lon="7.4045">
        <ele>351.84824016732</ele>
        <time>2013-03-12T11:49:52Z</time>
      </trkpt>
      <trkpt lat="43.73008" lon="7.40446">
        <ele>351.84824016732</ele>
        <time>2013-03-12T11:49:58Z</time>
      </trkpt>
      <trkpt lat="43.73007" lon="7.40444">
        <ele>351.84824016732</ele>
        <time>2013-03-12T11:50:03Z</time>
      </trkpt>
      <trkpt lat="43.73005" lon="7.40442">
        <ele>350.541651577</ele>
        <time>2013-03-12T11:50:08Z</time>
      </trkpt>
      <trkpt lat="43.73004" lon="7.40442">
        <ele>350.541651577</ele>
        <time>2013-03-12T11:50:12Z</time>
      </trkpt>
      <trkpt lat="43.73003" lon="7.4044">
        <ele>350.541651577</ele>
        <time>2013-03-12T11:50:17Z</time>
      </trkpt>
      <trkpt lat="43.73" lon="7.40437">
        <ele>350.541651577</ele>
        <time>2013-03-12T11:50:23Z</time>
      </trkpt>
      <trkpt lat="43.72998" lon="7.40439">
        <ele>350.541651577</ele>
        <time>2013-03-12T11:50:27Z</time>
      </trkpt>
      <trkpt lat="43.72996" lon="7.40438">
        <ele>348.92225271309</ele>
        <time>2013-03-12T11:50:32Z</time>
      </trkpt>
      <trkpt lat="43.72994" lon="7.40437">
        <ele>348.92225271309</ele>
        <time>2013-03-12T11:50:37Z</time>
      </trkpt>
      <trkpt lat="43.72992" lon="7.40437">
        <ele>348.92225271309</ele>
        <time>2013-03-12T11:50:43Z</time>
      </trkpt>
      <trkpt lat="43.72991" lon="7.40437">
        <ele>348.92225271309</ele>
        <time>2013-03-12T11:50:47Z</time>
      </trkpt>
      <trkpt lat="43.72988" lon="7.40436">
        <ele>348.92225271309</ele>
        <time>2013-03-12T11:50:52Z</time>
      </trkpt>
      <trkpt lat="43.72986" lon="7.40436">
        <ele>347.11233398614</ele>
        <time>2013-03-12T11:50:58Z</time>
      </trkpt>
      <trkpt lat="43.72985" lon="7.40436">
        <ele>347.11233398614</ele>
        <time>2013-03-12T11:51:03Z</time>
      </trkpt>
      <trkpt lat="43.72981" lon="7.40435">
        <ele>347.11233398614</ele>
        <time>2013-03-12T11:51:07Z</time>
      </trkpt>
      <trkpt lat="43.72979" lon="7.40435">
        <ele>347.11233398614</ele>
        <time>2013-03-12T11:51:12Z</time>
      </trkpt>
      <trkpt lat="43.72978" lon="7.40434">
        <ele>347.11233398614</ele>
        <time>2013-03-12T11:51:17Z</time>
      </trkpt>
      <trkpt lat="43.72974" lon="7.40433">
        <ele>345.35548596977</ele>
        <time>2013-03-12T11:51:23Z</time>
      </trkpt>
      <trkpt lat="43.72972" lon="7.40431">
        <ele>345.35548596977</ele>
        <time>2013-03-12T11:51:27Z</time>
      </trkpt>
      <trkpt lat="43.7297" lon="7.40431">
        <ele>345.35548596977</ele>
        <time>2013-03-12T11:51:32Z</time>
      </trkpt>
      <trkpt lat="43.72969" lon="7.40431">
        <ele>345.35548596977</ele>
        <time>2013-03-12T11:51:38Z</time>
      </trkpt>
      <trkpt lat="43.72969" lon="7.4043">
        <ele>345.35548596977</ele>
        <time>2013-03-12T11:51:42Z</time>
      </trkpt>
      <trkpt lat="43.72969" lon="7.40428">
        <ele>345.35548596977</ele>
        <time>2013-03-12T11:51:48Z</time>
      </trkpt>
      <trkpt lat="43.72967" lon="7.40428">
        <ele>343.50261663109</ele>
        <time>2013-03-12T11:51:53Z</time>
      </trkpt>
      <trkpt lat="43.72966" lon="7.40432">
        <ele>343.50261663109</ele>
        <time>2013-03-12T11:51:57Z</time>
      </trkpt>
      <trkpt lat="43.72966" lon="7.40429">
        <ele>343.50261663109</ele>
        <time>2013-03-12T11:52:03Z</time>
      </trkpt>
      <trkpt lat="43.72964" lon="7.40428">
        <ele>343.50261663109</ele>
        <time>2013-03-12T11:52:07Z</time>
      </trkpt>
      <trkpt lat="43.72962" lon="7.40427">
        <ele>343.50261663109</ele>
        <time>2013-03-12T11:52:12Z</time>
      </trkpt>
      <trkpt lat="43.72959" lon="7.40425">
        <ele>341.21414775294</ele>
        <time>2013-03-12T11:52:18Z</time>
      </trkpt>
      <trkpt lat="43.72958" lon="7.40424">
        <ele>341.21414775294</ele>
        <time>2013-03-12T11:52:22Z</time>
      </trkpt>
      <trkpt lat="43.72953" lon="7.40421">
        <ele>341.21414775294</ele>
        <time>2013-03-12T11:52:28Z</time>
      </trkpt>
      <trkpt lat="43.72949" lon="7.40419">
        <ele>338.7099247013</ele>
        <time>2013-03-12T11:52:32Z</time>
      </trkpt>
      <trkpt lat="43.72947" lon="7.40418">
        <ele>338.7099247013</ele>
        <time>2013-03-12T11:52:37Z</time>
      </trkpt>
      <trkpt lat="43.72943" lon="7.40419">
        <ele>338.7099247013</ele>
        <time>2013-03-12T11:52:42Z</time>
      </trkpt>
      <trkpt lat="43.72939" lon="7.4042">
        <ele>336.54015680212</ele>
        <time>2013-03-12T11:52:48Z</time>
      </trkpt>
      <trkpt lat="43.72936" lon="7.40418">
        <ele>336.54015680212</ele>
        <time>2013-03-12T11:52:53Z</time>
      </trkpt>
      <trkpt lat="43.72931" lon="7.40419">
        <ele>336.54015680212</ele>
        <time>2013-03-12T11:52:58Z</time>
      </trkpt>
      <trkpt lat="43.72928" lon="7.40419">
        <ele>334.49317877591</ele>
        <time>2013-03-12T11:53:02Z</time>
      </trkpt>
      <trkpt lat="43.72925" lon="7.40417">
        <ele>334.49317877591</ele>
        <time>2013-03-12T11:53:08Z</time>
      </trkpt>
      <trkpt lat="43.7292" lon="7.40418">
        <ele>334.49317877591</ele>
        <time>2013-03-12T11:53:13Z</time>
      </trkpt>
      <trkpt lat="43.72919" lon="7.40418">
        <ele>332.92018640924</ele>
        <time>2013-03-12T11:53:18Z</time>
      </trkpt>
      <trkpt lat="43.72914" lon="7.40418">
        <ele>332.92018640924</ele>
        <time>2013-03-12T11:53:22Z</time>
      </trkpt>
      <trkpt lat="43.72914" lon="7.40417">
        <ele>332.92018640924</ele>
        <time>2013-03-12T11:53:28Z</time>
      </trkpt>
      <trkpt lat="43.72914" lon="7.40415">
        <ele>332.92018640924</ele>
        <time>2013-03-12T11:53:32Z</time>
      </trkpt>
      <trkpt lat="43.72913" lon="7.40413">
        <ele>332.92018640924</ele>
        <time>2013-03-12T11:53:38Z</time>
      </trkpt>
      <trkpt lat="43.72911" lon="7.40414">
        <ele>331.45354622421</ele>
        <time>2013-03-12T11:53:42Z</time>
      </trkpt>
      <trkpt lat="43.72907" lon="7.40412">
        <ele>331.45354622421</ele>
        <time>2013-03-12T11:53:48Z</time>
      </trkpt>
      <trkpt lat="43.72905" lon="7.40414">
        <ele>331.45354622421</ele>
        <time>2013-03-12T11:53:52Z</time>
      </trkpt>
      <trkpt lat="43.72903" lon="7.40415">
        <ele>331.45354622421</ele>
        <time>2013-03-12T11:53:57Z</time>
      </trkpt>
      <trkpt lat="43.72904" lon="7.40415">
        <ele>329.93970980366</ele>
        <time>2013-03-12T11:54:02Z</time>
      </trkpt>
      <trkpt lat="43.72903" lon="7.40415">
        <ele>329.93970980366</ele>
        <time>2013-03-12T11:54:07Z</time>
      </trkpt>
      <trkpt lat="43.72903" lon="7.40415">
        <ele>329.93970980366</ele>
        <time>2013-03-12T11:54:13Z</time>
      </trkpt>
      <trkpt lat="43.72901" lon="7.40417">
        <ele>329.93970980366</ele>
        <time>2013-03-12T11:54:17Z</time>
      </trkpt>
      <trkpt lat="43.729" lon="7.40417">
        <ele>329.93970980366</ele>
        <time>2013-03-12T11:54:23Z</time>
      </trkpt>
      <trkpt lat="43.72898" lon="7.40418">
        <ele>329.93970980366</ele>
        <time>2013-03-12T11:54:28Z</time>
      </trkpt>
      <trkpt lat="43.72898" lon="7.40418">
        <ele>329.93970980366</ele>
        <time>2013-03-12T11:54:32Z</time>
      </trkpt>
      <trkpt lat="43.72898" lon="7.40419">
        <ele>329.93970980366</ele>
        <time>2013-03-12T11:54:38Z</time>
      </trkpt>
      <trkpt lat="43.72898" lon="7.40419">
        <ele>329.93970980366</ele>
        <time>2013-03-12T11:54:43Z</time>
      </trkpt>
      <trkpt lat="43.72898" lon="7.40418">
        <ele>329.93970980366</ele>
        <time>2013-03-12T11:54:47Z</time>
      </trkpt>
      <trkpt lat="43.72897" lon="7.40418">
        <ele>329.93970980366</ele>
        <time>2013-03-12T11:54:53Z</time>
      </trkpt>
      <trkpt lat="43.72897" lon="7.40418">
        <ele>329.93970980366</ele>
        <time>2013-03-12T11:54:57Z</time>
      </trkpt>
      <trkpt lat="43.72897" lon="7.40419">
        <ele>328.48156381372</ele>
        <time>2013-03-12T11:55:02Z</time>
      </trkpt>
      <trkpt lat="43.72896" lon="7.40421">
        <ele>328.48156381372</ele>
        <time>2013-03-12T11:55:08Z</time>
      </trkpt>
      <trkpt lat="43.72896" lon="7.40421">
        <ele>328.48156381372</ele>
        <time>2013-03-12T11:55:12Z</time>
      </trkpt>
      <trkpt lat="43.72895" lon="7.40421">
        <ele>328.48156381372</ele>
        <time>2013-03-12T11:55:18Z</time>
      </trkpt>
      <trkpt lat="43.72895" lon="7.40422">
        <ele>328.48156381372</ele>
        <time>2013-03-12T11:55:23Z</time>
      </trkpt>
      <trkpt lat="43.72895" lon="7.40421">
        <ele>328.48156381372</ele>
        <time>2013-03-12T11:55:27Z</time>
      </trkpt>
      <trkpt lat="43.72893" lon="7.40421">
        <ele>328.48156381372</ele>
        <time>2013-03-12T11:55:33Z</time>
      </trkpt>
      <trkpt lat="43.72892" lon="7.40416">
        <ele>328.48156381372</ele>
        <time>2013-03-12T11:55:38Z</time>
      </trkpt>
      <trkpt lat="43.72891" lon="7.40416">
        <ele>326.39611542882</ele>
        <time>2013-03-12T11:55:42Z</time>
      </trkpt>
      <trkpt lat="43.72889" lon="7.40415">
        <ele>326.39611542882</ele>
        <time>2013-03-12T11:55:47Z</time>
      </trkpt>
      <trkpt lat="43.72886" lon="7.40414">
        <ele>326.39611542882</ele>
        <time>2013-03-12T11:55:52Z</time>
      </trkpt>
      <trkpt lat="43.72881" lon="7.40413">
        <ele>324.76726260147</ele>
        <time>2013-03-12T11:55:58Z</time>
      </trkpt>
      <trkpt lat="43.72878" lon="7.4041">
        <ele>324.76726260147</ele>
        <time>2013-03-12T11:56:02Z</time>
      </trkpt>
      <trkpt lat="43.72877" lon="7.40409">
        <ele>324.76726260147</ele>
        <time>2013-03-12T11:56:07Z</time>
      </trkpt>
      <trkpt lat="43.72875" lon="7.40407">
        <ele>324.76726260147</ele>
        <time>2013-03-12T11:56:13Z</time>
      </trkpt>
      <trkpt lat="43.72872" lon="7.40406">
        <ele>323.531613864</ele>
        <time>2013-03-12T11:56:17Z</time>
      </trkpt>
      <trkpt lat="43.7287" lon="7.40404">
        <ele>323.531613864</ele>
        <time>2013-03-12T11:56:22Z</time>
      </trkpt>
      <trkpt lat="43.72867" lon="7.40405">
        <ele>323.531613864</ele>
        <time>2013-03-12T11:56:28Z</time>
      </trkpt>
      <trkpt lat="43.72865" lon="7.40406">
        <ele>323.531613864</ele>
        <time>2013-03-12T11:56:32Z</time>
      </trkpt>
      <trkpt lat="43.72865" lon="7.40404">
        <ele>323.01847025733</ele>
        <time>2013-03-12T11:56:38Z</time>
      </trkpt>
      <trkpt lat="43.72865" lon="7.40403">
        <ele>323.01847025733</ele>
        <time>2013-03-12T11:56:42Z</time>
      </trkpt>
      <trkpt lat="43.72863" lon="7.40403">
        <ele>323.01847025733</ele>
        <time>2013-03-12T11:56:47Z</time>
      </trkpt>
      <trkpt lat="43.72861" lon="7.40401">
        <ele>323.01847025733</ele>
        <time>2013-03-12T11:56:53Z</time>
      </trkpt>
      <trkpt lat="43.7286" lon="7.40402">
        <ele>323.01847025733</ele>
        <time>2013-03-12T11:56:57Z</time>
      </trkpt>
      <trkpt lat="43.7286" lon="7.40402">
        <ele>323.01847025733</ele>
        <time>2013-03-12T11:57:03Z</time>
      </trkpt>
      <trkpt lat="43.7286" lon="7.40402">
        <ele>323.01847025733</ele>
        <time>2013-03-12T11:57:07Z</time>
      </trkpt>
      <trkpt lat="43.7286" lon="7.40402">
        <ele>323.01847025733</ele>
        <time>2013-03-12T11:57:12Z</time>
      </trkpt>
      <trkpt lat="43.7286" lon="7.40403">
        <ele>323.01847025733</ele>
        <time>2013-03-12T11:57:18Z</time>
      </trkpt>
      <trkpt lat="43.7286" lon="7.40403">
        <ele>323.01847025733</ele>
        <time>2013-03-12T11:57:22Z</time>
      </trkpt>
      <trkpt lat="43.7286" lon="7.40403">
        <ele>323.01847025733</ele>
        <time>2013-03-12T11:57:28Z</time>
      </trkpt>
      <trkpt lat="43.7286" lon="7.40403">
        <ele>323.01847025733</ele>
        <time>2013-03-12T11:57:33Z</time>
      </trkpt>
      <trkpt lat="43.7286" lon="7.40403">
        <ele>323.01847025733</ele>
        <time>2013-03-12T11:57:37Z</time>
      </trkpt>
      <trkpt lat="43.7286" lon="7.40403">
        <ele>323.01847025733</ele>
        <time>2013-03-12T11:57:42Z</time>
      </trkpt>
      <trkpt lat="43.7286" lon="7.40403">
        <ele>323.01847025733</ele>
        <time>2013-03-12T11:57:47Z</time>
      </trkpt>
      <trkpt lat="43.7286" lon="7.40402">
        <ele>323.01847025733</ele>
        <time>2013-03-12T11:57:52Z</time>
      </trkpt>
      <trkpt lat="43.7286" lon="7.40403">
        <ele>323.01847025733</ele>
        <time>2013-03-12T11:57:57Z</time>
      </trkpt>
      <trkpt lat="43.72859" lon="7.40403">
        <ele>323.01847025733</ele>
        <time>2013-03-12T11:58:02Z</time>
      </trkpt>
      <trkpt lat="43.72859" lon="7.40403">
        <ele>323.01847025733</ele>
        <time>2013-03-12T11:58:07Z</time>
      </trkpt>
      <trkpt lat="43.72859" lon="7.40403">
        <ele>323.01847025733</ele>
        <time>2013-03-12T11:58:13Z</time>
      </trkpt>
      <trkpt lat="43.72859" lon="7.40404">
        <ele>323.01847025733</ele>
        <time>2013-03-12T11:58:17Z</time>
      </trkpt>
      <trkpt lat="43.72857" lon="7.40403">
        <ele>322.82481394071</ele>
        <time>2013-03-12T11:58:23Z</time>
      </trkpt>
      <trkpt lat="43.72857" lon="7.40399">
        <ele>322.82481394071</ele>
        <time>2013-03-12T11:58:27Z</time>
      </trkpt>
      <trkpt lat="43.72854" lon="7.404">
        <ele>322.82481394071</ele>
        <time>2013-03-12T11:58:32Z</time>
      </trkpt>
      <trkpt lat="43.72852" lon="7.40398">
        <ele>322.82481394071</ele>
        <time>2013-03-12T11:58:37Z</time>
      </trkpt>
      <trkpt lat="43.7285" lon="7.40398">
        <ele>322.93666474339</ele>
        <time>2013-03-12T11:58:42Z</time>
      </trkpt>
      <trkpt lat="43.72848" lon="7.40397">
        <ele>322.93666474339</ele>
        <time>2013-03-12T11:58:47Z</time>
      </trkpt>
      <trkpt lat="43.72847" lon="7.40393">
        <ele>322.93666474339</ele>
        <time>2013-03-12T11:58:53Z</time>
      </trkpt>
      <trkpt lat="43.72846" lon="7.40392">
        <ele>322.93666474339</ele>
        <time>2013-03-12T11:58:57Z</time>
      </trkpt>
      <trkpt lat="43.72845" lon="7.40391">
        <ele>322.93666474339</ele>
        <time>2013-03-12T11:59:02Z</time>
      </trkpt>
      <trkpt lat="43.72845" lon="7.40389">
        <ele>322.93666474339</ele>
        <time>2013-03-12T11:59:07Z</time>
      </trkpt>
      <trkpt lat="43.72844" lon="7.40387">
        <ele>323.88789680886</ele>
        <time>2013-03-12T11:59:12Z</time>
      </trkpt>
      <trkpt lat="43.72843" lon="7.40387">
        <ele>323.88789680886</ele>
        <time>2013-03-12T11:59:17Z</time>
      </trkpt>
      <trkpt lat="43.72842" lon="7.40386">
        <ele>323.88789680886</ele>
        <time>2013-03-12T11:59:23Z</time>
      </trkpt>
      <trkpt lat="43.72841" lon="7.40386">
        <ele>323.88789680886</ele>
        <time>2013-03-12T11:59:27Z</time>
      </trkpt>
      <trkpt lat="43.7284" lon="7.40383">
        <ele>323.88789680886</ele>
        <time>2013-03-12T11:59:33Z</time>
      </trkpt>
      <trkpt lat="43.72837" lon="7.40382">
        <ele>323.88789680886</ele>
        <time>2013-03-12T11:59:37Z</time>
      </trkpt>
      <trkpt lat="43.72835" lon="7.40381">
        <ele>325.45033236679</ele>
        <time>2013-03-12T11:59:43Z</time>
      </trkpt>
      <trkpt lat="43.72834" lon="7.4038">
        <ele>325.45033236679</ele>
        <time>2013-03-12T11:59:48Z</time>
      </trkpt>
      <trkpt lat="43.72832" lon="7.40378">
        <ele>325.45033236679</ele>
        <time>2013-03-12T11:59:52Z</time>
      </trkpt>
      <trkpt lat="43.72831" lon="7.40376">
        <ele>325.45033236679</ele>
        <time>2013-03-12T11:59:58Z</time>
      </trkpt>
      <trkpt lat="43.7283" lon="7.40376">
        <ele>325.45033236679</ele>
        <time>2013-03-12T12:00:02Z</time>
      </trkpt>
      <trkpt lat="43.72829" lon="7.40375">
        <ele>325.45033236679</ele>
        <time>2013-03-12T12:00:07Z</time>
      </trkpt>
      <trkpt lat="43.72825" lon="7.40374">
        <ele>327.54063552399</ele>
        <time>2013-03-12T12:00:12Z</time>
      </trkpt>
      <trkpt lat="43.72822" lon="7.40374">
        <ele>327.54063552399</ele>
        <time>2013-03-12T12:00:17Z</time>
      </trkpt>
      <trkpt lat="43.72819" lon="7.40373">
        <ele>327.54063552399</ele>
        <time>2013-03-12T12:00:23Z</time>
      </trkpt>
      <trkpt lat="43.72818" lon="7.40373">
        <ele>327.54063552399</ele>
        <time>2013-03-12T12:00:27Z</time>
      </trkpt>
      <trkpt lat="43.72816" lon="7.40373">
        <ele>330.20992737194</ele>
        <time>2013-03-12T12:00:32Z</time>
      </trkpt>
      <trkpt lat="43.72813" lon="7.40371">
        <ele>330.20992737194</ele>
        <time>2013-03-12T12:00:37Z</time>
      </trkpt>
      <trkpt lat="43.7281" lon="7.40371">
        <ele>330.20992737194</ele>
        <time>2013-03-12T12:00:42Z</time>
      </trkpt>
      <trkpt lat="43.72809" lon="7.40371">
        <ele>330.20992737194</ele>
        <time>2013-03-12T12:00:47Z</time>
      </trkpt>
      <trkpt lat="43.72805" lon="7.40368">
        <ele>332.61059926585</ele>
        <time>2013-03-12T12:00:52Z</time>
      </trkpt>
      <trkpt lat="43.72801" lon="7.40367">
        <ele>332.61059926585</ele>
        <time>2013-03-12T12:00:57Z</time>
      </trkpt>
      <trkpt lat="43.72799" lon="7.40364">
        <ele>332.61059926585</ele>
        <time>2013-03-12T12:01:02Z</time>
      </trkpt>
      <trkpt lat="43.728" lon="7.40362">
        <ele>332.61059926585</ele>
        <time>2013-03-12T12:01:07Z</time>
      </trkpt>
      <trkpt lat="43.728" lon="7.40362">
        <ele>332.61059926585</ele>
        <time>2013-03-12T12:01:12Z</time>
      </trkpt>
      <trkpt lat="43.72802" lon="7.40361">
        <ele>334.80847917023</ele>
        <time>2013-03-12T12:01:17Z</time>
      </trkpt>
      <trkpt lat="43.72802" lon="7.4036">
        <ele>334.80847917023</ele>
        <time>2013-03-12T12:01:22Z</time>
      </trkpt>
      <trkpt lat="43.72802" lon="7.4036">
        <ele>334.80847917023</ele>
        <time>2013-03-12T12:01:28Z</time>
      </trkpt>
      <trkpt lat="43.72801" lon="7.4036">
        <ele>334.80847917023</ele>
        <time>2013-03-12T12:01:33Z</time>
      </trkpt>
      <trkpt lat="43.72801" lon="7.40358">
        <ele>334.80847917023</ele>
        <time>2013-03-12T12:01:37Z</time>
      </trkpt>
      <trkpt lat="43.728" lon="7.40358">
        <ele>334.80847917023</ele>
        <time>2013-03-12T12:01:43Z</time>
      </trkpt>
      <trkpt lat="43.728" lon="7.40358">
        <ele>334.80847917023</ele>
        <time>2013-03-12T12:01:47Z</time>
      </trkpt>
      <trkpt lat="43.728" lon="7.40358">
        <ele>334.80847917023</ele>
        <time>2013-03-12T12:01:52Z</time>
      </trkpt>
      <trkpt lat="43.728" lon="7.40358">
        <ele>334.80847917023</ele>
        <time>2013-03-12T12:01:58Z</time>
      </trkpt>
      <trkpt lat="43.728" lon="7.40358">
        <ele>334.80847917023</ele>
        <time>2013-03-12T12:02:02Z</time>
      </trkpt>
      <trkpt lat="43.728" lon="7.40358">
        <ele>334.80847917023</ele>
        <time>2013-03-12T12:02:07Z</time>
      </trkpt>
      <trkpt lat="43.728" lon="7.40358">
        <ele>334.80847917023</ele>
        <time>2013-03-12T12:02:12Z</time>
      </trkpt>
      <trkpt lat="43.728" lon="7.40358">
        <ele>334.80847917023</ele>
        <time>2013-03-12T12:02:17Z</time>
      </trkpt>
      <trkpt lat="43.728" lon="7.40358">
        <ele>334.50322333597</ele>
        <time>2013-03-12T12:02:22Z</time>
      </trkpt>
      <trkpt lat="43.72805" lon="7.40354">
        <ele>334.19796750171</ele>
        <time>2013-03-12T12:16:52Z</time>
      </trkpt>
      <trkpt lat="43.7283" lon="7.40343">
        <ele>333.89271166745</ele>
        <time>2013-03-12T12:16:57Z</time>
      </trkpt>
      <trkpt lat="43.72844" lon="7.40329">
        <ele>333.58745583319</ele>
        <time>2013-03-12T12:17:02Z</time>
      </trkpt>
      <trkpt lat="43.72843" lon="7.40316">
        <ele>333.28219999893</ele>
        <time>2013-03-12T12:17:12Z</time>
      </trkpt>
      <trkpt lat="43.72843" lon="7.40315">
        <ele>332.97694416467</ele>
        <time>2013-03-12T12:17:17Z</time>
      </trkpt>
      <trkpt lat="43.72844" lon="7.40313">
        <ele>332.67168833041</ele>
        <time>2013-03-12T12:17:22Z</time>
      </trkpt>
      <trkpt lat="43.72844" lon="7.40312">
        <ele>332.36643249615</ele>
        <time>2013-03-12T12:17:27Z</time>
      </trkpt>
      <trkpt lat="43.72845" lon="7.40311">
        <ele>332.06117666189</ele>
        <time>2013-03-12T12:17:32Z</time>
      </trkpt>
      <trkpt lat="43.72845" lon="7.4031">
        <ele>331.75592082762</ele>
        <time>2013-03-12T12:17:37Z</time>
      </trkpt>
      <trkpt lat="43.72844" lon="7.40301">
        <ele>331.45066499336</ele>
        <time>2013-03-12T12:17:42Z</time>
      </trkpt>
      <trkpt lat="43.72843" lon="7.40289">
        <ele>331.1454091591</ele>
        <time>2013-03-12T12:17:47Z</time>
      </trkpt>
      <trkpt lat="43.72839" lon="7.40272">
        <ele>330.84015332484</ele>
        <time>2013-03-12T12:17:52Z</time>
      </trkpt>
      <trkpt lat="43.72835" lon="7.40262">
        <ele>330.53489749058</ele>
        <time>2013-03-12T12:17:57Z</time>
      </trkpt>
      <trkpt lat="43.72834" lon="7.40259">
        <ele>330.22964165632</ele>
        <time>2013-03-12T12:18:02Z</time>
      </trkpt>
      <trkpt lat="43.72834" lon="7.40258">
        <ele>329.92438582206</ele>
        <time>2013-03-12T12:18:07Z</time>
      </trkpt>
      <trkpt lat="43.72833" lon="7.40255">
        <ele>329.6191299878</ele>
        <time>2013-03-12T12:18:12Z</time>
      </trkpt>
      <trkpt lat="43.72832" lon="7.40253">
        <ele>329.31387415354</ele>
        <time>2013-03-12T12:18:17Z</time>
      </trkpt>
      <trkpt lat="43.72831" lon="7.4025">
        <ele>329.31387415354</ele>
        <time>2013-03-12T12:18:22Z</time>
      </trkpt>
      <trkpt lat="43.7283" lon="7.40248">
        <ele>329.31387415354</ele>
        <time>2013-03-12T12:18:27Z</time>
      </trkpt>
      <trkpt lat="43.72779" lon="7.40078">
        <ele>324.45598997823</ele>
        <time>2013-03-12T12:18:32Z</time>
      </trkpt>
      <trkpt lat="43.72779" lon="7.40073">
        <ele>324.45598997823</ele>
        <time>2013-03-12T12:18:37Z</time>
      </trkpt>
      <trkpt lat="43.72778" lon="7.40071">
        <ele>324.45598997823</ele>
        <time>2013-03-12T12:18:42Z</time>
      </trkpt>
      <trkpt lat="43.72779" lon="7.40073">
        <ele>324.45598997823</ele>
        <time>2013-03-12T12:18:47Z</time>
      </trkpt>
      <trkpt lat="43.72779" lon="7.40073">
        <ele>324.45598997823</ele>
        <time>2013-03-12T12:18:52Z</time>
      </trkpt>
      <trkpt lat="43.72779" lon="7.40072">
        <ele>324.45598997823</ele>
        <time>2013-03-12T12:18:57Z</time>
      </trkpt>
      <trkpt lat="43.72779" lon="7.40072">
        <ele>324.45598997823</ele>
        <time>2013-03-12T12:19:02Z</time>
      </trkpt>
      <trkpt lat="43.72779" lon="7.40072">
        <ele>324.45598997823</ele>
        <time>2013-03-12T12:19:07Z</time>
      </trkpt>
      <trkpt lat="43.72779" lon="7.40072">
        <ele>324.45598997823</ele>
        <time>2013-03-12T12:19:12Z</time>
      </trkpt>
      <trkpt lat="43.72779" lon="7.40072">
        <ele>324.45598997823</ele>
        <time>2013-03-12T12:19:17Z</time>
      </trkpt>
      <trkpt lat="43.72779" lon="7.40072">
        <ele>324.45598997823</ele>
        <time>2013-03-12T12:19:22Z</time>
      </trkpt>
      <trkpt lat="43.72779" lon="7.40072">
        <ele>324.45598997823</ele>
        <time>2013-03-12T12:19:27Z</time>
      </trkpt>
      <trkpt lat="43.72779" lon="7.40072">
        <ele>324.45598997823</ele>
        <time>2013-03-12T12:19:32Z</time>
      </trkpt>
      <trkpt lat="43.72779" lon="7.40072">
        <ele>324.45598997823</ele>
        <time>2013-03-12T12:19:37Z</time>
      </trkpt>
      <trkpt lat="43.72779" lon="7.40072">
        <ele>324.45598997823</ele>
        <time>2013-03-12T12:19:42Z</time>
      </trkpt>
      <trkpt lat="43.72779" lon="7.40072">
        <ele>324.45598997823</ele>
        <time>2013-03-12T12:19:47Z</time>
      </trkpt>
      <trkpt lat="43.72779" lon="7.40072">
        <ele>324.45598997823</ele>
        <time>2013-03-12T12:19:52Z</time>
      </trkpt>
      <trkpt lat="43.72779" lon="7.40072">
        <ele>324.45598997823</ele>
        <time>2013-03-12T12:19:57Z</time>
      </trkpt>
      <trkpt lat="43.72779" lon="7.40072">
        <ele>324.45598997823</ele>
        <time>2013-03-12T12:20:02Z</time>
      </trkpt>
      <trkpt lat="43.72779" lon="7.40072">
        <ele>324.45598997823</ele>
        <time>2013-03-12T12:20:07Z</time>
      </trkpt>
      <trkpt lat="43.72779" lon="7.40072">
        <ele>324.45598997823</ele>
        <time>2013-03-12T12:20:12Z</time>
      </trkpt>
      <trkpt lat="43.72779" lon="7.40072">
        <ele>324.45598997823</ele>
        <time>2013-03-12T12:20:17Z</time>
      </trkpt>
      <trkpt lat="43.72778" lon="7.40072">
        <ele>324.45598997823</ele>
        <time>2013-03-12T12:20:22Z</time>
      </trkpt>
      <trkpt lat="43.72778" lon="7.40071">
        <ele>324.45598997823</ele>
        <time>2013-03-12T12:20:27Z</time>
      </trkpt>
      <trkpt lat="43.72778" lon="7.40071">
        <ele>324.45598997823</ele>
        <time>2013-03-12T12:20:32Z</time>
      </trkpt>
      <trkpt lat="43.72778" lon="7.40071">
        <ele>324.45598997823</ele>
        <time>2013-03-12T12:20:37Z</time>
      </trkpt>
      <trkpt lat="43.72778" lon="7.40071">
        <ele>324.45598997823</ele>
        <time>2013-03-12T12:20:42Z</time>
      </trkpt>
      <trkpt lat="43.72778" lon="7.40071">
        <ele>324.45598997823</ele>
        <time>2013-03-12T12:20:47Z</time>
      </trkpt>
      <trkpt lat="43.72778" lon="7.40071">
        <ele>324.45598997823</ele>
        <time>2013-03-12T12:20:52Z</time>
      </trkpt>
      <trkpt lat="43.72778" lon="7.40071">
        <ele>324.45598997823</ele>
        <time>2013-03-12T12:20:57Z</time>
      </trkpt>
      <trkpt lat="43.72778" lon="7.40071">
        <ele>324.45598997823</ele>
        <time>2013-03-12T12:21:02Z</time>
      </trkpt>
      <trkpt lat="43.72778" lon="7.40071">
        <ele>324.45598997823</ele>
        <time>2013-03-12T12:21:07Z</time>
      </trkpt>
      <trkpt lat="43.72778" lon="7.40071">
        <ele>324.45598997823</ele>
        <time>2013-03-12T12:21:12Z</time>
      </trkpt>
      <trkpt lat="43.72778" lon="7.40071">
        <ele>324.45598997823</ele>
        <time>2013-03-12T12:21:17Z</time>
      </trkpt>
      <trkpt lat="43.72778" lon="7.40071">
        <ele>324.45598997823</ele>
        <time>2013-03-12T12:21:22Z</time>
      </trkpt>
      <trkpt lat="43.72778" lon="7.40071">
        <ele>324.45598997823</ele>
        <time>2013-03-12T12:21:27Z</time>
      </trkpt>
      <trkpt lat="43.72778" lon="7.40071">
        <ele>324.45598997823</ele>
        <time>2013-03-12T12:21:32Z</time>
      </trkpt>
      <trkpt lat="43.72778" lon="7.40071">
        <ele>324.45598997823</ele>
        <time>2013-03-12T12:21:37Z</time>
      </trkpt>
      <trkpt lat="43.72778" lon="7.40071">
        <ele>324.45598997823</ele>
        <time>2013-03-12T12:21:42Z</time>
      </trkpt>
      <trkpt lat="43.72778" lon="7.40071">
        <ele>324.45598997823</ele>
        <time>2013-03-12T12:21:47Z</time>
      </trkpt>
      <trkpt lat="43.72778" lon="7.40071">
        <ele>324.45598997823</ele>
        <time>2013-03-12T12:21:52Z</time>
      </trkpt>
      <trkpt lat="43.72778" lon="7.4007">
        <ele>324.45598997823</ele>
        <time>2013-03-12T12:21:57Z</time>
      </trkpt>
      <trkpt lat="43.72778" lon="7.4007">
        <ele>324.45598997823</ele>
        <time>2013-03-12T12:22:02Z</time>
      </trkpt>
      <trkpt lat="43.72778" lon="7.4007">
        <ele>324.45598997823</ele>
        <time>2013-03-12T12:22:07Z</time>
      </trkpt>
      <trkpt lat="43.72778" lon="7.4007">
        <ele>324.45598997823</ele>
        <time>2013-03-12T12:22:12Z</time>
      </trkpt>
      <trkpt lat="43.72778" lon="7.4007">
        <ele>324.45598997823</ele>
        <time>2013-03-12T12:22:17Z</time>
      </trkpt>
      <trkpt lat="43.72778" lon="7.4007">
        <ele>324.45598997823</ele>
        <time>2013-03-12T12:22:22Z</time>
      </trkpt>
      <trkpt lat="43.72778" lon="7.4007">
        <ele>324.45598997823</ele>
        <time>2013-03-12T12:22:27Z</time>
      </trkpt>
      <trkpt lat="43.72778" lon="7.4007">
        <ele>324.45598997823</ele>
        <time>2013-03-12T12:22:32Z</time>
      </trkpt>
      <trkpt lat="43.72778" lon="7.4007">
        <ele>324.45598997823</ele>
        <time>2013-03-12T12:22:37Z</time>
      </trkpt>
      <trkpt lat="43.72778" lon="7.4007">
        <ele>324.45598997823</ele>
        <time>2013-03-12T12:22:42Z</time>
      </trkpt>
      <trkpt lat="43.72778" lon="7.4007">
        <ele>324.45598997823</ele>
        <time>2013-03-12T12:22:47Z</time>
      </trkpt>
      <trkpt lat="43.72778" lon="7.4007">
        <ele>324.45598997823</ele>
        <time>2013-03-12T12:22:52Z</time>
      </trkpt>
      <trkpt lat="43.72778" lon="7.4007">
        <ele>324.45598997823</ele>
        <time>2013-03-12T12:22:57Z</time>
      </trkpt>
      <trkpt lat="43.72777" lon="7.40069">
        <ele>324.45598997823</ele>
        <time>2013-03-12T12:23:02Z</time>
      </trkpt>
      <trkpt lat="43.72777" lon="7.40069">
        <ele>324.45598997823</ele>
        <time>2013-03-12T12:23:07Z</time>
      </trkpt>
      <trkpt lat="43.72777" lon="7.40069">
        <ele>324.45598997823</ele>
        <time>2013-03-12T12:23:12Z</time>
      </trkpt>
      <trkpt lat="43.72777" lon="7.40069">
        <ele>324.45598997823</ele>
        <time>2013-03-12T12:23:17Z</time>
      </trkpt>
      <trkpt lat="43.72777" lon="7.40069">
        <ele>324.45598997823</ele>
        <time>2013-03-12T12:23:22Z</time>
      </trkpt>
      <trkpt lat="43.72777" lon="7.40069">
        <ele>319.77943599677</ele>
        <time>2013-03-12T12:23:27Z</time>
      </trkpt>
      <trkpt lat="43.72777" lon="7.40069">
        <ele>319.77943599677</ele>
        <time>2013-03-12T12:23:32Z</time>
      </trkpt>
      <trkpt lat="43.72777" lon="7.40069">
        <ele>319.77943599677</ele>
        <time>2013-03-12T12:23:37Z</time>
      </trkpt>
      <trkpt lat="43.72777" lon="7.40069">
        <ele>319.77943599677</ele>
        <time>2013-03-12T12:23:42Z</time>
      </trkpt>
      <trkpt lat="43.72777" lon="7.40069">
        <ele>319.77943599677</ele>
        <time>2013-03-12T12:23:47Z</time>
      </trkpt>
      <trkpt lat="43.72777" lon="7.40069">
        <ele>319.77943599677</ele>
        <time>2013-03-12T12:23:52Z</time>
      </trkpt>
      <trkpt lat="43.72777" lon="7.40069">
        <ele>319.77943599677</ele>
        <time>2013-03-12T12:23:57Z</time>
      </trkpt>
      <trkpt lat="43.72777" lon="7.40069">
        <ele>319.77943599677</ele>
        <time>2013-03-12T12:24:02Z</time>
      </trkpt>
      <trkpt lat="43.72777" lon="7.40069">
        <ele>319.77943599677</ele>
        <time>2013-03-12T12:24:07Z</time>
      </trkpt>
      <trkpt lat="43.72777" lon="7.40068">
        <ele>319.77943599677</ele>
        <time>2013-03-12T12:24:12Z</time>
      </trkpt>
      <trkpt lat="43.72777" lon="7.40068">
        <ele>319.77943599677</ele>
        <time>2013-03-12T12:24:17Z</time>
      </trkpt>
      <trkpt lat="43.72777" lon="7.40068">
        <ele>319.77943599677</ele>
        <time>2013-03-12T12:24:22Z</time>
      </trkpt>
      <trkpt lat="43.72777" lon="7.40068">
        <ele>319.77943599677</ele>
        <time>2013-03-12T12:24:27Z</time>
      </trkpt>
      <trkpt lat="43.72777" lon="7.40068">
        <ele>319.77943599677</ele>
        <time>2013-03-12T12:24:32Z</time>
      </trkpt>
      <trkpt lat="43.72777" lon="7.40068">
        <ele>319.77943599677</ele>
        <time>2013-03-12T12:24:37Z</time>
      </trkpt>
      <trkpt lat="43.72777" lon="7.40068">
        <ele>319.77943599677</ele>
        <time>2013-03-12T12:24:42Z</time>
      </trkpt>
      <trkpt lat="43.72777" lon="7.40068">
        <ele>319.77943599677</ele>
        <time>2013-03-12T12:24:47Z</time>
      </trkpt>
      <trkpt lat="43.72777" lon="7.40068">
        <ele>319.77943599677</ele>
        <time>2013-03-12T12:24:52Z</time>
      </trkpt>
      <trkpt lat="43.72777" lon="7.40068">
        <ele>319.77943599677</ele>
        <time>2013-03-12T12:24:57Z</time>
      </trkpt>
      <trkpt lat="43.72777" lon="7.40068">
        <ele>319.77943599677</ele>
        <time>2013-03-12T12:25:02Z</time>
      </trkpt>
      <trkpt lat="43.72777" lon="7.40068">
        <ele>319.77943599677</ele>
        <time>2013-03-12T12:25:07Z</time>
      </trkpt>
      <trkpt lat="43.72777" lon="7.40068">
        <ele>319.77943599677</ele>
        <time>2013-03-12T12:25:12Z</time>
      </trkpt>
      <trkpt lat="43.72777" lon="7.40068">
        <ele>319.77943599677</ele>
        <time>2013-03-12T12:25:17Z</time>
      </trkpt>
      <trkpt lat="43.72777" lon="7.40068">
        <ele>319.77943599677</ele>
        <time>2013-03-12T12:25:22Z</time>
      </trkpt>
      <trkpt lat="43.72777" lon="7.40068">
        <ele>319.77943599677</ele>
        <time>2013-03-12T12:25:27Z</time>
      </trkpt>
      <trkpt lat="43.72776" lon="7.40068">
        <ele>319.77943599677</ele>
        <time>2013-03-12T12:25:32Z</time>
      </trkpt>
      <trkpt lat="43.72776" lon="7.40068">
        <ele>319.77943599677</ele>
        <time>2013-03-12T12:25:37Z</time>
      </trkpt>
      <trkpt lat="43.72776" lon="7.40067">
        <ele>319.77943599677</ele>
        <time>2013-03-12T12:25:42Z</time>
      </trkpt>
      <trkpt lat="43.72776" lon="7.40067">
        <ele>319.77943599677</ele>
        <time>2013-03-12T12:25:47Z</time>
      </trkpt>
      <trkpt lat="43.72776" lon="7.40067">
        <ele>319.77943599677</ele>
        <time>2013-03-12T12:25:52Z</time>
      </trkpt>
      <trkpt lat="43.72776" lon="7.40067">
        <ele>319.77943599677</ele>
        <time>2013-03-12T12:25:57Z</time>
      </trkpt>
      <trkpt lat="43.72776" lon="7.40067">
        <ele>319.77943599677</ele>
        <time>2013-03-12T12:26:02Z</time>
      </trkpt>
      <trkpt lat="43.72776" lon="7.40067">
        <ele>319.77943599677</ele>
        <time>2013-03-12T12:26:07Z</time>
      </trkpt>
      <trkpt lat="43.72776" lon="7.40067">
        <ele>319.77943599677</ele>
        <time>2013-03-12T12:26:12Z</time>
      </trkpt>
      <trkpt lat="43.72776" lon="7.40067">
        <ele>319.77943599677</ele>
        <time>2013-03-12T12:26:17Z</time>
      </trkpt>
      <trkpt lat="43.72776" lon="7.40067">
        <ele>319.77943599677</ele>
        <time>2013-03-12T12:26:22Z</time>
      </trkpt>
      <trkpt lat="43.72776" lon="7.40067">
        <ele>319.77943599677</ele>
        <time>2013-03-12T12:26:27Z</time>
      </trkpt>
      <trkpt lat="43.72776" lon="7.40067">
        <ele>319.77943599677</ele>
        <time>2013-03-12T12:26:32Z</time>
      </trkpt>
      <trkpt lat="43.72776" lon="7.40067">
        <ele>319.77943599677</ele>
        <time>2013-03-12T12:26:37Z</time>
      </trkpt>
      <trkpt lat="43.72776" lon="7.40067">
        <ele>319.77943599677</ele>
        <time>2013-03-12T12:26:42Z</time>
      </trkpt>
      <trkpt lat="43.72776" lon="7.40067">
        <ele>319.77943599677</ele>
        <time>2013-03-12T12:26:47Z</time>
      </trkpt>
      <trkpt lat="43.72776" lon="7.40067">
        <ele>319.77943599677</ele>
        <time>2013-03-12T12:26:52Z</time>
      </trkpt>
      <trkpt lat="43.72776" lon="7.40067">
        <ele>319.77943599677</ele>
        <time>2013-03-12T12:26:57Z</time>
      </trkpt>
      <trkpt lat="43.72776" lon="7.40066">
        <ele>319.77943599677</ele>
        <time>2013-03-12T12:27:02Z</time>
      </trkpt>
      <trkpt lat="43.72776" lon="7.40066">
        <ele>319.77943599677</ele>
        <time>2013-03-12T12:27:07Z</time>
      </trkpt>
      <trkpt lat="43.72776" lon="7.40066">
        <ele>319.77943599677</ele>
        <time>2013-03-12T12:27:12Z</time>
      </trkpt>
      <trkpt lat="43.72776" lon="7.40066">
        <ele>319.77943599677</ele>
        <time>2013-03-12T12:27:17Z</time>
      </trkpt>
      <trkpt lat="43.72776" lon="7.40066">
        <ele>319.77943599677</ele>
        <time>2013-03-12T12:27:22Z</time>
      </trkpt>
      <trkpt lat="43.72776" lon="7.40066">
        <ele>319.77943599677</ele>
        <time>2013-03-12T12:27:27Z</time>
      </trkpt>
      <trkpt lat="43.72776" lon="7.40066">
        <ele>319.77943599677</ele>
        <time>2013-03-12T12:27:32Z</time>
      </trkpt>
      <trkpt lat="43.72776" lon="7.40066">
        <ele>319.77943599677</ele>
        <time>2013-03-12T12:27:37Z</time>
      </trkpt>
      <trkpt lat="43.72776" lon="7.40066">
        <ele>319.77943599677</ele>
        <time>2013-03-12T12:27:42Z</time>
      </trkpt>
      <trkpt lat="43.72776" lon="7.40066">
        <ele>319.77943599677</ele>
        <time>2013-03-12T12:27:47Z</time>
      </trkpt>
      <trkpt lat="43.72776" lon="7.40066">
        <ele>319.77943599677</ele>
        <time>2013-03-12T12:27:52Z</time>
      </trkpt>
      <trkpt lat="43.72776" lon="7.40066">
        <ele>319.77943599677</ele>
        <time>2013-03-12T12:27:57Z</time>
      </trkpt>
      <trkpt lat="43.72776" lon="7.40066">
        <ele>319.77943599677</ele>
        <time>2013-03-12T12:28:02Z</time>
      </trkpt>
      <trkpt lat="43.72776" lon="7.40066">
        <ele>319.77943599677</ele>
        <time>2013-03-12T12:28:07Z</time>
      </trkpt>
      <trkpt lat="43.72776" lon="7.40066">
        <ele>319.77943599677</ele>
        <time>2013-03-12T12:28:12Z</time>
      </trkpt>
      <trkpt lat="43.72776" lon="7.40066">
        <ele>319.77943599677</ele>
        <time>2013-03-12T12:28:17Z</time>
      </trkpt>
      <trkpt lat="43.72776" lon="7.40066">
        <ele>319.77943599677</ele>
        <time>2013-03-12T12:28:22Z</time>
      </trkpt>
      <trkpt lat="43.72776" lon="7.40066">
        <ele>319.77943599677</ele>
        <time>2013-03-12T12:28:27Z</time>
      </trkpt>
      <trkpt lat="43.72776" lon="7.40066">
        <ele>319.77943599677</ele>
        <time>2013-03-12T12:28:32Z</time>
      </trkpt>
      <trkpt lat="43.72776" lon="7.40065">
        <ele>319.77943599677</ele>
        <time>2013-03-12T12:28:37Z</time>
      </trkpt>
      <trkpt lat="43.72776" lon="7.40065">
        <ele>319.77943599677</ele>
        <time>2013-03-12T12:28:42Z</time>
      </trkpt>
      <trkpt lat="43.72776" lon="7.40065">
        <ele>319.77943599677</ele>
        <time>2013-03-12T12:28:47Z</time>
      </trkpt>
      <trkpt lat="43.72776" lon="7.40065">
        <ele>319.77943599677</ele>
        <time>2013-03-12T12:28:52Z</time>
      </trkpt>
      <trkpt lat="43.72776" lon="7.40065">
        <ele>319.77943599677</ele>
        <time>2013-03-12T12:28:57Z</time>
      </trkpt>
      <trkpt lat="43.72776" lon="7.40065">
        <ele>319.77943599677</ele>
        <time>2013-03-12T12:29:02Z</time>
      </trkpt>
      <trkpt lat="43.72776" lon="7.40065">
        <ele>319.77943599677</ele>
        <time>2013-03-12T12:29:07Z</time>
      </trkpt>
      <trkpt lat="43.72776" lon="7.40065">
        <ele>319.77943599677</ele>
        <time>2013-03-12T12:29:12Z</time>
      </trkpt>
      <trkpt lat="43.72776" lon="7.40065">
        <ele>319.77943599677</ele>
        <time>2013-03-12T12:29:17Z</time>
      </trkpt>
      <trkpt lat="43.72776" lon="7.40065">
        <ele>319.77943599677</ele>
        <time>2013-03-12T12:29:22Z</time>
      </trkpt>
      <trkpt lat="43.72776" lon="7.40065">
        <ele>319.77943599677</ele>
        <time>2013-03-12T12:29:27Z</time>
      </trkpt>
      <trkpt lat="43.72776" lon="7.40065">
        <ele>319.77943599677</ele>
        <time>2013-03-12T12:29:32Z</time>
      </trkpt>
      <trkpt lat="43.72776" lon="7.40065">
        <ele>319.77943599677</ele>
        <time>2013-03-12T12:29:37Z</time>
      </trkpt>
      <trkpt lat="43.72776" lon="7.40065">
        <ele>319.77943599677</ele>
        <time>2013-03-12T12:29:42Z</time>
      </trkpt>
      <trkpt lat="43.72776" lon="7.40065">
        <ele>319.77943599677</ele>
        <time>2013-03-12T12:29:47Z</time>
      </trkpt>
      <trkpt lat="43.72776" lon="7.40065">
        <ele>319.77943599677</ele>
        <time>2013-03-12T12:29:52Z</time>
      </trkpt>
      <trkpt lat="43.72776" lon="7.40065">
        <ele>319.77943599677</ele>
        <time>2013-03-12T12:29:57Z</time>
      </trkpt>
      <trkpt lat="43.72776" lon="7.40065">
        <ele>319.77943599677</ele>
        <time>2013-03-12T12:30:02Z</time>
      </trkpt>
      <trkpt lat="43.72776" lon="7.40065">
        <ele>319.77943599677</ele>
        <time>2013-03-12T12:30:07Z</time>
      </trkpt>
      <trkpt lat="43.72775" lon="7.40065">
        <ele>319.77943599677</ele>
        <time>2013-03-12T12:30:12Z</time>
      </trkpt>
      <trkpt lat="43.72775" lon="7.40065">
        <ele>319.77943599677</ele>
        <time>2013-03-12T12:30:17Z</time>
      </trkpt>
      <trkpt lat="43.72775" lon="7.40064">
        <ele>319.77943599677</ele>
        <time>2013-03-12T12:30:22Z</time>
      </trkpt>
      <trkpt lat="43.72775" lon="7.40064">
        <ele>319.77943599677</ele>
        <time>2013-03-12T12:30:27Z</time>
      </trkpt>
      <trkpt lat="43.72775" lon="7.40064">
        <ele>319.77943599677</ele>
        <time>2013-03-12T12:30:32Z</time>
      </trkpt>
      <trkpt lat="43.72775" lon="7.40064">
        <ele>319.77943599677</ele>
        <time>2013-03-12T12:30:37Z</time>
      </trkpt>
      <trkpt lat="43.72775" lon="7.40064">
        <ele>319.77943599677</ele>
        <time>2013-03-12T12:30:42Z</time>
      </trkpt>
      <trkpt lat="43.72775" lon="7.40064">
        <ele>319.77943599677</ele>
        <time>2013-03-12T12:30:47Z</time>
      </trkpt>
      <trkpt lat="43.72775" lon="7.40064">
        <ele>319.77943599677</ele>
        <time>2013-03-12T12:30:52Z</time>
      </trkpt>
      <trkpt lat="43.72775" lon="7.40064">
        <ele>319.77943599677</ele>
        <time>2013-03-12T12:30:57Z</time>
      </trkpt>
      <trkpt lat="43.72775" lon="7.40064">
        <ele>319.77943599677</ele>
        <time>2013-03-12T12:31:02Z</time>
      </trkpt>
      <trkpt lat="43.72775" lon="7.40064">
        <ele>319.77943599677</ele>
        <time>2013-03-12T12:31:07Z</time>
      </trkpt>
      <trkpt lat="43.72775" lon="7.40064">
        <ele>319.77943599677</ele>
        <time>2013-03-12T12:31:12Z</time>
      </trkpt>
      <trkpt lat="43.72775" lon="7.40064">
        <ele>319.77943599677</ele>
        <time>2013-03-12T12:31:17Z</time>
      </trkpt>
      <trkpt lat="43.72775" lon="7.40064">
        <ele>319.77943599677</ele>
        <time>2013-03-12T12:31:22Z</time>
      </trkpt>
      <trkpt lat="43.72775" lon="7.40064">
        <ele>319.77943599677</ele>
        <time>2013-03-12T12:31:27Z</time>
      </trkpt>
      <trkpt lat="43.72775" lon="7.40064">
        <ele>319.77943599677</ele>
        <time>2013-03-12T12:31:32Z</time>
      </trkpt>
      <trkpt lat="43.72775" lon="7.40064">
        <ele>319.77943599677</ele>
        <time>2013-03-12T12:31:37Z</time>
      </trkpt>
      <trkpt lat="43.72775" lon="7.40064">
        <ele>319.77943599677</ele>
        <time>2013-03-12T12:31:42Z</time>
      </trkpt>
      <trkpt lat="43.72775" lon="7.40064">
        <ele>319.77943599677</ele>
        <time>2013-03-12T12:31:47Z</time>
      </trkpt>
      <trkpt lat="43.72775" lon="7.40064">
        <ele>319.77943599677</ele>
        <time>2013-03-12T12:31:52Z</time>
      </trkpt>
      <trkpt lat="43.72775" lon="7.40063">
        <ele>319.77943599677</ele>
        <time>2013-03-12T12:31:57Z</time>
      </trkpt>
      <trkpt lat="43.72775" lon="7.40063">
        <ele>319.77943599677</ele>
        <time>2013-03-12T12:32:02Z</time>
      </trkpt>
      <trkpt lat="43.72775" lon="7.40063">
        <ele>319.77943599677</ele>
        <time>2013-03-12T12:32:07Z</time>
      </trkpt>
      <trkpt lat="43.72775" lon="7.40063">
        <ele>319.77943599677</ele>
        <time>2013-03-12T12:32:12Z</time>
      </trkpt>
      <trkpt lat="43.72775" lon="7.40063">
        <ele>319.77943599677</ele>
        <time>2013-03-12T12:32:17Z</time>
      </trkpt>
      <trkpt lat="43.72775" lon="7.40063">
        <ele>319.77943599677</ele>
        <time>2013-03-12T12:32:22Z</time>
      </trkpt>
      <trkpt lat="43.72775" lon="7.40063">
        <ele>319.77943599677</ele>
        <time>2013-03-12T12:32:27Z</time>
      </trkpt>
      <trkpt lat="43.72775" lon="7.40063">
        <ele>319.77943599677</ele>
        <time>2013-03-12T12:32:32Z</time>
      </trkpt>
      <trkpt lat="43.72775" lon="7.40063">
        <ele>319.77943599677</ele>
        <time>2013-03-12T12:32:37Z</time>
      </trkpt>
      <trkpt lat="43.72775" lon="7.40063">
        <ele>319.77943599677</ele>
        <time>2013-03-12T12:32:42Z</time>
      </trkpt>
      <trkpt lat="43.72775" lon="7.40063">
        <ele>319.77943599677</ele>
        <time>2013-03-12T12:32:47Z</time>
      </trkpt>
      <trkpt lat="43.72775" lon="7.40063">
        <ele>319.77943599677</ele>
        <time>2013-03-12T12:32:52Z</time>
      </trkpt>
      <trkpt lat="43.72775" lon="7.40063">
        <ele>319.77943599677</ele>
        <time>2013-03-12T12:32:57Z</time>
      </trkpt>
      <trkpt lat="43.72775" lon="7.40063">
        <ele>319.77943599677</ele>
        <time>2013-03-12T12:33:02Z</time>
      </trkpt>
      <trkpt lat="43.72775" lon="7.40063">
        <ele>319.77943599677</ele>
        <time>2013-03-12T12:33:07Z</time>
      </trkpt>
      <trkpt lat="43.72775" lon="7.40063">
        <ele>319.77943599677</ele>
        <time>2013-03-12T12:33:12Z</time>
      </trkpt>
      <trkpt lat="43.72775" lon="7.40063">
        <ele>319.77943599677</ele>
        <time>2013-03-12T12:33:17Z</time>
      </trkpt>
      <trkpt lat="43.72775" lon="7.40063">
        <ele>319.77943599677</ele>
        <time>2013-03-12T12:33:22Z</time>
      </trkpt>
      <trkpt lat="43.72775" lon="7.40063">
        <ele>319.77943599677</ele>
        <time>2013-03-12T12:33:27Z</time>
      </trkpt>
      <trkpt lat="43.72775" lon="7.40063">
        <ele>319.77943599677</ele>
        <time>2013-03-12T12:33:32Z</time>
      </trkpt>
      <trkpt lat="43.72775" lon="7.40062">
        <ele>319.77943599677</ele>
        <time>2013-03-12T12:33:37Z</time>
      </trkpt>
      <trkpt lat="43.72775" lon="7.40062">
        <ele>319.77943599677</ele>
        <time>2013-03-12T12:33:42Z</time>
      </trkpt>
      <trkpt lat="43.72775" lon="7.40062">
        <ele>319.77943599677</ele>
        <time>2013-03-12T12:33:47Z</time>
      </trkpt>
      <trkpt lat="43.72774" lon="7.40062">
        <ele>319.77943599677</ele>
        <time>2013-03-12T12:33:52Z</time>
      </trkpt>
      <trkpt lat="43.72774" lon="7.40062">
        <ele>319.77943599677</ele>
        <time>2013-03-12T12:33:57Z</time>
      </trkpt>
      <trkpt lat="43.72774" lon="7.40062">
        <ele>319.77943599677</ele>
        <time>2013-03-12T12:34:02Z</time>
      </trkpt>
      <trkpt lat="43.72774" lon="7.40062">
        <ele>319.77943599677</ele>
        <time>2013-03-12T12:34:07Z</time>
      </trkpt>
      <trkpt lat="43.72774" lon="7.40062">
        <ele>319.77943599677</ele>
        <time>2013-03-12T12:34:12Z</time>
      </trkpt>
      <trkpt lat="43.72774" lon="7.40062">
        <ele>319.77943599677</ele>
        <time>2013-03-12T12:34:17Z</time>
      </trkpt>
      <trkpt lat="43.72774" lon="7.40062">
        <ele>319.77943599677</ele>
        <time>2013-03-12T12:34:22Z</time>
      </trkpt>
      <trkpt lat="43.72774" lon="7.40062">
        <ele>319.77943599677</ele>
        <time>2013-03-12T12:34:27Z</time>
      </trkpt>
      <trkpt lat="43.72774" lon="7.40062">
        <ele>319.77943599677</ele>
        <time>2013-03-12T12:34:32Z</time>
      </trkpt>
      <trkpt lat="43.72774" lon="7.40062">
        <ele>319.77943599677</ele>
        <time>2013-03-12T12:34:37Z</time>
      </trkpt>
      <trkpt lat="43.72774" lon="7.40062">
        <ele>319.77943599677</ele>
        <time>2013-03-12T12:34:42Z</time>
      </trkpt>
      <trkpt lat="43.72774" lon="7.40062">
        <ele>319.77943599677</ele>
        <time>2013-03-12T12:34:47Z</time>
      </trkpt>
      <trkpt lat="43.72774" lon="7.40062">
        <ele>319.77943599677</ele>
        <time>2013-03-12T12:34:52Z</time>
      </trkpt>
      <trkpt lat="43.72774" lon="7.40062">
        <ele>319.77943599677</ele>
        <time>2013-03-12T12:34:57Z</time>
      </trkpt>
      <trkpt lat="43.72774" lon="7.40062">
        <ele>319.77943599677</ele>
        <time>2013-03-12T12:35:02Z</time>
      </trkpt>
      <trkpt lat="43.72774" lon="7.40062">
        <ele>319.77943599677</ele>
        <time>2013-03-12T12:35:07Z</time>
      </trkpt>
      <trkpt lat="43.72774" lon="7.40062">
        <ele>319.77943599677</ele>
        <time>2013-03-12T12:35:12Z</time>
      </trkpt>
      <trkpt lat="43.72774" lon="7.40062">
        <ele>319.77943599677</ele>
        <time>2013-03-12T12:35:17Z</time>
      </trkpt>
      <trkpt lat="43.72774" lon="7.40061">
        <ele>319.77943599677</ele>
        <time>2013-03-12T12:35:22Z</time>
      </trkpt>
      <trkpt lat="43.72774" lon="7.40061">
        <ele>319.77943599677</ele>
        <time>2013-03-12T12:35:27Z</time>
      </trkpt>
      <trkpt lat="43.72774" lon="7.40061">
        <ele>319.77943599677</ele>
        <time>2013-03-12T12:35:32Z</time>
      </trkpt>
      <trkpt lat="43.72774" lon="7.40061">
        <ele>319.77943599677</ele>
        <time>2013-03-12T12:35:37Z</time>
      </trkpt>
      <trkpt lat="43.72774" lon="7.40061">
        <ele>319.77943599677</ele>
        <time>2013-03-12T12:35:42Z</time>
      </trkpt>
      <trkpt lat="43.72774" lon="7.40061">
        <ele>319.77943599677</ele>
        <time>2013-03-12T12:35:47Z</time>
      </trkpt>
      <trkpt lat="43.72774" lon="7.40061">
        <ele>319.77943599677</ele>
        <time>2013-03-12T12:35:52Z</time>
      </trkpt>
      <trkpt lat="43.72774" lon="7.40061">
        <ele>319.77943599677</ele>
        <time>2013-03-12T12:35:57Z</time>
      </trkpt>
      <trkpt lat="43.72774" lon="7.40061">
        <ele>319.77943599677</ele>
        <time>2013-03-12T12:36:02Z</time>
      </trkpt>
      <trkpt lat="43.72774" lon="7.40061">
        <ele>319.77943599677</ele>
        <time>2013-03-12T12:36:07Z</time>
      </trkpt>
      <trkpt lat="43.72774" lon="7.40061">
        <ele>319.77943599677</ele>
        <time>2013-03-12T12:36:12Z</time>
      </trkpt>
      <trkpt lat="43.72774" lon="7.40061">
        <ele>319.77943599677</ele>
        <time>2013-03-12T12:36:17Z</time>
      </trkpt>
      <trkpt lat="43.72774" lon="7.40061">
        <ele>319.77943599677</ele>
        <time>2013-03-12T12:36:22Z</time>
      </trkpt>
      <trkpt lat="43.72774" lon="7.40061">
        <ele>319.77943599677</ele>
        <time>2013-03-12T12:37:00Z</time>
      </trkpt>
      <trkpt lat="43.72774" lon="7.40061">
        <ele>319.77943599677</ele>
        <time>2013-03-12T12:37:05Z</time>
      </trkpt>
      <trkpt lat="43.72774" lon="7.40061">
        <ele>319.77943599677</ele>
        <time>2013-03-12T12:37:10Z</time>
      </trkpt>
      <trkpt lat="43.72774" lon="7.40061">
        <ele>319.77943599677</ele>
        <time>2013-03-12T12:37:20Z</time>
      </trkpt>
      <trkpt lat="43.72774" lon="7.40061">
        <ele>319.77943599677</ele>
        <time>2013-03-12T12:37:25Z</time>
      </trkpt>
      <trkpt lat="43.72774" lon="7.40061">
        <ele>319.77943599677</ele>
        <time>2013-03-12T12:37:30Z</time>
      </trkpt>
      <trkpt lat="43.72774" lon="7.40061">
        <ele>319.77943599677</ele>
        <time>2013-03-12T12:37:35Z</time>
      </trkpt>
      <trkpt lat="43.72774" lon="7.40061">
        <ele>319.77943599677</ele>
        <time>2013-03-12T12:37:40Z</time>
      </trkpt>
      <trkpt lat="43.72774" lon="7.40061">
        <ele>319.77943599677</ele>
        <time>2013-03-12T12:37:45Z</time>
      </trkpt>
      <trkpt lat="43.72774" lon="7.40061">
        <ele>319.77943599677</ele>
        <time>2013-03-12T12:37:50Z</time>
      </trkpt>
      <trkpt lat="43.72774" lon="7.40061">
        <ele>319.77943599677</ele>
        <time>2013-03-12T12:38:00Z</time>
      </trkpt>
      <trkpt lat="43.72774" lon="7.40061">
        <ele>319.77943599677</ele>
        <time>2013-03-12T12:38:05Z</time>
      </trkpt>
      <trkpt lat="43.72774" lon="7.40061">
        <ele>319.77943599677</ele>
        <time>2013-03-12T12:38:10Z</time>
      </trkpt>
      <trkpt lat="43.72774" lon="7.40061">
        <ele>319.77943599677</ele>
        <time>2013-03-12T12:38:15Z</time>
      </trkpt>
      <trkpt lat="43.72774" lon="7.40061">
        <ele>319.77943599677</ele>
        <time>2013-03-12T12:38:20Z</time>
      </trkpt>
      <trkpt lat="43.72774" lon="7.40061">
        <ele>319.77943599677</ele>
        <time>2013-03-12T12:38:25Z</time>
      </trkpt>
      <trkpt lat="43.72774" lon="7.40061">
        <ele>319.77943599677</ele>
        <time>2013-03-12T12:38:30Z</time>
      </trkpt>
      <trkpt lat="43.72774" lon="7.40061">
        <ele>319.77943599677</ele>
        <time>2013-03-12T12:38:35Z</time>
      </trkpt>
      <trkpt lat="43.72774" lon="7.40061">
        <ele>319.77943599677</ele>
        <time>2013-03-12T12:38:40Z</time>
      </trkpt>
      <trkpt lat="43.72774" lon="7.40061">
        <ele>319.77943599677</ele>
        <time>2013-03-12T12:38:45Z</time>
      </trkpt>
      <trkpt lat="43.72774" lon="7.40061">
        <ele>319.77943599677</ele>
        <time>2013-03-12T12:38:50Z</time>
      </trkpt>
      <trkpt lat="43.72774" lon="7.40061">
        <ele>319.77943599677</ele>
        <time>2013-03-12T12:38:55Z</time>
      </trkpt>
      <trkpt lat="43.72774" lon="7.40061">
        <ele>319.77943599677</ele>
        <time>2013-03-12T12:39:00Z</time>
      </trkpt>
      <trkpt lat="43.72774" lon="7.40061">
        <ele>319.77943599677</ele>
        <time>2013-03-12T12:39:05Z</time>
      </trkpt>
      <trkpt lat="43.72774" lon="7.40061">
        <ele>319.77943599677</ele>
        <time>2013-03-12T12:39:10Z</time>
      </trkpt>
      <trkpt lat="43.72774" lon="7.40061">
        <ele>319.77943599677</ele>
        <time>2013-03-12T12:39:15Z</time>
      </trkpt>
      <trkpt lat="43.72774" lon="7.40061">
        <ele>319.77943599677</ele>
        <time>2013-03-12T12:39:20Z</time>
      </trkpt>
      <trkpt lat="43.72774" lon="7.40061">
        <ele>319.77943599677</ele>
        <time>2013-03-12T12:39:25Z</time>
      </trkpt>
      <trkpt lat="43.72774" lon="7.40061">
        <ele>319.77943599677</ele>
        <time>2013-03-12T12:39:30Z</time>
      </trkpt>
      <trkpt lat="43.72774" lon="7.40061">
        <ele>319.77943599677</ele>
        <time>2013-03-12T12:39:35Z</time>
      </trkpt>
      <trkpt lat="43.72774" lon="7.40061">
        <ele>319.77943599677</ele>
        <time>2013-03-12T12:39:40Z</time>
      </trkpt>
      <trkpt lat="43.72774" lon="7.40061">
        <ele>319.77943599677</ele>
        <time>2013-03-12T12:39:45Z</time>
      </trkpt>
      <trkpt lat="43.72774" lon="7.40061">
        <ele>319.77943599677</ele>
        <time>2013-03-12T12:39:50Z</time>
      </trkpt>
      <trkpt lat="43.72774" lon="7.40061">
        <ele>319.77943599677</ele>
        <time>2013-03-12T12:39:55Z</time>
      </trkpt>
      <trkpt lat="43.72774" lon="7.40061">
        <ele>319.77943599677</ele>
        <time>2013-03-12T12:40:00Z</time>
      </trkpt>
      <trkpt lat="43.72774" lon="7.40061">
        <ele>319.77943599677</ele>
        <time>2013-03-12T12:40:05Z</time>
      </trkpt>
      <trkpt lat="43.72774" lon="7.40061">
        <ele>319.77943599677</ele>
        <time>2013-03-12T12:40:10Z</time>
      </trkpt>
      <trkpt lat="43.72774" lon="7.40061">
        <ele>319.77943599677</ele>
        <time>2013-03-12T12:40:15Z</time>
      </trkpt>
      <trkpt lat="43.72774" lon="7.40061">
        <ele>319.77943599677</ele>
        <time>2013-03-12T12:40:20Z</time>
      </trkpt>
      <trkpt lat="43.72774" lon="7.40061">
        <ele>319.77943599677</ele>
        <time>2013-03-12T12:40:25Z</time>
      </trkpt>
      <trkpt lat="43.72774" lon="7.40061">
        <ele>319.77943599677</ele>
        <time>2013-03-12T12:40:30Z</time>
      </trkpt>
      <trkpt lat="43.72774" lon="7.40061">
        <ele>319.77943599677</ele>
        <time>2013-03-12T12:40:35Z</time>
      </trkpt>
      <trkpt lat="43.72774" lon="7.40061">
        <ele>319.77943599677</ele>
        <time>2013-03-12T12:40:40Z</time>
      </trkpt>
      <trkpt lat="43.72774" lon="7.40061">
        <ele>319.77943599677</ele>
        <time>2013-03-12T12:40:45Z</time>
      </trkpt>
      <trkpt lat="43.72774" lon="7.40061">
        <ele>319.77943599677</ele>
        <time>2013-03-12T12:40:50Z</time>
      </trkpt>
      <trkpt lat="43.72774" lon="7.40061">
        <ele>319.77943599677</ele>
        <time>2013-03-12T12:40:55Z</time>
      </trkpt>
      <trkpt lat="43.72774" lon="7.40061">
        <ele>319.77943599677</ele>
        <time>2013-03-12T12:41:00Z</time>
      </trkpt>
      <trkpt lat="43.72774" lon="7.40061">
        <ele>319.77943599677</ele>
        <time>2013-03-12T12:41:05Z</time>
      </trkpt>
      <trkpt lat="43.72774" lon="7.40061">
        <ele>319.77943599677</ele>
        <time>2013-03-12T12:41:10Z</time>
      </trkpt>
      <trkpt lat="43.72774" lon="7.40061">
        <ele>319.77943599677</ele>
        <time>2013-03-12T12:41:15Z</time>
      </trkpt>
      <trkpt lat="43.72774" lon="7.40061">
        <ele>319.77943599677</ele>
        <time>2013-03-12T12:41:20Z</time>
      </trkpt>
      <trkpt lat="43.72774" lon="7.40061">
        <ele>319.77943599677</ele>
        <time>2013-03-12T12:41:25Z</time>
      </trkpt>
      <trkpt lat="43.72774" lon="7.40061">
        <ele>319.77943599677</ele>
        <time>2013-03-12T12:41:30Z</time>
      </trkpt>
      <trkpt lat="43.72774" lon="7.40061">
        <ele>319.77943599677</ele>
        <time>2013-03-12T12:41:35Z</time>
      </trkpt>
      <trkpt lat="43.72774" lon="7.40061">
        <ele>319.77943599677</ele>
        <time>2013-03-12T12:41:40Z</time>
      </trkpt>
      <trkpt lat="43.72774" lon="7.40061">
        <ele>319.77943599677</ele>
        <time>2013-03-12T12:41:45Z</time>
      </trkpt>
      <trkpt lat="43.72774" lon="7.40061">
        <ele>319.77943599677</ele>
        <time>2013-03-12T12:41:50Z</time>
      </trkpt>
      <trkpt lat="43.72774" lon="7.40061">
        <ele>319.77943599677</ele>
        <time>2013-03-12T12:41:55Z</time>
      </trkpt>
      <trkpt lat="43.72774" lon="7.40061">
        <ele>319.77943599677</ele>
        <time>2013-03-12T12:42:00Z</time>
      </trkpt>
      <trkpt lat="43.72774" lon="7.40061">
        <ele>319.77943599677</ele>
        <time>2013-03-12T12:42:05Z</time>
      </trkpt>
      <trkpt lat="43.72774" lon="7.40061">
        <ele>319.77943599677</ele>
        <time>2013-03-12T12:42:10Z</time>
      </trkpt>
      <trkpt lat="43.72774" lon="7.40061">
        <ele>319.77943599677</ele>
        <time>2013-03-12T12:42:15Z</time>
      </trkpt>
      <trkpt lat="43.72774" lon="7.40061">
        <ele>319.77943599677</ele>
        <time>2013-03-12T12:42:20Z</time>
      </trkpt>
      <trkpt lat="43.72774" lon="7.40061">
        <ele>319.77943599677</ele>
        <time>2013-03-12T12:42:25Z</time>
      </trkpt>
      <trkpt lat="43.72774" lon="7.40061">
        <ele>319.77943599677</ele>
        <time>2013-03-12T12:42:30Z</time>
      </trkpt>
      <trkpt lat="43.72774" lon="7.40061">
        <ele>319.77943599677</ele>
        <time>2013-03-12T12:42:35Z</time>
      </trkpt>
      <trkpt lat="43.72774" lon="7.40061">
        <ele>319.77943599677</ele>
        <time>2013-03-12T12:42:45Z</time>
      </trkpt>
      <trkpt lat="43.72774" lon="7.40061">
        <ele>319.77943599677</ele>
        <time>2013-03-12T12:42:50Z</time>
      </trkpt>
      <trkpt lat="43.72774" lon="7.40061">
        <ele>319.77943599677</ele>
        <time>2013-03-12T12:42:55Z</time>
      </trkpt>
      <trkpt lat="43.72774" lon="7.40061">
        <ele>319.77943599677</ele>
        <time>2013-03-12T12:43:00Z</time>
      </trkpt>
      <trkpt lat="43.72774" lon="7.40061">
        <ele>319.77943599677</ele>
        <time>2013-03-12T12:43:05Z</time>
      </trkpt>
      <trkpt lat="43.72774" lon="7.40061">
        <ele>319.77943599677</ele>
        <time>2013-03-12T12:43:10Z</time>
      </trkpt>
      <trkpt lat="43.72774" lon="7.40061">
        <ele>319.77943599677</ele>
        <time>2013-03-12T12:43:15Z</time>
      </trkpt>
      <trkpt lat="43.72774" lon="7.40061">
        <ele>319.77943599677</ele>
        <time>2013-03-12T12:43:20Z</time>
      </trkpt>
      <trkpt lat="43.72774" lon="7.40061">
        <ele>319.77943599677</ele>
        <time>2013-03-12T12:43:25Z</time>
      </trkpt>
      <trkpt lat="43.72773" lon="7.40046">
        <ele>317.09728821781</ele>
        <time>2013-03-12T13:07:05Z</time>
      </trkpt>
      <trkpt lat="43.72774" lon="7.40047">
        <ele>314.41514043884</ele>
        <time>2013-03-12T13:07:10Z</time>
      </trkpt>
      <trkpt lat="43.72775" lon="7.40048">
        <ele>314.41514043884</ele>
        <time>2013-03-12T13:07:20Z</time>
      </trkpt>
      <trkpt lat="43.72776" lon="7.40048">
        <ele>314.41514043884</ele>
        <time>2013-03-12T13:07:25Z</time>
      </trkpt>
      <trkpt lat="43.72776" lon="7.40049">
        <ele>314.41514043884</ele>
        <time>2013-03-12T13:07:30Z</time>
      </trkpt>
      <trkpt lat="43.72776" lon="7.40049">
        <ele>314.41514043884</ele>
        <time>2013-03-12T13:07:35Z</time>
      </trkpt>
      <trkpt lat="43.72775" lon="7.40048">
        <ele>314.41514043884</ele>
        <time>2013-03-12T13:07:40Z</time>
      </trkpt>
      <trkpt lat="43.72775" lon="7.40048">
        <ele>314.41514043884</ele>
        <time>2013-03-12T13:07:45Z</time>
      </trkpt>
      <trkpt lat="43.72775" lon="7.40048">
        <ele>314.41514043884</ele>
        <time>2013-03-12T13:07:50Z</time>
      </trkpt>
      <trkpt lat="43.72775" lon="7.40048">
        <ele>314.41514043884</ele>
        <time>2013-03-12T13:07:55Z</time>
      </trkpt>
      <trkpt lat="43.72775" lon="7.40048">
        <ele>314.41514043884</ele>
        <time>2013-03-12T13:08:00Z</time>
      </trkpt>
      <trkpt lat="43.72782" lon="7.4005">
        <ele>310.21152960425</ele>
        <time>2013-03-12T13:08:05Z</time>
      </trkpt>
      <trkpt lat="43.7277" lon="7.40049">
        <ele>304.79968942553</ele>
        <time>2013-03-12T13:08:10Z</time>
      </trkpt>
      <trkpt lat="43.72771" lon="7.40049">
        <ele>304.79968942553</ele>
        <time>2013-03-12T13:08:15Z</time>
      </trkpt>
      <trkpt lat="43.72771" lon="7.40049">
        <ele>304.79968942553</ele>
        <time>2013-03-12T13:08:20Z</time>
      </trkpt>
      <trkpt lat="43.72771" lon="7.40049">
        <ele>304.79968942553</ele>
        <time>2013-03-12T13:08:25Z</time>
      </trkpt>
      <trkpt lat="43.72771" lon="7.40049">
        <ele>304.79968942553</ele>
        <time>2013-03-12T13:08:30Z</time>
      </trkpt>
      <trkpt lat="43.72771" lon="7.40049">
        <ele>304.79968942553</ele>
        <time>2013-03-12T13:08:35Z</time>
      </trkpt>
      <trkpt lat="43.72771" lon="7.40049">
        <ele>304.79968942553</ele>
        <time>2013-03-12T13:08:40Z</time>
      </trkpt>
      <trkpt lat="43.72771" lon="7.40049">
        <ele>304.79968942553</ele>
        <time>2013-03-12T13:08:45Z</time>
      </trkpt>
      <trkpt lat="43.72771" lon="7.40049">
        <ele>304.79968942553</ele>
        <time>2013-03-12T13:08:50Z</time>
      </trkpt>
      <trkpt lat="43.72771" lon="7.40049">
        <ele>304.79968942553</ele>
        <time>2013-03-12T13:08:55Z</time>
      </trkpt>
      <trkpt lat="43.72773" lon="7.40048">
        <ele>304.79968942553</ele>
        <time>2013-03-12T13:09:00Z</time>
      </trkpt>
      <trkpt lat="43.72772" lon="7.40047">
        <ele>304.79968942553</ele>
        <time>2013-03-12T13:09:05Z</time>
      </trkpt>
      <trkpt lat="43.72772" lon="7.40046">
        <ele>304.79968942553</ele>
        <time>2013-03-12T13:09:10Z</time>
      </trkpt>
      <trkpt lat="43.72772" lon="7.40045">
        <ele>304.79968942553</ele>
        <time>2013-03-12T13:09:15Z</time>
      </trkpt>
      <trkpt lat="43.72772" lon="7.40045">
        <ele>304.79968942553</ele>
        <time>2013-03-12T13:09:20Z</time>
      </trkpt>
      <trkpt lat="43.72772" lon="7.40045">
        <ele>304.79968942553</ele>
        <time>2013-03-12T13:10:05Z</time>
      </trkpt>
      <trkpt lat="43.72772" lon="7.40045">
        <ele>304.79968942553</ele>
        <time>2013-03-12T13:10:10Z</time>
      </trkpt>
      <trkpt lat="43.72772" lon="7.40045">
        <ele>304.79968942553</ele>
        <time>2013-03-12T13:10:15Z</time>
      </trkpt>
      <trkpt lat="43.72772" lon="7.40045">
        <ele>304.79968942553</ele>
        <time>2013-03-12T13:10:20Z</time>
      </trkpt>
      <trkpt lat="43.72772" lon="7.40045">
        <ele>304.79968942553</ele>
        <time>2013-03-12T13:10:25Z</time>
      </trkpt>
      <trkpt lat="43.72772" lon="7.40045">
        <ele>304.79968942553</ele>
        <time>2013-03-12T13:10:30Z</time>
      </trkpt>
      <trkpt lat="43.72772" lon="7.40045">
        <ele>304.79968942553</ele>
        <time>2013-03-12T13:10:35Z</time>
      </trkpt>
      <trkpt lat="43.72772" lon="7.40045">
        <ele>304.79968942553</ele>
        <time>2013-03-12T13:10:40Z</time>
      </trkpt>
      <trkpt lat="43.72772" lon="7.40045">
        <ele>304.79968942553</ele>
        <time>2013-03-12T13:10:45Z</time>
      </trkpt>
      <trkpt lat="43.72772" lon="7.40045">
        <ele>304.79968942553</ele>
        <time>2013-03-12T13:10:50Z</time>
      </trkpt>
      <trkpt lat="43.72772" lon="7.40045">
        <ele>304.79968942553</ele>
        <time>2013-03-12T13:10:55Z</time>
      </trkpt>
      <trkpt lat="43.72772" lon="7.40045">
        <ele>304.79968942553</ele>
        <time>2013-03-12T13:11:00Z</time>
      </trkpt>
      <trkpt lat="43.72772" lon="7.40045">
        <ele>304.79968942553</ele>
        <time>2013-03-12T13:11:05Z</time>
      </trkpt>
      <trkpt lat="43.72772" lon="7.40045">
        <ele>304.79968942553</ele>
        <time>2013-03-12T13:11:10Z</time>
      </trkpt>
      <trkpt lat="43.72773" lon="7.40044">
        <ele>304.79968942553</ele>
        <time>2013-03-12T13:11:15Z</time>
      </trkpt>
      <trkpt lat="43.7278" lon="7.4003">
        <ele>299.70619543765</ele>
        <time>2013-03-12T13:11:20Z</time>
      </trkpt>
      <trkpt lat="43.72782" lon="7.40023">
        <ele>299.70619543765</ele>
        <time>2013-03-12T13:11:25Z</time>
      </trkpt>
      <trkpt lat="43.72783" lon="7.40015">
        <ele>295.72489454021</ele>
        <time>2013-03-12T13:11:30Z</time>
      </trkpt>
      <trkpt lat="43.72782" lon="7.4001">
        <ele>295.72489454021</ele>
        <time>2013-03-12T13:11:35Z</time>
      </trkpt>
      <trkpt lat="43.72787" lon="7.40005">
        <ele>292.16145637169</ele>
        <time>2013-03-12T13:11:40Z</time>
      </trkpt>
      <trkpt lat="43.72791" lon="7.4">
        <ele>292.16145637169</ele>
        <time>2013-03-12T13:11:45Z</time>
      </trkpt>
      <trkpt lat="43.72792" lon="7.39995">
        <ele>288.94776649485</ele>
        <time>2013-03-12T13:11:50Z</time>
      </trkpt>
      <trkpt lat="43.72796" lon="7.39989">
        <ele>288.94776649485</ele>
        <time>2013-03-12T13:11:55Z</time>
      </trkpt>
      <trkpt lat="43.72802" lon="7.39985">
        <ele>286.06289054713</ele>
        <time>2013-03-12T13:12:00Z</time>
      </trkpt>
      <trkpt lat="43.72804" lon="7.3998">
        <ele>286.06289054713</ele>
        <time>2013-03-12T13:12:05Z</time>
      </trkpt>
      <trkpt lat="43.72802" lon="7.39981">
        <ele>286.06289054713</ele>
        <time>2013-03-12T13:12:10Z</time>
      </trkpt>
      <trkpt lat="43.72807" lon="7.39978">
        <ele>283.88993695391</ele>
        <time>2013-03-12T13:12:15Z</time>
      </trkpt>
      <trkpt lat="43.72807" lon="7.39973">
        <ele>283.88993695391</ele>
        <time>2013-03-12T13:12:20Z</time>
      </trkpt>
      <trkpt lat="43.72809" lon="7.39968">
        <ele>283.88993695391</ele>
        <time>2013-03-12T13:12:25Z</time>
      </trkpt>
      <trkpt lat="43.72812" lon="7.39962">
        <ele>282.27739773509</ele>
        <time>2013-03-12T13:12:30Z</time>
      </trkpt>
      <trkpt lat="43.72813" lon="7.39955">
        <ele>282.27739773509</ele>
        <time>2013-03-12T13:12:35Z</time>
      </trkpt>
      <trkpt lat="43.72814" lon="7.39951">
        <ele>282.27739773509</ele>
        <time>2013-03-12T13:12:40Z</time>
      </trkpt>
      <trkpt lat="43.72816" lon="7.39947">
        <ele>281.37145928212</ele>
        <time>2013-03-12T13:12:45Z</time>
      </trkpt>
      <trkpt lat="43.72818" lon="7.39943">
        <ele>281.37145928212</ele>
        <time>2013-03-12T13:12:50Z</time>
      </trkpt>
      <trkpt lat="43.7282" lon="7.39938">
        <ele>281.37145928212</ele>
        <time>2013-03-12T13:12:55Z</time>
      </trkpt>
      <trkpt lat="43.72819" lon="7.39932">
        <ele>280.51289596541</ele>
        <time>2013-03-12T13:13:00Z</time>
      </trkpt>
      <trkpt lat="43.72825" lon="7.39927">
        <ele>280.51289596541</ele>
        <time>2013-03-12T13:13:05Z</time>
      </trkpt>
      <trkpt lat="43.72826" lon="7.39921">
        <ele>279.86890593612</ele>
        <time>2013-03-12T13:13:10Z</time>
      </trkpt>
      <trkpt lat="43.72829" lon="7.39915">
        <ele>279.86890593612</ele>
        <time>2013-03-12T13:13:15Z</time>
      </trkpt>
      <trkpt lat="43.72828" lon="7.39909">
        <ele>279.36316725585</ele>
        <time>2013-03-12T13:13:20Z</time>
      </trkpt>
      <trkpt lat="43.7283" lon="7.39903">
        <ele>279.36316725585</ele>
        <time>2013-03-12T13:13:25Z</time>
      </trkpt>
      <trkpt lat="43.72831" lon="7.39898">
        <ele>279.36316725585</ele>
        <time>2013-03-12T13:13:30Z</time>
      </trkpt>
      <trkpt lat="43.72831" lon="7.39895">
        <ele>278.80924258105</ele>
        <time>2013-03-12T13:13:35Z</time>
      </trkpt>
      <trkpt lat="43.72833" lon="7.39886">
        <ele>278.80924258105</ele>
        <time>2013-03-12T13:13:40Z</time>
      </trkpt>
      <trkpt lat="43.72833" lon="7.39881">
        <ele>278.19301497106</ele>
        <time>2013-03-12T13:13:45Z</time>
      </trkpt>
      <trkpt lat="43.72837" lon="7.39872">
        <ele>278.19301497106</ele>
        <time>2013-03-12T13:13:50Z</time>
      </trkpt>
      <trkpt lat="43.72838" lon="7.39869">
        <ele>278.03477085592</ele>
        <time>2013-03-12T13:13:55Z</time>
      </trkpt>
      <trkpt lat="43.7284" lon="7.39861">
        <ele>278.03477085592</ele>
        <time>2013-03-12T13:14:00Z</time>
      </trkpt>
      <trkpt lat="43.72842" lon="7.39854">
        <ele>277.93620673702</ele>
        <time>2013-03-12T13:14:05Z</time>
      </trkpt>
      <trkpt lat="43.72842" lon="7.39847">
        <ele>277.93620673702</ele>
        <time>2013-03-12T13:14:10Z</time>
      </trkpt>
      <trkpt lat="43.72845" lon="7.39844">
        <ele>277.93620673702</ele>
        <time>2013-03-12T13:14:15Z</time>
      </trkpt>
      <trkpt lat="43.72842" lon="7.39835">
        <ele>277.87398313726</ele>
        <time>2013-03-12T13:14:20Z</time>
      </trkpt>
      <trkpt lat="43.72844" lon="7.39828">
        <ele>277.87398313726</ele>
        <time>2013-03-12T13:14:25Z</time>
      </trkpt>
      <trkpt lat="43.72842" lon="7.39823">
        <ele>278.01373612878</ele>
        <time>2013-03-12T13:14:30Z</time>
      </trkpt>
      <trkpt lat="43.72844" lon="7.39817">
        <ele>278.01373612878</ele>
        <time>2013-03-12T13:14:35Z</time>
      </trkpt>
      <trkpt lat="43.72842" lon="7.39811">
        <ele>278.01373612878</ele>
        <time>2013-03-12T13:14:40Z</time>
      </trkpt>
      <trkpt lat="43.72841" lon="7.39805">
        <ele>278.13371007343</ele>
        <time>2013-03-12T13:14:45Z</time>
      </trkpt>
      <trkpt lat="43.72839" lon="7.39798">
        <ele>278.13371007343</ele>
        <time>2013-03-12T13:14:50Z</time>
      </trkpt>
      <trkpt lat="43.72837" lon="7.39798">
        <ele>278.13371007343</ele>
        <time>2013-03-12T13:14:55Z</time>
      </trkpt>
      <trkpt lat="43.72838" lon="7.3979">
        <ele>278.50410603597</ele>
        <time>2013-03-12T13:15:00Z</time>
      </trkpt>
      <trkpt lat="43.72841" lon="7.39779">
        <ele>278.50410603597</ele>
        <time>2013-03-12T13:15:05Z</time>
      </trkpt>
      <trkpt lat="43.72841" lon="7.39772">
        <ele>278.69730780504</ele>
        <time>2013-03-12T13:15:10Z</time>
      </trkpt>
      <trkpt lat="43.72841" lon="7.39764">
        <ele>278.69730780504</ele>
        <time>2013-03-12T13:15:15Z</time>
      </trkpt>
      <trkpt lat="43.72842" lon="7.39757">
        <ele>279.03823290983</ele>
        <time>2013-03-12T13:15:20Z</time>
      </trkpt>
      <trkpt lat="43.7284" lon="7.39751">
        <ele>279.03823290983</ele>
        <time>2013-03-12T13:15:25Z</time>
      </trkpt>
      <trkpt lat="43.7284" lon="7.39745">
        <ele>279.03823290983</ele>
        <time>2013-03-12T13:15:30Z</time>
      </trkpt>
      <trkpt lat="43.7284" lon="7.39737">
        <ele>279.58260704177</ele>
        <time>2013-03-12T13:15:35Z</time>
      </trkpt>
      <trkpt lat="43.72839" lon="7.39729">
        <ele>279.58260704177</ele>
        <time>2013-03-12T13:15:40Z</time>
      </trkpt>
      <trkpt lat="43.72838" lon="7.39725">
        <ele>279.58260704177</ele>
        <time>2013-03-12T13:15:45Z</time>
      </trkpt>
      <trkpt lat="43.72839" lon="7.39718">
        <ele>280.22306013367</ele>
        <time>2013-03-12T13:15:50Z</time>
      </trkpt>
      <trkpt lat="43.72834" lon="7.39711">
        <ele>280.22306013367</ele>
        <time>2013-03-12T13:15:55Z</time>
      </trkpt>
      <trkpt lat="43.72834" lon="7.39704">
        <ele>280.80229671033</ele>
        <time>2013-03-12T13:16:00Z</time>
      </trkpt>
      <trkpt lat="43.72834" lon="7.39696">
        <ele>280.80229671033</ele>
        <time>2013-03-12T13:16:05Z</time>
      </trkpt>
      <trkpt lat="43.72834" lon="7.39688">
        <ele>281.46308161353</ele>
        <time>2013-03-12T13:16:10Z</time>
      </trkpt>
      <trkpt lat="43.72832" lon="7.39682">
        <ele>281.46308161353</ele>
        <time>2013-03-12T13:16:15Z</time>
      </trkpt>
      <trkpt lat="43.72831" lon="7.39679">
        <ele>281.46308161353</ele>
        <time>2013-03-12T13:16:20Z</time>
      </trkpt>
      <trkpt lat="43.72832" lon="7.39672">
        <ele>282.27994023416</ele>
        <time>2013-03-12T13:16:25Z</time>
      </trkpt>
      <trkpt lat="43.72832" lon="7.39664">
        <ele>282.27994023416</ele>
        <time>2013-03-12T13:16:30Z</time>
      </trkpt>
      <trkpt lat="43.72835" lon="7.39658">
        <ele>283.33602733232</ele>
        <time>2013-03-12T13:16:35Z</time>
      </trkpt>
      <trkpt lat="43.72836" lon="7.39648">
        <ele>283.33602733232</ele>
        <time>2013-03-12T13:16:40Z</time>
      </trkpt>
      <trkpt lat="43.72834" lon="7.39642">
        <ele>284.18905726224</ele>
        <time>2013-03-12T13:16:45Z</time>
      </trkpt>
      <trkpt lat="43.72832" lon="7.39633">
        <ele>284.18905726224</ele>
        <time>2013-03-12T13:16:50Z</time>
      </trkpt>
      <trkpt lat="43.72829" lon="7.39628">
        <ele>284.94875177178</ele>
        <time>2013-03-12T13:16:55Z</time>
      </trkpt>
      <trkpt lat="43.7283" lon="7.39623">
        <ele>284.94875177178</ele>
        <time>2013-03-12T13:17:00Z</time>
      </trkpt>
      <trkpt lat="43.72829" lon="7.39616">
        <ele>286.07746761643</ele>
        <time>2013-03-12T13:17:05Z</time>
      </trkpt>
      <trkpt lat="43.72827" lon="7.39608">
        <ele>286.07746761643</ele>
        <time>2013-03-12T13:17:10Z</time>
      </trkpt>
      <trkpt lat="43.72824" lon="7.39604">
        <ele>287.10923482792</ele>
        <time>2013-03-12T13:17:15Z</time>
      </trkpt>
      <trkpt lat="43.72822" lon="7.39596">
        <ele>287.10923482792</ele>
        <time>2013-03-12T13:17:20Z</time>
      </trkpt>
      <trkpt lat="43.72821" lon="7.39593">
        <ele>287.10923482792</ele>
        <time>2013-03-12T13:17:25Z</time>
      </trkpt>
      <trkpt lat="43.72821" lon="7.39591">
        <ele>287.98744221184</ele>
        <time>2013-03-12T13:17:30Z</time>
      </trkpt>
      <trkpt lat="43.7282" lon="7.3959">
        <ele>287.98744221184</ele>
        <time>2013-03-12T13:17:35Z</time>
      </trkpt>
      <trkpt lat="43.7282" lon="7.3959">
        <ele>287.98744221184</ele>
        <time>2013-03-12T13:17:40Z</time>
      </trkpt>
      <trkpt lat="43.7282" lon="7.39588">
        <ele>287.98744221184</ele>
        <time>2013-03-12T13:17:45Z</time>
      </trkpt>
      <trkpt lat="43.72819" lon="7.39585">
        <ele>287.98744221184</ele>
        <time>2013-03-12T13:17:50Z</time>
      </trkpt>
      <trkpt lat="43.72819" lon="7.39582">
        <ele>287.98744221184</ele>
        <time>2013-03-12T13:17:55Z</time>
      </trkpt>
      <trkpt lat="43.72819" lon="7.39581">
        <ele>287.98744221184</ele>
        <time>2013-03-12T13:18:00Z</time>
      </trkpt>
      <trkpt lat="43.72819" lon="7.3958">
        <ele>287.98744221184</ele>
        <time>2013-03-12T13:18:05Z</time>
      </trkpt>
      <trkpt lat="43.72813" lon="7.39558">
        <ele>288.99169674636</ele>
        <time>2013-03-12T13:18:10Z</time>
      </trkpt>
      <trkpt lat="43.72808" lon="7.39539">
        <ele>289.9485559819</ele>
        <time>2013-03-12T13:18:15Z</time>
      </trkpt>
      <trkpt lat="43.72804" lon="7.39529">
        <ele>289.9485559819</ele>
        <time>2013-03-12T13:18:20Z</time>
      </trkpt>
      <trkpt lat="43.72799" lon="7.39518">
        <ele>290.53910916316</ele>
        <time>2013-03-12T13:18:25Z</time>
      </trkpt>
      <trkpt lat="43.72791" lon="7.39512">
        <ele>290.93023686748</ele>
        <time>2013-03-12T13:18:30Z</time>
      </trkpt>
      <trkpt lat="43.72785" lon="7.39502">
        <ele>291.11877794312</ele>
        <time>2013-03-12T13:18:35Z</time>
      </trkpt>
      <trkpt lat="43.7278" lon="7.39496">
        <ele>291.11877794312</ele>
        <time>2013-03-12T13:18:40Z</time>
      </trkpt>
      <trkpt lat="43.72778" lon="7.39487">
        <ele>291.60693852984</ele>
        <time>2013-03-12T13:18:45Z</time>
      </trkpt>
      <trkpt lat="43.72772" lon="7.39482">
        <ele>291.60693852984</ele>
        <time>2013-03-12T13:18:50Z</time>
      </trkpt>
      <trkpt lat="43.72767" lon="7.39476">
        <ele>292.02352162025</ele>
        <time>2013-03-12T13:18:55Z</time>
      </trkpt>
      <trkpt lat="43.72761" lon="7.39468">
        <ele>292.02352162025</ele>
        <time>2013-03-12T13:19:00Z</time>
      </trkpt>
      <trkpt lat="43.72759" lon="7.3946">
        <ele>292.24113506565</ele>
        <time>2013-03-12T13:19:05Z</time>
      </trkpt>
      <trkpt lat="43.72755" lon="7.39451">
        <ele>292.24113506565</ele>
        <time>2013-03-12T13:19:10Z</time>
      </trkpt>
      <trkpt lat="43.72751" lon="7.39443">
        <ele>291.8686554252</ele>
        <time>2013-03-12T13:19:15Z</time>
      </trkpt>
      <trkpt lat="43.72748" lon="7.39436">
        <ele>291.8686554252</ele>
        <time>2013-03-12T13:19:20Z</time>
      </trkpt>
      <trkpt lat="43.72748" lon="7.39433">
        <ele>291.8686554252</ele>
        <time>2013-03-12T13:19:25Z</time>
      </trkpt>
      <trkpt lat="43.72747" lon="7.39432">
        <ele>291.30929201678</ele>
        <time>2013-03-12T13:19:30Z</time>
      </trkpt>
      <trkpt lat="43.72747" lon="7.39431">
        <ele>291.30929201678</ele>
        <time>2013-03-12T13:19:35Z</time>
      </trkpt>
      <trkpt lat="43.72743" lon="7.39419">
        <ele>290.807606446</ele>
        <time>2013-03-12T13:19:40Z</time>
      </trkpt>
      <trkpt lat="43.7274" lon="7.39409">
        <ele>290.807606446</ele>
        <time>2013-03-12T13:19:45Z</time>
      </trkpt>
      <trkpt lat="43.72738" lon="7.39399">
        <ele>290.07136972736</ele>
        <time>2013-03-12T13:19:50Z</time>
      </trkpt>
      <trkpt lat="43.72735" lon="7.39392">
        <ele>290.07136972736</ele>
        <time>2013-03-12T13:19:55Z</time>
      </trkpt>
      <trkpt lat="43.72733" lon="7.39381">
        <ele>289.39263645522</ele>
        <time>2013-03-12T13:20:00Z</time>
      </trkpt>
      <trkpt lat="43.72732" lon="7.3938">
        <ele>289.39263645522</ele>
        <time>2013-03-12T13:20:05Z</time>
      </trkpt>
      <trkpt lat="43.72732" lon="7.39379">
        <ele>289.39263645522</ele>
        <time>2013-03-12T13:20:10Z</time>
      </trkpt>
      <trkpt lat="43.72727" lon="7.39369">
        <ele>288.92667054424</ele>
        <time>2013-03-12T13:20:15Z</time>
      </trkpt>
      <trkpt lat="43.72726" lon="7.39357">
        <ele>288.92667054424</ele>
        <time>2013-03-12T13:20:20Z</time>
      </trkpt>
      <trkpt lat="43.72721" lon="7.3935">
        <ele>288.25480244352</ele>
        <time>2013-03-12T13:20:25Z</time>
      </trkpt>
      <trkpt lat="43.72718" lon="7.39343">
        <ele>288.25480244352</ele>
        <time>2013-03-12T13:20:30Z</time>
      </trkpt>
      <trkpt lat="43.72717" lon="7.39334">
        <ele>287.50858739035</ele>
        <time>2013-03-12T13:20:35Z</time>
      </trkpt>
      <trkpt lat="43.72714" lon="7.39326">
        <ele>287.50858739035</ele>
        <time>2013-03-12T13:20:40Z</time>
      </trkpt>
      <trkpt lat="43.72711" lon="7.39315">
        <ele>286.76697335115</ele>
        <time>2013-03-12T13:20:45Z</time>
      </trkpt>
      <trkpt lat="43.7271" lon="7.39306">
        <ele>286.76697335115</ele>
        <time>2013-03-12T13:20:50Z</time>
      </trkpt>
      <trkpt lat="43.72709" lon="7.39299">
        <ele>286.21845666669</ele>
        <time>2013-03-12T13:20:55Z</time>
      </trkpt>
      <trkpt lat="43.72708" lon="7.39292">
        <ele>286.21845666669</ele>
        <time>2013-03-12T13:21:00Z</time>
      </trkpt>
      <trkpt lat="43.72707" lon="7.39284">
        <ele>285.66251862145</ele>
        <time>2013-03-12T13:21:05Z</time>
      </trkpt>
      <trkpt lat="43.72705" lon="7.39275">
        <ele>285.66251862145</ele>
        <time>2013-03-12T13:21:10Z</time>
      </trkpt>
      <trkpt lat="43.72704" lon="7.39266">
        <ele>285.08637867204</ele>
        <time>2013-03-12T13:21:15Z</time>
      </trkpt>
      <trkpt lat="43.72705" lon="7.39262">
        <ele>285.08637867204</ele>
        <time>2013-03-12T13:21:20Z</time>
      </trkpt>
      <trkpt lat="43.72705" lon="7.39261">
        <ele>285.08637867204</ele>
        <time>2013-03-12T13:21:25Z</time>
      </trkpt>
      <trkpt lat="43.72705" lon="7.3926">
        <ele>285.08637867204</ele>
        <time>2013-03-12T13:21:30Z</time>
      </trkpt>
      <trkpt lat="43.72703" lon="7.39248">
        <ele>284.47829800987</ele>
        <time>2013-03-12T13:21:35Z</time>
      </trkpt>
      <trkpt lat="43.72703" lon="7.39242">
        <ele>284.47829800987</ele>
        <time>2013-03-12T13:21:40Z</time>
      </trkpt>
      <trkpt lat="43.72701" lon="7.3924">
        <ele>284.47829800987</ele>
        <time>2013-03-12T13:21:45Z</time>
      </trkpt>
      <trkpt lat="43.72701" lon="7.39238">
        <ele>284.47829800987</ele>
        <time>2013-03-12T13:21:50Z</time>
      </trkpt>
      <trkpt lat="43.72704" lon="7.39236">
        <ele>283.45283906782</ele>
        <time>2013-03-12T13:21:55Z</time>
      </trkpt>
      <trkpt lat="43.72707" lon="7.39227">
        <ele>283.45283906782</ele>
        <time>2013-03-12T13:22:00Z</time>
      </trkpt>
      <trkpt lat="43.7271" lon="7.3922">
        <ele>282.0864123587</ele>
        <time>2013-03-12T13:22:05Z</time>
      </trkpt>
      <trkpt lat="43.72707" lon="7.39214">
        <ele>282.0864123587</ele>
        <time>2013-03-12T13:22:10Z</time>
      </trkpt>
      <trkpt lat="43.72709" lon="7.39205">
        <ele>280.9840038199</ele>
        <time>2013-03-12T13:22:15Z</time>
      </trkpt>
      <trkpt lat="43.72709" lon="7.39197">
        <ele>280.9840038199</ele>
        <time>2013-03-12T13:22:20Z</time>
      </trkpt>
      <trkpt lat="43.72711" lon="7.39191">
        <ele>279.88399422225</ele>
        <time>2013-03-12T13:22:25Z</time>
      </trkpt>
      <trkpt lat="43.7271" lon="7.39183">
        <ele>279.88399422225</ele>
        <time>2013-03-12T13:22:30Z</time>
      </trkpt>
      <trkpt lat="43.72706" lon="7.39179">
        <ele>278.91866668948</ele>
        <time>2013-03-12T13:22:35Z</time>
      </trkpt>
      <trkpt lat="43.72706" lon="7.39177">
        <ele>278.91866668948</ele>
        <time>2013-03-12T13:22:40Z</time>
      </trkpt>
      <trkpt lat="43.72707" lon="7.39174">
        <ele>278.91866668948</ele>
        <time>2013-03-12T13:22:45Z</time>
      </trkpt>
      <trkpt lat="43.72707" lon="7.39173">
        <ele>278.91866668948</ele>
        <time>2013-03-12T13:22:50Z</time>
      </trkpt>
      <trkpt lat="43.72707" lon="7.39173">
        <ele>278.91866668948</ele>
        <time>2013-03-12T13:22:55Z</time>
      </trkpt>
      <trkpt lat="43.72707" lon="7.39173">
        <ele>278.91866668948</ele>
        <time>2013-03-12T13:23:00Z</time>
      </trkpt>
      <trkpt lat="43.72707" lon="7.39173">
        <ele>278.91866668948</ele>
        <time>2013-03-12T13:23:05Z</time>
      </trkpt>
      <trkpt lat="43.72707" lon="7.39173">
        <ele>278.91866668948</ele>
        <time>2013-03-12T13:23:10Z</time>
      </trkpt>
      <trkpt lat="43.72707" lon="7.39173">
        <ele>278.91866668948</ele>
        <time>2013-03-12T13:23:15Z</time>
      </trkpt>
      <trkpt lat="43.72707" lon="7.39173">
        <ele>278.91866668948</ele>
        <time>2013-03-12T13:23:20Z</time>
      </trkpt>
      <trkpt lat="43.72707" lon="7.39173">
        <ele>278.91866668948</ele>
        <time>2013-03-12T13:23:25Z</time>
      </trkpt>
      <trkpt lat="43.72707" lon="7.39173">
        <ele>278.91866668948</ele>
        <time>2013-03-12T13:23:30Z</time>
      </trkpt>
      <trkpt lat="43.72707" lon="7.39173">
        <ele>278.91866668948</ele>
        <time>2013-03-12T13:23:35Z</time>
      </trkpt>
      <trkpt lat="43.72707" lon="7.39173">
        <ele>278.91866668948</ele>
        <time>2013-03-12T13:23:40Z</time>
      </trkpt>
      <trkpt lat="43.72707" lon="7.39173">
        <ele>278.91866668948</ele>
        <time>2013-03-12T13:23:45Z</time>
      </trkpt>
      <trkpt lat="43.72707" lon="7.39173">
        <ele>278.91866668948</ele>
        <time>2013-03-12T13:23:50Z</time>
      </trkpt>
      <trkpt lat="43.72707" lon="7.39173">
        <ele>278.91866668948</ele>
        <time>2013-03-12T13:23:55Z</time>
      </trkpt>
      <trkpt lat="43.72703" lon="7.39171">
        <ele>278.21020275532</ele>
        <time>2013-03-12T13:24:00Z</time>
      </trkpt>
      <trkpt lat="43.72696" lon="7.39169">
        <ele>278.21020275532</ele>
        <time>2013-03-12T13:24:05Z</time>
      </trkpt>
      <trkpt lat="43.72693" lon="7.39171">
        <ele>277.72696452148</ele>
        <time>2013-03-12T13:24:10Z</time>
      </trkpt>
      <trkpt lat="43.72691" lon="7.39176">
        <ele>277.72696452148</ele>
        <time>2013-03-12T13:24:15Z</time>
      </trkpt>
      <trkpt lat="43.72691" lon="7.39182">
        <ele>277.72696452148</ele>
        <time>2013-03-12T13:24:20Z</time>
      </trkpt>
      <trkpt lat="43.72694" lon="7.39184">
        <ele>277.23723403673</ele>
        <time>2013-03-12T13:24:25Z</time>
      </trkpt>
      <trkpt lat="43.72693" lon="7.39188">
        <ele>277.23723403673</ele>
        <time>2013-03-12T13:24:30Z</time>
      </trkpt>
      <trkpt lat="43.72692" lon="7.39191">
        <ele>277.23723403673</ele>
        <time>2013-03-12T13:24:35Z</time>
      </trkpt>
      <trkpt lat="43.72694" lon="7.39189">
        <ele>277.23723403673</ele>
        <time>2013-03-12T13:24:40Z</time>
      </trkpt>
      <trkpt lat="43.72694" lon="7.3919">
        <ele>277.15317632059</ele>
        <time>2013-03-12T13:24:45Z</time>
      </trkpt>
      <trkpt lat="43.72694" lon="7.3919">
        <ele>277.06911860446</ele>
        <time>2013-03-12T13:24:50Z</time>
      </trkpt>
      <trkpt lat="43.72694" lon="7.39191">
        <ele>276.98506088832</ele>
        <time>2013-03-12T13:24:55Z</time>
      </trkpt>
      <trkpt lat="43.72691" lon="7.39194">
        <ele>276.90100317219</ele>
        <time>2013-03-12T13:25:00Z</time>
      </trkpt>
      <trkpt lat="43.72691" lon="7.39195">
        <ele>276.90100317219</ele>
        <time>2013-03-12T13:25:05Z</time>
      </trkpt>
      <trkpt lat="43.7269" lon="7.39196">
        <ele>276.90100317219</ele>
        <time>2013-03-12T13:25:10Z</time>
      </trkpt>
      <trkpt lat="43.72689" lon="7.39197">
        <ele>276.90100317219</ele>
        <time>2013-03-12T13:25:15Z</time>
      </trkpt>
      <trkpt lat="43.72689" lon="7.39197">
        <ele>276.90100317219</ele>
        <time>2013-03-12T13:25:20Z</time>
      </trkpt>
      <trkpt lat="43.72687" lon="7.39198">
        <ele>276.90100317219</ele>
        <time>2013-03-12T13:25:25Z</time>
      </trkpt>
      <trkpt lat="43.72682" lon="7.392">
        <ele>276.66430418608</ele>
        <time>2013-03-12T13:25:30Z</time>
      </trkpt>
      <trkpt lat="43.72682" lon="7.392">
        <ele>276.66430418608</ele>
        <time>2013-03-12T13:25:35Z</time>
      </trkpt>
      <trkpt lat="43.72682" lon="7.392">
        <ele>276.66430418608</ele>
        <time>2013-03-12T13:25:40Z</time>
      </trkpt>
      <trkpt lat="43.72682" lon="7.392">
        <ele>276.66430418608</ele>
        <time>2013-03-12T13:25:45Z</time>
      </trkpt>
      <trkpt lat="43.72682" lon="7.392">
        <ele>276.66430418608</ele>
        <time>2013-03-12T13:25:50Z</time>
      </trkpt>
      <trkpt lat="43.72682" lon="7.392">
        <ele>276.66430418608</ele>
        <time>2013-03-12T13:25:55Z</time>
      </trkpt>
      <trkpt lat="43.72682" lon="7.392">
        <ele>276.66430418608</ele>
        <time>2013-03-12T13:26:00Z</time>
      </trkpt>
      <trkpt lat="43.72682" lon="7.392">
        <ele>276.66430418608</ele>
        <time>2013-03-12T13:26:05Z</time>
      </trkpt>
      <trkpt lat="43.72682" lon="7.392">
        <ele>276.66430418608</ele>
        <time>2013-03-12T13:26:10Z</time>
      </trkpt>
      <trkpt lat="43.72682" lon="7.392">
        <ele>276.66430418608</ele>
        <time>2013-03-12T13:26:15Z</time>
      </trkpt>
      <trkpt lat="43.72682" lon="7.392">
        <ele>276.66430418608</ele>
        <time>2013-03-12T13:26:20Z</time>
      </trkpt>
      <trkpt lat="43.7268" lon="7.39201">
        <ele>276.66430418608</ele>
        <time>2013-03-12T13:26:25Z</time>
      </trkpt>
      <trkpt lat="43.7268" lon="7.392">
        <ele>276.66430418608</ele>
        <time>2013-03-12T13:26:30Z</time>
      </trkpt>
      <trkpt lat="43.72676" lon="7.392">
        <ele>276.3327224902</ele>
        <time>2013-03-12T13:26:35Z</time>
      </trkpt>
      <trkpt lat="43.72676" lon="7.39203">
        <ele>276.3327224902</ele>
        <time>2013-03-12T13:26:40Z</time>
      </trkpt>
      <trkpt lat="43.72676" lon="7.39204">
        <ele>276.3327224902</ele>
        <time>2013-03-12T13:26:45Z</time>
      </trkpt>
      <trkpt lat="43.72675" lon="7.39203">
        <ele>276.3327224902</ele>
        <time>2013-03-12T13:26:50Z</time>
      </trkpt>
      <trkpt lat="43.72675" lon="7.39202">
        <ele>276.3327224902</ele>
        <time>2013-03-12T13:26:55Z</time>
      </trkpt>
      <trkpt lat="43.72675" lon="7.39202">
        <ele>276.3327224902</ele>
        <time>2013-03-12T13:27:00Z</time>
      </trkpt>
      <trkpt lat="43.72675" lon="7.39202">
        <ele>276.3327224902</ele>
        <time>2013-03-12T13:27:05Z</time>
      </trkpt>
      <trkpt lat="43.72675" lon="7.39203">
        <ele>276.3327224902</ele>
        <time>2013-03-12T13:27:10Z</time>
      </trkpt>
      <trkpt lat="43.72677" lon="7.39207">
        <ele>276.3327224902</ele>
        <time>2013-03-12T13:27:15Z</time>
      </trkpt>
      <trkpt lat="43.72673" lon="7.39199">
        <ele>275.88489245922</ele>
        <time>2013-03-12T13:27:20Z</time>
      </trkpt>
      <trkpt lat="43.72671" lon="7.39196">
        <ele>275.83158753743</ele>
        <time>2013-03-12T13:27:25Z</time>
      </trkpt>
      <trkpt lat="43.72669" lon="7.39195">
        <ele>275.77828261564</ele>
        <time>2013-03-12T13:27:30Z</time>
      </trkpt>
      <trkpt lat="43.72675" lon="7.39201">
        <ele>275.72497769385</ele>
        <time>2013-03-12T13:27:35Z</time>
      </trkpt>
      <trkpt lat="43.72678" lon="7.39209">
        <ele>275.67167277205</ele>
        <time>2013-03-12T13:27:40Z</time>
      </trkpt>
      <trkpt lat="43.7268" lon="7.39209">
        <ele>275.61836785026</ele>
        <time>2013-03-12T13:27:45Z</time>
      </trkpt>
      <trkpt lat="43.72678" lon="7.39209">
        <ele>275.61836785026</ele>
        <time>2013-03-12T13:27:50Z</time>
      </trkpt>
      <trkpt lat="43.72675" lon="7.39208">
        <ele>275.61836785026</ele>
        <time>2013-03-12T13:27:55Z</time>
      </trkpt>
      <trkpt lat="43.72678" lon="7.39209">
        <ele>275.61836785026</ele>
        <time>2013-03-12T13:28:00Z</time>
      </trkpt>
      <trkpt lat="43.72677" lon="7.39213">
        <ele>275.3471594059</ele>
        <time>2013-03-12T13:28:05Z</time>
      </trkpt>
    </trkseg>
  </trk>
</gpx>